<?xml version="1.0" encoding="UTF-8" standalone="no" ?>
<gpx xmlns="http://www.topografix.com/GPX/1/1" xmlns:xsi="http://www.w3.org/2001/XMLSchema-instance" xsi:schemaLocation="http://www.topografix.com/GPX/1/1 http://www.topografix.com/GPX/1/1/gpx.xsd" version="1.1" creator="VisuGPX - https://www.visugpx.com">
  <metadata>
    <name>VTT-Le suquet-loda</name>
    <desc><![CDATA[Déniv réel : 1100m
Montée sur petite route jusqu\'a balise 163,
Sentier sympa jusqu\'a la 120
montée sur route jusqu\'a la 189, puis piste jusqu\'a la 194
Puis GR jusqu\'au suquet : empiéré, mal balisé et plutot sale, pas plaisant du tout....]]></desc>
  </metadata>
  <trk>
    <name><![CDATA[VTT-loda le suquet]]></name>
    <trkseg>
      <trkpt lat="43.94282" lon="7.28279">
        <ele>343.79998779297</ele>
        <time>2012-09-09T07:15:43.000Z</time>
      </trkpt>
      <trkpt lat="43.94284" lon="7.28285">
        <ele>344</ele>
        <time>2012-09-09T07:15:50.000Z</time>
      </trkpt>
      <trkpt lat="43.94275" lon="7.28306">
        <ele>344.20001220703</ele>
        <time>2012-09-09T07:16:10.000Z</time>
      </trkpt>
      <trkpt lat="43.94279" lon="7.28294">
        <ele>344</ele>
        <time>2012-09-09T07:16:47.000Z</time>
      </trkpt>
      <trkpt lat="43.94279" lon="7.28299">
        <ele>344.20001220703</ele>
        <time>2012-09-09T07:16:58.000Z</time>
      </trkpt>
      <trkpt lat="43.94284" lon="7.28304">
        <ele>344.39999389648</ele>
        <time>2012-09-09T07:17:02.000Z</time>
      </trkpt>
      <trkpt lat="43.94301" lon="7.2829">
        <ele>344.39999389648</ele>
        <time>2012-09-09T07:17:08.000Z</time>
      </trkpt>
      <trkpt lat="43.94312" lon="7.28278">
        <ele>344</ele>
        <time>2012-09-09T07:17:12.000Z</time>
      </trkpt>
      <trkpt lat="43.94324" lon="7.28277">
        <ele>344.20001220703</ele>
        <time>2012-09-09T07:17:16.000Z</time>
      </trkpt>
      <trkpt lat="43.94343" lon="7.28282">
        <ele>345.20001220703</ele>
        <time>2012-09-09T07:17:21.000Z</time>
      </trkpt>
      <trkpt lat="43.94361" lon="7.28291">
        <ele>346.39999389648</ele>
        <time>2012-09-09T07:17:26.000Z</time>
      </trkpt>
      <trkpt lat="43.94366" lon="7.28292">
        <ele>346.60000610352</ele>
        <time>2012-09-09T07:17:27.000Z</time>
      </trkpt>
      <trkpt lat="43.94401" lon="7.28296">
        <ele>347.79998779297</ele>
        <time>2012-09-09T07:17:33.000Z</time>
      </trkpt>
      <trkpt lat="43.94425" lon="7.28311">
        <ele>348.39999389648</ele>
        <time>2012-09-09T07:17:40.000Z</time>
      </trkpt>
      <trkpt lat="43.94434" lon="7.28314">
        <ele>349.20001220703</ele>
        <time>2012-09-09T07:17:42.000Z</time>
      </trkpt>
      <trkpt lat="43.94446" lon="7.2832">
        <ele>350.20001220703</ele>
        <time>2012-09-09T07:17:45.000Z</time>
      </trkpt>
      <trkpt lat="43.9447" lon="7.28331">
        <ele>351.20001220703</ele>
        <time>2012-09-09T07:17:51.000Z</time>
      </trkpt>
      <trkpt lat="43.94492" lon="7.28337">
        <ele>352.79998779297</ele>
        <time>2012-09-09T07:17:56.000Z</time>
      </trkpt>
      <trkpt lat="43.94514" lon="7.28347">
        <ele>354.60000610352</ele>
        <time>2012-09-09T07:18:02.000Z</time>
      </trkpt>
      <trkpt lat="43.94521" lon="7.28351">
        <ele>355</ele>
        <time>2012-09-09T07:18:04.000Z</time>
      </trkpt>
      <trkpt lat="43.94548" lon="7.28364">
        <ele>356.60000610352</ele>
        <time>2012-09-09T07:18:11.000Z</time>
      </trkpt>
      <trkpt lat="43.94567" lon="7.28369">
        <ele>358</ele>
        <time>2012-09-09T07:18:15.000Z</time>
      </trkpt>
      <trkpt lat="43.94572" lon="7.28374">
        <ele>357.39999389648</ele>
        <time>2012-09-09T07:18:17.000Z</time>
      </trkpt>
      <trkpt lat="43.94599" lon="7.28391">
        <ele>357.60000610352</ele>
        <time>2012-09-09T07:18:25.000Z</time>
      </trkpt>
      <trkpt lat="43.94608" lon="7.284">
        <ele>357.20001220703</ele>
        <time>2012-09-09T07:18:29.000Z</time>
      </trkpt>
      <trkpt lat="43.94633" lon="7.28405">
        <ele>361</ele>
        <time>2012-09-09T07:18:34.000Z</time>
      </trkpt>
      <trkpt lat="43.94635" lon="7.28408">
        <ele>360.60000610352</ele>
        <time>2012-09-09T07:18:35.000Z</time>
      </trkpt>
      <trkpt lat="43.94654" lon="7.28416">
        <ele>361.60000610352</ele>
        <time>2012-09-09T07:18:40.000Z</time>
      </trkpt>
      <trkpt lat="43.9466" lon="7.28421">
        <ele>362</ele>
        <time>2012-09-09T07:18:42.000Z</time>
      </trkpt>
      <trkpt lat="43.94687" lon="7.28444">
        <ele>366.79998779297</ele>
        <time>2012-09-09T07:18:51.000Z</time>
      </trkpt>
      <trkpt lat="43.9471" lon="7.28467">
        <ele>370.60000610352</ele>
        <time>2012-09-09T07:18:58.000Z</time>
      </trkpt>
      <trkpt lat="43.9472" lon="7.28491">
        <ele>369.39999389648</ele>
        <time>2012-09-09T07:19:04.000Z</time>
      </trkpt>
      <trkpt lat="43.94727" lon="7.28515">
        <ele>368.79998779297</ele>
        <time>2012-09-09T07:19:09.000Z</time>
      </trkpt>
      <trkpt lat="43.94736" lon="7.28547">
        <ele>368.39999389648</ele>
        <time>2012-09-09T07:19:16.000Z</time>
      </trkpt>
      <trkpt lat="43.94748" lon="7.28574">
        <ele>368.60000610352</ele>
        <time>2012-09-09T07:19:22.000Z</time>
      </trkpt>
      <trkpt lat="43.9476" lon="7.28601">
        <ele>370.20001220703</ele>
        <time>2012-09-09T07:19:28.000Z</time>
      </trkpt>
      <trkpt lat="43.94767" lon="7.28623">
        <ele>370.60000610352</ele>
        <time>2012-09-09T07:19:33.000Z</time>
      </trkpt>
      <trkpt lat="43.94772" lon="7.28646">
        <ele>370.20001220703</ele>
        <time>2012-09-09T07:19:38.000Z</time>
      </trkpt>
      <trkpt lat="43.94783" lon="7.28671">
        <ele>370.60000610352</ele>
        <time>2012-09-09T07:19:44.000Z</time>
      </trkpt>
      <trkpt lat="43.94793" lon="7.28692">
        <ele>369.79998779297</ele>
        <time>2012-09-09T07:19:50.000Z</time>
      </trkpt>
      <trkpt lat="43.94793" lon="7.28696">
        <ele>369.39999389648</ele>
        <time>2012-09-09T07:19:51.000Z</time>
      </trkpt>
      <trkpt lat="43.94803" lon="7.28714">
        <ele>368.79998779297</ele>
        <time>2012-09-09T07:19:57.000Z</time>
      </trkpt>
      <trkpt lat="43.94805" lon="7.28716">
        <ele>368.79998779297</ele>
        <time>2012-09-09T07:19:58.000Z</time>
      </trkpt>
      <trkpt lat="43.94829" lon="7.28729">
        <ele>371.79998779297</ele>
        <time>2012-09-09T07:20:06.000Z</time>
      </trkpt>
      <trkpt lat="43.94843" lon="7.2874">
        <ele>374.39999389648</ele>
        <time>2012-09-09T07:20:12.000Z</time>
      </trkpt>
      <trkpt lat="43.94857" lon="7.28746">
        <ele>378.20001220703</ele>
        <time>2012-09-09T07:20:17.000Z</time>
      </trkpt>
      <trkpt lat="43.94871" lon="7.28762">
        <ele>379.79998779297</ele>
        <time>2012-09-09T07:20:23.000Z</time>
      </trkpt>
      <trkpt lat="43.94883" lon="7.28779">
        <ele>380.39999389648</ele>
        <time>2012-09-09T07:20:29.000Z</time>
      </trkpt>
      <trkpt lat="43.94899" lon="7.28799">
        <ele>381.60000610352</ele>
        <time>2012-09-09T07:20:36.000Z</time>
      </trkpt>
      <trkpt lat="43.94909" lon="7.28809">
        <ele>382.60000610352</ele>
        <time>2012-09-09T07:20:40.000Z</time>
      </trkpt>
      <trkpt lat="43.94918" lon="7.28816">
        <ele>384.20001220703</ele>
        <time>2012-09-09T07:20:43.000Z</time>
      </trkpt>
      <trkpt lat="43.94924" lon="7.28835">
        <ele>382.60000610352</ele>
        <time>2012-09-09T07:20:47.000Z</time>
      </trkpt>
      <trkpt lat="43.94925" lon="7.28864">
        <ele>380.60000610352</ele>
        <time>2012-09-09T07:20:53.000Z</time>
      </trkpt>
      <trkpt lat="43.94928" lon="7.28888">
        <ele>379.39999389648</ele>
        <time>2012-09-09T07:20:58.000Z</time>
      </trkpt>
      <trkpt lat="43.9493" lon="7.28921">
        <ele>377</ele>
        <time>2012-09-09T07:21:04.000Z</time>
      </trkpt>
      <trkpt lat="43.94931" lon="7.28931">
        <ele>376.39999389648</ele>
        <time>2012-09-09T07:21:06.000Z</time>
      </trkpt>
      <trkpt lat="43.94934" lon="7.28953">
        <ele>375.20001220703</ele>
        <time>2012-09-09T07:21:11.000Z</time>
      </trkpt>
      <trkpt lat="43.94939" lon="7.28975">
        <ele>374.20001220703</ele>
        <time>2012-09-09T07:21:16.000Z</time>
      </trkpt>
      <trkpt lat="43.94946" lon="7.29022">
        <ele>374.20001220703</ele>
        <time>2012-09-09T07:21:26.000Z</time>
      </trkpt>
      <trkpt lat="43.94953" lon="7.29056">
        <ele>378</ele>
        <time>2012-09-09T07:21:34.000Z</time>
      </trkpt>
      <trkpt lat="43.94963" lon="7.29078">
        <ele>381.79998779297</ele>
        <time>2012-09-09T07:21:41.000Z</time>
      </trkpt>
      <trkpt lat="43.94967" lon="7.29095">
        <ele>383.79998779297</ele>
        <time>2012-09-09T07:21:46.000Z</time>
      </trkpt>
      <trkpt lat="43.94967" lon="7.29098">
        <ele>384.20001220703</ele>
        <time>2012-09-09T07:21:47.000Z</time>
      </trkpt>
      <trkpt lat="43.95001" lon="7.29126">
        <ele>394.39999389648</ele>
        <time>2012-09-09T07:21:56.000Z</time>
      </trkpt>
      <trkpt lat="43.95151" lon="7.29195">
        <ele>436.20001220703</ele>
        <time>2012-09-09T07:22:19.000Z</time>
      </trkpt>
      <trkpt lat="43.95067" lon="7.2918">
        <ele>410.60000610352</ele>
        <time>2012-09-09T07:22:24.000Z</time>
      </trkpt>
      <trkpt lat="43.95066" lon="7.29186">
        <ele>409.20001220703</ele>
        <time>2012-09-09T07:22:26.000Z</time>
      </trkpt>
      <trkpt lat="43.95079" lon="7.29221">
        <ele>406.20001220703</ele>
        <time>2012-09-09T07:22:36.000Z</time>
      </trkpt>
      <trkpt lat="43.95092" lon="7.29235">
        <ele>408.60000610352</ele>
        <time>2012-09-09T07:22:42.000Z</time>
      </trkpt>
      <trkpt lat="43.95104" lon="7.29251">
        <ele>411</ele>
        <time>2012-09-09T07:22:48.000Z</time>
      </trkpt>
      <trkpt lat="43.95116" lon="7.29269">
        <ele>413.20001220703</ele>
        <time>2012-09-09T07:22:54.000Z</time>
      </trkpt>
      <trkpt lat="43.95119" lon="7.29293">
        <ele>410.60000610352</ele>
        <time>2012-09-09T07:23:00.000Z</time>
      </trkpt>
      <trkpt lat="43.95124" lon="7.29326">
        <ele>407.20001220703</ele>
        <time>2012-09-09T07:23:08.000Z</time>
      </trkpt>
      <trkpt lat="43.95128" lon="7.29348">
        <ele>406.39999389648</ele>
        <time>2012-09-09T07:23:13.000Z</time>
      </trkpt>
      <trkpt lat="43.95135" lon="7.29374">
        <ele>406.39999389648</ele>
        <time>2012-09-09T07:23:20.000Z</time>
      </trkpt>
      <trkpt lat="43.95142" lon="7.294">
        <ele>405.60000610352</ele>
        <time>2012-09-09T07:23:27.000Z</time>
      </trkpt>
      <trkpt lat="43.95154" lon="7.29419">
        <ele>406.20001220703</ele>
        <time>2012-09-09T07:23:34.000Z</time>
      </trkpt>
      <trkpt lat="43.95172" lon="7.2944">
        <ele>405.60000610352</ele>
        <time>2012-09-09T07:23:42.000Z</time>
      </trkpt>
      <trkpt lat="43.95192" lon="7.29452">
        <ele>411.79998779297</ele>
        <time>2012-09-09T07:23:49.000Z</time>
      </trkpt>
      <trkpt lat="43.95207" lon="7.29467">
        <ele>413.60000610352</ele>
        <time>2012-09-09T07:23:55.000Z</time>
      </trkpt>
      <trkpt lat="43.95219" lon="7.29483">
        <ele>413.39999389648</ele>
        <time>2012-09-09T07:24:01.000Z</time>
      </trkpt>
      <trkpt lat="43.95229" lon="7.29508">
        <ele>410.60000610352</ele>
        <time>2012-09-09T07:24:08.000Z</time>
      </trkpt>
      <trkpt lat="43.95239" lon="7.29528">
        <ele>410.20001220703</ele>
        <time>2012-09-09T07:24:14.000Z</time>
      </trkpt>
      <trkpt lat="43.95254" lon="7.29537">
        <ele>413.20001220703</ele>
        <time>2012-09-09T07:24:20.000Z</time>
      </trkpt>
      <trkpt lat="43.95268" lon="7.29541">
        <ele>417.20001220703</ele>
        <time>2012-09-09T07:24:25.000Z</time>
      </trkpt>
      <trkpt lat="43.95289" lon="7.29545">
        <ele>423.60000610352</ele>
        <time>2012-09-09T07:24:32.000Z</time>
      </trkpt>
      <trkpt lat="43.95294" lon="7.29548">
        <ele>424.79998779297</ele>
        <time>2012-09-09T07:24:34.000Z</time>
      </trkpt>
      <trkpt lat="43.95313" lon="7.2956">
        <ele>427.20001220703</ele>
        <time>2012-09-09T07:24:41.000Z</time>
      </trkpt>
      <trkpt lat="43.95335" lon="7.29571">
        <ele>430.79998779297</ele>
        <time>2012-09-09T07:24:49.000Z</time>
      </trkpt>
      <trkpt lat="43.95354" lon="7.29578">
        <ele>437.20001220703</ele>
        <time>2012-09-09T07:24:56.000Z</time>
      </trkpt>
      <trkpt lat="43.95379" lon="7.29588">
        <ele>444.79998779297</ele>
        <time>2012-09-09T07:25:05.000Z</time>
      </trkpt>
      <trkpt lat="43.95397" lon="7.29601">
        <ele>446.20001220703</ele>
        <time>2012-09-09T07:25:12.000Z</time>
      </trkpt>
      <trkpt lat="43.95408" lon="7.29615">
        <ele>443.39999389648</ele>
        <time>2012-09-09T07:25:17.000Z</time>
      </trkpt>
      <trkpt lat="43.95422" lon="7.29632">
        <ele>441.39999389648</ele>
        <time>2012-09-09T07:25:23.000Z</time>
      </trkpt>
      <trkpt lat="43.9543" lon="7.29651">
        <ele>435.79998779297</ele>
        <time>2012-09-09T07:25:28.000Z</time>
      </trkpt>
      <trkpt lat="43.95442" lon="7.29671">
        <ele>434</ele>
        <time>2012-09-09T07:25:34.000Z</time>
      </trkpt>
      <trkpt lat="43.9545" lon="7.29689">
        <ele>434</ele>
        <time>2012-09-09T07:25:39.000Z</time>
      </trkpt>
      <trkpt lat="43.95462" lon="7.29711">
        <ele>433.60000610352</ele>
        <time>2012-09-09T07:25:46.000Z</time>
      </trkpt>
      <trkpt lat="43.95468" lon="7.29721">
        <ele>432</ele>
        <time>2012-09-09T07:25:49.000Z</time>
      </trkpt>
      <trkpt lat="43.95469" lon="7.29725">
        <ele>431.20001220703</ele>
        <time>2012-09-09T07:25:50.000Z</time>
      </trkpt>
      <trkpt lat="43.95469" lon="7.29725">
        <ele>431.20001220703</ele>
        <time>2012-09-09T07:25:50.000Z</time>
      </trkpt>
      <trkpt lat="43.95482" lon="7.29741">
        <ele>428.79998779297</ele>
        <time>2012-09-09T07:25:56.000Z</time>
      </trkpt>
      <trkpt lat="43.95485" lon="7.29745">
        <ele>427.39999389648</ele>
        <time>2012-09-09T07:25:58.000Z</time>
      </trkpt>
      <trkpt lat="43.95497" lon="7.29755">
        <ele>427.60000610352</ele>
        <time>2012-09-09T07:26:04.000Z</time>
      </trkpt>
      <trkpt lat="43.95514" lon="7.29757">
        <ele>432</ele>
        <time>2012-09-09T07:26:11.000Z</time>
      </trkpt>
      <trkpt lat="43.95532" lon="7.29752">
        <ele>438.60000610352</ele>
        <time>2012-09-09T07:26:17.000Z</time>
      </trkpt>
      <trkpt lat="43.95552" lon="7.29748">
        <ele>447.39999389648</ele>
        <time>2012-09-09T07:26:24.000Z</time>
      </trkpt>
      <trkpt lat="43.95567" lon="7.29749">
        <ele>451.20001220703</ele>
        <time>2012-09-09T07:26:29.000Z</time>
      </trkpt>
      <trkpt lat="43.95584" lon="7.29754">
        <ele>454.79998779297</ele>
        <time>2012-09-09T07:26:35.000Z</time>
      </trkpt>
      <trkpt lat="43.95608" lon="7.29765">
        <ele>464.79998779297</ele>
        <time>2012-09-09T07:26:43.000Z</time>
      </trkpt>
      <trkpt lat="43.95629" lon="7.29777">
        <ele>469</ele>
        <time>2012-09-09T07:26:51.000Z</time>
      </trkpt>
      <trkpt lat="43.95647" lon="7.29793">
        <ele>467.20001220703</ele>
        <time>2012-09-09T07:26:58.000Z</time>
      </trkpt>
      <trkpt lat="43.95663" lon="7.29808">
        <ele>461.39999389648</ele>
        <time>2012-09-09T07:27:05.000Z</time>
      </trkpt>
      <trkpt lat="43.95675" lon="7.29823">
        <ele>454</ele>
        <time>2012-09-09T07:27:10.000Z</time>
      </trkpt>
      <trkpt lat="43.95693" lon="7.29844">
        <ele>447.60000610352</ele>
        <time>2012-09-09T07:27:18.000Z</time>
      </trkpt>
      <trkpt lat="43.95705" lon="7.29867">
        <ele>442.60000610352</ele>
        <time>2012-09-09T07:27:25.000Z</time>
      </trkpt>
      <trkpt lat="43.95718" lon="7.29885">
        <ele>439.79998779297</ele>
        <time>2012-09-09T07:27:31.000Z</time>
      </trkpt>
      <trkpt lat="43.95733" lon="7.29905">
        <ele>436.39999389648</ele>
        <time>2012-09-09T07:27:37.000Z</time>
      </trkpt>
      <trkpt lat="43.95753" lon="7.29916">
        <ele>438.60000610352</ele>
        <time>2012-09-09T07:27:43.000Z</time>
      </trkpt>
      <trkpt lat="43.95774" lon="7.29917">
        <ele>441.79998779297</ele>
        <time>2012-09-09T07:27:48.000Z</time>
      </trkpt>
      <trkpt lat="43.95796" lon="7.29915">
        <ele>445.60000610352</ele>
        <time>2012-09-09T07:27:52.000Z</time>
      </trkpt>
      <trkpt lat="43.95819" lon="7.29931">
        <ele>446</ele>
        <time>2012-09-09T07:27:57.000Z</time>
      </trkpt>
      <trkpt lat="43.95831" lon="7.29947">
        <ele>445.79998779297</ele>
        <time>2012-09-09T07:28:00.000Z</time>
      </trkpt>
      <trkpt lat="43.95841" lon="7.29972">
        <ele>446.39999389648</ele>
        <time>2012-09-09T07:28:04.000Z</time>
      </trkpt>
      <trkpt lat="43.95853" lon="7.30012">
        <ele>445</ele>
        <time>2012-09-09T07:28:10.000Z</time>
      </trkpt>
      <trkpt lat="43.95866" lon="7.30046">
        <ele>443.60000610352</ele>
        <time>2012-09-09T07:28:15.000Z</time>
      </trkpt>
      <trkpt lat="43.95878" lon="7.30102">
        <ele>439</ele>
        <time>2012-09-09T07:28:22.000Z</time>
      </trkpt>
      <trkpt lat="43.95885" lon="7.30166">
        <ele>437.39999389648</ele>
        <time>2012-09-09T07:28:30.000Z</time>
      </trkpt>
      <trkpt lat="43.95891" lon="7.30213">
        <ele>434.20001220703</ele>
        <time>2012-09-09T07:28:36.000Z</time>
      </trkpt>
      <trkpt lat="43.95894" lon="7.30251">
        <ele>430.20001220703</ele>
        <time>2012-09-09T07:28:41.000Z</time>
      </trkpt>
      <trkpt lat="43.95898" lon="7.30264">
        <ele>428.79998779297</ele>
        <time>2012-09-09T07:28:43.000Z</time>
      </trkpt>
      <trkpt lat="43.95926" lon="7.30281">
        <ele>431.20001220703</ele>
        <time>2012-09-09T07:28:49.000Z</time>
      </trkpt>
      <trkpt lat="43.95936" lon="7.30281">
        <ele>432.20001220703</ele>
        <time>2012-09-09T07:28:51.000Z</time>
      </trkpt>
      <trkpt lat="43.95967" lon="7.30271">
        <ele>437.60000610352</ele>
        <time>2012-09-09T07:28:57.000Z</time>
      </trkpt>
      <trkpt lat="43.95977" lon="7.30269">
        <ele>439.20001220703</ele>
        <time>2012-09-09T07:28:59.000Z</time>
      </trkpt>
      <trkpt lat="43.9601" lon="7.30259">
        <ele>445</ele>
        <time>2012-09-09T07:29:05.000Z</time>
      </trkpt>
      <trkpt lat="43.96026" lon="7.30257">
        <ele>446.39999389648</ele>
        <time>2012-09-09T07:29:08.000Z</time>
      </trkpt>
      <trkpt lat="43.96056" lon="7.30263">
        <ele>446.60000610352</ele>
        <time>2012-09-09T07:29:13.000Z</time>
      </trkpt>
      <trkpt lat="43.96073" lon="7.3027">
        <ele>446.20001220703</ele>
        <time>2012-09-09T07:29:16.000Z</time>
      </trkpt>
      <trkpt lat="43.96092" lon="7.30274">
        <ele>448</ele>
        <time>2012-09-09T07:29:20.000Z</time>
      </trkpt>
      <trkpt lat="43.96102" lon="7.30274">
        <ele>449.79998779297</ele>
        <time>2012-09-09T07:29:22.000Z</time>
      </trkpt>
      <trkpt lat="43.96121" lon="7.30288">
        <ele>450.20001220703</ele>
        <time>2012-09-09T07:29:26.000Z</time>
      </trkpt>
      <trkpt lat="43.96125" lon="7.30292">
        <ele>449.79998779297</ele>
        <time>2012-09-09T07:29:27.000Z</time>
      </trkpt>
      <trkpt lat="43.96127" lon="7.30296">
        <ele>449.39999389648</ele>
        <time>2012-09-09T07:29:28.000Z</time>
      </trkpt>
      <trkpt lat="43.96127" lon="7.30296">
        <ele>449.39999389648</ele>
        <time>2012-09-09T07:29:28.000Z</time>
      </trkpt>
      <trkpt lat="43.96151" lon="7.30306">
        <ele>450.39999389648</ele>
        <time>2012-09-09T07:29:33.000Z</time>
      </trkpt>
      <trkpt lat="43.96163" lon="7.30314">
        <ele>450.20001220703</ele>
        <time>2012-09-09T07:29:36.000Z</time>
      </trkpt>
      <trkpt lat="43.96185" lon="7.30318">
        <ele>446.60000610352</ele>
        <time>2012-09-09T07:29:41.000Z</time>
      </trkpt>
      <trkpt lat="43.9619" lon="7.30315">
        <ele>446.60000610352</ele>
        <time>2012-09-09T07:29:42.000Z</time>
      </trkpt>
      <trkpt lat="43.96199" lon="7.30316">
        <ele>445.20001220703</ele>
        <time>2012-09-09T07:29:44.000Z</time>
      </trkpt>
      <trkpt lat="43.96206" lon="7.30325">
        <ele>442</ele>
        <time>2012-09-09T07:29:46.000Z</time>
      </trkpt>
      <trkpt lat="43.96229" lon="7.3032">
        <ele>439.60000610352</ele>
        <time>2012-09-09T07:29:50.000Z</time>
      </trkpt>
      <trkpt lat="43.96252" lon="7.30313">
        <ele>436.79998779297</ele>
        <time>2012-09-09T07:29:54.000Z</time>
      </trkpt>
      <trkpt lat="43.96271" lon="7.303">
        <ele>432.39999389648</ele>
        <time>2012-09-09T07:29:58.000Z</time>
      </trkpt>
      <trkpt lat="43.96288" lon="7.30283">
        <ele>429.60000610352</ele>
        <time>2012-09-09T07:30:02.000Z</time>
      </trkpt>
      <trkpt lat="43.96309" lon="7.3026">
        <ele>427</ele>
        <time>2012-09-09T07:30:08.000Z</time>
      </trkpt>
      <trkpt lat="43.96333" lon="7.30238">
        <ele>424</ele>
        <time>2012-09-09T07:30:13.000Z</time>
      </trkpt>
      <trkpt lat="43.96345" lon="7.30229">
        <ele>425</ele>
        <time>2012-09-09T07:30:16.000Z</time>
      </trkpt>
      <trkpt lat="43.96368" lon="7.30219">
        <ele>427</ele>
        <time>2012-09-09T07:30:22.000Z</time>
      </trkpt>
      <trkpt lat="43.96398" lon="7.30208">
        <ele>429.79998779297</ele>
        <time>2012-09-09T07:30:29.000Z</time>
      </trkpt>
      <trkpt lat="43.96408" lon="7.30207">
        <ele>430</ele>
        <time>2012-09-09T07:30:31.000Z</time>
      </trkpt>
      <trkpt lat="43.96419" lon="7.30211">
        <ele>429.79998779297</ele>
        <time>2012-09-09T07:30:34.000Z</time>
      </trkpt>
      <trkpt lat="43.96443" lon="7.30222">
        <ele>431.79998779297</ele>
        <time>2012-09-09T07:30:40.000Z</time>
      </trkpt>
      <trkpt lat="43.9646" lon="7.30229">
        <ele>433</ele>
        <time>2012-09-09T07:30:44.000Z</time>
      </trkpt>
      <trkpt lat="43.96475" lon="7.30235">
        <ele>434</ele>
        <time>2012-09-09T07:30:48.000Z</time>
      </trkpt>
      <trkpt lat="43.96509" lon="7.30261">
        <ele>433.60000610352</ele>
        <time>2012-09-09T07:30:58.000Z</time>
      </trkpt>
      <trkpt lat="43.96532" lon="7.30283">
        <ele>435</ele>
        <time>2012-09-09T07:31:05.000Z</time>
      </trkpt>
      <trkpt lat="43.9655" lon="7.30305">
        <ele>433.79998779297</ele>
        <time>2012-09-09T07:31:11.000Z</time>
      </trkpt>
      <trkpt lat="43.9656" lon="7.30325">
        <ele>430.20001220703</ele>
        <time>2012-09-09T07:31:15.000Z</time>
      </trkpt>
      <trkpt lat="43.96565" lon="7.30341">
        <ele>427.79998779297</ele>
        <time>2012-09-09T07:31:18.000Z</time>
      </trkpt>
      <trkpt lat="43.96586" lon="7.30364">
        <ele>428</ele>
        <time>2012-09-09T07:31:24.000Z</time>
      </trkpt>
      <trkpt lat="43.966" lon="7.30375">
        <ele>428.39999389648</ele>
        <time>2012-09-09T07:31:28.000Z</time>
      </trkpt>
      <trkpt lat="43.96614" lon="7.30387">
        <ele>428.39999389648</ele>
        <time>2012-09-09T07:31:32.000Z</time>
      </trkpt>
      <trkpt lat="43.96642" lon="7.3041">
        <ele>427.60000610352</ele>
        <time>2012-09-09T07:31:40.000Z</time>
      </trkpt>
      <trkpt lat="43.96646" lon="7.30413">
        <ele>427.60000610352</ele>
        <time>2012-09-09T07:31:41.000Z</time>
      </trkpt>
      <trkpt lat="43.96675" lon="7.30431">
        <ele>428.20001220703</ele>
        <time>2012-09-09T07:31:49.000Z</time>
      </trkpt>
      <trkpt lat="43.96693" lon="7.30433">
        <ele>430.79998779297</ele>
        <time>2012-09-09T07:31:54.000Z</time>
      </trkpt>
      <trkpt lat="43.96706" lon="7.3044">
        <ele>431.79998779297</ele>
        <time>2012-09-09T07:31:58.000Z</time>
      </trkpt>
      <trkpt lat="43.96723" lon="7.30459">
        <ele>431.20001220703</ele>
        <time>2012-09-09T07:32:03.000Z</time>
      </trkpt>
      <trkpt lat="43.96729" lon="7.30465">
        <ele>431</ele>
        <time>2012-09-09T07:32:05.000Z</time>
      </trkpt>
      <trkpt lat="43.96756" lon="7.30476">
        <ele>433.60000610352</ele>
        <time>2012-09-09T07:32:11.000Z</time>
      </trkpt>
      <trkpt lat="43.96776" lon="7.30498">
        <ele>433.20001220703</ele>
        <time>2012-09-09T07:32:18.000Z</time>
      </trkpt>
      <trkpt lat="43.96794" lon="7.30514">
        <ele>433.20001220703</ele>
        <time>2012-09-09T07:32:24.000Z</time>
      </trkpt>
      <trkpt lat="43.9681" lon="7.30524">
        <ele>434.39999389648</ele>
        <time>2012-09-09T07:32:29.000Z</time>
      </trkpt>
      <trkpt lat="43.96834" lon="7.30532">
        <ele>437.20001220703</ele>
        <time>2012-09-09T07:32:35.000Z</time>
      </trkpt>
      <trkpt lat="43.96846" lon="7.30536">
        <ele>440</ele>
        <time>2012-09-09T07:32:37.000Z</time>
      </trkpt>
      <trkpt lat="43.96859" lon="7.30556">
        <ele>439.79998779297</ele>
        <time>2012-09-09T07:32:42.000Z</time>
      </trkpt>
      <trkpt lat="43.96872" lon="7.30572">
        <ele>440.20001220703</ele>
        <time>2012-09-09T07:32:47.000Z</time>
      </trkpt>
      <trkpt lat="43.96896" lon="7.306">
        <ele>441.79998779297</ele>
        <time>2012-09-09T07:32:55.000Z</time>
      </trkpt>
      <trkpt lat="43.96907" lon="7.30614">
        <ele>442.39999389648</ele>
        <time>2012-09-09T07:32:59.000Z</time>
      </trkpt>
      <trkpt lat="43.96914" lon="7.30627">
        <ele>442</ele>
        <time>2012-09-09T07:33:02.000Z</time>
      </trkpt>
      <trkpt lat="43.9692" lon="7.30653">
        <ele>439.60000610352</ele>
        <time>2012-09-09T07:33:07.000Z</time>
      </trkpt>
      <trkpt lat="43.96925" lon="7.30675">
        <ele>438.20001220703</ele>
        <time>2012-09-09T07:33:11.000Z</time>
      </trkpt>
      <trkpt lat="43.96931" lon="7.30708">
        <ele>437</ele>
        <time>2012-09-09T07:33:17.000Z</time>
      </trkpt>
      <trkpt lat="43.96933" lon="7.30724">
        <ele>435.79998779297</ele>
        <time>2012-09-09T07:33:20.000Z</time>
      </trkpt>
      <trkpt lat="43.96947" lon="7.30754">
        <ele>437.39999389648</ele>
        <time>2012-09-09T07:33:27.000Z</time>
      </trkpt>
      <trkpt lat="43.9696" lon="7.30775">
        <ele>441</ele>
        <time>2012-09-09T07:33:32.000Z</time>
      </trkpt>
      <trkpt lat="43.96962" lon="7.308">
        <ele>440.60000610352</ele>
        <time>2012-09-09T07:33:37.000Z</time>
      </trkpt>
      <trkpt lat="43.96961" lon="7.30833">
        <ele>439.20001220703</ele>
        <time>2012-09-09T07:33:43.000Z</time>
      </trkpt>
      <trkpt lat="43.96957" lon="7.30862">
        <ele>438.60000610352</ele>
        <time>2012-09-09T07:33:49.000Z</time>
      </trkpt>
      <trkpt lat="43.96947" lon="7.3088">
        <ele>436.20001220703</ele>
        <time>2012-09-09T07:33:53.000Z</time>
      </trkpt>
      <trkpt lat="43.96939" lon="7.30898">
        <ele>434.79998779297</ele>
        <time>2012-09-09T07:33:56.000Z</time>
      </trkpt>
      <trkpt lat="43.96944" lon="7.30926">
        <ele>438</ele>
        <time>2012-09-09T07:34:01.000Z</time>
      </trkpt>
      <trkpt lat="43.96952" lon="7.30947">
        <ele>442.20001220703</ele>
        <time>2012-09-09T07:34:05.000Z</time>
      </trkpt>
      <trkpt lat="43.9696" lon="7.30961">
        <ele>445</ele>
        <time>2012-09-09T07:34:08.000Z</time>
      </trkpt>
      <trkpt lat="43.9697" lon="7.30971">
        <ele>446.79998779297</ele>
        <time>2012-09-09T07:34:11.000Z</time>
      </trkpt>
      <trkpt lat="43.96969" lon="7.30993">
        <ele>448.39999389648</ele>
        <time>2012-09-09T07:34:15.000Z</time>
      </trkpt>
      <trkpt lat="43.96963" lon="7.31004">
        <ele>450.39999389648</ele>
        <time>2012-09-09T07:34:17.000Z</time>
      </trkpt>
      <trkpt lat="43.96948" lon="7.31017">
        <ele>456.20001220703</ele>
        <time>2012-09-09T07:34:22.000Z</time>
      </trkpt>
      <trkpt lat="43.96944" lon="7.31017">
        <ele>456.20001220703</ele>
        <time>2012-09-09T07:34:23.000Z</time>
      </trkpt>
      <trkpt lat="43.96911" lon="7.30997">
        <ele>449.79998779297</ele>
        <time>2012-09-09T07:34:33.000Z</time>
      </trkpt>
      <trkpt lat="43.96893" lon="7.30982">
        <ele>450.79998779297</ele>
        <time>2012-09-09T07:34:40.000Z</time>
      </trkpt>
      <trkpt lat="43.96866" lon="7.30962">
        <ele>451.39999389648</ele>
        <time>2012-09-09T07:34:50.000Z</time>
      </trkpt>
      <trkpt lat="43.96853" lon="7.3095">
        <ele>450.60000610352</ele>
        <time>2012-09-09T07:34:56.000Z</time>
      </trkpt>
      <trkpt lat="43.96838" lon="7.30931">
        <ele>447.20001220703</ele>
        <time>2012-09-09T07:35:03.000Z</time>
      </trkpt>
      <trkpt lat="43.96818" lon="7.30916">
        <ele>447.60000610352</ele>
        <time>2012-09-09T07:35:10.000Z</time>
      </trkpt>
      <trkpt lat="43.96798" lon="7.30905">
        <ele>450.39999389648</ele>
        <time>2012-09-09T07:35:17.000Z</time>
      </trkpt>
      <trkpt lat="43.96783" lon="7.30892">
        <ele>451</ele>
        <time>2012-09-09T07:35:23.000Z</time>
      </trkpt>
      <trkpt lat="43.96766" lon="7.30876">
        <ele>450.39999389648</ele>
        <time>2012-09-09T07:35:29.000Z</time>
      </trkpt>
      <trkpt lat="43.96753" lon="7.30862">
        <ele>449</ele>
        <time>2012-09-09T07:35:35.000Z</time>
      </trkpt>
      <trkpt lat="43.96734" lon="7.30846">
        <ele>445</ele>
        <time>2012-09-09T07:35:43.000Z</time>
      </trkpt>
      <trkpt lat="43.96718" lon="7.30833">
        <ele>440.79998779297</ele>
        <time>2012-09-09T07:35:49.000Z</time>
      </trkpt>
      <trkpt lat="43.967" lon="7.30815">
        <ele>436</ele>
        <time>2012-09-09T07:35:57.000Z</time>
      </trkpt>
      <trkpt lat="43.96683" lon="7.3081">
        <ele>435</ele>
        <time>2012-09-09T07:36:03.000Z</time>
      </trkpt>
      <trkpt lat="43.96675" lon="7.30821">
        <ele>438.79998779297</ele>
        <time>2012-09-09T07:36:07.000Z</time>
      </trkpt>
      <trkpt lat="43.96671" lon="7.30835">
        <ele>443.79998779297</ele>
        <time>2012-09-09T07:36:11.000Z</time>
      </trkpt>
      <trkpt lat="43.9667" lon="7.30863">
        <ele>455.39999389648</ele>
        <time>2012-09-09T07:36:16.000Z</time>
      </trkpt>
      <trkpt lat="43.96661" lon="7.30877">
        <ele>461</ele>
        <time>2012-09-09T07:36:20.000Z</time>
      </trkpt>
      <trkpt lat="43.96651" lon="7.3088">
        <ele>461.39999389648</ele>
        <time>2012-09-09T07:36:25.000Z</time>
      </trkpt>
      <trkpt lat="43.96646" lon="7.3088">
        <ele>461.20001220703</ele>
        <time>2012-09-09T07:36:29.000Z</time>
      </trkpt>
      <trkpt lat="43.9664" lon="7.30886">
        <ele>462.60000610352</ele>
        <time>2012-09-09T07:36:33.000Z</time>
      </trkpt>
      <trkpt lat="43.96627" lon="7.30905">
        <ele>466.79998779297</ele>
        <time>2012-09-09T07:36:39.000Z</time>
      </trkpt>
      <trkpt lat="43.96623" lon="7.30914">
        <ele>469</ele>
        <time>2012-09-09T07:36:42.000Z</time>
      </trkpt>
      <trkpt lat="43.96622" lon="7.30933">
        <ele>476.79998779297</ele>
        <time>2012-09-09T07:36:49.000Z</time>
      </trkpt>
      <trkpt lat="43.9661" lon="7.30944">
        <ele>479.79998779297</ele>
        <time>2012-09-09T07:36:55.000Z</time>
      </trkpt>
      <trkpt lat="43.966" lon="7.30952">
        <ele>482.20001220703</ele>
        <time>2012-09-09T07:37:01.000Z</time>
      </trkpt>
      <trkpt lat="43.96602" lon="7.3095">
        <ele>481.39999389648</ele>
        <time>2012-09-09T07:37:03.000Z</time>
      </trkpt>
      <trkpt lat="43.96608" lon="7.30952">
        <ele>483.20001220703</ele>
        <time>2012-09-09T07:37:07.000Z</time>
      </trkpt>
      <trkpt lat="43.9661" lon="7.30954">
        <ele>484.60000610352</ele>
        <time>2012-09-09T07:37:09.000Z</time>
      </trkpt>
      <trkpt lat="43.96609" lon="7.30955">
        <ele>484.79998779297</ele>
        <time>2012-09-09T07:37:14.000Z</time>
      </trkpt>
      <trkpt lat="43.96611" lon="7.30935">
        <ele>476</ele>
        <time>2012-09-09T07:37:18.000Z</time>
      </trkpt>
      <trkpt lat="43.96616" lon="7.30911">
        <ele>466.79998779297</ele>
        <time>2012-09-09T07:37:24.000Z</time>
      </trkpt>
      <trkpt lat="43.96626" lon="7.3089">
        <ele>462.39999389648</ele>
        <time>2012-09-09T07:37:31.000Z</time>
      </trkpt>
      <trkpt lat="43.96635" lon="7.30878">
        <ele>459.60000610352</ele>
        <time>2012-09-09T07:37:35.000Z</time>
      </trkpt>
      <trkpt lat="43.96633" lon="7.30855">
        <ele>452.39999389648</ele>
        <time>2012-09-09T07:37:40.000Z</time>
      </trkpt>
      <trkpt lat="43.96623" lon="7.30835">
        <ele>446.60000610352</ele>
        <time>2012-09-09T07:37:45.000Z</time>
      </trkpt>
      <trkpt lat="43.9661" lon="7.30822">
        <ele>444.60000610352</ele>
        <time>2012-09-09T07:37:49.000Z</time>
      </trkpt>
      <trkpt lat="43.96606" lon="7.30818">
        <ele>444.20001220703</ele>
        <time>2012-09-09T07:37:50.000Z</time>
      </trkpt>
      <trkpt lat="43.96593" lon="7.30806">
        <ele>443.20001220703</ele>
        <time>2012-09-09T07:37:54.000Z</time>
      </trkpt>
      <trkpt lat="43.96567" lon="7.30792">
        <ele>449.79998779297</ele>
        <time>2012-09-09T07:38:00.000Z</time>
      </trkpt>
      <trkpt lat="43.96563" lon="7.30791">
        <ele>451.39999389648</ele>
        <time>2012-09-09T07:38:01.000Z</time>
      </trkpt>
      <trkpt lat="43.96512" lon="7.30785">
        <ele>472.79998779297</ele>
        <time>2012-09-09T07:38:07.000Z</time>
      </trkpt>
      <trkpt lat="43.96497" lon="7.30783">
        <ele>482.20001220703</ele>
        <time>2012-09-09T07:38:10.000Z</time>
      </trkpt>
      <trkpt lat="43.96484" lon="7.30779">
        <ele>500.60000610352</ele>
        <time>2012-09-09T07:38:14.000Z</time>
      </trkpt>
      <trkpt lat="43.96471" lon="7.30768">
        <ele>519</ele>
        <time>2012-09-09T07:38:20.000Z</time>
      </trkpt>
      <trkpt lat="43.96463" lon="7.30751">
        <ele>528.59997558594</ele>
        <time>2012-09-09T07:38:26.000Z</time>
      </trkpt>
      <trkpt lat="43.96456" lon="7.30734">
        <ele>522.40002441406</ele>
        <time>2012-09-09T07:38:32.000Z</time>
      </trkpt>
      <trkpt lat="43.9645" lon="7.30718">
        <ele>514</ele>
        <time>2012-09-09T07:38:38.000Z</time>
      </trkpt>
      <trkpt lat="43.96443" lon="7.30699">
        <ele>500.60000610352</ele>
        <time>2012-09-09T07:38:45.000Z</time>
      </trkpt>
      <trkpt lat="43.96437" lon="7.30681">
        <ele>483</ele>
        <time>2012-09-09T07:38:52.000Z</time>
      </trkpt>
      <trkpt lat="43.96418" lon="7.30665">
        <ele>476</ele>
        <time>2012-09-09T07:39:01.000Z</time>
      </trkpt>
      <trkpt lat="43.96402" lon="7.30648">
        <ele>492.79998779297</ele>
        <time>2012-09-09T07:39:10.000Z</time>
      </trkpt>
      <trkpt lat="43.96388" lon="7.30633">
        <ele>508.20001220703</ele>
        <time>2012-09-09T07:39:18.000Z</time>
      </trkpt>
      <trkpt lat="43.96369" lon="7.30613">
        <ele>528</ele>
        <time>2012-09-09T07:39:28.000Z</time>
      </trkpt>
      <trkpt lat="43.96361" lon="7.30595">
        <ele>529.79998779297</ele>
        <time>2012-09-09T07:39:35.000Z</time>
      </trkpt>
      <trkpt lat="43.96356" lon="7.3058">
        <ele>528.79998779297</ele>
        <time>2012-09-09T07:39:41.000Z</time>
      </trkpt>
      <trkpt lat="43.96352" lon="7.30563">
        <ele>520.59997558594</ele>
        <time>2012-09-09T07:39:47.000Z</time>
      </trkpt>
      <trkpt lat="43.96345" lon="7.30542">
        <ele>509.39999389648</ele>
        <time>2012-09-09T07:39:55.000Z</time>
      </trkpt>
      <trkpt lat="43.96335" lon="7.30526">
        <ele>503.79998779297</ele>
        <time>2012-09-09T07:40:02.000Z</time>
      </trkpt>
      <trkpt lat="43.9633" lon="7.3051">
        <ele>490.60000610352</ele>
        <time>2012-09-09T07:40:08.000Z</time>
      </trkpt>
      <trkpt lat="43.96321" lon="7.30493">
        <ele>481.39999389648</ele>
        <time>2012-09-09T07:40:15.000Z</time>
      </trkpt>
      <trkpt lat="43.9631" lon="7.30474">
        <ele>478</ele>
        <time>2012-09-09T07:40:23.000Z</time>
      </trkpt>
      <trkpt lat="43.96301" lon="7.30455">
        <ele>472.20001220703</ele>
        <time>2012-09-09T07:40:31.000Z</time>
      </trkpt>
      <trkpt lat="43.96287" lon="7.30441">
        <ele>472.60000610352</ele>
        <time>2012-09-09T07:40:38.000Z</time>
      </trkpt>
      <trkpt lat="43.96273" lon="7.3044">
        <ele>481.39999389648</ele>
        <time>2012-09-09T07:40:44.000Z</time>
      </trkpt>
      <trkpt lat="43.96254" lon="7.30446">
        <ele>498.60000610352</ele>
        <time>2012-09-09T07:40:51.000Z</time>
      </trkpt>
      <trkpt lat="43.96238" lon="7.3045">
        <ele>502.39999389648</ele>
        <time>2012-09-09T07:40:57.000Z</time>
      </trkpt>
      <trkpt lat="43.96222" lon="7.30454">
        <ele>502.79998779297</ele>
        <time>2012-09-09T07:41:03.000Z</time>
      </trkpt>
      <trkpt lat="43.9619" lon="7.30459">
        <ele>501.79998779297</ele>
        <time>2012-09-09T07:41:14.000Z</time>
      </trkpt>
      <trkpt lat="43.96178" lon="7.30473">
        <ele>508</ele>
        <time>2012-09-09T07:41:20.000Z</time>
      </trkpt>
      <trkpt lat="43.96163" lon="7.30487">
        <ele>512.20001220703</ele>
        <time>2012-09-09T07:41:26.000Z</time>
      </trkpt>
      <trkpt lat="43.9615" lon="7.30496">
        <ele>513</ele>
        <time>2012-09-09T07:41:31.000Z</time>
      </trkpt>
      <trkpt lat="43.96133" lon="7.30495">
        <ele>507.39999389648</ele>
        <time>2012-09-09T07:41:37.000Z</time>
      </trkpt>
      <trkpt lat="43.96108" lon="7.30492">
        <ele>498.60000610352</ele>
        <time>2012-09-09T07:41:46.000Z</time>
      </trkpt>
      <trkpt lat="43.96094" lon="7.30505">
        <ele>499.20001220703</ele>
        <time>2012-09-09T07:41:51.000Z</time>
      </trkpt>
      <trkpt lat="43.96077" lon="7.30533">
        <ele>503.79998779297</ele>
        <time>2012-09-09T07:41:58.000Z</time>
      </trkpt>
      <trkpt lat="43.96063" lon="7.30555">
        <ele>509.20001220703</ele>
        <time>2012-09-09T07:42:04.000Z</time>
      </trkpt>
      <trkpt lat="43.96051" lon="7.30581">
        <ele>516.79998779297</ele>
        <time>2012-09-09T07:42:10.000Z</time>
      </trkpt>
      <trkpt lat="43.96043" lon="7.30604">
        <ele>525.20001220703</ele>
        <time>2012-09-09T07:42:15.000Z</time>
      </trkpt>
      <trkpt lat="43.9603" lon="7.3061">
        <ele>526.59997558594</ele>
        <time>2012-09-09T07:42:18.000Z</time>
      </trkpt>
      <trkpt lat="43.96016" lon="7.30605">
        <ele>523.79998779297</ele>
        <time>2012-09-09T07:42:22.000Z</time>
      </trkpt>
      <trkpt lat="43.95999" lon="7.30586">
        <ele>513.40002441406</ele>
        <time>2012-09-09T07:42:29.000Z</time>
      </trkpt>
      <trkpt lat="43.95983" lon="7.30565">
        <ele>505.79998779297</ele>
        <time>2012-09-09T07:42:35.000Z</time>
      </trkpt>
      <trkpt lat="43.95965" lon="7.30566">
        <ele>507</ele>
        <time>2012-09-09T07:42:39.000Z</time>
      </trkpt>
      <trkpt lat="43.95933" lon="7.30574">
        <ele>513.20001220703</ele>
        <time>2012-09-09T07:42:46.000Z</time>
      </trkpt>
      <trkpt lat="43.9593" lon="7.30575">
        <ele>513.79998779297</ele>
        <time>2012-09-09T07:42:47.000Z</time>
      </trkpt>
      <trkpt lat="43.95914" lon="7.30571">
        <ele>512.40002441406</ele>
        <time>2012-09-09T07:42:52.000Z</time>
      </trkpt>
      <trkpt lat="43.95899" lon="7.30559">
        <ele>506.60000610352</ele>
        <time>2012-09-09T07:42:57.000Z</time>
      </trkpt>
      <trkpt lat="43.95893" lon="7.30558">
        <ele>505.79998779297</ele>
        <time>2012-09-09T07:42:59.000Z</time>
      </trkpt>
      <trkpt lat="43.95877" lon="7.30561">
        <ele>507.20001220703</ele>
        <time>2012-09-09T07:43:04.000Z</time>
      </trkpt>
      <trkpt lat="43.95861" lon="7.30568">
        <ele>509.79998779297</ele>
        <time>2012-09-09T07:43:08.000Z</time>
      </trkpt>
      <trkpt lat="43.9585" lon="7.30571">
        <ele>511</ele>
        <time>2012-09-09T07:43:12.000Z</time>
      </trkpt>
      <trkpt lat="43.95837" lon="7.3057">
        <ele>510.20001220703</ele>
        <time>2012-09-09T07:43:16.000Z</time>
      </trkpt>
      <trkpt lat="43.95809" lon="7.30556">
        <ele>516.40002441406</ele>
        <time>2012-09-09T07:43:25.000Z</time>
      </trkpt>
      <trkpt lat="43.95798" lon="7.30546">
        <ele>517</ele>
        <time>2012-09-09T07:43:30.000Z</time>
      </trkpt>
      <trkpt lat="43.95778" lon="7.30531">
        <ele>518</ele>
        <time>2012-09-09T07:43:37.000Z</time>
      </trkpt>
      <trkpt lat="43.95755" lon="7.30514">
        <ele>517.59997558594</ele>
        <time>2012-09-09T07:43:44.000Z</time>
      </trkpt>
      <trkpt lat="43.95736" lon="7.30501">
        <ele>523.59997558594</ele>
        <time>2012-09-09T07:43:50.000Z</time>
      </trkpt>
      <trkpt lat="43.95708" lon="7.30481">
        <ele>538.20001220703</ele>
        <time>2012-09-09T07:43:58.000Z</time>
      </trkpt>
      <trkpt lat="43.95692" lon="7.30467">
        <ele>545.40002441406</ele>
        <time>2012-09-09T07:44:03.000Z</time>
      </trkpt>
      <trkpt lat="43.95685" lon="7.30446">
        <ele>541</ele>
        <time>2012-09-09T07:44:07.000Z</time>
      </trkpt>
      <trkpt lat="43.95684" lon="7.30419">
        <ele>528.20001220703</ele>
        <time>2012-09-09T07:44:12.000Z</time>
      </trkpt>
      <trkpt lat="43.95676" lon="7.30384">
        <ele>523.59997558594</ele>
        <time>2012-09-09T07:44:19.000Z</time>
      </trkpt>
      <trkpt lat="43.95668" lon="7.30347">
        <ele>520</ele>
        <time>2012-09-09T07:44:26.000Z</time>
      </trkpt>
      <trkpt lat="43.95659" lon="7.30311">
        <ele>515.20001220703</ele>
        <time>2012-09-09T07:44:33.000Z</time>
      </trkpt>
      <trkpt lat="43.95643" lon="7.30283">
        <ele>517.20001220703</ele>
        <time>2012-09-09T07:44:40.000Z</time>
      </trkpt>
      <trkpt lat="43.95623" lon="7.30264">
        <ele>525.79998779297</ele>
        <time>2012-09-09T07:44:46.000Z</time>
      </trkpt>
      <trkpt lat="43.95614" lon="7.30242">
        <ele>526.20001220703</ele>
        <time>2012-09-09T07:44:51.000Z</time>
      </trkpt>
      <trkpt lat="43.95608" lon="7.30208">
        <ele>521.20001220703</ele>
        <time>2012-09-09T07:44:58.000Z</time>
      </trkpt>
      <trkpt lat="43.95603" lon="7.30188">
        <ele>520.20001220703</ele>
        <time>2012-09-09T07:45:03.000Z</time>
      </trkpt>
      <trkpt lat="43.95586" lon="7.30157">
        <ele>523.59997558594</ele>
        <time>2012-09-09T07:45:11.000Z</time>
      </trkpt>
      <trkpt lat="43.95572" lon="7.3014">
        <ele>524.40002441406</ele>
        <time>2012-09-09T07:45:16.000Z</time>
      </trkpt>
      <trkpt lat="43.95557" lon="7.30125">
        <ele>526.79998779297</ele>
        <time>2012-09-09T07:45:21.000Z</time>
      </trkpt>
      <trkpt lat="43.95546" lon="7.30114">
        <ele>528</ele>
        <time>2012-09-09T07:45:25.000Z</time>
      </trkpt>
      <trkpt lat="43.9553" lon="7.301">
        <ele>531.20001220703</ele>
        <time>2012-09-09T07:45:30.000Z</time>
      </trkpt>
      <trkpt lat="43.95514" lon="7.30073">
        <ele>528.40002441406</ele>
        <time>2012-09-09T07:45:37.000Z</time>
      </trkpt>
      <trkpt lat="43.95499" lon="7.30057">
        <ele>529.79998779297</ele>
        <time>2012-09-09T07:45:42.000Z</time>
      </trkpt>
      <trkpt lat="43.95481" lon="7.30043">
        <ele>531.59997558594</ele>
        <time>2012-09-09T07:45:48.000Z</time>
      </trkpt>
      <trkpt lat="43.95472" lon="7.30035">
        <ele>531.59997558594</ele>
        <time>2012-09-09T07:45:52.000Z</time>
      </trkpt>
      <trkpt lat="43.95458" lon="7.30024">
        <ele>532</ele>
        <time>2012-09-09T07:45:59.000Z</time>
      </trkpt>
      <trkpt lat="43.95443" lon="7.30017">
        <ele>534.59997558594</ele>
        <time>2012-09-09T07:46:05.000Z</time>
      </trkpt>
      <trkpt lat="43.95427" lon="7.3001">
        <ele>536.59997558594</ele>
        <time>2012-09-09T07:46:12.000Z</time>
      </trkpt>
      <trkpt lat="43.95411" lon="7.30004">
        <ele>539.40002441406</ele>
        <time>2012-09-09T07:46:18.000Z</time>
      </trkpt>
      <trkpt lat="43.95399" lon="7.30006">
        <ele>546.20001220703</ele>
        <time>2012-09-09T07:46:22.000Z</time>
      </trkpt>
      <trkpt lat="43.95385" lon="7.30008">
        <ele>554</ele>
        <time>2012-09-09T07:46:27.000Z</time>
      </trkpt>
      <trkpt lat="43.9537" lon="7.30008">
        <ele>560.20001220703</ele>
        <time>2012-09-09T07:46:32.000Z</time>
      </trkpt>
      <trkpt lat="43.95366" lon="7.30008">
        <ele>562</ele>
        <time>2012-09-09T07:46:33.000Z</time>
      </trkpt>
      <trkpt lat="43.95355" lon="7.29998">
        <ele>561.40002441406</ele>
        <time>2012-09-09T07:46:39.000Z</time>
      </trkpt>
      <trkpt lat="43.95353" lon="7.29989">
        <ele>557.40002441406</ele>
        <time>2012-09-09T07:46:42.000Z</time>
      </trkpt>
      <trkpt lat="43.95355" lon="7.29964">
        <ele>542.59997558594</ele>
        <time>2012-09-09T07:46:49.000Z</time>
      </trkpt>
      <trkpt lat="43.9535" lon="7.2994">
        <ele>531.20001220703</ele>
        <time>2012-09-09T07:46:56.000Z</time>
      </trkpt>
      <trkpt lat="43.9534" lon="7.29922">
        <ele>526</ele>
        <time>2012-09-09T07:47:02.000Z</time>
      </trkpt>
      <trkpt lat="43.95325" lon="7.2992">
        <ele>535</ele>
        <time>2012-09-09T07:47:07.000Z</time>
      </trkpt>
      <trkpt lat="43.9531" lon="7.2992">
        <ele>547</ele>
        <time>2012-09-09T07:47:13.000Z</time>
      </trkpt>
      <trkpt lat="43.953" lon="7.2991">
        <ele>547.59997558594</ele>
        <time>2012-09-09T07:47:18.000Z</time>
      </trkpt>
      <trkpt lat="43.95281" lon="7.29899">
        <ele>551.40002441406</ele>
        <time>2012-09-09T07:47:26.000Z</time>
      </trkpt>
      <trkpt lat="43.95265" lon="7.29895">
        <ele>556.79998779297</ele>
        <time>2012-09-09T07:47:32.000Z</time>
      </trkpt>
      <trkpt lat="43.95257" lon="7.29897">
        <ele>565</ele>
        <time>2012-09-09T07:47:35.000Z</time>
      </trkpt>
      <trkpt lat="43.95251" lon="7.29899">
        <ele>571.40002441406</ele>
        <time>2012-09-09T07:47:37.000Z</time>
      </trkpt>
      <trkpt lat="43.95236" lon="7.29899">
        <ele>581.20001220703</ele>
        <time>2012-09-09T07:47:42.000Z</time>
      </trkpt>
      <trkpt lat="43.95225" lon="7.29887">
        <ele>574.79998779297</ele>
        <time>2012-09-09T07:47:48.000Z</time>
      </trkpt>
      <trkpt lat="43.95214" lon="7.29866">
        <ele>560.20001220703</ele>
        <time>2012-09-09T07:47:55.000Z</time>
      </trkpt>
      <trkpt lat="43.95205" lon="7.29856">
        <ele>556.79998779297</ele>
        <time>2012-09-09T07:48:00.000Z</time>
      </trkpt>
      <trkpt lat="43.95194" lon="7.2985">
        <ele>560.59997558594</ele>
        <time>2012-09-09T07:48:05.000Z</time>
      </trkpt>
      <trkpt lat="43.95181" lon="7.29844">
        <ele>566.59997558594</ele>
        <time>2012-09-09T07:48:11.000Z</time>
      </trkpt>
      <trkpt lat="43.95166" lon="7.29841">
        <ele>576.40002441406</ele>
        <time>2012-09-09T07:48:17.000Z</time>
      </trkpt>
      <trkpt lat="43.95151" lon="7.29837">
        <ele>576.79998779297</ele>
        <time>2012-09-09T07:48:23.000Z</time>
      </trkpt>
      <trkpt lat="43.95135" lon="7.2983">
        <ele>575</ele>
        <time>2012-09-09T07:48:30.000Z</time>
      </trkpt>
      <trkpt lat="43.95122" lon="7.29824">
        <ele>574</ele>
        <time>2012-09-09T07:48:37.000Z</time>
      </trkpt>
      <trkpt lat="43.95103" lon="7.29814">
        <ele>572.59997558594</ele>
        <time>2012-09-09T07:48:44.000Z</time>
      </trkpt>
      <trkpt lat="43.95094" lon="7.29803">
        <ele>569.40002441406</ele>
        <time>2012-09-09T07:48:49.000Z</time>
      </trkpt>
      <trkpt lat="43.95086" lon="7.29791">
        <ele>566.40002441406</ele>
        <time>2012-09-09T07:48:54.000Z</time>
      </trkpt>
      <trkpt lat="43.95071" lon="7.29775">
        <ele>563.79998779297</ele>
        <time>2012-09-09T07:49:01.000Z</time>
      </trkpt>
      <trkpt lat="43.95058" lon="7.29764">
        <ele>562.59997558594</ele>
        <time>2012-09-09T07:49:07.000Z</time>
      </trkpt>
      <trkpt lat="43.95043" lon="7.29743">
        <ele>558</ele>
        <time>2012-09-09T07:49:16.000Z</time>
      </trkpt>
      <trkpt lat="43.95027" lon="7.2973">
        <ele>557.59997558594</ele>
        <time>2012-09-09T07:49:23.000Z</time>
      </trkpt>
      <trkpt lat="43.95007" lon="7.29721">
        <ele>560.40002441406</ele>
        <time>2012-09-09T07:49:31.000Z</time>
      </trkpt>
      <trkpt lat="43.94987" lon="7.29721">
        <ele>562.79998779297</ele>
        <time>2012-09-09T07:49:38.000Z</time>
      </trkpt>
      <trkpt lat="43.94959" lon="7.2973">
        <ele>565.79998779297</ele>
        <time>2012-09-09T07:49:48.000Z</time>
      </trkpt>
      <trkpt lat="43.94936" lon="7.2974">
        <ele>569</ele>
        <time>2012-09-09T07:49:57.000Z</time>
      </trkpt>
      <trkpt lat="43.94915" lon="7.29749">
        <ele>571.79998779297</ele>
        <time>2012-09-09T07:50:06.000Z</time>
      </trkpt>
      <trkpt lat="43.94902" lon="7.29752">
        <ele>574.59997558594</ele>
        <time>2012-09-09T07:50:13.000Z</time>
      </trkpt>
      <trkpt lat="43.94887" lon="7.29758">
        <ele>578.20001220703</ele>
        <time>2012-09-09T07:50:22.000Z</time>
      </trkpt>
      <trkpt lat="43.94867" lon="7.29762">
        <ele>581.59997558594</ele>
        <time>2012-09-09T07:50:30.000Z</time>
      </trkpt>
      <trkpt lat="43.9485" lon="7.29766">
        <ele>584.59997558594</ele>
        <time>2012-09-09T07:50:38.000Z</time>
      </trkpt>
      <trkpt lat="43.94837" lon="7.29762">
        <ele>584.79998779297</ele>
        <time>2012-09-09T07:50:45.000Z</time>
      </trkpt>
      <trkpt lat="43.94827" lon="7.29751">
        <ele>584</ele>
        <time>2012-09-09T07:50:51.000Z</time>
      </trkpt>
      <trkpt lat="43.94815" lon="7.29736">
        <ele>583.79998779297</ele>
        <time>2012-09-09T07:50:58.000Z</time>
      </trkpt>
      <trkpt lat="43.94798" lon="7.29715">
        <ele>583.59997558594</ele>
        <time>2012-09-09T07:51:07.000Z</time>
      </trkpt>
      <trkpt lat="43.9478" lon="7.29696">
        <ele>584</ele>
        <time>2012-09-09T07:51:15.000Z</time>
      </trkpt>
      <trkpt lat="43.94764" lon="7.29682">
        <ele>585.20001220703</ele>
        <time>2012-09-09T07:51:22.000Z</time>
      </trkpt>
      <trkpt lat="43.94755" lon="7.29675">
        <ele>585.59997558594</ele>
        <time>2012-09-09T07:51:27.000Z</time>
      </trkpt>
      <trkpt lat="43.94745" lon="7.29672">
        <ele>587.79998779297</ele>
        <time>2012-09-09T07:51:30.000Z</time>
      </trkpt>
      <trkpt lat="43.94739" lon="7.29683">
        <ele>592.40002441406</ele>
        <time>2012-09-09T07:51:34.000Z</time>
      </trkpt>
      <trkpt lat="43.94746" lon="7.29693">
        <ele>592.40002441406</ele>
        <time>2012-09-09T07:51:38.000Z</time>
      </trkpt>
      <trkpt lat="43.94763" lon="7.29708">
        <ele>591.20001220703</ele>
        <time>2012-09-09T07:51:45.000Z</time>
      </trkpt>
      <trkpt lat="43.94775" lon="7.29718">
        <ele>590.79998779297</ele>
        <time>2012-09-09T07:51:50.000Z</time>
      </trkpt>
      <trkpt lat="43.94783" lon="7.29726">
        <ele>590.40002441406</ele>
        <time>2012-09-09T07:51:55.000Z</time>
      </trkpt>
      <trkpt lat="43.94791" lon="7.29739">
        <ele>590.79998779297</ele>
        <time>2012-09-09T07:52:00.000Z</time>
      </trkpt>
      <trkpt lat="43.94799" lon="7.29754">
        <ele>592.40002441406</ele>
        <time>2012-09-09T07:52:05.000Z</time>
      </trkpt>
      <trkpt lat="43.94799" lon="7.29764">
        <ele>595</ele>
        <time>2012-09-09T07:52:09.000Z</time>
      </trkpt>
      <trkpt lat="43.94798" lon="7.29777">
        <ele>598.40002441406</ele>
        <time>2012-09-09T07:52:14.000Z</time>
      </trkpt>
      <trkpt lat="43.94798" lon="7.29797">
        <ele>603.59997558594</ele>
        <time>2012-09-09T07:52:21.000Z</time>
      </trkpt>
      <trkpt lat="43.94801" lon="7.2981">
        <ele>606</ele>
        <time>2012-09-09T07:52:26.000Z</time>
      </trkpt>
      <trkpt lat="43.94809" lon="7.29827">
        <ele>608.20001220703</ele>
        <time>2012-09-09T07:52:31.000Z</time>
      </trkpt>
      <trkpt lat="43.9481" lon="7.29837">
        <ele>611</ele>
        <time>2012-09-09T07:52:37.000Z</time>
      </trkpt>
      <trkpt lat="43.94813" lon="7.29846">
        <ele>613.59997558594</ele>
        <time>2012-09-09T07:52:43.000Z</time>
      </trkpt>
      <trkpt lat="43.94821" lon="7.29852">
        <ele>614</ele>
        <time>2012-09-09T07:52:49.000Z</time>
      </trkpt>
      <trkpt lat="43.94823" lon="7.29853">
        <ele>614</ele>
        <time>2012-09-09T07:52:50.000Z</time>
      </trkpt>
      <trkpt lat="43.9483" lon="7.29859">
        <ele>614.20001220703</ele>
        <time>2012-09-09T07:52:56.000Z</time>
      </trkpt>
      <trkpt lat="43.9484" lon="7.29861">
        <ele>614.20001220703</ele>
        <time>2012-09-09T07:53:02.000Z</time>
      </trkpt>
      <trkpt lat="43.94855" lon="7.29865">
        <ele>615.20001220703</ele>
        <time>2012-09-09T07:53:09.000Z</time>
      </trkpt>
      <trkpt lat="43.94868" lon="7.29867">
        <ele>615.59997558594</ele>
        <time>2012-09-09T07:53:15.000Z</time>
      </trkpt>
      <trkpt lat="43.94871" lon="7.29865">
        <ele>614.79998779297</ele>
        <time>2012-09-09T07:53:17.000Z</time>
      </trkpt>
      <trkpt lat="43.94886" lon="7.29868">
        <ele>615.59997558594</ele>
        <time>2012-09-09T07:53:24.000Z</time>
      </trkpt>
      <trkpt lat="43.94903" lon="7.29869">
        <ele>615.59997558594</ele>
        <time>2012-09-09T07:53:33.000Z</time>
      </trkpt>
      <trkpt lat="43.94912" lon="7.29871">
        <ele>616.20001220703</ele>
        <time>2012-09-09T07:53:38.000Z</time>
      </trkpt>
      <trkpt lat="43.94928" lon="7.2987">
        <ele>617.20001220703</ele>
        <time>2012-09-09T07:53:46.000Z</time>
      </trkpt>
      <trkpt lat="43.94946" lon="7.29865">
        <ele>618.20001220703</ele>
        <time>2012-09-09T07:53:55.000Z</time>
      </trkpt>
      <trkpt lat="43.94957" lon="7.29859">
        <ele>617.20001220703</ele>
        <time>2012-09-09T07:54:01.000Z</time>
      </trkpt>
      <trkpt lat="43.94969" lon="7.29853">
        <ele>616.40002441406</ele>
        <time>2012-09-09T07:54:08.000Z</time>
      </trkpt>
      <trkpt lat="43.94971" lon="7.29851">
        <ele>616</ele>
        <time>2012-09-09T07:54:09.000Z</time>
      </trkpt>
      <trkpt lat="43.94986" lon="7.29842">
        <ele>614</ele>
        <time>2012-09-09T07:54:17.000Z</time>
      </trkpt>
      <trkpt lat="43.94994" lon="7.29835">
        <ele>612</ele>
        <time>2012-09-09T07:54:21.000Z</time>
      </trkpt>
      <trkpt lat="43.94999" lon="7.2984">
        <ele>615</ele>
        <time>2012-09-09T07:54:25.000Z</time>
      </trkpt>
      <trkpt lat="43.94991" lon="7.29849">
        <ele>617.59997558594</ele>
        <time>2012-09-09T07:54:29.000Z</time>
      </trkpt>
      <trkpt lat="43.94972" lon="7.29862">
        <ele>620.79998779297</ele>
        <time>2012-09-09T07:54:37.000Z</time>
      </trkpt>
      <trkpt lat="43.94964" lon="7.29871">
        <ele>623.40002441406</ele>
        <time>2012-09-09T07:54:42.000Z</time>
      </trkpt>
      <trkpt lat="43.94951" lon="7.29889">
        <ele>628.59997558594</ele>
        <time>2012-09-09T07:54:49.000Z</time>
      </trkpt>
      <trkpt lat="43.94934" lon="7.29903">
        <ele>631.20001220703</ele>
        <time>2012-09-09T07:54:56.000Z</time>
      </trkpt>
      <trkpt lat="43.94916" lon="7.29908">
        <ele>629.79998779297</ele>
        <time>2012-09-09T07:55:02.000Z</time>
      </trkpt>
      <trkpt lat="43.94889" lon="7.29916">
        <ele>633.40002441406</ele>
        <time>2012-09-09T07:55:12.000Z</time>
      </trkpt>
      <trkpt lat="43.94864" lon="7.2992">
        <ele>636</ele>
        <time>2012-09-09T07:55:21.000Z</time>
      </trkpt>
      <trkpt lat="43.94841" lon="7.29922">
        <ele>637.20001220703</ele>
        <time>2012-09-09T07:55:30.000Z</time>
      </trkpt>
      <trkpt lat="43.94826" lon="7.29918">
        <ele>637.59997558594</ele>
        <time>2012-09-09T07:55:36.000Z</time>
      </trkpt>
      <trkpt lat="43.94808" lon="7.29913">
        <ele>640.40002441406</ele>
        <time>2012-09-09T07:55:44.000Z</time>
      </trkpt>
      <trkpt lat="43.94793" lon="7.29906">
        <ele>641.59997558594</ele>
        <time>2012-09-09T07:55:51.000Z</time>
      </trkpt>
      <trkpt lat="43.94781" lon="7.299">
        <ele>642.79998779297</ele>
        <time>2012-09-09T07:55:57.000Z</time>
      </trkpt>
      <trkpt lat="43.94767" lon="7.29892">
        <ele>643.40002441406</ele>
        <time>2012-09-09T07:56:04.000Z</time>
      </trkpt>
      <trkpt lat="43.94755" lon="7.29884">
        <ele>643.40002441406</ele>
        <time>2012-09-09T07:56:11.000Z</time>
      </trkpt>
      <trkpt lat="43.94739" lon="7.29874">
        <ele>643.20001220703</ele>
        <time>2012-09-09T07:56:19.000Z</time>
      </trkpt>
      <trkpt lat="43.94718" lon="7.29867">
        <ele>644.59997558594</ele>
        <time>2012-09-09T07:56:27.000Z</time>
      </trkpt>
      <trkpt lat="43.94709" lon="7.29863">
        <ele>645</ele>
        <time>2012-09-09T07:56:31.000Z</time>
      </trkpt>
      <trkpt lat="43.94686" lon="7.29857">
        <ele>647.59997558594</ele>
        <time>2012-09-09T07:56:40.000Z</time>
      </trkpt>
      <trkpt lat="43.94672" lon="7.29854">
        <ele>649.40002441406</ele>
        <time>2012-09-09T07:56:46.000Z</time>
      </trkpt>
      <trkpt lat="43.94657" lon="7.2985">
        <ele>651.40002441406</ele>
        <time>2012-09-09T07:56:53.000Z</time>
      </trkpt>
      <trkpt lat="43.94644" lon="7.29843">
        <ele>651.79998779297</ele>
        <time>2012-09-09T07:56:59.000Z</time>
      </trkpt>
      <trkpt lat="43.94632" lon="7.29836">
        <ele>651.59997558594</ele>
        <time>2012-09-09T07:57:06.000Z</time>
      </trkpt>
      <trkpt lat="43.9462" lon="7.29826">
        <ele>651.79998779297</ele>
        <time>2012-09-09T07:57:12.000Z</time>
      </trkpt>
      <trkpt lat="43.94605" lon="7.29811">
        <ele>652.20001220703</ele>
        <time>2012-09-09T07:57:20.000Z</time>
      </trkpt>
      <trkpt lat="43.94591" lon="7.29793">
        <ele>651.79998779297</ele>
        <time>2012-09-09T07:57:27.000Z</time>
      </trkpt>
      <trkpt lat="43.94581" lon="7.29785">
        <ele>651.79998779297</ele>
        <time>2012-09-09T07:57:31.000Z</time>
      </trkpt>
      <trkpt lat="43.94567" lon="7.29787">
        <ele>649.79998779297</ele>
        <time>2012-09-09T07:57:37.000Z</time>
      </trkpt>
      <trkpt lat="43.94548" lon="7.2979">
        <ele>647.59997558594</ele>
        <time>2012-09-09T07:57:43.000Z</time>
      </trkpt>
      <trkpt lat="43.94507" lon="7.29798">
        <ele>644.59997558594</ele>
        <time>2012-09-09T07:57:55.000Z</time>
      </trkpt>
      <trkpt lat="43.94487" lon="7.29808">
        <ele>644.59997558594</ele>
        <time>2012-09-09T07:58:01.000Z</time>
      </trkpt>
      <trkpt lat="43.94465" lon="7.29825">
        <ele>646.20001220703</ele>
        <time>2012-09-09T07:58:08.000Z</time>
      </trkpt>
      <trkpt lat="43.94444" lon="7.29834">
        <ele>645.59997558594</ele>
        <time>2012-09-09T07:58:14.000Z</time>
      </trkpt>
      <trkpt lat="43.94427" lon="7.29845">
        <ele>646</ele>
        <time>2012-09-09T07:58:21.000Z</time>
      </trkpt>
      <trkpt lat="43.9441" lon="7.2985">
        <ele>643</ele>
        <time>2012-09-09T07:58:26.000Z</time>
      </trkpt>
      <trkpt lat="43.9439" lon="7.29854">
        <ele>636.40002441406</ele>
        <time>2012-09-09T07:58:33.000Z</time>
      </trkpt>
      <trkpt lat="43.94388" lon="7.29863">
        <ele>638.59997558594</ele>
        <time>2012-09-09T07:58:37.000Z</time>
      </trkpt>
      <trkpt lat="43.94391" lon="7.29862">
        <ele>639.79998779297</ele>
        <time>2012-09-09T07:58:40.000Z</time>
      </trkpt>
      <trkpt lat="43.94395" lon="7.29855">
        <ele>639</ele>
        <time>2012-09-09T07:58:46.000Z</time>
      </trkpt>
      <trkpt lat="43.94392" lon="7.29855">
        <ele>637.79998779297</ele>
        <time>2012-09-09T07:59:05.000Z</time>
      </trkpt>
      <trkpt lat="43.94395" lon="7.29857">
        <ele>639.79998779297</ele>
        <time>2012-09-09T07:59:20.000Z</time>
      </trkpt>
      <trkpt lat="43.94404" lon="7.2986">
        <ele>644.40002441406</ele>
        <time>2012-09-09T08:00:09.000Z</time>
      </trkpt>
      <trkpt lat="43.94409" lon="7.2986">
        <ele>646.40002441406</ele>
        <time>2012-09-09T08:00:13.000Z</time>
      </trkpt>
      <trkpt lat="43.94424" lon="7.29855">
        <ele>649.40002441406</ele>
        <time>2012-09-09T08:00:22.000Z</time>
      </trkpt>
      <trkpt lat="43.94435" lon="7.29852">
        <ele>651</ele>
        <time>2012-09-09T08:00:28.000Z</time>
      </trkpt>
      <trkpt lat="43.94449" lon="7.29853">
        <ele>654.59997558594</ele>
        <time>2012-09-09T08:00:36.000Z</time>
      </trkpt>
      <trkpt lat="43.94461" lon="7.2985">
        <ele>656.59997558594</ele>
        <time>2012-09-09T08:00:43.000Z</time>
      </trkpt>
      <trkpt lat="43.94473" lon="7.29847">
        <ele>658.20001220703</ele>
        <time>2012-09-09T08:00:50.000Z</time>
      </trkpt>
      <trkpt lat="43.94485" lon="7.29839">
        <ele>657.20001220703</ele>
        <time>2012-09-09T08:00:57.000Z</time>
      </trkpt>
      <trkpt lat="43.94496" lon="7.29833">
        <ele>657</ele>
        <time>2012-09-09T08:01:03.000Z</time>
      </trkpt>
      <trkpt lat="43.94511" lon="7.29827">
        <ele>656</ele>
        <time>2012-09-09T08:01:12.000Z</time>
      </trkpt>
      <trkpt lat="43.94524" lon="7.29822">
        <ele>655.20001220703</ele>
        <time>2012-09-09T08:01:20.000Z</time>
      </trkpt>
      <trkpt lat="43.94542" lon="7.29815">
        <ele>654.40002441406</ele>
        <time>2012-09-09T08:01:31.000Z</time>
      </trkpt>
      <trkpt lat="43.94558" lon="7.2981">
        <ele>654.59997558594</ele>
        <time>2012-09-09T08:01:41.000Z</time>
      </trkpt>
      <trkpt lat="43.94559" lon="7.29811">
        <ele>655</ele>
        <time>2012-09-09T08:01:42.000Z</time>
      </trkpt>
      <trkpt lat="43.94552" lon="7.29822">
        <ele>657.20001220703</ele>
        <time>2012-09-09T08:01:50.000Z</time>
      </trkpt>
      <trkpt lat="43.9454" lon="7.29828">
        <ele>658.40002441406</ele>
        <time>2012-09-09T08:01:57.000Z</time>
      </trkpt>
      <trkpt lat="43.94532" lon="7.29836">
        <ele>660.59997558594</ele>
        <time>2012-09-09T08:02:04.000Z</time>
      </trkpt>
      <trkpt lat="43.94524" lon="7.29841">
        <ele>662.79998779297</ele>
        <time>2012-09-09T08:02:09.000Z</time>
      </trkpt>
      <trkpt lat="43.94522" lon="7.29845">
        <ele>664.59997558594</ele>
        <time>2012-09-09T08:02:11.000Z</time>
      </trkpt>
      <trkpt lat="43.94512" lon="7.29855">
        <ele>669.20001220703</ele>
        <time>2012-09-09T08:02:19.000Z</time>
      </trkpt>
      <trkpt lat="43.94503" lon="7.29863">
        <ele>672.59997558594</ele>
        <time>2012-09-09T08:02:26.000Z</time>
      </trkpt>
      <trkpt lat="43.94494" lon="7.2987">
        <ele>674</ele>
        <time>2012-09-09T08:02:32.000Z</time>
      </trkpt>
      <trkpt lat="43.94484" lon="7.29877">
        <ele>674.59997558594</ele>
        <time>2012-09-09T08:02:38.000Z</time>
      </trkpt>
      <trkpt lat="43.94471" lon="7.29885">
        <ele>675</ele>
        <time>2012-09-09T08:02:46.000Z</time>
      </trkpt>
      <trkpt lat="43.94459" lon="7.29891">
        <ele>674</ele>
        <time>2012-09-09T08:02:53.000Z</time>
      </trkpt>
      <trkpt lat="43.9445" lon="7.29898">
        <ele>674.59997558594</ele>
        <time>2012-09-09T08:02:59.000Z</time>
      </trkpt>
      <trkpt lat="43.94456" lon="7.29909">
        <ele>681</ele>
        <time>2012-09-09T08:03:03.000Z</time>
      </trkpt>
      <trkpt lat="43.94459" lon="7.29909">
        <ele>682</ele>
        <time>2012-09-09T08:03:06.000Z</time>
      </trkpt>
      <trkpt lat="43.94467" lon="7.29901">
        <ele>680.79998779297</ele>
        <time>2012-09-09T08:03:12.000Z</time>
      </trkpt>
      <trkpt lat="43.94484" lon="7.29893">
        <ele>682.20001220703</ele>
        <time>2012-09-09T08:03:22.000Z</time>
      </trkpt>
      <trkpt lat="43.94496" lon="7.29886">
        <ele>682.20001220703</ele>
        <time>2012-09-09T08:03:29.000Z</time>
      </trkpt>
      <trkpt lat="43.94507" lon="7.29882">
        <ele>682</ele>
        <time>2012-09-09T08:03:36.000Z</time>
      </trkpt>
      <trkpt lat="43.94522" lon="7.29877">
        <ele>680.40002441406</ele>
        <time>2012-09-09T08:03:45.000Z</time>
      </trkpt>
      <trkpt lat="43.94537" lon="7.29874">
        <ele>679.59997558594</ele>
        <time>2012-09-09T08:03:54.000Z</time>
      </trkpt>
      <trkpt lat="43.94551" lon="7.29872">
        <ele>679.59997558594</ele>
        <time>2012-09-09T08:04:02.000Z</time>
      </trkpt>
      <trkpt lat="43.94559" lon="7.29873">
        <ele>680.40002441406</ele>
        <time>2012-09-09T08:04:08.000Z</time>
      </trkpt>
      <trkpt lat="43.94569" lon="7.29881">
        <ele>685.20001220703</ele>
        <time>2012-09-09T08:04:14.000Z</time>
      </trkpt>
      <trkpt lat="43.94577" lon="7.29889">
        <ele>689.40002441406</ele>
        <time>2012-09-09T08:04:19.000Z</time>
      </trkpt>
      <trkpt lat="43.94593" lon="7.29906">
        <ele>695.40002441406</ele>
        <time>2012-09-09T08:04:26.000Z</time>
      </trkpt>
      <trkpt lat="43.94605" lon="7.29918">
        <ele>697.40002441406</ele>
        <time>2012-09-09T08:04:32.000Z</time>
      </trkpt>
      <trkpt lat="43.94619" lon="7.29928">
        <ele>697.20001220703</ele>
        <time>2012-09-09T08:04:38.000Z</time>
      </trkpt>
      <trkpt lat="43.94629" lon="7.29934">
        <ele>697</ele>
        <time>2012-09-09T08:04:43.000Z</time>
      </trkpt>
      <trkpt lat="43.94637" lon="7.2994">
        <ele>697.59997558594</ele>
        <time>2012-09-09T08:04:49.000Z</time>
      </trkpt>
      <trkpt lat="43.94645" lon="7.29946">
        <ele>698.59997558594</ele>
        <time>2012-09-09T08:04:54.000Z</time>
      </trkpt>
      <trkpt lat="43.9465" lon="7.2995">
        <ele>699.40002441406</ele>
        <time>2012-09-09T08:04:58.000Z</time>
      </trkpt>
      <trkpt lat="43.9466" lon="7.29953">
        <ele>698</ele>
        <time>2012-09-09T08:05:04.000Z</time>
      </trkpt>
      <trkpt lat="43.9467" lon="7.29961">
        <ele>700.20001220703</ele>
        <time>2012-09-09T08:05:11.000Z</time>
      </trkpt>
      <trkpt lat="43.94681" lon="7.2997">
        <ele>702</ele>
        <time>2012-09-09T08:05:17.000Z</time>
      </trkpt>
      <trkpt lat="43.94681" lon="7.29981">
        <ele>707.79998779297</ele>
        <time>2012-09-09T08:05:21.000Z</time>
      </trkpt>
      <trkpt lat="43.94663" lon="7.29976">
        <ele>709.79998779297</ele>
        <time>2012-09-09T08:05:28.000Z</time>
      </trkpt>
      <trkpt lat="43.94653" lon="7.29972">
        <ele>709.59997558594</ele>
        <time>2012-09-09T08:05:33.000Z</time>
      </trkpt>
      <trkpt lat="43.94643" lon="7.29969">
        <ele>710.20001220703</ele>
        <time>2012-09-09T08:05:38.000Z</time>
      </trkpt>
      <trkpt lat="43.94633" lon="7.29965">
        <ele>710.79998779297</ele>
        <time>2012-09-09T08:05:44.000Z</time>
      </trkpt>
      <trkpt lat="43.94618" lon="7.29958">
        <ele>710.79998779297</ele>
        <time>2012-09-09T08:05:51.000Z</time>
      </trkpt>
      <trkpt lat="43.94609" lon="7.29954">
        <ele>711.40002441406</ele>
        <time>2012-09-09T08:05:57.000Z</time>
      </trkpt>
      <trkpt lat="43.946" lon="7.29949">
        <ele>711.40002441406</ele>
        <time>2012-09-09T08:06:04.000Z</time>
      </trkpt>
      <trkpt lat="43.94585" lon="7.29937">
        <ele>711</ele>
        <time>2012-09-09T08:06:16.000Z</time>
      </trkpt>
      <trkpt lat="43.94573" lon="7.29928">
        <ele>707.20001220703</ele>
        <time>2012-09-09T08:06:23.000Z</time>
      </trkpt>
      <trkpt lat="43.94559" lon="7.29924">
        <ele>704.59997558594</ele>
        <time>2012-09-09T08:06:32.000Z</time>
      </trkpt>
      <trkpt lat="43.94544" lon="7.29932">
        <ele>705.59997558594</ele>
        <time>2012-09-09T08:06:42.000Z</time>
      </trkpt>
      <trkpt lat="43.94531" lon="7.29943">
        <ele>707</ele>
        <time>2012-09-09T08:06:49.000Z</time>
      </trkpt>
      <trkpt lat="43.94516" lon="7.29955">
        <ele>707.59997558594</ele>
        <time>2012-09-09T08:06:56.000Z</time>
      </trkpt>
      <trkpt lat="43.94503" lon="7.29966">
        <ele>708</ele>
        <time>2012-09-09T08:07:03.000Z</time>
      </trkpt>
      <trkpt lat="43.94501" lon="7.29975">
        <ele>709.40002441406</ele>
        <time>2012-09-09T08:07:06.000Z</time>
      </trkpt>
      <trkpt lat="43.94511" lon="7.29977">
        <ele>711.79998779297</ele>
        <time>2012-09-09T08:07:11.000Z</time>
      </trkpt>
      <trkpt lat="43.94525" lon="7.29964">
        <ele>711.20001220703</ele>
        <time>2012-09-09T08:07:19.000Z</time>
      </trkpt>
      <trkpt lat="43.94535" lon="7.29955">
        <ele>710.59997558594</ele>
        <time>2012-09-09T08:07:24.000Z</time>
      </trkpt>
      <trkpt lat="43.9455" lon="7.29948">
        <ele>710.79998779297</ele>
        <time>2012-09-09T08:07:32.000Z</time>
      </trkpt>
      <trkpt lat="43.94562" lon="7.29949">
        <ele>712.79998779297</ele>
        <time>2012-09-09T08:07:38.000Z</time>
      </trkpt>
      <trkpt lat="43.9457" lon="7.29952">
        <ele>714.79998779297</ele>
        <time>2012-09-09T08:07:43.000Z</time>
      </trkpt>
      <trkpt lat="43.9458" lon="7.29967">
        <ele>721.59997558594</ele>
        <time>2012-09-09T08:07:49.000Z</time>
      </trkpt>
      <trkpt lat="43.94591" lon="7.2998">
        <ele>725.59997558594</ele>
        <time>2012-09-09T08:07:56.000Z</time>
      </trkpt>
      <trkpt lat="43.94603" lon="7.29995">
        <ele>729.20001220703</ele>
        <time>2012-09-09T08:08:02.000Z</time>
      </trkpt>
      <trkpt lat="43.94613" lon="7.30005">
        <ele>729.79998779297</ele>
        <time>2012-09-09T08:08:08.000Z</time>
      </trkpt>
      <trkpt lat="43.94622" lon="7.3001">
        <ele>729</ele>
        <time>2012-09-09T08:08:15.000Z</time>
      </trkpt>
      <trkpt lat="43.9463" lon="7.30016">
        <ele>728.59997558594</ele>
        <time>2012-09-09T08:08:20.000Z</time>
      </trkpt>
      <trkpt lat="43.94638" lon="7.30025">
        <ele>728.59997558594</ele>
        <time>2012-09-09T08:08:25.000Z</time>
      </trkpt>
      <trkpt lat="43.9465" lon="7.30032">
        <ele>729.40002441406</ele>
        <time>2012-09-09T08:08:32.000Z</time>
      </trkpt>
      <trkpt lat="43.94658" lon="7.30038">
        <ele>730.20001220703</ele>
        <time>2012-09-09T08:08:38.000Z</time>
      </trkpt>
      <trkpt lat="43.94663" lon="7.30038">
        <ele>730.20001220703</ele>
        <time>2012-09-09T08:08:42.000Z</time>
      </trkpt>
      <trkpt lat="43.94674" lon="7.30045">
        <ele>730.40002441406</ele>
        <time>2012-09-09T08:08:49.000Z</time>
      </trkpt>
      <trkpt lat="43.94686" lon="7.30053">
        <ele>730.59997558594</ele>
        <time>2012-09-09T08:08:56.000Z</time>
      </trkpt>
      <trkpt lat="43.94694" lon="7.30057">
        <ele>730.79998779297</ele>
        <time>2012-09-09T08:09:01.000Z</time>
      </trkpt>
      <trkpt lat="43.94702" lon="7.30064">
        <ele>732.20001220703</ele>
        <time>2012-09-09T08:09:06.000Z</time>
      </trkpt>
      <trkpt lat="43.94712" lon="7.30079">
        <ele>736.40002441406</ele>
        <time>2012-09-09T08:09:12.000Z</time>
      </trkpt>
      <trkpt lat="43.94721" lon="7.30095">
        <ele>736.79998779297</ele>
        <time>2012-09-09T08:09:18.000Z</time>
      </trkpt>
      <trkpt lat="43.94732" lon="7.30106">
        <ele>736.59997558594</ele>
        <time>2012-09-09T08:09:25.000Z</time>
      </trkpt>
      <trkpt lat="43.94745" lon="7.30113">
        <ele>737.20001220703</ele>
        <time>2012-09-09T08:09:33.000Z</time>
      </trkpt>
      <trkpt lat="43.94753" lon="7.30114">
        <ele>737.59997558594</ele>
        <time>2012-09-09T08:09:38.000Z</time>
      </trkpt>
      <trkpt lat="43.94763" lon="7.30125">
        <ele>739</ele>
        <time>2012-09-09T08:09:44.000Z</time>
      </trkpt>
      <trkpt lat="43.94773" lon="7.30129">
        <ele>740.20001220703</ele>
        <time>2012-09-09T08:09:51.000Z</time>
      </trkpt>
      <trkpt lat="43.94785" lon="7.30134">
        <ele>742</ele>
        <time>2012-09-09T08:09:59.000Z</time>
      </trkpt>
      <trkpt lat="43.94797" lon="7.30139">
        <ele>744.20001220703</ele>
        <time>2012-09-09T08:10:07.000Z</time>
      </trkpt>
      <trkpt lat="43.94801" lon="7.30142">
        <ele>745.20001220703</ele>
        <time>2012-09-09T08:10:09.000Z</time>
      </trkpt>
      <trkpt lat="43.94814" lon="7.30149">
        <ele>748.40002441406</ele>
        <time>2012-09-09T08:10:16.000Z</time>
      </trkpt>
      <trkpt lat="43.94828" lon="7.30152">
        <ele>751.20001220703</ele>
        <time>2012-09-09T08:10:24.000Z</time>
      </trkpt>
      <trkpt lat="43.94842" lon="7.30154">
        <ele>753.20001220703</ele>
        <time>2012-09-09T08:10:32.000Z</time>
      </trkpt>
      <trkpt lat="43.94853" lon="7.30154">
        <ele>753.79998779297</ele>
        <time>2012-09-09T08:10:40.000Z</time>
      </trkpt>
      <trkpt lat="43.94854" lon="7.30154">
        <ele>754</ele>
        <time>2012-09-09T08:10:41.000Z</time>
      </trkpt>
      <trkpt lat="43.94865" lon="7.30157">
        <ele>755.79998779297</ele>
        <time>2012-09-09T08:10:48.000Z</time>
      </trkpt>
      <trkpt lat="43.94881" lon="7.30156">
        <ele>757</ele>
        <time>2012-09-09T08:10:57.000Z</time>
      </trkpt>
      <trkpt lat="43.94893" lon="7.30157">
        <ele>758.20001220703</ele>
        <time>2012-09-09T08:11:04.000Z</time>
      </trkpt>
      <trkpt lat="43.9491" lon="7.3016">
        <ele>760.79998779297</ele>
        <time>2012-09-09T08:11:13.000Z</time>
      </trkpt>
      <trkpt lat="43.94924" lon="7.30163">
        <ele>764</ele>
        <time>2012-09-09T08:11:20.000Z</time>
      </trkpt>
      <trkpt lat="43.94939" lon="7.30167">
        <ele>767.79998779297</ele>
        <time>2012-09-09T08:11:28.000Z</time>
      </trkpt>
      <trkpt lat="43.94951" lon="7.3017">
        <ele>769.59997558594</ele>
        <time>2012-09-09T08:11:35.000Z</time>
      </trkpt>
      <trkpt lat="43.94963" lon="7.30173">
        <ele>771.40002441406</ele>
        <time>2012-09-09T08:11:42.000Z</time>
      </trkpt>
      <trkpt lat="43.94976" lon="7.30172">
        <ele>772.79998779297</ele>
        <time>2012-09-09T08:11:49.000Z</time>
      </trkpt>
      <trkpt lat="43.94985" lon="7.30169">
        <ele>773.59997558594</ele>
        <time>2012-09-09T08:11:54.000Z</time>
      </trkpt>
      <trkpt lat="43.9499" lon="7.3018">
        <ele>776.59997558594</ele>
        <time>2012-09-09T08:11:59.000Z</time>
      </trkpt>
      <trkpt lat="43.94987" lon="7.30185">
        <ele>776.79998779297</ele>
        <time>2012-09-09T08:12:02.000Z</time>
      </trkpt>
      <trkpt lat="43.94975" lon="7.3019">
        <ele>775.59997558594</ele>
        <time>2012-09-09T08:12:11.000Z</time>
      </trkpt>
      <trkpt lat="43.94965" lon="7.30196">
        <ele>774.79998779297</ele>
        <time>2012-09-09T08:12:20.000Z</time>
      </trkpt>
      <trkpt lat="43.94964" lon="7.30198">
        <ele>774.79998779297</ele>
        <time>2012-09-09T08:12:21.000Z</time>
      </trkpt>
      <trkpt lat="43.9495" lon="7.30212">
        <ele>773.20001220703</ele>
        <time>2012-09-09T08:12:29.000Z</time>
      </trkpt>
      <trkpt lat="43.94935" lon="7.30223">
        <ele>770</ele>
        <time>2012-09-09T08:12:36.000Z</time>
      </trkpt>
      <trkpt lat="43.94941" lon="7.30241">
        <ele>773</ele>
        <time>2012-09-09T08:12:43.000Z</time>
      </trkpt>
      <trkpt lat="43.94952" lon="7.3026">
        <ele>776.79998779297</ele>
        <time>2012-09-09T08:12:51.000Z</time>
      </trkpt>
      <trkpt lat="43.9496" lon="7.30273">
        <ele>778.79998779297</ele>
        <time>2012-09-09T08:12:56.000Z</time>
      </trkpt>
      <trkpt lat="43.94969" lon="7.30287">
        <ele>781.40002441406</ele>
        <time>2012-09-09T08:13:01.000Z</time>
      </trkpt>
      <trkpt lat="43.94979" lon="7.30299">
        <ele>784.79998779297</ele>
        <time>2012-09-09T08:13:07.000Z</time>
      </trkpt>
      <trkpt lat="43.94989" lon="7.30314">
        <ele>788.40002441406</ele>
        <time>2012-09-09T08:13:13.000Z</time>
      </trkpt>
      <trkpt lat="43.94994" lon="7.30328">
        <ele>790.40002441406</ele>
        <time>2012-09-09T08:13:19.000Z</time>
      </trkpt>
      <trkpt lat="43.94999" lon="7.30345">
        <ele>793</ele>
        <time>2012-09-09T08:13:25.000Z</time>
      </trkpt>
      <trkpt lat="43.95" lon="7.30351">
        <ele>794</ele>
        <time>2012-09-09T08:13:28.000Z</time>
      </trkpt>
      <trkpt lat="43.95003" lon="7.30349">
        <ele>794.79998779297</ele>
        <time>2012-09-09T08:13:31.000Z</time>
      </trkpt>
      <trkpt lat="43.95" lon="7.3033">
        <ele>793</ele>
        <time>2012-09-09T08:13:37.000Z</time>
      </trkpt>
      <trkpt lat="43.94995" lon="7.30301">
        <ele>791.20001220703</ele>
        <time>2012-09-09T08:13:47.000Z</time>
      </trkpt>
      <trkpt lat="43.94994" lon="7.30273">
        <ele>791.40002441406</ele>
        <time>2012-09-09T08:13:57.000Z</time>
      </trkpt>
      <trkpt lat="43.94997" lon="7.30259">
        <ele>792.79998779297</ele>
        <time>2012-09-09T08:14:03.000Z</time>
      </trkpt>
      <trkpt lat="43.95001" lon="7.30244">
        <ele>792.79998779297</ele>
        <time>2012-09-09T08:14:09.000Z</time>
      </trkpt>
      <trkpt lat="43.95007" lon="7.30228">
        <ele>790.20001220703</ele>
        <time>2012-09-09T08:14:16.000Z</time>
      </trkpt>
      <trkpt lat="43.95017" lon="7.30219">
        <ele>790.20001220703</ele>
        <time>2012-09-09T08:14:22.000Z</time>
      </trkpt>
      <trkpt lat="43.95021" lon="7.3022">
        <ele>791</ele>
        <time>2012-09-09T08:14:24.000Z</time>
      </trkpt>
      <trkpt lat="43.95021" lon="7.30231">
        <ele>794</ele>
        <time>2012-09-09T08:14:29.000Z</time>
      </trkpt>
      <trkpt lat="43.95019" lon="7.30233">
        <ele>794</ele>
        <time>2012-09-09T08:14:30.000Z</time>
      </trkpt>
      <trkpt lat="43.95011" lon="7.30244">
        <ele>795.20001220703</ele>
        <time>2012-09-09T08:14:36.000Z</time>
      </trkpt>
      <trkpt lat="43.95014" lon="7.3026">
        <ele>797.40002441406</ele>
        <time>2012-09-09T08:14:43.000Z</time>
      </trkpt>
      <trkpt lat="43.95019" lon="7.30274">
        <ele>798.79998779297</ele>
        <time>2012-09-09T08:14:49.000Z</time>
      </trkpt>
      <trkpt lat="43.95027" lon="7.30288">
        <ele>801.40002441406</ele>
        <time>2012-09-09T08:14:54.000Z</time>
      </trkpt>
      <trkpt lat="43.95033" lon="7.30301">
        <ele>803.79998779297</ele>
        <time>2012-09-09T08:14:58.000Z</time>
      </trkpt>
      <trkpt lat="43.95036" lon="7.30318">
        <ele>805.40002441406</ele>
        <time>2012-09-09T08:15:06.000Z</time>
      </trkpt>
      <trkpt lat="43.95037" lon="7.3032">
        <ele>805.79998779297</ele>
        <time>2012-09-09T08:15:07.000Z</time>
      </trkpt>
      <trkpt lat="43.95035" lon="7.3033">
        <ele>805.40002441406</ele>
        <time>2012-09-09T08:15:13.000Z</time>
      </trkpt>
      <trkpt lat="43.95037" lon="7.30341">
        <ele>806.59997558594</ele>
        <time>2012-09-09T08:15:17.000Z</time>
      </trkpt>
      <trkpt lat="43.95038" lon="7.30354">
        <ele>807.79998779297</ele>
        <time>2012-09-09T08:15:23.000Z</time>
      </trkpt>
      <trkpt lat="43.95042" lon="7.30368">
        <ele>809.59997558594</ele>
        <time>2012-09-09T08:15:30.000Z</time>
      </trkpt>
      <trkpt lat="43.95049" lon="7.30385">
        <ele>813</ele>
        <time>2012-09-09T08:15:37.000Z</time>
      </trkpt>
      <trkpt lat="43.95051" lon="7.30401">
        <ele>814.59997558594</ele>
        <time>2012-09-09T08:15:44.000Z</time>
      </trkpt>
      <trkpt lat="43.95053" lon="7.30413">
        <ele>815.79998779297</ele>
        <time>2012-09-09T08:15:49.000Z</time>
      </trkpt>
      <trkpt lat="43.95057" lon="7.3043">
        <ele>818.40002441406</ele>
        <time>2012-09-09T08:15:56.000Z</time>
      </trkpt>
      <trkpt lat="43.95053" lon="7.3044">
        <ele>817.79998779297</ele>
        <time>2012-09-09T08:16:02.000Z</time>
      </trkpt>
      <trkpt lat="43.95053" lon="7.30442">
        <ele>818.20001220703</ele>
        <time>2012-09-09T08:16:03.000Z</time>
      </trkpt>
      <trkpt lat="43.95056" lon="7.30446">
        <ele>819.20001220703</ele>
        <time>2012-09-09T08:16:05.000Z</time>
      </trkpt>
      <trkpt lat="43.95059" lon="7.30449">
        <ele>820.59997558594</ele>
        <time>2012-09-09T08:16:07.000Z</time>
      </trkpt>
      <trkpt lat="43.95066" lon="7.30442">
        <ele>822.59997558594</ele>
        <time>2012-09-09T08:16:13.000Z</time>
      </trkpt>
      <trkpt lat="43.95069" lon="7.30424">
        <ele>822.40002441406</ele>
        <time>2012-09-09T08:16:21.000Z</time>
      </trkpt>
      <trkpt lat="43.95068" lon="7.30404">
        <ele>821</ele>
        <time>2012-09-09T08:16:30.000Z</time>
      </trkpt>
      <trkpt lat="43.9507" lon="7.30383">
        <ele>820.40002441406</ele>
        <time>2012-09-09T08:16:39.000Z</time>
      </trkpt>
      <trkpt lat="43.95075" lon="7.30364">
        <ele>821.40002441406</ele>
        <time>2012-09-09T08:16:47.000Z</time>
      </trkpt>
      <trkpt lat="43.95082" lon="7.30345">
        <ele>823.20001220703</ele>
        <time>2012-09-09T08:16:55.000Z</time>
      </trkpt>
      <trkpt lat="43.95084" lon="7.30331">
        <ele>822.79998779297</ele>
        <time>2012-09-09T08:17:00.000Z</time>
      </trkpt>
      <trkpt lat="43.9509" lon="7.30313">
        <ele>821.59997558594</ele>
        <time>2012-09-09T08:17:08.000Z</time>
      </trkpt>
      <trkpt lat="43.95097" lon="7.30298">
        <ele>820.59997558594</ele>
        <time>2012-09-09T08:17:14.000Z</time>
      </trkpt>
      <trkpt lat="43.95105" lon="7.3029">
        <ele>820.40002441406</ele>
        <time>2012-09-09T08:17:20.000Z</time>
      </trkpt>
      <trkpt lat="43.95114" lon="7.30281">
        <ele>819.79998779297</ele>
        <time>2012-09-09T08:17:27.000Z</time>
      </trkpt>
      <trkpt lat="43.95128" lon="7.30276">
        <ele>820.20001220703</ele>
        <time>2012-09-09T08:17:35.000Z</time>
      </trkpt>
      <trkpt lat="43.95136" lon="7.30272">
        <ele>820.20001220703</ele>
        <time>2012-09-09T08:17:40.000Z</time>
      </trkpt>
      <trkpt lat="43.9515" lon="7.30271">
        <ele>821.20001220703</ele>
        <time>2012-09-09T08:17:48.000Z</time>
      </trkpt>
      <trkpt lat="43.95163" lon="7.30274">
        <ele>823</ele>
        <time>2012-09-09T08:17:55.000Z</time>
      </trkpt>
      <trkpt lat="43.95174" lon="7.3029">
        <ele>824.40002441406</ele>
        <time>2012-09-09T08:18:02.000Z</time>
      </trkpt>
      <trkpt lat="43.95176" lon="7.30304">
        <ele>827.40002441406</ele>
        <time>2012-09-09T08:18:06.000Z</time>
      </trkpt>
      <trkpt lat="43.95168" lon="7.30315">
        <ele>833.79998779297</ele>
        <time>2012-09-09T08:18:13.000Z</time>
      </trkpt>
      <trkpt lat="43.95155" lon="7.30331">
        <ele>836.20001220703</ele>
        <time>2012-09-09T08:18:20.000Z</time>
      </trkpt>
      <trkpt lat="43.95154" lon="7.30334">
        <ele>836.59997558594</ele>
        <time>2012-09-09T08:18:21.000Z</time>
      </trkpt>
      <trkpt lat="43.95145" lon="7.30348">
        <ele>836.40002441406</ele>
        <time>2012-09-09T08:18:27.000Z</time>
      </trkpt>
      <trkpt lat="43.95141" lon="7.30356">
        <ele>836</ele>
        <time>2012-09-09T08:18:31.000Z</time>
      </trkpt>
      <trkpt lat="43.95149" lon="7.30363">
        <ele>838.40002441406</ele>
        <time>2012-09-09T08:18:36.000Z</time>
      </trkpt>
      <trkpt lat="43.95151" lon="7.30363">
        <ele>838.79998779297</ele>
        <time>2012-09-09T08:18:37.000Z</time>
      </trkpt>
      <trkpt lat="43.95167" lon="7.3036">
        <ele>841.79998779297</ele>
        <time>2012-09-09T08:18:45.000Z</time>
      </trkpt>
      <trkpt lat="43.95181" lon="7.30356">
        <ele>838</ele>
        <time>2012-09-09T08:18:53.000Z</time>
      </trkpt>
      <trkpt lat="43.95194" lon="7.30353">
        <ele>834.59997558594</ele>
        <time>2012-09-09T08:19:00.000Z</time>
      </trkpt>
      <trkpt lat="43.95203" lon="7.30357">
        <ele>833.40002441406</ele>
        <time>2012-09-09T08:19:06.000Z</time>
      </trkpt>
      <trkpt lat="43.95206" lon="7.30361">
        <ele>833.79998779297</ele>
        <time>2012-09-09T08:19:08.000Z</time>
      </trkpt>
      <trkpt lat="43.95202" lon="7.30374">
        <ele>837.59997558594</ele>
        <time>2012-09-09T08:19:15.000Z</time>
      </trkpt>
      <trkpt lat="43.952" lon="7.30375">
        <ele>838</ele>
        <time>2012-09-09T08:19:16.000Z</time>
      </trkpt>
      <trkpt lat="43.95186" lon="7.30381">
        <ele>841.59997558594</ele>
        <time>2012-09-09T08:19:24.000Z</time>
      </trkpt>
      <trkpt lat="43.95188" lon="7.30392">
        <ele>843.20001220703</ele>
        <time>2012-09-09T08:19:29.000Z</time>
      </trkpt>
      <trkpt lat="43.9519" lon="7.30392">
        <ele>843</ele>
        <time>2012-09-09T08:19:30.000Z</time>
      </trkpt>
      <trkpt lat="43.95202" lon="7.30391">
        <ele>841.59997558594</ele>
        <time>2012-09-09T08:19:37.000Z</time>
      </trkpt>
      <trkpt lat="43.95211" lon="7.30394">
        <ele>841.40002441406</ele>
        <time>2012-09-09T08:19:43.000Z</time>
      </trkpt>
      <trkpt lat="43.95217" lon="7.30397">
        <ele>841.79998779297</ele>
        <time>2012-09-09T08:19:49.000Z</time>
      </trkpt>
      <trkpt lat="43.95219" lon="7.30399">
        <ele>842.20001220703</ele>
        <time>2012-09-09T08:19:50.000Z</time>
      </trkpt>
      <trkpt lat="43.95225" lon="7.3041">
        <ele>845.20001220703</ele>
        <time>2012-09-09T08:19:56.000Z</time>
      </trkpt>
      <trkpt lat="43.95231" lon="7.30419">
        <ele>847.79998779297</ele>
        <time>2012-09-09T08:20:03.000Z</time>
      </trkpt>
      <trkpt lat="43.95238" lon="7.3043">
        <ele>850.59997558594</ele>
        <time>2012-09-09T08:20:09.000Z</time>
      </trkpt>
      <trkpt lat="43.95246" lon="7.30441">
        <ele>854</ele>
        <time>2012-09-09T08:20:15.000Z</time>
      </trkpt>
      <trkpt lat="43.95255" lon="7.30448">
        <ele>854.20001220703</ele>
        <time>2012-09-09T08:20:21.000Z</time>
      </trkpt>
      <trkpt lat="43.95262" lon="7.30455">
        <ele>853.20001220703</ele>
        <time>2012-09-09T08:20:26.000Z</time>
      </trkpt>
      <trkpt lat="43.9527" lon="7.30467">
        <ele>853.20001220703</ele>
        <time>2012-09-09T08:20:31.000Z</time>
      </trkpt>
      <trkpt lat="43.95269" lon="7.30474">
        <ele>855.79998779297</ele>
        <time>2012-09-09T08:20:34.000Z</time>
      </trkpt>
      <trkpt lat="43.95255" lon="7.30472">
        <ele>861.20001220703</ele>
        <time>2012-09-09T08:20:42.000Z</time>
      </trkpt>
      <trkpt lat="43.95247" lon="7.30471">
        <ele>863</ele>
        <time>2012-09-09T08:20:48.000Z</time>
      </trkpt>
      <trkpt lat="43.95241" lon="7.30474">
        <ele>863.20001220703</ele>
        <time>2012-09-09T08:20:52.000Z</time>
      </trkpt>
      <trkpt lat="43.95239" lon="7.30481">
        <ele>864.59997558594</ele>
        <time>2012-09-09T08:20:58.000Z</time>
      </trkpt>
      <trkpt lat="43.95242" lon="7.30486">
        <ele>866.59997558594</ele>
        <time>2012-09-09T08:21:02.000Z</time>
      </trkpt>
      <trkpt lat="43.95243" lon="7.30492">
        <ele>868.20001220703</ele>
        <time>2012-09-09T08:21:05.000Z</time>
      </trkpt>
      <trkpt lat="43.9525" lon="7.30508">
        <ele>872.59997558594</ele>
        <time>2012-09-09T08:21:11.000Z</time>
      </trkpt>
      <trkpt lat="43.95249" lon="7.30519">
        <ele>873.40002441406</ele>
        <time>2012-09-09T08:21:16.000Z</time>
      </trkpt>
      <trkpt lat="43.95249" lon="7.30531">
        <ele>874.40002441406</ele>
        <time>2012-09-09T08:21:22.000Z</time>
      </trkpt>
      <trkpt lat="43.95249" lon="7.30538">
        <ele>875</ele>
        <time>2012-09-09T08:21:28.000Z</time>
      </trkpt>
      <trkpt lat="43.95259" lon="7.30548">
        <ele>872.59997558594</ele>
        <time>2012-09-09T08:21:33.000Z</time>
      </trkpt>
      <trkpt lat="43.95268" lon="7.30565">
        <ele>871.20001220703</ele>
        <time>2012-09-09T08:21:39.000Z</time>
      </trkpt>
      <trkpt lat="43.95277" lon="7.30572">
        <ele>868.79998779297</ele>
        <time>2012-09-09T08:21:46.000Z</time>
      </trkpt>
      <trkpt lat="43.95279" lon="7.30576">
        <ele>868.40002441406</ele>
        <time>2012-09-09T08:21:55.000Z</time>
      </trkpt>
      <trkpt lat="43.95284" lon="7.3058">
        <ele>867.59997558594</ele>
        <time>2012-09-09T08:22:04.000Z</time>
      </trkpt>
      <trkpt lat="43.95284" lon="7.3058">
        <ele>867.59997558594</ele>
        <time>2012-09-09T08:22:15.000Z</time>
      </trkpt>
      <trkpt lat="43.95276" lon="7.30572">
        <ele>869</ele>
        <time>2012-09-09T08:23:06.000Z</time>
      </trkpt>
      <trkpt lat="43.95274" lon="7.30569">
        <ele>869.40002441406</ele>
        <time>2012-09-09T08:23:19.000Z</time>
      </trkpt>
      <trkpt lat="43.95274" lon="7.30565">
        <ele>869</ele>
        <time>2012-09-09T08:26:49.000Z</time>
      </trkpt>
      <trkpt lat="43.95271" lon="7.30575">
        <ele>871.40002441406</ele>
        <time>2012-09-09T08:27:25.000Z</time>
      </trkpt>
      <trkpt lat="43.95268" lon="7.30568">
        <ele>871.40002441406</ele>
        <time>2012-09-09T08:27:38.000Z</time>
      </trkpt>
      <trkpt lat="43.95264" lon="7.30574">
        <ele>873.40002441406</ele>
        <time>2012-09-09T08:27:42.000Z</time>
      </trkpt>
      <trkpt lat="43.95263" lon="7.30584">
        <ele>874.79998779297</ele>
        <time>2012-09-09T08:27:46.000Z</time>
      </trkpt>
      <trkpt lat="43.95263" lon="7.30603">
        <ele>878.20001220703</ele>
        <time>2012-09-09T08:27:53.000Z</time>
      </trkpt>
      <trkpt lat="43.95263" lon="7.30616">
        <ele>880.40002441406</ele>
        <time>2012-09-09T08:27:59.000Z</time>
      </trkpt>
      <trkpt lat="43.95264" lon="7.30627">
        <ele>882</ele>
        <time>2012-09-09T08:28:03.000Z</time>
      </trkpt>
      <trkpt lat="43.95263" lon="7.30644">
        <ele>885.59997558594</ele>
        <time>2012-09-09T08:28:10.000Z</time>
      </trkpt>
      <trkpt lat="43.95261" lon="7.30654">
        <ele>887.59997558594</ele>
        <time>2012-09-09T08:28:14.000Z</time>
      </trkpt>
      <trkpt lat="43.95258" lon="7.30675">
        <ele>892.40002441406</ele>
        <time>2012-09-09T08:28:21.000Z</time>
      </trkpt>
      <trkpt lat="43.95252" lon="7.30686">
        <ele>896.20001220703</ele>
        <time>2012-09-09T08:28:27.000Z</time>
      </trkpt>
      <trkpt lat="43.9525" lon="7.30698">
        <ele>899</ele>
        <time>2012-09-09T08:28:33.000Z</time>
      </trkpt>
      <trkpt lat="43.95246" lon="7.30703">
        <ele>899.40002441406</ele>
        <time>2012-09-09T08:28:36.000Z</time>
      </trkpt>
      <trkpt lat="43.95242" lon="7.30711">
        <ele>900.20001220703</ele>
        <time>2012-09-09T08:28:40.000Z</time>
      </trkpt>
      <trkpt lat="43.95238" lon="7.30725">
        <ele>902.40002441406</ele>
        <time>2012-09-09T08:28:48.000Z</time>
      </trkpt>
      <trkpt lat="43.95231" lon="7.30731">
        <ele>902.59997558594</ele>
        <time>2012-09-09T08:28:53.000Z</time>
      </trkpt>
      <trkpt lat="43.95229" lon="7.30741">
        <ele>904.40002441406</ele>
        <time>2012-09-09T08:28:57.000Z</time>
      </trkpt>
      <trkpt lat="43.95228" lon="7.30756">
        <ele>907.40002441406</ele>
        <time>2012-09-09T08:29:03.000Z</time>
      </trkpt>
      <trkpt lat="43.95221" lon="7.30766">
        <ele>908.40002441406</ele>
        <time>2012-09-09T08:29:09.000Z</time>
      </trkpt>
      <trkpt lat="43.95215" lon="7.30769">
        <ele>908.20001220703</ele>
        <time>2012-09-09T08:29:13.000Z</time>
      </trkpt>
      <trkpt lat="43.95208" lon="7.30778">
        <ele>909</ele>
        <time>2012-09-09T08:29:20.000Z</time>
      </trkpt>
      <trkpt lat="43.95205" lon="7.30787">
        <ele>910.40002441406</ele>
        <time>2012-09-09T08:29:26.000Z</time>
      </trkpt>
      <trkpt lat="43.95196" lon="7.30801">
        <ele>912</ele>
        <time>2012-09-09T08:29:34.000Z</time>
      </trkpt>
      <trkpt lat="43.95188" lon="7.30806">
        <ele>912</ele>
        <time>2012-09-09T08:29:40.000Z</time>
      </trkpt>
      <trkpt lat="43.95182" lon="7.30811">
        <ele>912.40002441406</ele>
        <time>2012-09-09T08:29:45.000Z</time>
      </trkpt>
      <trkpt lat="43.95176" lon="7.30818">
        <ele>913</ele>
        <time>2012-09-09T08:29:50.000Z</time>
      </trkpt>
      <trkpt lat="43.95172" lon="7.30822">
        <ele>913.40002441406</ele>
        <time>2012-09-09T08:29:54.000Z</time>
      </trkpt>
      <trkpt lat="43.95165" lon="7.3083">
        <ele>913.59997558594</ele>
        <time>2012-09-09T08:30:01.000Z</time>
      </trkpt>
      <trkpt lat="43.95164" lon="7.30843">
        <ele>914.59997558594</ele>
        <time>2012-09-09T08:30:07.000Z</time>
      </trkpt>
      <trkpt lat="43.95165" lon="7.3086">
        <ele>916.59997558594</ele>
        <time>2012-09-09T08:30:13.000Z</time>
      </trkpt>
      <trkpt lat="43.95171" lon="7.3087">
        <ele>918.79998779297</ele>
        <time>2012-09-09T08:30:19.000Z</time>
      </trkpt>
      <trkpt lat="43.9517" lon="7.30867">
        <ele>918.40002441406</ele>
        <time>2012-09-09T08:30:22.000Z</time>
      </trkpt>
      <trkpt lat="43.95186" lon="7.30885">
        <ele>923.40002441406</ele>
        <time>2012-09-09T08:30:29.000Z</time>
      </trkpt>
      <trkpt lat="43.95193" lon="7.30897">
        <ele>926.20001220703</ele>
        <time>2012-09-09T08:30:35.000Z</time>
      </trkpt>
      <trkpt lat="43.95197" lon="7.30909">
        <ele>928.59997558594</ele>
        <time>2012-09-09T08:30:40.000Z</time>
      </trkpt>
      <trkpt lat="43.95198" lon="7.30914">
        <ele>929.40002441406</ele>
        <time>2012-09-09T08:30:42.000Z</time>
      </trkpt>
      <trkpt lat="43.95201" lon="7.30931">
        <ele>932</ele>
        <time>2012-09-09T08:30:50.000Z</time>
      </trkpt>
      <trkpt lat="43.95201" lon="7.30945">
        <ele>933</ele>
        <time>2012-09-09T08:30:57.000Z</time>
      </trkpt>
      <trkpt lat="43.95201" lon="7.30951">
        <ele>933.40002441406</ele>
        <time>2012-09-09T08:31:01.000Z</time>
      </trkpt>
      <trkpt lat="43.952" lon="7.30954">
        <ele>933.40002441406</ele>
        <time>2012-09-09T08:31:02.000Z</time>
      </trkpt>
      <trkpt lat="43.95198" lon="7.30958">
        <ele>933</ele>
        <time>2012-09-09T08:31:04.000Z</time>
      </trkpt>
      <trkpt lat="43.95201" lon="7.30971">
        <ele>935.20001220703</ele>
        <time>2012-09-09T08:31:10.000Z</time>
      </trkpt>
      <trkpt lat="43.95199" lon="7.30987">
        <ele>935.79998779297</ele>
        <time>2012-09-09T08:31:16.000Z</time>
      </trkpt>
      <trkpt lat="43.95197" lon="7.30999">
        <ele>936</ele>
        <time>2012-09-09T08:31:21.000Z</time>
      </trkpt>
      <trkpt lat="43.95202" lon="7.30999">
        <ele>938.20001220703</ele>
        <time>2012-09-09T08:31:26.000Z</time>
      </trkpt>
      <trkpt lat="43.95206" lon="7.30988">
        <ele>938.20001220703</ele>
        <time>2012-09-09T08:31:32.000Z</time>
      </trkpt>
      <trkpt lat="43.9521" lon="7.30976">
        <ele>939</ele>
        <time>2012-09-09T08:31:38.000Z</time>
      </trkpt>
      <trkpt lat="43.95218" lon="7.30967">
        <ele>940.59997558594</ele>
        <time>2012-09-09T08:31:45.000Z</time>
      </trkpt>
      <trkpt lat="43.95225" lon="7.30959">
        <ele>941.79998779297</ele>
        <time>2012-09-09T08:31:52.000Z</time>
      </trkpt>
      <trkpt lat="43.95233" lon="7.30943">
        <ele>942.20001220703</ele>
        <time>2012-09-09T08:32:00.000Z</time>
      </trkpt>
      <trkpt lat="43.9524" lon="7.30933">
        <ele>943</ele>
        <time>2012-09-09T08:32:07.000Z</time>
      </trkpt>
      <trkpt lat="43.95251" lon="7.30927">
        <ele>944.79998779297</ele>
        <time>2012-09-09T08:32:15.000Z</time>
      </trkpt>
      <trkpt lat="43.95263" lon="7.30924">
        <ele>946.79998779297</ele>
        <time>2012-09-09T08:32:23.000Z</time>
      </trkpt>
      <trkpt lat="43.95271" lon="7.30922">
        <ele>948</ele>
        <time>2012-09-09T08:32:28.000Z</time>
      </trkpt>
      <trkpt lat="43.95281" lon="7.30919">
        <ele>949.40002441406</ele>
        <time>2012-09-09T08:32:34.000Z</time>
      </trkpt>
      <trkpt lat="43.95289" lon="7.30913">
        <ele>950</ele>
        <time>2012-09-09T08:32:40.000Z</time>
      </trkpt>
      <trkpt lat="43.95292" lon="7.30921">
        <ele>952</ele>
        <time>2012-09-09T08:32:45.000Z</time>
      </trkpt>
      <trkpt lat="43.95286" lon="7.30938">
        <ele>953</ele>
        <time>2012-09-09T08:32:54.000Z</time>
      </trkpt>
      <trkpt lat="43.95284" lon="7.30952">
        <ele>954</ele>
        <time>2012-09-09T08:33:00.000Z</time>
      </trkpt>
      <trkpt lat="43.95276" lon="7.30966">
        <ele>954.79998779297</ele>
        <time>2012-09-09T08:33:08.000Z</time>
      </trkpt>
      <trkpt lat="43.95269" lon="7.30978">
        <ele>955.59997558594</ele>
        <time>2012-09-09T08:33:15.000Z</time>
      </trkpt>
      <trkpt lat="43.9526" lon="7.30995">
        <ele>957</ele>
        <time>2012-09-09T08:33:24.000Z</time>
      </trkpt>
      <trkpt lat="43.95249" lon="7.31008">
        <ele>956.79998779297</ele>
        <time>2012-09-09T08:33:31.000Z</time>
      </trkpt>
      <trkpt lat="43.95242" lon="7.31015">
        <ele>954.59997558594</ele>
        <time>2012-09-09T08:33:35.000Z</time>
      </trkpt>
      <trkpt lat="43.95237" lon="7.31024">
        <ele>952.79998779297</ele>
        <time>2012-09-09T08:33:39.000Z</time>
      </trkpt>
      <trkpt lat="43.95233" lon="7.31041">
        <ele>952.40002441406</ele>
        <time>2012-09-09T08:33:46.000Z</time>
      </trkpt>
      <trkpt lat="43.95233" lon="7.31052">
        <ele>953</ele>
        <time>2012-09-09T08:33:51.000Z</time>
      </trkpt>
      <trkpt lat="43.95236" lon="7.31059">
        <ele>954.20001220703</ele>
        <time>2012-09-09T08:33:55.000Z</time>
      </trkpt>
      <trkpt lat="43.95245" lon="7.31059">
        <ele>956.79998779297</ele>
        <time>2012-09-09T08:33:59.000Z</time>
      </trkpt>
      <trkpt lat="43.95251" lon="7.31059">
        <ele>958.40002441406</ele>
        <time>2012-09-09T08:34:03.000Z</time>
      </trkpt>
      <trkpt lat="43.95244" lon="7.31073">
        <ele>957.20001220703</ele>
        <time>2012-09-09T08:34:09.000Z</time>
      </trkpt>
      <trkpt lat="43.95241" lon="7.31076">
        <ele>956.59997558594</ele>
        <time>2012-09-09T08:34:10.000Z</time>
      </trkpt>
      <trkpt lat="43.95224" lon="7.31092">
        <ele>949.59997558594</ele>
        <time>2012-09-09T08:34:16.000Z</time>
      </trkpt>
      <trkpt lat="43.95217" lon="7.31097">
        <ele>946.79998779297</ele>
        <time>2012-09-09T08:34:20.000Z</time>
      </trkpt>
      <trkpt lat="43.95209" lon="7.31104">
        <ele>943.79998779297</ele>
        <time>2012-09-09T08:34:25.000Z</time>
      </trkpt>
      <trkpt lat="43.95202" lon="7.31109">
        <ele>942</ele>
        <time>2012-09-09T08:34:37.000Z</time>
      </trkpt>
      <trkpt lat="43.95198" lon="7.31113">
        <ele>941</ele>
        <time>2012-09-09T08:34:41.000Z</time>
      </trkpt>
      <trkpt lat="43.95186" lon="7.31129">
        <ele>938.59997558594</ele>
        <time>2012-09-09T08:34:46.000Z</time>
      </trkpt>
      <trkpt lat="43.95172" lon="7.31145">
        <ele>938.79998779297</ele>
        <time>2012-09-09T08:34:51.000Z</time>
      </trkpt>
      <trkpt lat="43.95156" lon="7.3115">
        <ele>936</ele>
        <time>2012-09-09T08:34:57.000Z</time>
      </trkpt>
      <trkpt lat="43.95151" lon="7.31163">
        <ele>934.79998779297</ele>
        <time>2012-09-09T08:35:02.000Z</time>
      </trkpt>
      <trkpt lat="43.95147" lon="7.31175">
        <ele>932.20001220703</ele>
        <time>2012-09-09T08:35:06.000Z</time>
      </trkpt>
      <trkpt lat="43.95139" lon="7.3119">
        <ele>928.40002441406</ele>
        <time>2012-09-09T08:35:10.000Z</time>
      </trkpt>
      <trkpt lat="43.95134" lon="7.31207">
        <ele>925.79998779297</ele>
        <time>2012-09-09T08:35:14.000Z</time>
      </trkpt>
      <trkpt lat="43.95125" lon="7.31224">
        <ele>923.79998779297</ele>
        <time>2012-09-09T08:35:19.000Z</time>
      </trkpt>
      <trkpt lat="43.95122" lon="7.31231">
        <ele>923.59997558594</ele>
        <time>2012-09-09T08:35:21.000Z</time>
      </trkpt>
      <trkpt lat="43.95112" lon="7.31246">
        <ele>924.20001220703</ele>
        <time>2012-09-09T08:35:27.000Z</time>
      </trkpt>
      <trkpt lat="43.95103" lon="7.3126">
        <ele>924.79998779297</ele>
        <time>2012-09-09T08:35:32.000Z</time>
      </trkpt>
      <trkpt lat="43.95101" lon="7.31263">
        <ele>925</ele>
        <time>2012-09-09T08:35:33.000Z</time>
      </trkpt>
      <trkpt lat="43.95094" lon="7.31276">
        <ele>926.40002441406</ele>
        <time>2012-09-09T08:35:38.000Z</time>
      </trkpt>
      <trkpt lat="43.95086" lon="7.31296">
        <ele>929</ele>
        <time>2012-09-09T08:35:44.000Z</time>
      </trkpt>
      <trkpt lat="43.95074" lon="7.31316">
        <ele>930.59997558594</ele>
        <time>2012-09-09T08:35:50.000Z</time>
      </trkpt>
      <trkpt lat="43.95058" lon="7.31337">
        <ele>932</ele>
        <time>2012-09-09T08:35:55.000Z</time>
      </trkpt>
      <trkpt lat="43.9505" lon="7.31354">
        <ele>933</ele>
        <time>2012-09-09T08:35:58.000Z</time>
      </trkpt>
      <trkpt lat="43.95046" lon="7.31387">
        <ele>935.79998779297</ele>
        <time>2012-09-09T08:36:02.000Z</time>
      </trkpt>
      <trkpt lat="43.95048" lon="7.31395">
        <ele>935.79998779297</ele>
        <time>2012-09-09T08:36:03.000Z</time>
      </trkpt>
      <trkpt lat="43.9505" lon="7.31448">
        <ele>929.59997558594</ele>
        <time>2012-09-09T08:36:08.000Z</time>
      </trkpt>
      <trkpt lat="43.95046" lon="7.31474">
        <ele>926.59997558594</ele>
        <time>2012-09-09T08:36:12.000Z</time>
      </trkpt>
      <trkpt lat="43.95036" lon="7.31493">
        <ele>928.59997558594</ele>
        <time>2012-09-09T08:36:15.000Z</time>
      </trkpt>
      <trkpt lat="43.95027" lon="7.3152">
        <ele>926.40002441406</ele>
        <time>2012-09-09T08:36:18.000Z</time>
      </trkpt>
      <trkpt lat="43.9502" lon="7.31531">
        <ele>926.20001220703</ele>
        <time>2012-09-09T08:36:20.000Z</time>
      </trkpt>
      <trkpt lat="43.9501" lon="7.31552">
        <ele>925.20001220703</ele>
        <time>2012-09-09T08:36:23.000Z</time>
      </trkpt>
      <trkpt lat="43.94999" lon="7.31595">
        <ele>916.59997558594</ele>
        <time>2012-09-09T08:36:28.000Z</time>
      </trkpt>
      <trkpt lat="43.94988" lon="7.31618">
        <ele>913.40002441406</ele>
        <time>2012-09-09T08:36:32.000Z</time>
      </trkpt>
      <trkpt lat="43.94985" lon="7.31634">
        <ele>909.79998779297</ele>
        <time>2012-09-09T08:36:34.000Z</time>
      </trkpt>
      <trkpt lat="43.94981" lon="7.31667">
        <ele>901</ele>
        <time>2012-09-09T08:36:37.000Z</time>
      </trkpt>
      <trkpt lat="43.94975" lon="7.31694">
        <ele>895.59997558594</ele>
        <time>2012-09-09T08:36:40.000Z</time>
      </trkpt>
      <trkpt lat="43.94969" lon="7.31738">
        <ele>885.20001220703</ele>
        <time>2012-09-09T08:36:45.000Z</time>
      </trkpt>
      <trkpt lat="43.94967" lon="7.31743">
        <ele>884.59997558594</ele>
        <time>2012-09-09T08:36:46.000Z</time>
      </trkpt>
      <trkpt lat="43.9496" lon="7.3176">
        <ele>882.59997558594</ele>
        <time>2012-09-09T08:36:49.000Z</time>
      </trkpt>
      <trkpt lat="43.9495" lon="7.31775">
        <ele>882.40002441406</ele>
        <time>2012-09-09T08:36:52.000Z</time>
      </trkpt>
      <trkpt lat="43.94937" lon="7.31795">
        <ele>881.79998779297</ele>
        <time>2012-09-09T08:36:57.000Z</time>
      </trkpt>
      <trkpt lat="43.9493" lon="7.31815">
        <ele>878.79998779297</ele>
        <time>2012-09-09T08:37:01.000Z</time>
      </trkpt>
      <trkpt lat="43.94923" lon="7.31834">
        <ele>876</ele>
        <time>2012-09-09T08:37:04.000Z</time>
      </trkpt>
      <trkpt lat="43.94905" lon="7.31866">
        <ele>869</ele>
        <time>2012-09-09T08:37:10.000Z</time>
      </trkpt>
      <trkpt lat="43.94904" lon="7.31876">
        <ele>866.40002441406</ele>
        <time>2012-09-09T08:37:12.000Z</time>
      </trkpt>
      <trkpt lat="43.94915" lon="7.319">
        <ele>863.40002441406</ele>
        <time>2012-09-09T08:37:17.000Z</time>
      </trkpt>
      <trkpt lat="43.94931" lon="7.31922">
        <ele>855.59997558594</ele>
        <time>2012-09-09T08:37:20.000Z</time>
      </trkpt>
      <trkpt lat="43.9494" lon="7.31935">
        <ele>851.59997558594</ele>
        <time>2012-09-09T08:37:22.000Z</time>
      </trkpt>
      <trkpt lat="43.94956" lon="7.31959">
        <ele>844.59997558594</ele>
        <time>2012-09-09T08:37:27.000Z</time>
      </trkpt>
      <trkpt lat="43.94958" lon="7.31971">
        <ele>842.59997558594</ele>
        <time>2012-09-09T08:37:30.000Z</time>
      </trkpt>
      <trkpt lat="43.94957" lon="7.31979">
        <ele>841.79998779297</ele>
        <time>2012-09-09T08:37:36.000Z</time>
      </trkpt>
      <trkpt lat="43.94958" lon="7.31982">
        <ele>841</ele>
        <time>2012-09-09T08:38:05.000Z</time>
      </trkpt>
      <trkpt lat="43.94957" lon="7.31989">
        <ele>840.20001220703</ele>
        <time>2012-09-09T08:38:10.000Z</time>
      </trkpt>
      <trkpt lat="43.94957" lon="7.32008">
        <ele>838.79998779297</ele>
        <time>2012-09-09T08:38:16.000Z</time>
      </trkpt>
      <trkpt lat="43.94958" lon="7.32031">
        <ele>838.40002441406</ele>
        <time>2012-09-09T08:38:22.000Z</time>
      </trkpt>
      <trkpt lat="43.94959" lon="7.32035">
        <ele>838</ele>
        <time>2012-09-09T08:38:23.000Z</time>
      </trkpt>
      <trkpt lat="43.94963" lon="7.32038">
        <ele>836.79998779297</ele>
        <time>2012-09-09T08:38:24.000Z</time>
      </trkpt>
      <trkpt lat="43.94969" lon="7.32059">
        <ele>835</ele>
        <time>2012-09-09T08:38:29.000Z</time>
      </trkpt>
      <trkpt lat="43.9496" lon="7.32082">
        <ele>837</ele>
        <time>2012-09-09T08:38:34.000Z</time>
      </trkpt>
      <trkpt lat="43.94958" lon="7.32085">
        <ele>837.40002441406</ele>
        <time>2012-09-09T08:38:35.000Z</time>
      </trkpt>
      <trkpt lat="43.94957" lon="7.3209">
        <ele>838</ele>
        <time>2012-09-09T08:38:37.000Z</time>
      </trkpt>
      <trkpt lat="43.9496" lon="7.32117">
        <ele>836.59997558594</ele>
        <time>2012-09-09T08:38:43.000Z</time>
      </trkpt>
      <trkpt lat="43.94954" lon="7.32144">
        <ele>838.59997558594</ele>
        <time>2012-09-09T08:38:49.000Z</time>
      </trkpt>
      <trkpt lat="43.9494" lon="7.32155">
        <ele>844.59997558594</ele>
        <time>2012-09-09T08:38:54.000Z</time>
      </trkpt>
      <trkpt lat="43.94932" lon="7.32171">
        <ele>848.20001220703</ele>
        <time>2012-09-09T08:38:58.000Z</time>
      </trkpt>
      <trkpt lat="43.94919" lon="7.32196">
        <ele>852</ele>
        <time>2012-09-09T08:39:04.000Z</time>
      </trkpt>
      <trkpt lat="43.94907" lon="7.32216">
        <ele>849.79998779297</ele>
        <time>2012-09-09T08:39:10.000Z</time>
      </trkpt>
      <trkpt lat="43.94901" lon="7.32235">
        <ele>846.79998779297</ele>
        <time>2012-09-09T08:39:15.000Z</time>
      </trkpt>
      <trkpt lat="43.94897" lon="7.3226">
        <ele>844.59997558594</ele>
        <time>2012-09-09T08:39:21.000Z</time>
      </trkpt>
      <trkpt lat="43.94897" lon="7.32286">
        <ele>845.20001220703</ele>
        <time>2012-09-09T08:39:26.000Z</time>
      </trkpt>
      <trkpt lat="43.949" lon="7.32308">
        <ele>846</ele>
        <time>2012-09-09T08:39:30.000Z</time>
      </trkpt>
      <trkpt lat="43.94898" lon="7.32324">
        <ele>846.20001220703</ele>
        <time>2012-09-09T08:39:33.000Z</time>
      </trkpt>
      <trkpt lat="43.94898" lon="7.32356">
        <ele>855</ele>
        <time>2012-09-09T08:39:39.000Z</time>
      </trkpt>
      <trkpt lat="43.94897" lon="7.32368">
        <ele>860.20001220703</ele>
        <time>2012-09-09T08:39:43.000Z</time>
      </trkpt>
      <trkpt lat="43.94897" lon="7.32371">
        <ele>861</ele>
        <time>2012-09-09T08:39:47.000Z</time>
      </trkpt>
      <trkpt lat="43.94911" lon="7.3237">
        <ele>860.20001220703</ele>
        <time>2012-09-09T08:39:54.000Z</time>
      </trkpt>
      <trkpt lat="43.94924" lon="7.32374">
        <ele>856.79998779297</ele>
        <time>2012-09-09T08:40:00.000Z</time>
      </trkpt>
      <trkpt lat="43.9494" lon="7.32387">
        <ele>851.20001220703</ele>
        <time>2012-09-09T08:40:05.000Z</time>
      </trkpt>
      <trkpt lat="43.94953" lon="7.32395">
        <ele>846</ele>
        <time>2012-09-09T08:40:10.000Z</time>
      </trkpt>
      <trkpt lat="43.94971" lon="7.32405">
        <ele>837.59997558594</ele>
        <time>2012-09-09T08:40:16.000Z</time>
      </trkpt>
      <trkpt lat="43.9498" lon="7.32418">
        <ele>835.40002441406</ele>
        <time>2012-09-09T08:40:21.000Z</time>
      </trkpt>
      <trkpt lat="43.94977" lon="7.32437">
        <ele>839.79998779297</ele>
        <time>2012-09-09T08:40:26.000Z</time>
      </trkpt>
      <trkpt lat="43.94968" lon="7.32468">
        <ele>849.79998779297</ele>
        <time>2012-09-09T08:40:32.000Z</time>
      </trkpt>
      <trkpt lat="43.94959" lon="7.32481">
        <ele>858.40002441406</ele>
        <time>2012-09-09T08:40:35.000Z</time>
      </trkpt>
      <trkpt lat="43.94955" lon="7.32504">
        <ele>864.79998779297</ele>
        <time>2012-09-09T08:40:39.000Z</time>
      </trkpt>
      <trkpt lat="43.94942" lon="7.32516">
        <ele>877.20001220703</ele>
        <time>2012-09-09T08:40:45.000Z</time>
      </trkpt>
      <trkpt lat="43.94939" lon="7.32517">
        <ele>879.20001220703</ele>
        <time>2012-09-09T08:40:46.000Z</time>
      </trkpt>
      <trkpt lat="43.94943" lon="7.32529">
        <ele>876.40002441406</ele>
        <time>2012-09-09T08:40:50.000Z</time>
      </trkpt>
      <trkpt lat="43.94946" lon="7.32547">
        <ele>875</ele>
        <time>2012-09-09T08:40:55.000Z</time>
      </trkpt>
      <trkpt lat="43.94953" lon="7.32567">
        <ele>870</ele>
        <time>2012-09-09T08:41:00.000Z</time>
      </trkpt>
      <trkpt lat="43.94951" lon="7.32572">
        <ele>871.59997558594</ele>
        <time>2012-09-09T08:41:01.000Z</time>
      </trkpt>
      <trkpt lat="43.94949" lon="7.32598">
        <ele>879</ele>
        <time>2012-09-09T08:41:06.000Z</time>
      </trkpt>
      <trkpt lat="43.9495" lon="7.32609">
        <ele>881.40002441406</ele>
        <time>2012-09-09T08:41:09.000Z</time>
      </trkpt>
      <trkpt lat="43.9496" lon="7.32622">
        <ele>877</ele>
        <time>2012-09-09T08:41:13.000Z</time>
      </trkpt>
      <trkpt lat="43.94973" lon="7.32631">
        <ele>868.20001220703</ele>
        <time>2012-09-09T08:41:18.000Z</time>
      </trkpt>
      <trkpt lat="43.94976" lon="7.32641">
        <ele>869.20001220703</ele>
        <time>2012-09-09T08:41:21.000Z</time>
      </trkpt>
      <trkpt lat="43.9499" lon="7.32648">
        <ele>859.79998779297</ele>
        <time>2012-09-09T08:41:26.000Z</time>
      </trkpt>
      <trkpt lat="43.94999" lon="7.32656">
        <ele>854</ele>
        <time>2012-09-09T08:41:30.000Z</time>
      </trkpt>
      <trkpt lat="43.95011" lon="7.32663">
        <ele>848.40002441406</ele>
        <time>2012-09-09T08:41:35.000Z</time>
      </trkpt>
      <trkpt lat="43.95022" lon="7.32682">
        <ele>847</ele>
        <time>2012-09-09T08:41:40.000Z</time>
      </trkpt>
      <trkpt lat="43.95025" lon="7.32703">
        <ele>851.20001220703</ele>
        <time>2012-09-09T08:41:44.000Z</time>
      </trkpt>
      <trkpt lat="43.9502" lon="7.32716">
        <ele>858.59997558594</ele>
        <time>2012-09-09T08:41:49.000Z</time>
      </trkpt>
      <trkpt lat="43.95031" lon="7.32732">
        <ele>855.59997558594</ele>
        <time>2012-09-09T08:41:53.000Z</time>
      </trkpt>
      <trkpt lat="43.95049" lon="7.32757">
        <ele>849</ele>
        <time>2012-09-09T08:41:59.000Z</time>
      </trkpt>
      <trkpt lat="43.95049" lon="7.32762">
        <ele>849.20001220703</ele>
        <time>2012-09-09T08:42:00.000Z</time>
      </trkpt>
      <trkpt lat="43.95053" lon="7.32786">
        <ele>849.40002441406</ele>
        <time>2012-09-09T08:42:07.000Z</time>
      </trkpt>
      <trkpt lat="43.95045" lon="7.32811">
        <ele>856.59997558594</ele>
        <time>2012-09-09T08:42:13.000Z</time>
      </trkpt>
      <trkpt lat="43.95037" lon="7.32835">
        <ele>863.20001220703</ele>
        <time>2012-09-09T08:42:18.000Z</time>
      </trkpt>
      <trkpt lat="43.95031" lon="7.32858">
        <ele>858.20001220703</ele>
        <time>2012-09-09T08:42:22.000Z</time>
      </trkpt>
      <trkpt lat="43.95029" lon="7.32867">
        <ele>856</ele>
        <time>2012-09-09T08:42:24.000Z</time>
      </trkpt>
      <trkpt lat="43.95017" lon="7.32885">
        <ele>855.20001220703</ele>
        <time>2012-09-09T08:42:29.000Z</time>
      </trkpt>
      <trkpt lat="43.95006" lon="7.32889">
        <ele>858.79998779297</ele>
        <time>2012-09-09T08:42:32.000Z</time>
      </trkpt>
      <trkpt lat="43.94987" lon="7.32906">
        <ele>861.59997558594</ele>
        <time>2012-09-09T08:42:38.000Z</time>
      </trkpt>
      <trkpt lat="43.94967" lon="7.32929">
        <ele>865.79998779297</ele>
        <time>2012-09-09T08:42:45.000Z</time>
      </trkpt>
      <trkpt lat="43.94954" lon="7.32943">
        <ele>869.79998779297</ele>
        <time>2012-09-09T08:42:50.000Z</time>
      </trkpt>
      <trkpt lat="43.94944" lon="7.32959">
        <ele>871.40002441406</ele>
        <time>2012-09-09T08:42:55.000Z</time>
      </trkpt>
      <trkpt lat="43.9493" lon="7.32971">
        <ele>875.59997558594</ele>
        <time>2012-09-09T08:43:00.000Z</time>
      </trkpt>
      <trkpt lat="43.9492" lon="7.32982">
        <ele>877.59997558594</ele>
        <time>2012-09-09T08:43:04.000Z</time>
      </trkpt>
      <trkpt lat="43.94918" lon="7.3299">
        <ele>876.20001220703</ele>
        <time>2012-09-09T08:43:06.000Z</time>
      </trkpt>
      <trkpt lat="43.94917" lon="7.32992">
        <ele>876.40002441406</ele>
        <time>2012-09-09T08:43:07.000Z</time>
      </trkpt>
      <trkpt lat="43.94917" lon="7.32992">
        <ele>876.40002441406</ele>
        <time>2012-09-09T08:43:07.000Z</time>
      </trkpt>
      <trkpt lat="43.94909" lon="7.33004">
        <ele>876.79998779297</ele>
        <time>2012-09-09T08:43:14.000Z</time>
      </trkpt>
      <trkpt lat="43.94901" lon="7.3301">
        <ele>879.20001220703</ele>
        <time>2012-09-09T08:43:19.000Z</time>
      </trkpt>
      <trkpt lat="43.94894" lon="7.33023">
        <ele>880.20001220703</ele>
        <time>2012-09-09T08:43:25.000Z</time>
      </trkpt>
      <trkpt lat="43.94886" lon="7.33035">
        <ele>881.59997558594</ele>
        <time>2012-09-09T08:43:33.000Z</time>
      </trkpt>
      <trkpt lat="43.94882" lon="7.33042">
        <ele>882.20001220703</ele>
        <time>2012-09-09T08:43:38.000Z</time>
      </trkpt>
      <trkpt lat="43.94875" lon="7.33053">
        <ele>882.79998779297</ele>
        <time>2012-09-09T08:43:45.000Z</time>
      </trkpt>
      <trkpt lat="43.94873" lon="7.33062">
        <ele>881.59997558594</ele>
        <time>2012-09-09T08:43:48.000Z</time>
      </trkpt>
      <trkpt lat="43.94862" lon="7.33075">
        <ele>883</ele>
        <time>2012-09-09T08:43:56.000Z</time>
      </trkpt>
      <trkpt lat="43.94848" lon="7.33086">
        <ele>885.79998779297</ele>
        <time>2012-09-09T08:44:04.000Z</time>
      </trkpt>
      <trkpt lat="43.94838" lon="7.33088">
        <ele>889</ele>
        <time>2012-09-09T08:44:09.000Z</time>
      </trkpt>
      <trkpt lat="43.94833" lon="7.33097">
        <ele>889</ele>
        <time>2012-09-09T08:44:14.000Z</time>
      </trkpt>
      <trkpt lat="43.94832" lon="7.33099">
        <ele>888.79998779297</ele>
        <time>2012-09-09T08:44:15.000Z</time>
      </trkpt>
      <trkpt lat="43.94828" lon="7.33108">
        <ele>887.79998779297</ele>
        <time>2012-09-09T08:44:21.000Z</time>
      </trkpt>
      <trkpt lat="43.94822" lon="7.33123">
        <ele>885.79998779297</ele>
        <time>2012-09-09T08:44:29.000Z</time>
      </trkpt>
      <trkpt lat="43.94816" lon="7.33129">
        <ele>885</ele>
        <time>2012-09-09T08:44:33.000Z</time>
      </trkpt>
      <trkpt lat="43.94805" lon="7.33149">
        <ele>881.59997558594</ele>
        <time>2012-09-09T08:44:41.000Z</time>
      </trkpt>
      <trkpt lat="43.94798" lon="7.33164">
        <ele>878.59997558594</ele>
        <time>2012-09-09T08:44:47.000Z</time>
      </trkpt>
      <trkpt lat="43.9479" lon="7.33179">
        <ele>876.59997558594</ele>
        <time>2012-09-09T08:44:54.000Z</time>
      </trkpt>
      <trkpt lat="43.94788" lon="7.3318">
        <ele>876.40002441406</ele>
        <time>2012-09-09T08:44:59.000Z</time>
      </trkpt>
      <trkpt lat="43.9479" lon="7.33184">
        <ele>876</ele>
        <time>2012-09-09T08:45:10.000Z</time>
      </trkpt>
      <trkpt lat="43.94789" lon="7.33188">
        <ele>875.59997558594</ele>
        <time>2012-09-09T08:45:16.000Z</time>
      </trkpt>
      <trkpt lat="43.9479" lon="7.33181">
        <ele>876.40002441406</ele>
        <time>2012-09-09T08:45:21.000Z</time>
      </trkpt>
      <trkpt lat="43.94796" lon="7.33178">
        <ele>877</ele>
        <time>2012-09-09T08:45:27.000Z</time>
      </trkpt>
      <trkpt lat="43.94799" lon="7.33177">
        <ele>877.20001220703</ele>
        <time>2012-09-09T08:45:29.000Z</time>
      </trkpt>
      <trkpt lat="43.94804" lon="7.33178">
        <ele>877.59997558594</ele>
        <time>2012-09-09T08:45:35.000Z</time>
      </trkpt>
      <trkpt lat="43.948" lon="7.33175">
        <ele>877.59997558594</ele>
        <time>2012-09-09T08:45:44.000Z</time>
      </trkpt>
      <trkpt lat="43.94794" lon="7.33176">
        <ele>877</ele>
        <time>2012-09-09T08:45:51.000Z</time>
      </trkpt>
      <trkpt lat="43.94791" lon="7.33182">
        <ele>876.40002441406</ele>
        <time>2012-09-09T08:45:58.000Z</time>
      </trkpt>
      <trkpt lat="43.94791" lon="7.33183">
        <ele>876.20001220703</ele>
        <time>2012-09-09T08:46:03.000Z</time>
      </trkpt>
      <trkpt lat="43.9479" lon="7.33181">
        <ele>876.40002441406</ele>
        <time>2012-09-09T08:47:35.000Z</time>
      </trkpt>
      <trkpt lat="43.9479" lon="7.33184">
        <ele>876</ele>
        <time>2012-09-09T08:47:54.000Z</time>
      </trkpt>
      <trkpt lat="43.94787" lon="7.33182">
        <ele>876</ele>
        <time>2012-09-09T08:48:16.000Z</time>
      </trkpt>
      <trkpt lat="43.94783" lon="7.33185">
        <ele>875.40002441406</ele>
        <time>2012-09-09T08:48:22.000Z</time>
      </trkpt>
      <trkpt lat="43.94779" lon="7.33195">
        <ele>873.40002441406</ele>
        <time>2012-09-09T08:48:28.000Z</time>
      </trkpt>
      <trkpt lat="43.94779" lon="7.33199">
        <ele>873</ele>
        <time>2012-09-09T08:48:29.000Z</time>
      </trkpt>
      <trkpt lat="43.9478" lon="7.33215">
        <ele>870.59997558594</ele>
        <time>2012-09-09T08:48:35.000Z</time>
      </trkpt>
      <trkpt lat="43.94785" lon="7.33227">
        <ele>870</ele>
        <time>2012-09-09T08:48:40.000Z</time>
      </trkpt>
      <trkpt lat="43.94791" lon="7.33245">
        <ele>869.40002441406</ele>
        <time>2012-09-09T08:48:47.000Z</time>
      </trkpt>
      <trkpt lat="43.94792" lon="7.33258">
        <ele>868.59997558594</ele>
        <time>2012-09-09T08:48:51.000Z</time>
      </trkpt>
      <trkpt lat="43.94796" lon="7.33277">
        <ele>868.59997558594</ele>
        <time>2012-09-09T08:48:57.000Z</time>
      </trkpt>
      <trkpt lat="43.94794" lon="7.33288">
        <ele>867.40002441406</ele>
        <time>2012-09-09T08:48:59.000Z</time>
      </trkpt>
      <trkpt lat="43.94792" lon="7.33297">
        <ele>866</ele>
        <time>2012-09-09T08:49:01.000Z</time>
      </trkpt>
      <trkpt lat="43.94802" lon="7.33307">
        <ele>868.79998779297</ele>
        <time>2012-09-09T08:49:05.000Z</time>
      </trkpt>
      <trkpt lat="43.94817" lon="7.33326">
        <ele>872.79998779297</ele>
        <time>2012-09-09T08:49:10.000Z</time>
      </trkpt>
      <trkpt lat="43.94816" lon="7.33336">
        <ele>872</ele>
        <time>2012-09-09T08:49:15.000Z</time>
      </trkpt>
      <trkpt lat="43.94806" lon="7.33347">
        <ele>869.40002441406</ele>
        <time>2012-09-09T08:49:22.000Z</time>
      </trkpt>
      <trkpt lat="43.94802" lon="7.33367">
        <ele>869.40002441406</ele>
        <time>2012-09-09T08:49:26.000Z</time>
      </trkpt>
      <trkpt lat="43.9481" lon="7.3338">
        <ele>872.40002441406</ele>
        <time>2012-09-09T08:49:30.000Z</time>
      </trkpt>
      <trkpt lat="43.9482" lon="7.33396">
        <ele>875.59997558594</ele>
        <time>2012-09-09T08:49:35.000Z</time>
      </trkpt>
      <trkpt lat="43.94816" lon="7.33403">
        <ele>875</ele>
        <time>2012-09-09T08:49:40.000Z</time>
      </trkpt>
      <trkpt lat="43.94815" lon="7.33403">
        <ele>874.59997558594</ele>
        <time>2012-09-09T08:49:42.000Z</time>
      </trkpt>
      <trkpt lat="43.94809" lon="7.33407">
        <ele>873.59997558594</ele>
        <time>2012-09-09T08:49:47.000Z</time>
      </trkpt>
      <trkpt lat="43.948" lon="7.33406">
        <ele>871.40002441406</ele>
        <time>2012-09-09T08:49:53.000Z</time>
      </trkpt>
      <trkpt lat="43.94796" lon="7.33405">
        <ele>870.40002441406</ele>
        <time>2012-09-09T08:49:56.000Z</time>
      </trkpt>
      <trkpt lat="43.94786" lon="7.3341">
        <ele>868.59997558594</ele>
        <time>2012-09-09T08:50:01.000Z</time>
      </trkpt>
      <trkpt lat="43.94785" lon="7.33408">
        <ele>868.40002441406</ele>
        <time>2012-09-09T08:50:02.000Z</time>
      </trkpt>
      <trkpt lat="43.94774" lon="7.33403">
        <ele>865.40002441406</ele>
        <time>2012-09-09T08:50:09.000Z</time>
      </trkpt>
      <trkpt lat="43.9476" lon="7.33399">
        <ele>861.79998779297</ele>
        <time>2012-09-09T08:50:16.000Z</time>
      </trkpt>
      <trkpt lat="43.94749" lon="7.33394">
        <ele>858.40002441406</ele>
        <time>2012-09-09T08:50:23.000Z</time>
      </trkpt>
      <trkpt lat="43.94738" lon="7.33391">
        <ele>856</ele>
        <time>2012-09-09T08:50:29.000Z</time>
      </trkpt>
      <trkpt lat="43.94718" lon="7.33386">
        <ele>852</ele>
        <time>2012-09-09T08:50:36.000Z</time>
      </trkpt>
      <trkpt lat="43.94705" lon="7.33392">
        <ele>850.59997558594</ele>
        <time>2012-09-09T08:50:40.000Z</time>
      </trkpt>
      <trkpt lat="43.94696" lon="7.33403">
        <ele>850.79998779297</ele>
        <time>2012-09-09T08:50:43.000Z</time>
      </trkpt>
      <trkpt lat="43.94669" lon="7.3341">
        <ele>847.40002441406</ele>
        <time>2012-09-09T08:50:50.000Z</time>
      </trkpt>
      <trkpt lat="43.9466" lon="7.33414">
        <ele>845.40002441406</ele>
        <time>2012-09-09T08:50:53.000Z</time>
      </trkpt>
      <trkpt lat="43.94657" lon="7.33427">
        <ele>844.59997558594</ele>
        <time>2012-09-09T08:50:59.000Z</time>
      </trkpt>
      <trkpt lat="43.94663" lon="7.3343">
        <ele>846.59997558594</ele>
        <time>2012-09-09T08:51:02.000Z</time>
      </trkpt>
      <trkpt lat="43.94673" lon="7.33446">
        <ele>848.79998779297</ele>
        <time>2012-09-09T08:51:07.000Z</time>
      </trkpt>
      <trkpt lat="43.94688" lon="7.33463">
        <ele>853</ele>
        <time>2012-09-09T08:51:12.000Z</time>
      </trkpt>
      <trkpt lat="43.94699" lon="7.33474">
        <ele>857</ele>
        <time>2012-09-09T08:51:16.000Z</time>
      </trkpt>
      <trkpt lat="43.9471" lon="7.33483">
        <ele>861.59997558594</ele>
        <time>2012-09-09T08:51:20.000Z</time>
      </trkpt>
      <trkpt lat="43.94705" lon="7.33499">
        <ele>861.20001220703</ele>
        <time>2012-09-09T08:51:24.000Z</time>
      </trkpt>
      <trkpt lat="43.947" lon="7.33509">
        <ele>860.40002441406</ele>
        <time>2012-09-09T08:51:28.000Z</time>
      </trkpt>
      <trkpt lat="43.94697" lon="7.33517">
        <ele>860.40002441406</ele>
        <time>2012-09-09T08:51:31.000Z</time>
      </trkpt>
      <trkpt lat="43.9469" lon="7.33539">
        <ele>860.59997558594</ele>
        <time>2012-09-09T08:51:37.000Z</time>
      </trkpt>
      <trkpt lat="43.94683" lon="7.33542">
        <ele>858.20001220703</ele>
        <time>2012-09-09T08:51:40.000Z</time>
      </trkpt>
      <trkpt lat="43.94671" lon="7.33536">
        <ele>852.59997558594</ele>
        <time>2012-09-09T08:51:47.000Z</time>
      </trkpt>
      <trkpt lat="43.94662" lon="7.33535">
        <ele>849.79998779297</ele>
        <time>2012-09-09T08:51:52.000Z</time>
      </trkpt>
      <trkpt lat="43.94654" lon="7.33545">
        <ele>849.79998779297</ele>
        <time>2012-09-09T08:51:57.000Z</time>
      </trkpt>
      <trkpt lat="43.94645" lon="7.33558">
        <ele>850.59997558594</ele>
        <time>2012-09-09T08:52:03.000Z</time>
      </trkpt>
      <trkpt lat="43.94642" lon="7.33565">
        <ele>851.40002441406</ele>
        <time>2012-09-09T08:52:06.000Z</time>
      </trkpt>
      <trkpt lat="43.94645" lon="7.33579">
        <ele>854.20001220703</ele>
        <time>2012-09-09T08:52:10.000Z</time>
      </trkpt>
      <trkpt lat="43.94649" lon="7.33597">
        <ele>858.59997558594</ele>
        <time>2012-09-09T08:52:14.000Z</time>
      </trkpt>
      <trkpt lat="43.94642" lon="7.33605">
        <ele>860.20001220703</ele>
        <time>2012-09-09T08:52:19.000Z</time>
      </trkpt>
      <trkpt lat="43.94624" lon="7.33609">
        <ele>860.40002441406</ele>
        <time>2012-09-09T08:52:25.000Z</time>
      </trkpt>
      <trkpt lat="43.94615" lon="7.33615">
        <ele>861.59997558594</ele>
        <time>2012-09-09T08:52:31.000Z</time>
      </trkpt>
      <trkpt lat="43.94611" lon="7.33611">
        <ele>860.40002441406</ele>
        <time>2012-09-09T08:52:34.000Z</time>
      </trkpt>
      <trkpt lat="43.94597" lon="7.33593">
        <ele>853.59997558594</ele>
        <time>2012-09-09T08:52:41.000Z</time>
      </trkpt>
      <trkpt lat="43.9459" lon="7.33585">
        <ele>850</ele>
        <time>2012-09-09T08:52:45.000Z</time>
      </trkpt>
      <trkpt lat="43.94578" lon="7.33576">
        <ele>847</ele>
        <time>2012-09-09T08:52:50.000Z</time>
      </trkpt>
      <trkpt lat="43.9457" lon="7.33568">
        <ele>844.59997558594</ele>
        <time>2012-09-09T08:52:55.000Z</time>
      </trkpt>
      <trkpt lat="43.94561" lon="7.3357">
        <ele>845.59997558594</ele>
        <time>2012-09-09T08:53:02.000Z</time>
      </trkpt>
      <trkpt lat="43.9455" lon="7.33576">
        <ele>847.20001220703</ele>
        <time>2012-09-09T08:53:09.000Z</time>
      </trkpt>
      <trkpt lat="43.94547" lon="7.33581">
        <ele>848.40002441406</ele>
        <time>2012-09-09T08:53:11.000Z</time>
      </trkpt>
      <trkpt lat="43.94543" lon="7.33588">
        <ele>850.59997558594</ele>
        <time>2012-09-09T08:53:15.000Z</time>
      </trkpt>
      <trkpt lat="43.94538" lon="7.33593">
        <ele>852</ele>
        <time>2012-09-09T08:53:19.000Z</time>
      </trkpt>
      <trkpt lat="43.94532" lon="7.33593">
        <ele>852</ele>
        <time>2012-09-09T08:53:25.000Z</time>
      </trkpt>
      <trkpt lat="43.94529" lon="7.33596">
        <ele>852.79998779297</ele>
        <time>2012-09-09T08:53:32.000Z</time>
      </trkpt>
      <trkpt lat="43.94523" lon="7.33604">
        <ele>855</ele>
        <time>2012-09-09T08:53:36.000Z</time>
      </trkpt>
      <trkpt lat="43.94509" lon="7.33608">
        <ele>855.79998779297</ele>
        <time>2012-09-09T08:53:43.000Z</time>
      </trkpt>
      <trkpt lat="43.94508" lon="7.33603">
        <ele>854.20001220703</ele>
        <time>2012-09-09T08:53:48.000Z</time>
      </trkpt>
      <trkpt lat="43.94505" lon="7.33591">
        <ele>851</ele>
        <time>2012-09-09T08:53:53.000Z</time>
      </trkpt>
      <trkpt lat="43.94503" lon="7.33596">
        <ele>852.40002441406</ele>
        <time>2012-09-09T08:53:58.000Z</time>
      </trkpt>
      <trkpt lat="43.94497" lon="7.33609">
        <ele>856.40002441406</ele>
        <time>2012-09-09T08:54:02.000Z</time>
      </trkpt>
      <trkpt lat="43.94492" lon="7.3361">
        <ele>857.20001220703</ele>
        <time>2012-09-09T08:54:06.000Z</time>
      </trkpt>
      <trkpt lat="43.94484" lon="7.33597">
        <ele>855.20001220703</ele>
        <time>2012-09-09T08:54:11.000Z</time>
      </trkpt>
      <trkpt lat="43.94485" lon="7.33582">
        <ele>851.40002441406</ele>
        <time>2012-09-09T08:54:16.000Z</time>
      </trkpt>
      <trkpt lat="43.9448" lon="7.33567">
        <ele>849</ele>
        <time>2012-09-09T08:54:20.000Z</time>
      </trkpt>
      <trkpt lat="43.94472" lon="7.33539">
        <ele>844.59997558594</ele>
        <time>2012-09-09T08:54:26.000Z</time>
      </trkpt>
      <trkpt lat="43.94466" lon="7.33525">
        <ele>842.59997558594</ele>
        <time>2012-09-09T08:54:30.000Z</time>
      </trkpt>
      <trkpt lat="43.94459" lon="7.33514">
        <ele>841.79998779297</ele>
        <time>2012-09-09T08:54:34.000Z</time>
      </trkpt>
      <trkpt lat="43.94448" lon="7.33503">
        <ele>841.59997558594</ele>
        <time>2012-09-09T08:54:40.000Z</time>
      </trkpt>
      <trkpt lat="43.94431" lon="7.33498">
        <ele>843.79998779297</ele>
        <time>2012-09-09T08:54:46.000Z</time>
      </trkpt>
      <trkpt lat="43.94423" lon="7.3349">
        <ele>843.79998779297</ele>
        <time>2012-09-09T08:54:50.000Z</time>
      </trkpt>
      <trkpt lat="43.94419" lon="7.33472">
        <ele>841.40002441406</ele>
        <time>2012-09-09T08:54:55.000Z</time>
      </trkpt>
      <trkpt lat="43.94412" lon="7.33446">
        <ele>837.79998779297</ele>
        <time>2012-09-09T08:55:01.000Z</time>
      </trkpt>
      <trkpt lat="43.94405" lon="7.33438">
        <ele>837</ele>
        <time>2012-09-09T08:55:06.000Z</time>
      </trkpt>
      <trkpt lat="43.94395" lon="7.33434">
        <ele>837.40002441406</ele>
        <time>2012-09-09T08:55:11.000Z</time>
      </trkpt>
      <trkpt lat="43.94382" lon="7.3343">
        <ele>838</ele>
        <time>2012-09-09T08:55:17.000Z</time>
      </trkpt>
      <trkpt lat="43.9437" lon="7.33429">
        <ele>839.20001220703</ele>
        <time>2012-09-09T08:55:23.000Z</time>
      </trkpt>
      <trkpt lat="43.94358" lon="7.33435">
        <ele>841.40002441406</ele>
        <time>2012-09-09T08:55:30.000Z</time>
      </trkpt>
      <trkpt lat="43.94345" lon="7.33443">
        <ele>844.40002441406</ele>
        <time>2012-09-09T08:55:35.000Z</time>
      </trkpt>
      <trkpt lat="43.94328" lon="7.33451">
        <ele>846.20001220703</ele>
        <time>2012-09-09T08:55:39.000Z</time>
      </trkpt>
      <trkpt lat="43.94316" lon="7.33462">
        <ele>846.59997558594</ele>
        <time>2012-09-09T08:55:42.000Z</time>
      </trkpt>
      <trkpt lat="43.94292" lon="7.33477">
        <ele>846</ele>
        <time>2012-09-09T08:55:48.000Z</time>
      </trkpt>
      <trkpt lat="43.94285" lon="7.33494">
        <ele>847.40002441406</ele>
        <time>2012-09-09T08:55:51.000Z</time>
      </trkpt>
      <trkpt lat="43.94274" lon="7.33505">
        <ele>847.40002441406</ele>
        <time>2012-09-09T08:55:55.000Z</time>
      </trkpt>
      <trkpt lat="43.94261" lon="7.3351">
        <ele>846.40002441406</ele>
        <time>2012-09-09T08:56:00.000Z</time>
      </trkpt>
      <trkpt lat="43.9425" lon="7.33518">
        <ele>846.40002441406</ele>
        <time>2012-09-09T08:56:05.000Z</time>
      </trkpt>
      <trkpt lat="43.94248" lon="7.33521">
        <ele>846.59997558594</ele>
        <time>2012-09-09T08:56:15.000Z</time>
      </trkpt>
      <trkpt lat="43.94238" lon="7.33527">
        <ele>845.40002441406</ele>
        <time>2012-09-09T08:56:22.000Z</time>
      </trkpt>
      <trkpt lat="43.94226" lon="7.33527">
        <ele>842.79998779297</ele>
        <time>2012-09-09T08:56:28.000Z</time>
      </trkpt>
      <trkpt lat="43.94226" lon="7.33527">
        <ele>842.59997558594</ele>
        <time>2012-09-09T08:56:33.000Z</time>
      </trkpt>
      <trkpt lat="43.94225" lon="7.33531">
        <ele>843.20001220703</ele>
        <time>2012-09-09T08:57:14.000Z</time>
      </trkpt>
      <trkpt lat="43.94209" lon="7.33546">
        <ele>841.79998779297</ele>
        <time>2012-09-09T08:57:21.000Z</time>
      </trkpt>
      <trkpt lat="43.94201" lon="7.33561">
        <ele>842.20001220703</ele>
        <time>2012-09-09T08:57:26.000Z</time>
      </trkpt>
      <trkpt lat="43.94191" lon="7.33568">
        <ele>840.40002441406</ele>
        <time>2012-09-09T08:57:30.000Z</time>
      </trkpt>
      <trkpt lat="43.94173" lon="7.33575">
        <ele>836.59997558594</ele>
        <time>2012-09-09T08:57:36.000Z</time>
      </trkpt>
      <trkpt lat="43.94171" lon="7.33576">
        <ele>836.20001220703</ele>
        <time>2012-09-09T08:57:37.000Z</time>
      </trkpt>
      <trkpt lat="43.94168" lon="7.33593">
        <ele>836.20001220703</ele>
        <time>2012-09-09T08:57:41.000Z</time>
      </trkpt>
      <trkpt lat="43.94163" lon="7.3361">
        <ele>834.20001220703</ele>
        <time>2012-09-09T08:57:46.000Z</time>
      </trkpt>
      <trkpt lat="43.9416" lon="7.33618">
        <ele>833.20001220703</ele>
        <time>2012-09-09T08:57:49.000Z</time>
      </trkpt>
      <trkpt lat="43.94157" lon="7.33634">
        <ele>831.79998779297</ele>
        <time>2012-09-09T08:57:53.000Z</time>
      </trkpt>
      <trkpt lat="43.94154" lon="7.33662">
        <ele>830</ele>
        <time>2012-09-09T08:58:00.000Z</time>
      </trkpt>
      <trkpt lat="43.94153" lon="7.33664">
        <ele>829.79998779297</ele>
        <time>2012-09-09T08:58:01.000Z</time>
      </trkpt>
      <trkpt lat="43.94158" lon="7.33678">
        <ele>830.79998779297</ele>
        <time>2012-09-09T08:58:08.000Z</time>
      </trkpt>
      <trkpt lat="43.94164" lon="7.33694">
        <ele>832</ele>
        <time>2012-09-09T08:58:14.000Z</time>
      </trkpt>
      <trkpt lat="43.94171" lon="7.33711">
        <ele>834.59997558594</ele>
        <time>2012-09-09T08:58:18.000Z</time>
      </trkpt>
      <trkpt lat="43.94182" lon="7.33728">
        <ele>840</ele>
        <time>2012-09-09T08:58:22.000Z</time>
      </trkpt>
      <trkpt lat="43.9418" lon="7.33744">
        <ele>838.40002441406</ele>
        <time>2012-09-09T08:58:26.000Z</time>
      </trkpt>
      <trkpt lat="43.9417" lon="7.33768">
        <ele>835.40002441406</ele>
        <time>2012-09-09T08:58:32.000Z</time>
      </trkpt>
      <trkpt lat="43.94164" lon="7.33796">
        <ele>836.40002441406</ele>
        <time>2012-09-09T08:58:37.000Z</time>
      </trkpt>
      <trkpt lat="43.94157" lon="7.3381">
        <ele>836.20001220703</ele>
        <time>2012-09-09T08:58:41.000Z</time>
      </trkpt>
      <trkpt lat="43.94155" lon="7.33813">
        <ele>836</ele>
        <time>2012-09-09T08:58:42.000Z</time>
      </trkpt>
      <trkpt lat="43.94142" lon="7.33824">
        <ele>833.79998779297</ele>
        <time>2012-09-09T08:58:48.000Z</time>
      </trkpt>
      <trkpt lat="43.94139" lon="7.33825">
        <ele>833.20001220703</ele>
        <time>2012-09-09T08:58:49.000Z</time>
      </trkpt>
      <trkpt lat="43.94125" lon="7.33826">
        <ele>829.59997558594</ele>
        <time>2012-09-09T08:58:55.000Z</time>
      </trkpt>
      <trkpt lat="43.94112" lon="7.33825">
        <ele>826</ele>
        <time>2012-09-09T08:59:01.000Z</time>
      </trkpt>
      <trkpt lat="43.94091" lon="7.33826">
        <ele>820.59997558594</ele>
        <time>2012-09-09T08:59:07.000Z</time>
      </trkpt>
      <trkpt lat="43.94078" lon="7.33833">
        <ele>819.20001220703</ele>
        <time>2012-09-09T08:59:11.000Z</time>
      </trkpt>
      <trkpt lat="43.94067" lon="7.33849">
        <ele>819.20001220703</ele>
        <time>2012-09-09T08:59:15.000Z</time>
      </trkpt>
      <trkpt lat="43.94067" lon="7.33866">
        <ele>820.79998779297</ele>
        <time>2012-09-09T08:59:20.000Z</time>
      </trkpt>
      <trkpt lat="43.94075" lon="7.33879">
        <ele>822.59997558594</ele>
        <time>2012-09-09T08:59:24.000Z</time>
      </trkpt>
      <trkpt lat="43.94082" lon="7.339">
        <ele>824.79998779297</ele>
        <time>2012-09-09T08:59:29.000Z</time>
      </trkpt>
      <trkpt lat="43.94081" lon="7.33912">
        <ele>825.59997558594</ele>
        <time>2012-09-09T08:59:33.000Z</time>
      </trkpt>
      <trkpt lat="43.9408" lon="7.33928">
        <ele>829.20001220703</ele>
        <time>2012-09-09T08:59:37.000Z</time>
      </trkpt>
      <trkpt lat="43.94082" lon="7.33942">
        <ele>833.20001220703</ele>
        <time>2012-09-09T08:59:43.000Z</time>
      </trkpt>
      <trkpt lat="43.94071" lon="7.33944">
        <ele>833.59997558594</ele>
        <time>2012-09-09T08:59:54.000Z</time>
      </trkpt>
      <trkpt lat="43.94063" lon="7.33944">
        <ele>834</ele>
        <time>2012-09-09T09:00:02.000Z</time>
      </trkpt>
      <trkpt lat="43.94055" lon="7.33943">
        <ele>833.79998779297</ele>
        <time>2012-09-09T09:00:08.000Z</time>
      </trkpt>
      <trkpt lat="43.9405" lon="7.33944">
        <ele>834.20001220703</ele>
        <time>2012-09-09T09:00:12.000Z</time>
      </trkpt>
      <trkpt lat="43.94041" lon="7.33949">
        <ele>835.79998779297</ele>
        <time>2012-09-09T09:00:17.000Z</time>
      </trkpt>
      <trkpt lat="43.94039" lon="7.3395">
        <ele>836.40002441406</ele>
        <time>2012-09-09T09:00:22.000Z</time>
      </trkpt>
      <trkpt lat="43.94023" lon="7.33949">
        <ele>836.40002441406</ele>
        <time>2012-09-09T09:00:38.000Z</time>
      </trkpt>
      <trkpt lat="43.9402" lon="7.33947">
        <ele>836</ele>
        <time>2012-09-09T09:00:41.000Z</time>
      </trkpt>
      <trkpt lat="43.94018" lon="7.33946">
        <ele>835.59997558594</ele>
        <time>2012-09-09T09:00:42.000Z</time>
      </trkpt>
      <trkpt lat="43.94018" lon="7.33946">
        <ele>835.59997558594</ele>
        <time>2012-09-09T09:00:42.000Z</time>
      </trkpt>
      <trkpt lat="43.94015" lon="7.33945">
        <ele>835.20001220703</ele>
        <time>2012-09-09T09:00:44.000Z</time>
      </trkpt>
      <trkpt lat="43.94006" lon="7.33937">
        <ele>832.59997558594</ele>
        <time>2012-09-09T09:00:53.000Z</time>
      </trkpt>
      <trkpt lat="43.94006" lon="7.33938">
        <ele>833</ele>
        <time>2012-09-09T09:00:54.000Z</time>
      </trkpt>
      <trkpt lat="43.94002" lon="7.3394">
        <ele>833.79998779297</ele>
        <time>2012-09-09T09:00:59.000Z</time>
      </trkpt>
      <trkpt lat="43.93998" lon="7.33938">
        <ele>832.79998779297</ele>
        <time>2012-09-09T09:01:04.000Z</time>
      </trkpt>
      <trkpt lat="43.94" lon="7.33937">
        <ele>832.79998779297</ele>
        <time>2012-09-09T09:01:10.000Z</time>
      </trkpt>
      <trkpt lat="43.93997" lon="7.33935">
        <ele>832</ele>
        <time>2012-09-09T09:01:16.000Z</time>
      </trkpt>
      <trkpt lat="43.93994" lon="7.33934">
        <ele>831.20001220703</ele>
        <time>2012-09-09T09:01:18.000Z</time>
      </trkpt>
      <trkpt lat="43.93991" lon="7.3393">
        <ele>830</ele>
        <time>2012-09-09T09:01:20.000Z</time>
      </trkpt>
      <trkpt lat="43.93985" lon="7.33923">
        <ele>827.40002441406</ele>
        <time>2012-09-09T09:01:24.000Z</time>
      </trkpt>
      <trkpt lat="43.93983" lon="7.33921">
        <ele>826.40002441406</ele>
        <time>2012-09-09T09:01:27.000Z</time>
      </trkpt>
      <trkpt lat="43.93972" lon="7.33917">
        <ele>825</ele>
        <time>2012-09-09T09:01:36.000Z</time>
      </trkpt>
      <trkpt lat="43.93967" lon="7.33915">
        <ele>824.59997558594</ele>
        <time>2012-09-09T09:01:40.000Z</time>
      </trkpt>
      <trkpt lat="43.93954" lon="7.33914">
        <ele>824.40002441406</ele>
        <time>2012-09-09T09:01:48.000Z</time>
      </trkpt>
      <trkpt lat="43.93944" lon="7.33906">
        <ele>823.20001220703</ele>
        <time>2012-09-09T09:01:55.000Z</time>
      </trkpt>
      <trkpt lat="43.93934" lon="7.33902">
        <ele>822.59997558594</ele>
        <time>2012-09-09T09:02:02.000Z</time>
      </trkpt>
      <trkpt lat="43.93922" lon="7.33907">
        <ele>823.40002441406</ele>
        <time>2012-09-09T09:02:09.000Z</time>
      </trkpt>
      <trkpt lat="43.93909" lon="7.33925">
        <ele>825.40002441406</ele>
        <time>2012-09-09T09:02:16.000Z</time>
      </trkpt>
      <trkpt lat="43.93897" lon="7.33954">
        <ele>829.59997558594</ele>
        <time>2012-09-09T09:02:22.000Z</time>
      </trkpt>
      <trkpt lat="43.93885" lon="7.33967">
        <ele>828.79998779297</ele>
        <time>2012-09-09T09:02:26.000Z</time>
      </trkpt>
      <trkpt lat="43.93877" lon="7.33983">
        <ele>829.79998779297</ele>
        <time>2012-09-09T09:02:30.000Z</time>
      </trkpt>
      <trkpt lat="43.9387" lon="7.34002">
        <ele>831.20001220703</ele>
        <time>2012-09-09T09:02:34.000Z</time>
      </trkpt>
      <trkpt lat="43.93858" lon="7.34015">
        <ele>830</ele>
        <time>2012-09-09T09:02:38.000Z</time>
      </trkpt>
      <trkpt lat="43.93849" lon="7.34038">
        <ele>831.59997558594</ele>
        <time>2012-09-09T09:02:42.000Z</time>
      </trkpt>
      <trkpt lat="43.93845" lon="7.34047">
        <ele>832</ele>
        <time>2012-09-09T09:02:44.000Z</time>
      </trkpt>
      <trkpt lat="43.93829" lon="7.34055">
        <ele>826.79998779297</ele>
        <time>2012-09-09T09:02:49.000Z</time>
      </trkpt>
      <trkpt lat="43.93818" lon="7.34071">
        <ele>827</ele>
        <time>2012-09-09T09:02:54.000Z</time>
      </trkpt>
      <trkpt lat="43.93811" lon="7.34102">
        <ele>830.79998779297</ele>
        <time>2012-09-09T09:02:59.000Z</time>
      </trkpt>
      <trkpt lat="43.93811" lon="7.34108">
        <ele>832</ele>
        <time>2012-09-09T09:03:00.000Z</time>
      </trkpt>
      <trkpt lat="43.93813" lon="7.34134">
        <ele>837.40002441406</ele>
        <time>2012-09-09T09:03:05.000Z</time>
      </trkpt>
      <trkpt lat="43.93808" lon="7.34152">
        <ele>838.79998779297</ele>
        <time>2012-09-09T09:03:11.000Z</time>
      </trkpt>
      <trkpt lat="43.93796" lon="7.34166">
        <ele>836.79998779297</ele>
        <time>2012-09-09T09:03:15.000Z</time>
      </trkpt>
      <trkpt lat="43.9378" lon="7.34169">
        <ele>831.79998779297</ele>
        <time>2012-09-09T09:03:19.000Z</time>
      </trkpt>
      <trkpt lat="43.93772" lon="7.34188">
        <ele>833</ele>
        <time>2012-09-09T09:03:23.000Z</time>
      </trkpt>
      <trkpt lat="43.9376" lon="7.34227">
        <ele>835.79998779297</ele>
        <time>2012-09-09T09:03:29.000Z</time>
      </trkpt>
      <trkpt lat="43.93755" lon="7.34247">
        <ele>837.20001220703</ele>
        <time>2012-09-09T09:03:33.000Z</time>
      </trkpt>
      <trkpt lat="43.93745" lon="7.34254">
        <ele>836.59997558594</ele>
        <time>2012-09-09T09:03:38.000Z</time>
      </trkpt>
      <trkpt lat="43.93739" lon="7.3425">
        <ele>837.40002441406</ele>
        <time>2012-09-09T09:03:41.000Z</time>
      </trkpt>
      <trkpt lat="43.93733" lon="7.34246">
        <ele>837.59997558594</ele>
        <time>2012-09-09T09:03:47.000Z</time>
      </trkpt>
      <trkpt lat="43.93737" lon="7.34243">
        <ele>836.59997558594</ele>
        <time>2012-09-09T09:03:52.000Z</time>
      </trkpt>
      <trkpt lat="43.93735" lon="7.34238">
        <ele>836.20001220703</ele>
        <time>2012-09-09T09:03:58.000Z</time>
      </trkpt>
      <trkpt lat="43.93731" lon="7.34239">
        <ele>837.20001220703</ele>
        <time>2012-09-09T09:04:03.000Z</time>
      </trkpt>
      <trkpt lat="43.93728" lon="7.34237">
        <ele>837.59997558594</ele>
        <time>2012-09-09T09:04:07.000Z</time>
      </trkpt>
      <trkpt lat="43.93727" lon="7.34237">
        <ele>837.59997558594</ele>
        <time>2012-09-09T09:04:08.000Z</time>
      </trkpt>
      <trkpt lat="43.93723" lon="7.34235">
        <ele>838.20001220703</ele>
        <time>2012-09-09T09:04:15.000Z</time>
      </trkpt>
      <trkpt lat="43.93724" lon="7.34232">
        <ele>837.40002441406</ele>
        <time>2012-09-09T09:04:28.000Z</time>
      </trkpt>
      <trkpt lat="43.9372" lon="7.34225">
        <ele>837.40002441406</ele>
        <time>2012-09-09T09:05:17.000Z</time>
      </trkpt>
      <trkpt lat="43.93726" lon="7.34223">
        <ele>835.79998779297</ele>
        <time>2012-09-09T09:05:28.000Z</time>
      </trkpt>
      <trkpt lat="43.93718" lon="7.34227">
        <ele>838.20001220703</ele>
        <time>2012-09-09T09:06:16.000Z</time>
      </trkpt>
      <trkpt lat="43.93712" lon="7.34223">
        <ele>838.59997558594</ele>
        <time>2012-09-09T09:07:19.000Z</time>
      </trkpt>
      <trkpt lat="43.9371" lon="7.34218">
        <ele>838.59997558594</ele>
        <time>2012-09-09T09:07:28.000Z</time>
      </trkpt>
      <trkpt lat="43.9371" lon="7.34212">
        <ele>837.59997558594</ele>
        <time>2012-09-09T09:07:39.000Z</time>
      </trkpt>
      <trkpt lat="43.93709" lon="7.34213">
        <ele>838</ele>
        <time>2012-09-09T09:07:50.000Z</time>
      </trkpt>
      <trkpt lat="43.93698" lon="7.3421">
        <ele>840.20001220703</ele>
        <time>2012-09-09T09:07:58.000Z</time>
      </trkpt>
      <trkpt lat="43.93693" lon="7.342">
        <ele>840.20001220703</ele>
        <time>2012-09-09T09:08:02.000Z</time>
      </trkpt>
      <trkpt lat="43.9369" lon="7.34197">
        <ele>840.20001220703</ele>
        <time>2012-09-09T09:08:05.000Z</time>
      </trkpt>
      <trkpt lat="43.93694" lon="7.34186">
        <ele>838</ele>
        <time>2012-09-09T09:08:10.000Z</time>
      </trkpt>
      <trkpt lat="43.93695" lon="7.34183">
        <ele>837.40002441406</ele>
        <time>2012-09-09T09:08:11.000Z</time>
      </trkpt>
      <trkpt lat="43.93706" lon="7.34169">
        <ele>832.59997558594</ele>
        <time>2012-09-09T09:08:16.000Z</time>
      </trkpt>
      <trkpt lat="43.93712" lon="7.34156">
        <ele>829.59997558594</ele>
        <time>2012-09-09T09:08:21.000Z</time>
      </trkpt>
      <trkpt lat="43.93713" lon="7.3414">
        <ele>827.79998779297</ele>
        <time>2012-09-09T09:08:27.000Z</time>
      </trkpt>
      <trkpt lat="43.93711" lon="7.34125">
        <ele>827.20001220703</ele>
        <time>2012-09-09T09:08:33.000Z</time>
      </trkpt>
      <trkpt lat="43.93704" lon="7.34111">
        <ele>828.40002441406</ele>
        <time>2012-09-09T09:08:38.000Z</time>
      </trkpt>
      <trkpt lat="43.93696" lon="7.34093">
        <ele>830.20001220703</ele>
        <time>2012-09-09T09:08:44.000Z</time>
      </trkpt>
      <trkpt lat="43.93694" lon="7.34091">
        <ele>830.79998779297</ele>
        <time>2012-09-09T09:08:45.000Z</time>
      </trkpt>
      <trkpt lat="43.93691" lon="7.34085">
        <ele>831.79998779297</ele>
        <time>2012-09-09T09:08:47.000Z</time>
      </trkpt>
      <trkpt lat="43.93684" lon="7.34067">
        <ele>833</ele>
        <time>2012-09-09T09:08:54.000Z</time>
      </trkpt>
      <trkpt lat="43.93678" lon="7.34062">
        <ele>835.40002441406</ele>
        <time>2012-09-09T09:08:58.000Z</time>
      </trkpt>
      <trkpt lat="43.93671" lon="7.34058">
        <ele>838</ele>
        <time>2012-09-09T09:09:02.000Z</time>
      </trkpt>
      <trkpt lat="43.93666" lon="7.34057">
        <ele>840</ele>
        <time>2012-09-09T09:09:04.000Z</time>
      </trkpt>
      <trkpt lat="43.93656" lon="7.34051">
        <ele>845.79998779297</ele>
        <time>2012-09-09T09:09:10.000Z</time>
      </trkpt>
      <trkpt lat="43.93649" lon="7.34043">
        <ele>849.59997558594</ele>
        <time>2012-09-09T09:09:15.000Z</time>
      </trkpt>
      <trkpt lat="43.93643" lon="7.34041">
        <ele>852.59997558594</ele>
        <time>2012-09-09T09:09:20.000Z</time>
      </trkpt>
      <trkpt lat="43.93641" lon="7.34041">
        <ele>854.40002441406</ele>
        <time>2012-09-09T09:09:25.000Z</time>
      </trkpt>
      <trkpt lat="43.93633" lon="7.34029">
        <ele>857.79998779297</ele>
        <time>2012-09-09T09:09:43.000Z</time>
      </trkpt>
      <trkpt lat="43.93651" lon="7.34006">
        <ele>845</ele>
        <time>2012-09-09T09:09:57.000Z</time>
      </trkpt>
      <trkpt lat="43.93653" lon="7.34002">
        <ele>843.40002441406</ele>
        <time>2012-09-09T09:10:01.000Z</time>
      </trkpt>
      <trkpt lat="43.93659" lon="7.33996">
        <ele>840</ele>
        <time>2012-09-09T09:10:05.000Z</time>
      </trkpt>
      <trkpt lat="43.93666" lon="7.3399">
        <ele>836.59997558594</ele>
        <time>2012-09-09T09:10:10.000Z</time>
      </trkpt>
      <trkpt lat="43.93668" lon="7.33986">
        <ele>836</ele>
        <time>2012-09-09T09:10:14.000Z</time>
      </trkpt>
      <trkpt lat="43.93668" lon="7.33979">
        <ele>836.79998779297</ele>
        <time>2012-09-09T09:10:20.000Z</time>
      </trkpt>
      <trkpt lat="43.93663" lon="7.33973">
        <ele>840</ele>
        <time>2012-09-09T09:10:25.000Z</time>
      </trkpt>
      <trkpt lat="43.93663" lon="7.33966">
        <ele>841.40002441406</ele>
        <time>2012-09-09T09:10:32.000Z</time>
      </trkpt>
      <trkpt lat="43.9366" lon="7.33961">
        <ele>843.59997558594</ele>
        <time>2012-09-09T09:10:38.000Z</time>
      </trkpt>
      <trkpt lat="43.93662" lon="7.33955">
        <ele>842.79998779297</ele>
        <time>2012-09-09T09:10:44.000Z</time>
      </trkpt>
      <trkpt lat="43.93662" lon="7.3395">
        <ele>843.59997558594</ele>
        <time>2012-09-09T09:10:48.000Z</time>
      </trkpt>
      <trkpt lat="43.93661" lon="7.33949">
        <ele>844.20001220703</ele>
        <time>2012-09-09T09:10:49.000Z</time>
      </trkpt>
      <trkpt lat="43.93657" lon="7.33945">
        <ele>846.40002441406</ele>
        <time>2012-09-09T09:10:52.000Z</time>
      </trkpt>
      <trkpt lat="43.93657" lon="7.33941">
        <ele>846.79998779297</ele>
        <time>2012-09-09T09:10:55.000Z</time>
      </trkpt>
      <trkpt lat="43.93657" lon="7.33936">
        <ele>847.40002441406</ele>
        <time>2012-09-09T09:11:00.000Z</time>
      </trkpt>
      <trkpt lat="43.93655" lon="7.33929">
        <ele>849.40002441406</ele>
        <time>2012-09-09T09:11:07.000Z</time>
      </trkpt>
      <trkpt lat="43.93655" lon="7.33924">
        <ele>850</ele>
        <time>2012-09-09T09:11:14.000Z</time>
      </trkpt>
      <trkpt lat="43.93655" lon="7.33912">
        <ele>850.40002441406</ele>
        <time>2012-09-09T09:11:25.000Z</time>
      </trkpt>
      <trkpt lat="43.93655" lon="7.33903">
        <ele>850.40002441406</ele>
        <time>2012-09-09T09:11:31.000Z</time>
      </trkpt>
      <trkpt lat="43.93652" lon="7.33898">
        <ele>851.40002441406</ele>
        <time>2012-09-09T09:11:37.000Z</time>
      </trkpt>
      <trkpt lat="43.93653" lon="7.3389">
        <ele>850.79998779297</ele>
        <time>2012-09-09T09:11:42.000Z</time>
      </trkpt>
      <trkpt lat="43.93653" lon="7.33885">
        <ele>850.79998779297</ele>
        <time>2012-09-09T09:11:46.000Z</time>
      </trkpt>
      <trkpt lat="43.93651" lon="7.33881">
        <ele>851.40002441406</ele>
        <time>2012-09-09T09:11:51.000Z</time>
      </trkpt>
      <trkpt lat="43.93647" lon="7.33873">
        <ele>852.40002441406</ele>
        <time>2012-09-09T09:11:59.000Z</time>
      </trkpt>
      <trkpt lat="43.93646" lon="7.33872">
        <ele>852.59997558594</ele>
        <time>2012-09-09T09:12:00.000Z</time>
      </trkpt>
      <trkpt lat="43.93645" lon="7.33866">
        <ele>852.79998779297</ele>
        <time>2012-09-09T09:12:06.000Z</time>
      </trkpt>
      <trkpt lat="43.93643" lon="7.33872">
        <ele>853.79998779297</ele>
        <time>2012-09-09T09:12:11.000Z</time>
      </trkpt>
      <trkpt lat="43.93642" lon="7.33874">
        <ele>854.20001220703</ele>
        <time>2012-09-09T09:12:12.000Z</time>
      </trkpt>
      <trkpt lat="43.9364" lon="7.33881">
        <ele>855.20001220703</ele>
        <time>2012-09-09T09:12:16.000Z</time>
      </trkpt>
      <trkpt lat="43.93638" lon="7.33888">
        <ele>856.59997558594</ele>
        <time>2012-09-09T09:12:23.000Z</time>
      </trkpt>
      <trkpt lat="43.93634" lon="7.33895">
        <ele>858.79998779297</ele>
        <time>2012-09-09T09:12:29.000Z</time>
      </trkpt>
      <trkpt lat="43.93632" lon="7.339">
        <ele>860</ele>
        <time>2012-09-09T09:12:33.000Z</time>
      </trkpt>
      <trkpt lat="43.93629" lon="7.33905">
        <ele>861.79998779297</ele>
        <time>2012-09-09T09:12:40.000Z</time>
      </trkpt>
      <trkpt lat="43.93628" lon="7.33911">
        <ele>863.20001220703</ele>
        <time>2012-09-09T09:12:46.000Z</time>
      </trkpt>
      <trkpt lat="43.93626" lon="7.33915">
        <ele>864.40002441406</ele>
        <time>2012-09-09T09:12:51.000Z</time>
      </trkpt>
      <trkpt lat="43.93621" lon="7.33914">
        <ele>866.40002441406</ele>
        <time>2012-09-09T09:12:57.000Z</time>
      </trkpt>
      <trkpt lat="43.93621" lon="7.33908">
        <ele>866</ele>
        <time>2012-09-09T09:13:01.000Z</time>
      </trkpt>
      <trkpt lat="43.93618" lon="7.33902">
        <ele>866.20001220703</ele>
        <time>2012-09-09T09:13:07.000Z</time>
      </trkpt>
      <trkpt lat="43.93615" lon="7.339">
        <ele>867.59997558594</ele>
        <time>2012-09-09T09:13:12.000Z</time>
      </trkpt>
      <trkpt lat="43.9361" lon="7.339">
        <ele>869.59997558594</ele>
        <time>2012-09-09T09:13:19.000Z</time>
      </trkpt>
      <trkpt lat="43.93607" lon="7.33896">
        <ele>870</ele>
        <time>2012-09-09T09:13:31.000Z</time>
      </trkpt>
      <trkpt lat="43.93606" lon="7.33888">
        <ele>869.20001220703</ele>
        <time>2012-09-09T09:13:38.000Z</time>
      </trkpt>
      <trkpt lat="43.93603" lon="7.33883">
        <ele>869.59997558594</ele>
        <time>2012-09-09T09:13:45.000Z</time>
      </trkpt>
      <trkpt lat="43.93599" lon="7.33889">
        <ele>872.40002441406</ele>
        <time>2012-09-09T09:13:52.000Z</time>
      </trkpt>
      <trkpt lat="43.93597" lon="7.33895">
        <ele>874.20001220703</ele>
        <time>2012-09-09T09:13:58.000Z</time>
      </trkpt>
      <trkpt lat="43.93594" lon="7.33897">
        <ele>876</ele>
        <time>2012-09-09T09:14:03.000Z</time>
      </trkpt>
      <trkpt lat="43.9359" lon="7.33899">
        <ele>878</ele>
        <time>2012-09-09T09:14:07.000Z</time>
      </trkpt>
      <trkpt lat="43.93585" lon="7.33902">
        <ele>880.59997558594</ele>
        <time>2012-09-09T09:14:14.000Z</time>
      </trkpt>
      <trkpt lat="43.93584" lon="7.33908">
        <ele>882.40002441406</ele>
        <time>2012-09-09T09:14:18.000Z</time>
      </trkpt>
      <trkpt lat="43.93583" lon="7.33911">
        <ele>884</ele>
        <time>2012-09-09T09:14:23.000Z</time>
      </trkpt>
      <trkpt lat="43.93579" lon="7.33908">
        <ele>886</ele>
        <time>2012-09-09T09:14:28.000Z</time>
      </trkpt>
      <trkpt lat="43.93574" lon="7.33906">
        <ele>888.40002441406</ele>
        <time>2012-09-09T09:14:31.000Z</time>
      </trkpt>
      <trkpt lat="43.93571" lon="7.33906">
        <ele>890.59997558594</ele>
        <time>2012-09-09T09:14:33.000Z</time>
      </trkpt>
      <trkpt lat="43.93565" lon="7.33902">
        <ele>893.59997558594</ele>
        <time>2012-09-09T09:14:39.000Z</time>
      </trkpt>
      <trkpt lat="43.93559" lon="7.339">
        <ele>897.20001220703</ele>
        <time>2012-09-09T09:14:44.000Z</time>
      </trkpt>
      <trkpt lat="43.93549" lon="7.33899">
        <ele>903.40002441406</ele>
        <time>2012-09-09T09:14:50.000Z</time>
      </trkpt>
      <trkpt lat="43.93548" lon="7.339">
        <ele>904</ele>
        <time>2012-09-09T09:14:51.000Z</time>
      </trkpt>
      <trkpt lat="43.93544" lon="7.33897">
        <ele>905.79998779297</ele>
        <time>2012-09-09T09:15:00.000Z</time>
      </trkpt>
      <trkpt lat="43.93535" lon="7.3389">
        <ele>909.40002441406</ele>
        <time>2012-09-09T09:15:08.000Z</time>
      </trkpt>
      <trkpt lat="43.93529" lon="7.33888">
        <ele>913.20001220703</ele>
        <time>2012-09-09T09:15:14.000Z</time>
      </trkpt>
      <trkpt lat="43.93525" lon="7.33883">
        <ele>914</ele>
        <time>2012-09-09T09:15:23.000Z</time>
      </trkpt>
      <trkpt lat="43.93526" lon="7.33878">
        <ele>912.20001220703</ele>
        <time>2012-09-09T09:15:27.000Z</time>
      </trkpt>
      <trkpt lat="43.93528" lon="7.33872">
        <ele>909</ele>
        <time>2012-09-09T09:15:33.000Z</time>
      </trkpt>
      <trkpt lat="43.93517" lon="7.33872">
        <ele>916</ele>
        <time>2012-09-09T09:15:53.000Z</time>
      </trkpt>
      <trkpt lat="43.9352" lon="7.33869">
        <ele>913.20001220703</ele>
        <time>2012-09-09T09:15:58.000Z</time>
      </trkpt>
      <trkpt lat="43.93516" lon="7.33867">
        <ele>915</ele>
        <time>2012-09-09T09:16:03.000Z</time>
      </trkpt>
      <trkpt lat="43.93509" lon="7.33865">
        <ele>918.79998779297</ele>
        <time>2012-09-09T09:16:07.000Z</time>
      </trkpt>
      <trkpt lat="43.93506" lon="7.33861">
        <ele>919.40002441406</ele>
        <time>2012-09-09T09:16:10.000Z</time>
      </trkpt>
      <trkpt lat="43.93504" lon="7.33854">
        <ele>918.40002441406</ele>
        <time>2012-09-09T09:16:13.000Z</time>
      </trkpt>
      <trkpt lat="43.93505" lon="7.33833">
        <ele>911.20001220703</ele>
        <time>2012-09-09T09:16:21.000Z</time>
      </trkpt>
      <trkpt lat="43.93503" lon="7.33823">
        <ele>909.40002441406</ele>
        <time>2012-09-09T09:16:26.000Z</time>
      </trkpt>
      <trkpt lat="43.93502" lon="7.33821">
        <ele>909.20001220703</ele>
        <time>2012-09-09T09:16:27.000Z</time>
      </trkpt>
      <trkpt lat="43.93497" lon="7.33807">
        <ele>907.79998779297</ele>
        <time>2012-09-09T09:16:34.000Z</time>
      </trkpt>
      <trkpt lat="43.93493" lon="7.33804">
        <ele>908.59997558594</ele>
        <time>2012-09-09T09:16:38.000Z</time>
      </trkpt>
      <trkpt lat="43.93484" lon="7.33799">
        <ele>911</ele>
        <time>2012-09-09T09:16:44.000Z</time>
      </trkpt>
      <trkpt lat="43.93478" lon="7.33799">
        <ele>913.59997558594</ele>
        <time>2012-09-09T09:16:49.000Z</time>
      </trkpt>
      <trkpt lat="43.93468" lon="7.33802">
        <ele>918.79998779297</ele>
        <time>2012-09-09T09:16:54.000Z</time>
      </trkpt>
      <trkpt lat="43.9346" lon="7.33801">
        <ele>922</ele>
        <time>2012-09-09T09:16:58.000Z</time>
      </trkpt>
      <trkpt lat="43.93451" lon="7.33798">
        <ele>925</ele>
        <time>2012-09-09T09:17:03.000Z</time>
      </trkpt>
      <trkpt lat="43.93449" lon="7.33786">
        <ele>921.59997558594</ele>
        <time>2012-09-09T09:17:08.000Z</time>
      </trkpt>
      <trkpt lat="43.93449" lon="7.33773">
        <ele>916.20001220703</ele>
        <time>2012-09-09T09:17:13.000Z</time>
      </trkpt>
      <trkpt lat="43.93445" lon="7.3376">
        <ele>913</ele>
        <time>2012-09-09T09:17:17.000Z</time>
      </trkpt>
      <trkpt lat="43.93435" lon="7.33758">
        <ele>915.59997558594</ele>
        <time>2012-09-09T09:17:22.000Z</time>
      </trkpt>
      <trkpt lat="43.93433" lon="7.33759">
        <ele>916.59997558594</ele>
        <time>2012-09-09T09:17:23.000Z</time>
      </trkpt>
      <trkpt lat="43.9343" lon="7.33761">
        <ele>919.20001220703</ele>
        <time>2012-09-09T09:17:25.000Z</time>
      </trkpt>
      <trkpt lat="43.9342" lon="7.33767">
        <ele>925</ele>
        <time>2012-09-09T09:17:31.000Z</time>
      </trkpt>
      <trkpt lat="43.93413" lon="7.33763">
        <ele>926.59997558594</ele>
        <time>2012-09-09T09:17:35.000Z</time>
      </trkpt>
      <trkpt lat="43.93409" lon="7.3375">
        <ele>922.79998779297</ele>
        <time>2012-09-09T09:17:40.000Z</time>
      </trkpt>
      <trkpt lat="43.93402" lon="7.33746">
        <ele>925.79998779297</ele>
        <time>2012-09-09T09:17:45.000Z</time>
      </trkpt>
      <trkpt lat="43.93397" lon="7.33747">
        <ele>928.59997558594</ele>
        <time>2012-09-09T09:17:48.000Z</time>
      </trkpt>
      <trkpt lat="43.93393" lon="7.33747">
        <ele>931.20001220703</ele>
        <time>2012-09-09T09:17:51.000Z</time>
      </trkpt>
      <trkpt lat="43.93386" lon="7.33741">
        <ele>933.40002441406</ele>
        <time>2012-09-09T09:17:57.000Z</time>
      </trkpt>
      <trkpt lat="43.93373" lon="7.33741">
        <ele>939.79998779297</ele>
        <time>2012-09-09T09:18:05.000Z</time>
      </trkpt>
      <trkpt lat="43.93367" lon="7.33739">
        <ele>943</ele>
        <time>2012-09-09T09:18:10.000Z</time>
      </trkpt>
      <trkpt lat="43.93361" lon="7.33736">
        <ele>945.59997558594</ele>
        <time>2012-09-09T09:18:15.000Z</time>
      </trkpt>
      <trkpt lat="43.93355" lon="7.3373">
        <ele>947</ele>
        <time>2012-09-09T09:18:20.000Z</time>
      </trkpt>
      <trkpt lat="43.93349" lon="7.3372">
        <ele>948</ele>
        <time>2012-09-09T09:18:26.000Z</time>
      </trkpt>
      <trkpt lat="43.93341" lon="7.33709">
        <ele>949.79998779297</ele>
        <time>2012-09-09T09:18:33.000Z</time>
      </trkpt>
      <trkpt lat="43.9334" lon="7.33704">
        <ele>949.79998779297</ele>
        <time>2012-09-09T09:18:36.000Z</time>
      </trkpt>
      <trkpt lat="43.93336" lon="7.33702">
        <ele>951.20001220703</ele>
        <time>2012-09-09T09:18:39.000Z</time>
      </trkpt>
      <trkpt lat="43.93331" lon="7.33688">
        <ele>949.79998779297</ele>
        <time>2012-09-09T09:18:45.000Z</time>
      </trkpt>
      <trkpt lat="43.93332" lon="7.33684">
        <ele>949</ele>
        <time>2012-09-09T09:18:47.000Z</time>
      </trkpt>
      <trkpt lat="43.93334" lon="7.33674">
        <ele>946.20001220703</ele>
        <time>2012-09-09T09:18:52.000Z</time>
      </trkpt>
      <trkpt lat="43.93337" lon="7.3366">
        <ele>941.79998779297</ele>
        <time>2012-09-09T09:18:57.000Z</time>
      </trkpt>
      <trkpt lat="43.93332" lon="7.33648">
        <ele>942.40002441406</ele>
        <time>2012-09-09T09:19:03.000Z</time>
      </trkpt>
      <trkpt lat="43.9333" lon="7.33642">
        <ele>941.40002441406</ele>
        <time>2012-09-09T09:19:06.000Z</time>
      </trkpt>
      <trkpt lat="43.93332" lon="7.33624">
        <ele>938.79998779297</ele>
        <time>2012-09-09T09:19:13.000Z</time>
      </trkpt>
      <trkpt lat="43.93334" lon="7.33611">
        <ele>936.59997558594</ele>
        <time>2012-09-09T09:19:18.000Z</time>
      </trkpt>
      <trkpt lat="43.93327" lon="7.33601">
        <ele>935.40002441406</ele>
        <time>2012-09-09T09:19:24.000Z</time>
      </trkpt>
      <trkpt lat="43.93322" lon="7.33586">
        <ele>933</ele>
        <time>2012-09-09T09:19:31.000Z</time>
      </trkpt>
      <trkpt lat="43.93319" lon="7.3357">
        <ele>933</ele>
        <time>2012-09-09T09:19:37.000Z</time>
      </trkpt>
      <trkpt lat="43.93317" lon="7.33557">
        <ele>933.40002441406</ele>
        <time>2012-09-09T09:19:42.000Z</time>
      </trkpt>
      <trkpt lat="43.93312" lon="7.33544">
        <ele>933.59997558594</ele>
        <time>2012-09-09T09:19:48.000Z</time>
      </trkpt>
      <trkpt lat="43.93305" lon="7.33535">
        <ele>933.40002441406</ele>
        <time>2012-09-09T09:19:51.000Z</time>
      </trkpt>
      <trkpt lat="43.93301" lon="7.33529">
        <ele>933.40002441406</ele>
        <time>2012-09-09T09:19:53.000Z</time>
      </trkpt>
      <trkpt lat="43.93302" lon="7.33509">
        <ele>934</ele>
        <time>2012-09-09T09:19:58.000Z</time>
      </trkpt>
      <trkpt lat="43.93297" lon="7.33499">
        <ele>934</ele>
        <time>2012-09-09T09:20:01.000Z</time>
      </trkpt>
      <trkpt lat="43.93291" lon="7.33491">
        <ele>934.40002441406</ele>
        <time>2012-09-09T09:20:03.000Z</time>
      </trkpt>
      <trkpt lat="43.93274" lon="7.33467">
        <ele>935.40002441406</ele>
        <time>2012-09-09T09:20:08.000Z</time>
      </trkpt>
      <trkpt lat="43.93261" lon="7.33466">
        <ele>934.59997558594</ele>
        <time>2012-09-09T09:20:12.000Z</time>
      </trkpt>
      <trkpt lat="43.93243" lon="7.3346">
        <ele>933.40002441406</ele>
        <time>2012-09-09T09:20:18.000Z</time>
      </trkpt>
      <trkpt lat="43.93226" lon="7.33462">
        <ele>930.79998779297</ele>
        <time>2012-09-09T09:20:22.000Z</time>
      </trkpt>
      <trkpt lat="43.93208" lon="7.33475">
        <ele>927.20001220703</ele>
        <time>2012-09-09T09:20:26.000Z</time>
      </trkpt>
      <trkpt lat="43.93199" lon="7.33483">
        <ele>925.40002441406</ele>
        <time>2012-09-09T09:20:28.000Z</time>
      </trkpt>
      <trkpt lat="43.93175" lon="7.33493">
        <ele>921.59997558594</ele>
        <time>2012-09-09T09:20:33.000Z</time>
      </trkpt>
      <trkpt lat="43.93171" lon="7.33494">
        <ele>921</ele>
        <time>2012-09-09T09:20:34.000Z</time>
      </trkpt>
      <trkpt lat="43.93159" lon="7.33503">
        <ele>918.40002441406</ele>
        <time>2012-09-09T09:20:38.000Z</time>
      </trkpt>
      <trkpt lat="43.93152" lon="7.33504">
        <ele>916.79998779297</ele>
        <time>2012-09-09T09:20:42.000Z</time>
      </trkpt>
      <trkpt lat="43.93146" lon="7.33513">
        <ele>915.59997558594</ele>
        <time>2012-09-09T09:20:47.000Z</time>
      </trkpt>
      <trkpt lat="43.93149" lon="7.33518">
        <ele>916</ele>
        <time>2012-09-09T09:20:49.000Z</time>
      </trkpt>
      <trkpt lat="43.93157" lon="7.3353">
        <ele>917.20001220703</ele>
        <time>2012-09-09T09:20:53.000Z</time>
      </trkpt>
      <trkpt lat="43.93154" lon="7.33535">
        <ele>916.40002441406</ele>
        <time>2012-09-09T09:20:56.000Z</time>
      </trkpt>
      <trkpt lat="43.93139" lon="7.33538">
        <ele>913.79998779297</ele>
        <time>2012-09-09T09:21:01.000Z</time>
      </trkpt>
      <trkpt lat="43.93128" lon="7.33538">
        <ele>912</ele>
        <time>2012-09-09T09:21:05.000Z</time>
      </trkpt>
      <trkpt lat="43.93114" lon="7.33526">
        <ele>909.40002441406</ele>
        <time>2012-09-09T09:21:10.000Z</time>
      </trkpt>
      <trkpt lat="43.93099" lon="7.3351">
        <ele>906.40002441406</ele>
        <time>2012-09-09T09:21:15.000Z</time>
      </trkpt>
      <trkpt lat="43.93097" lon="7.33506">
        <ele>906</ele>
        <time>2012-09-09T09:21:16.000Z</time>
      </trkpt>
      <trkpt lat="43.93083" lon="7.33493">
        <ele>903</ele>
        <time>2012-09-09T09:21:21.000Z</time>
      </trkpt>
      <trkpt lat="43.93065" lon="7.33489">
        <ele>897.40002441406</ele>
        <time>2012-09-09T09:21:26.000Z</time>
      </trkpt>
      <trkpt lat="43.93055" lon="7.33494">
        <ele>893.59997558594</ele>
        <time>2012-09-09T09:21:30.000Z</time>
      </trkpt>
      <trkpt lat="43.93039" lon="7.33518">
        <ele>889.59997558594</ele>
        <time>2012-09-09T09:21:36.000Z</time>
      </trkpt>
      <trkpt lat="43.93031" lon="7.3353">
        <ele>888</ele>
        <time>2012-09-09T09:21:38.000Z</time>
      </trkpt>
      <trkpt lat="43.93018" lon="7.33543">
        <ele>885.59997558594</ele>
        <time>2012-09-09T09:21:42.000Z</time>
      </trkpt>
      <trkpt lat="43.93019" lon="7.33541">
        <ele>885.40002441406</ele>
        <time>2012-09-09T09:21:54.000Z</time>
      </trkpt>
      <trkpt lat="43.93017" lon="7.33541">
        <ele>884.79998779297</ele>
        <time>2012-09-09T09:22:07.000Z</time>
      </trkpt>
      <trkpt lat="43.93012" lon="7.33542">
        <ele>883.79998779297</ele>
        <time>2012-09-09T09:22:11.000Z</time>
      </trkpt>
      <trkpt lat="43.92997" lon="7.3355">
        <ele>880</ele>
        <time>2012-09-09T09:22:17.000Z</time>
      </trkpt>
      <trkpt lat="43.92984" lon="7.33554">
        <ele>877.40002441406</ele>
        <time>2012-09-09T09:22:22.000Z</time>
      </trkpt>
      <trkpt lat="43.9297" lon="7.33561">
        <ele>874.79998779297</ele>
        <time>2012-09-09T09:22:28.000Z</time>
      </trkpt>
      <trkpt lat="43.92953" lon="7.33566">
        <ele>871.59997558594</ele>
        <time>2012-09-09T09:22:34.000Z</time>
      </trkpt>
      <trkpt lat="43.92937" lon="7.3357">
        <ele>868.59997558594</ele>
        <time>2012-09-09T09:22:40.000Z</time>
      </trkpt>
      <trkpt lat="43.92926" lon="7.33575">
        <ele>867</ele>
        <time>2012-09-09T09:22:44.000Z</time>
      </trkpt>
      <trkpt lat="43.92909" lon="7.33583">
        <ele>863.20001220703</ele>
        <time>2012-09-09T09:22:51.000Z</time>
      </trkpt>
      <trkpt lat="43.92901" lon="7.33593">
        <ele>858</ele>
        <time>2012-09-09T09:22:56.000Z</time>
      </trkpt>
      <trkpt lat="43.92899" lon="7.33595">
        <ele>857.40002441406</ele>
        <time>2012-09-09T09:23:00.000Z</time>
      </trkpt>
      <trkpt lat="43.929" lon="7.33597">
        <ele>857.20001220703</ele>
        <time>2012-09-09T09:23:38.000Z</time>
      </trkpt>
      <trkpt lat="43.92905" lon="7.33611">
        <ele>858.40002441406</ele>
        <time>2012-09-09T09:23:43.000Z</time>
      </trkpt>
      <trkpt lat="43.92907" lon="7.33614">
        <ele>859</ele>
        <time>2012-09-09T09:23:44.000Z</time>
      </trkpt>
      <trkpt lat="43.92907" lon="7.33614">
        <ele>859</ele>
        <time>2012-09-09T09:23:44.000Z</time>
      </trkpt>
      <trkpt lat="43.92917" lon="7.3363">
        <ele>860.79998779297</ele>
        <time>2012-09-09T09:23:49.000Z</time>
      </trkpt>
      <trkpt lat="43.92927" lon="7.33646">
        <ele>861.20001220703</ele>
        <time>2012-09-09T09:23:54.000Z</time>
      </trkpt>
      <trkpt lat="43.92933" lon="7.33653">
        <ele>861.79998779297</ele>
        <time>2012-09-09T09:23:57.000Z</time>
      </trkpt>
      <trkpt lat="43.92945" lon="7.33661">
        <ele>863.79998779297</ele>
        <time>2012-09-09T09:24:02.000Z</time>
      </trkpt>
      <trkpt lat="43.92968" lon="7.33669">
        <ele>868.79998779297</ele>
        <time>2012-09-09T09:24:08.000Z</time>
      </trkpt>
      <trkpt lat="43.92984" lon="7.33682">
        <ele>872.40002441406</ele>
        <time>2012-09-09T09:24:12.000Z</time>
      </trkpt>
      <trkpt lat="43.92985" lon="7.33689">
        <ele>872.59997558594</ele>
        <time>2012-09-09T09:24:14.000Z</time>
      </trkpt>
      <trkpt lat="43.92979" lon="7.33704">
        <ele>870.59997558594</ele>
        <time>2012-09-09T09:24:19.000Z</time>
      </trkpt>
      <trkpt lat="43.92969" lon="7.3372">
        <ele>867.59997558594</ele>
        <time>2012-09-09T09:24:25.000Z</time>
      </trkpt>
      <trkpt lat="43.9297" lon="7.33731">
        <ele>867.79998779297</ele>
        <time>2012-09-09T09:24:28.000Z</time>
      </trkpt>
      <trkpt lat="43.92979" lon="7.33753">
        <ele>869.79998779297</ele>
        <time>2012-09-09T09:24:34.000Z</time>
      </trkpt>
      <trkpt lat="43.92989" lon="7.33766">
        <ele>873.59997558594</ele>
        <time>2012-09-09T09:24:39.000Z</time>
      </trkpt>
      <trkpt lat="43.93003" lon="7.33781">
        <ele>879.20001220703</ele>
        <time>2012-09-09T09:24:44.000Z</time>
      </trkpt>
      <trkpt lat="43.93008" lon="7.33804">
        <ele>883</ele>
        <time>2012-09-09T09:24:50.000Z</time>
      </trkpt>
      <trkpt lat="43.93008" lon="7.33807">
        <ele>883.40002441406</ele>
        <time>2012-09-09T09:24:56.000Z</time>
      </trkpt>
      <trkpt lat="43.93001" lon="7.33807">
        <ele>881</ele>
        <time>2012-09-09T09:25:02.000Z</time>
      </trkpt>
      <trkpt lat="43.9299" lon="7.33803">
        <ele>877.40002441406</ele>
        <time>2012-09-09T09:25:10.000Z</time>
      </trkpt>
      <trkpt lat="43.92981" lon="7.33801">
        <ele>874.59997558594</ele>
        <time>2012-09-09T09:25:15.000Z</time>
      </trkpt>
      <trkpt lat="43.92964" lon="7.33801">
        <ele>870.20001220703</ele>
        <time>2012-09-09T09:25:21.000Z</time>
      </trkpt>
      <trkpt lat="43.92953" lon="7.33803">
        <ele>867.40002441406</ele>
        <time>2012-09-09T09:25:26.000Z</time>
      </trkpt>
      <trkpt lat="43.92942" lon="7.3381">
        <ele>865</ele>
        <time>2012-09-09T09:25:30.000Z</time>
      </trkpt>
      <trkpt lat="43.92932" lon="7.33835">
        <ele>864.20001220703</ele>
        <time>2012-09-09T09:25:36.000Z</time>
      </trkpt>
      <trkpt lat="43.92932" lon="7.33846">
        <ele>865.20001220703</ele>
        <time>2012-09-09T09:25:39.000Z</time>
      </trkpt>
      <trkpt lat="43.92931" lon="7.33863">
        <ele>866.20001220703</ele>
        <time>2012-09-09T09:25:45.000Z</time>
      </trkpt>
      <trkpt lat="43.92934" lon="7.33878">
        <ele>868.40002441406</ele>
        <time>2012-09-09T09:25:50.000Z</time>
      </trkpt>
      <trkpt lat="43.92934" lon="7.33881">
        <ele>868.79998779297</ele>
        <time>2012-09-09T09:25:51.000Z</time>
      </trkpt>
      <trkpt lat="43.92938" lon="7.33902">
        <ele>871.79998779297</ele>
        <time>2012-09-09T09:25:58.000Z</time>
      </trkpt>
      <trkpt lat="43.92945" lon="7.33914">
        <ele>874.79998779297</ele>
        <time>2012-09-09T09:26:04.000Z</time>
      </trkpt>
      <trkpt lat="43.9295" lon="7.33935">
        <ele>878.59997558594</ele>
        <time>2012-09-09T09:26:10.000Z</time>
      </trkpt>
      <trkpt lat="43.92951" lon="7.33952">
        <ele>880.59997558594</ele>
        <time>2012-09-09T09:26:14.000Z</time>
      </trkpt>
      <trkpt lat="43.92956" lon="7.33975">
        <ele>884.40002441406</ele>
        <time>2012-09-09T09:26:19.000Z</time>
      </trkpt>
      <trkpt lat="43.92957" lon="7.33985">
        <ele>885.59997558594</ele>
        <time>2012-09-09T09:26:21.000Z</time>
      </trkpt>
      <trkpt lat="43.92949" lon="7.33995">
        <ele>883.79998779297</ele>
        <time>2012-09-09T09:26:25.000Z</time>
      </trkpt>
      <trkpt lat="43.9294" lon="7.34003">
        <ele>881.79998779297</ele>
        <time>2012-09-09T09:26:28.000Z</time>
      </trkpt>
      <trkpt lat="43.92931" lon="7.34005">
        <ele>879</ele>
        <time>2012-09-09T09:26:32.000Z</time>
      </trkpt>
      <trkpt lat="43.92921" lon="7.3401">
        <ele>876.59997558594</ele>
        <time>2012-09-09T09:26:38.000Z</time>
      </trkpt>
      <trkpt lat="43.9291" lon="7.34024">
        <ele>876.59997558594</ele>
        <time>2012-09-09T09:26:43.000Z</time>
      </trkpt>
      <trkpt lat="43.92908" lon="7.34036">
        <ele>878.40002441406</ele>
        <time>2012-09-09T09:26:46.000Z</time>
      </trkpt>
      <trkpt lat="43.92902" lon="7.34058">
        <ele>881.20001220703</ele>
        <time>2012-09-09T09:26:53.000Z</time>
      </trkpt>
      <trkpt lat="43.92897" lon="7.34075">
        <ele>883.20001220703</ele>
        <time>2012-09-09T09:26:58.000Z</time>
      </trkpt>
      <trkpt lat="43.92885" lon="7.34089">
        <ele>882.40002441406</ele>
        <time>2012-09-09T09:27:03.000Z</time>
      </trkpt>
      <trkpt lat="43.92878" lon="7.34099">
        <ele>882.59997558594</ele>
        <time>2012-09-09T09:27:08.000Z</time>
      </trkpt>
      <trkpt lat="43.92871" lon="7.34107">
        <ele>881.59997558594</ele>
        <time>2012-09-09T09:27:12.000Z</time>
      </trkpt>
      <trkpt lat="43.92866" lon="7.3412">
        <ele>882.59997558594</ele>
        <time>2012-09-09T09:27:17.000Z</time>
      </trkpt>
      <trkpt lat="43.92858" lon="7.34138">
        <ele>882.79998779297</ele>
        <time>2012-09-09T09:27:24.000Z</time>
      </trkpt>
      <trkpt lat="43.92852" lon="7.34156">
        <ele>883.40002441406</ele>
        <time>2012-09-09T09:27:30.000Z</time>
      </trkpt>
      <trkpt lat="43.92853" lon="7.34175">
        <ele>887.40002441406</ele>
        <time>2012-09-09T09:27:36.000Z</time>
      </trkpt>
      <trkpt lat="43.92861" lon="7.34197">
        <ele>895</ele>
        <time>2012-09-09T09:27:43.000Z</time>
      </trkpt>
      <trkpt lat="43.92861" lon="7.3421">
        <ele>898</ele>
        <time>2012-09-09T09:27:47.000Z</time>
      </trkpt>
      <trkpt lat="43.92858" lon="7.34224">
        <ele>899.59997558594</ele>
        <time>2012-09-09T09:27:51.000Z</time>
      </trkpt>
      <trkpt lat="43.92847" lon="7.34223">
        <ele>894.79998779297</ele>
        <time>2012-09-09T09:27:56.000Z</time>
      </trkpt>
      <trkpt lat="43.92833" lon="7.34222">
        <ele>889</ele>
        <time>2012-09-09T09:28:02.000Z</time>
      </trkpt>
      <trkpt lat="43.92831" lon="7.34223">
        <ele>889.59997558594</ele>
        <time>2012-09-09T09:28:03.000Z</time>
      </trkpt>
      <trkpt lat="43.9282" lon="7.3424">
        <ele>894.20001220703</ele>
        <time>2012-09-09T09:28:10.000Z</time>
      </trkpt>
      <trkpt lat="43.92815" lon="7.3426">
        <ele>898.79998779297</ele>
        <time>2012-09-09T09:28:16.000Z</time>
      </trkpt>
      <trkpt lat="43.92804" lon="7.34281">
        <ele>903.40002441406</ele>
        <time>2012-09-09T09:28:23.000Z</time>
      </trkpt>
      <trkpt lat="43.92795" lon="7.34298">
        <ele>906.40002441406</ele>
        <time>2012-09-09T09:28:29.000Z</time>
      </trkpt>
      <trkpt lat="43.92793" lon="7.34301">
        <ele>906.79998779297</ele>
        <time>2012-09-09T09:28:31.000Z</time>
      </trkpt>
      <trkpt lat="43.92783" lon="7.34314">
        <ele>908.40002441406</ele>
        <time>2012-09-09T09:28:37.000Z</time>
      </trkpt>
      <trkpt lat="43.92771" lon="7.34319">
        <ele>908.20001220703</ele>
        <time>2012-09-09T09:28:41.000Z</time>
      </trkpt>
      <trkpt lat="43.92766" lon="7.34327">
        <ele>908.79998779297</ele>
        <time>2012-09-09T09:28:44.000Z</time>
      </trkpt>
      <trkpt lat="43.92759" lon="7.34344">
        <ele>909.40002441406</ele>
        <time>2012-09-09T09:28:49.000Z</time>
      </trkpt>
      <trkpt lat="43.92755" lon="7.34347">
        <ele>909</ele>
        <time>2012-09-09T09:28:58.000Z</time>
      </trkpt>
      <trkpt lat="43.92753" lon="7.34354">
        <ele>909</ele>
        <time>2012-09-09T09:29:06.000Z</time>
      </trkpt>
      <trkpt lat="43.92748" lon="7.34352">
        <ele>909.79998779297</ele>
        <time>2012-09-09T09:29:34.000Z</time>
      </trkpt>
      <trkpt lat="43.92746" lon="7.34348">
        <ele>911</ele>
        <time>2012-09-09T09:29:42.000Z</time>
      </trkpt>
      <trkpt lat="43.92743" lon="7.34346">
        <ele>913.40002441406</ele>
        <time>2012-09-09T09:29:49.000Z</time>
      </trkpt>
      <trkpt lat="43.92741" lon="7.3434">
        <ele>915</ele>
        <time>2012-09-09T09:29:54.000Z</time>
      </trkpt>
      <trkpt lat="43.9274" lon="7.34326">
        <ele>914.79998779297</ele>
        <time>2012-09-09T09:30:00.000Z</time>
      </trkpt>
      <trkpt lat="43.9274" lon="7.34318">
        <ele>914.20001220703</ele>
        <time>2012-09-09T09:30:04.000Z</time>
      </trkpt>
      <trkpt lat="43.92744" lon="7.34307">
        <ele>910.59997558594</ele>
        <time>2012-09-09T09:30:09.000Z</time>
      </trkpt>
      <trkpt lat="43.92743" lon="7.3429">
        <ele>909.79998779297</ele>
        <time>2012-09-09T09:30:15.000Z</time>
      </trkpt>
      <trkpt lat="43.92744" lon="7.34285">
        <ele>908.59997558594</ele>
        <time>2012-09-09T09:30:17.000Z</time>
      </trkpt>
      <trkpt lat="43.92744" lon="7.3427">
        <ele>907.20001220703</ele>
        <time>2012-09-09T09:30:22.000Z</time>
      </trkpt>
      <trkpt lat="43.92744" lon="7.3426">
        <ele>906.79998779297</ele>
        <time>2012-09-09T09:30:26.000Z</time>
      </trkpt>
      <trkpt lat="43.92745" lon="7.34235">
        <ele>905</ele>
        <time>2012-09-09T09:30:33.000Z</time>
      </trkpt>
      <trkpt lat="43.92745" lon="7.3423">
        <ele>905</ele>
        <time>2012-09-09T09:30:35.000Z</time>
      </trkpt>
      <trkpt lat="43.92741" lon="7.34222">
        <ele>907.20001220703</ele>
        <time>2012-09-09T09:30:40.000Z</time>
      </trkpt>
      <trkpt lat="43.92739" lon="7.34214">
        <ele>908.59997558594</ele>
        <time>2012-09-09T09:30:43.000Z</time>
      </trkpt>
      <trkpt lat="43.92741" lon="7.34202">
        <ele>907.40002441406</ele>
        <time>2012-09-09T09:30:48.000Z</time>
      </trkpt>
      <trkpt lat="43.92745" lon="7.34195">
        <ele>904.40002441406</ele>
        <time>2012-09-09T09:30:54.000Z</time>
      </trkpt>
      <trkpt lat="43.92746" lon="7.34193">
        <ele>904.20001220703</ele>
        <time>2012-09-09T09:30:58.000Z</time>
      </trkpt>
      <trkpt lat="43.92746" lon="7.34191">
        <ele>904.20001220703</ele>
        <time>2012-09-09T09:30:59.000Z</time>
      </trkpt>
      <trkpt lat="43.92746" lon="7.34191">
        <ele>904.20001220703</ele>
        <time>2012-09-09T09:30:59.000Z</time>
      </trkpt>
      <trkpt lat="43.92741" lon="7.34172">
        <ele>906.79998779297</ele>
        <time>2012-09-09T09:31:07.000Z</time>
      </trkpt>
      <trkpt lat="43.92737" lon="7.34159">
        <ele>908.79998779297</ele>
        <time>2012-09-09T09:31:13.000Z</time>
      </trkpt>
      <trkpt lat="43.92735" lon="7.34148">
        <ele>910.20001220703</ele>
        <time>2012-09-09T09:31:17.000Z</time>
      </trkpt>
      <trkpt lat="43.92732" lon="7.34136">
        <ele>911.40002441406</ele>
        <time>2012-09-09T09:31:23.000Z</time>
      </trkpt>
      <trkpt lat="43.92731" lon="7.34131">
        <ele>912</ele>
        <time>2012-09-09T09:31:25.000Z</time>
      </trkpt>
      <trkpt lat="43.92731" lon="7.34117">
        <ele>912</ele>
        <time>2012-09-09T09:31:31.000Z</time>
      </trkpt>
      <trkpt lat="43.92729" lon="7.34104">
        <ele>912.59997558594</ele>
        <time>2012-09-09T09:31:36.000Z</time>
      </trkpt>
      <trkpt lat="43.92729" lon="7.34097">
        <ele>912.40002441406</ele>
        <time>2012-09-09T09:31:39.000Z</time>
      </trkpt>
      <trkpt lat="43.92728" lon="7.34084">
        <ele>912.59997558594</ele>
        <time>2012-09-09T09:31:45.000Z</time>
      </trkpt>
      <trkpt lat="43.92721" lon="7.34064">
        <ele>914.79998779297</ele>
        <time>2012-09-09T09:31:52.000Z</time>
      </trkpt>
      <trkpt lat="43.92714" lon="7.34047">
        <ele>917</ele>
        <time>2012-09-09T09:31:58.000Z</time>
      </trkpt>
      <trkpt lat="43.92711" lon="7.34034">
        <ele>917</ele>
        <time>2012-09-09T09:32:03.000Z</time>
      </trkpt>
      <trkpt lat="43.92706" lon="7.34015">
        <ele>917.40002441406</ele>
        <time>2012-09-09T09:32:08.000Z</time>
      </trkpt>
      <trkpt lat="43.92702" lon="7.34004">
        <ele>918</ele>
        <time>2012-09-09T09:32:13.000Z</time>
      </trkpt>
      <trkpt lat="43.92701" lon="7.33986">
        <ele>914.79998779297</ele>
        <time>2012-09-09T09:32:19.000Z</time>
      </trkpt>
      <trkpt lat="43.92694" lon="7.3397">
        <ele>914</ele>
        <time>2012-09-09T09:32:25.000Z</time>
      </trkpt>
      <trkpt lat="43.92691" lon="7.33966">
        <ele>914.40002441406</ele>
        <time>2012-09-09T09:32:27.000Z</time>
      </trkpt>
      <trkpt lat="43.9268" lon="7.33958">
        <ele>917</ele>
        <time>2012-09-09T09:32:33.000Z</time>
      </trkpt>
      <trkpt lat="43.92678" lon="7.33954">
        <ele>916.59997558594</ele>
        <time>2012-09-09T09:32:35.000Z</time>
      </trkpt>
      <trkpt lat="43.92665" lon="7.3394">
        <ele>918.20001220703</ele>
        <time>2012-09-09T09:32:41.000Z</time>
      </trkpt>
      <trkpt lat="43.92653" lon="7.33934">
        <ele>921.59997558594</ele>
        <time>2012-09-09T09:32:45.000Z</time>
      </trkpt>
      <trkpt lat="43.92641" lon="7.33924">
        <ele>922.79998779297</ele>
        <time>2012-09-09T09:32:49.000Z</time>
      </trkpt>
      <trkpt lat="43.92631" lon="7.33901">
        <ele>919.79998779297</ele>
        <time>2012-09-09T09:32:54.000Z</time>
      </trkpt>
      <trkpt lat="43.92623" lon="7.33886">
        <ele>918.40002441406</ele>
        <time>2012-09-09T09:32:59.000Z</time>
      </trkpt>
      <trkpt lat="43.92613" lon="7.33876">
        <ele>919.40002441406</ele>
        <time>2012-09-09T09:33:04.000Z</time>
      </trkpt>
      <trkpt lat="43.92604" lon="7.33868">
        <ele>920.20001220703</ele>
        <time>2012-09-09T09:33:08.000Z</time>
      </trkpt>
      <trkpt lat="43.92593" lon="7.33861">
        <ele>922.59997558594</ele>
        <time>2012-09-09T09:33:13.000Z</time>
      </trkpt>
      <trkpt lat="43.92589" lon="7.3386">
        <ele>923.59997558594</ele>
        <time>2012-09-09T09:33:14.000Z</time>
      </trkpt>
      <trkpt lat="43.92584" lon="7.33856">
        <ele>924</ele>
        <time>2012-09-09T09:33:17.000Z</time>
      </trkpt>
      <trkpt lat="43.92574" lon="7.33847">
        <ele>925.59997558594</ele>
        <time>2012-09-09T09:33:23.000Z</time>
      </trkpt>
      <trkpt lat="43.92572" lon="7.33845">
        <ele>925.40002441406</ele>
        <time>2012-09-09T09:33:24.000Z</time>
      </trkpt>
      <trkpt lat="43.92569" lon="7.33834">
        <ele>923.59997558594</ele>
        <time>2012-09-09T09:33:28.000Z</time>
      </trkpt>
      <trkpt lat="43.92569" lon="7.33819">
        <ele>921</ele>
        <time>2012-09-09T09:33:35.000Z</time>
      </trkpt>
      <trkpt lat="43.92574" lon="7.33811">
        <ele>918.20001220703</ele>
        <time>2012-09-09T09:34:59.000Z</time>
      </trkpt>
      <trkpt lat="43.92574" lon="7.33806">
        <ele>917.59997558594</ele>
        <time>2012-09-09T09:35:01.000Z</time>
      </trkpt>
      <trkpt lat="43.9257" lon="7.33781">
        <ele>915.40002441406</ele>
        <time>2012-09-09T09:35:09.000Z</time>
      </trkpt>
      <trkpt lat="43.92567" lon="7.33765">
        <ele>913.59997558594</ele>
        <time>2012-09-09T09:35:14.000Z</time>
      </trkpt>
      <trkpt lat="43.92566" lon="7.33749">
        <ele>911.59997558594</ele>
        <time>2012-09-09T09:35:19.000Z</time>
      </trkpt>
      <trkpt lat="43.92562" lon="7.33742">
        <ele>911.79998779297</ele>
        <time>2012-09-09T09:35:22.000Z</time>
      </trkpt>
      <trkpt lat="43.92549" lon="7.33733">
        <ele>913.79998779297</ele>
        <time>2012-09-09T09:35:29.000Z</time>
      </trkpt>
      <trkpt lat="43.92547" lon="7.33731">
        <ele>914</ele>
        <time>2012-09-09T09:35:30.000Z</time>
      </trkpt>
      <trkpt lat="43.92532" lon="7.33729">
        <ele>917.20001220703</ele>
        <time>2012-09-09T09:35:37.000Z</time>
      </trkpt>
      <trkpt lat="43.92518" lon="7.33727">
        <ele>920.20001220703</ele>
        <time>2012-09-09T09:35:42.000Z</time>
      </trkpt>
      <trkpt lat="43.92513" lon="7.33725">
        <ele>921.40002441406</ele>
        <time>2012-09-09T09:35:44.000Z</time>
      </trkpt>
      <trkpt lat="43.92499" lon="7.33717">
        <ele>923.59997558594</ele>
        <time>2012-09-09T09:35:50.000Z</time>
      </trkpt>
      <trkpt lat="43.92485" lon="7.33708">
        <ele>922.40002441406</ele>
        <time>2012-09-09T09:35:56.000Z</time>
      </trkpt>
      <trkpt lat="43.92475" lon="7.33698">
        <ele>921.40002441406</ele>
        <time>2012-09-09T09:36:01.000Z</time>
      </trkpt>
      <trkpt lat="43.92465" lon="7.33693">
        <ele>920.59997558594</ele>
        <time>2012-09-09T09:36:06.000Z</time>
      </trkpt>
      <trkpt lat="43.92449" lon="7.33697">
        <ele>920.40002441406</ele>
        <time>2012-09-09T09:36:10.000Z</time>
      </trkpt>
      <trkpt lat="43.92427" lon="7.33709">
        <ele>921</ele>
        <time>2012-09-09T09:36:15.000Z</time>
      </trkpt>
      <trkpt lat="43.9241" lon="7.3371">
        <ele>919.20001220703</ele>
        <time>2012-09-09T09:36:20.000Z</time>
      </trkpt>
      <trkpt lat="43.92394" lon="7.33713">
        <ele>916</ele>
        <time>2012-09-09T09:36:26.000Z</time>
      </trkpt>
      <trkpt lat="43.92384" lon="7.3373">
        <ele>915</ele>
        <time>2012-09-09T09:36:30.000Z</time>
      </trkpt>
      <trkpt lat="43.92374" lon="7.33745">
        <ele>913.59997558594</ele>
        <time>2012-09-09T09:36:35.000Z</time>
      </trkpt>
      <trkpt lat="43.92371" lon="7.33757">
        <ele>914.59997558594</ele>
        <time>2012-09-09T09:36:39.000Z</time>
      </trkpt>
      <trkpt lat="43.92365" lon="7.33784">
        <ele>919.40002441406</ele>
        <time>2012-09-09T09:36:44.000Z</time>
      </trkpt>
      <trkpt lat="43.92361" lon="7.33803">
        <ele>923</ele>
        <time>2012-09-09T09:36:48.000Z</time>
      </trkpt>
      <trkpt lat="43.92362" lon="7.33821">
        <ele>927.59997558594</ele>
        <time>2012-09-09T09:36:52.000Z</time>
      </trkpt>
      <trkpt lat="43.92361" lon="7.33825">
        <ele>928.40002441406</ele>
        <time>2012-09-09T09:36:53.000Z</time>
      </trkpt>
      <trkpt lat="43.92352" lon="7.33828">
        <ele>926.40002441406</ele>
        <time>2012-09-09T09:36:57.000Z</time>
      </trkpt>
      <trkpt lat="43.92336" lon="7.33827">
        <ele>921.20001220703</ele>
        <time>2012-09-09T09:37:03.000Z</time>
      </trkpt>
      <trkpt lat="43.92328" lon="7.33833">
        <ele>920.79998779297</ele>
        <time>2012-09-09T09:37:09.000Z</time>
      </trkpt>
      <trkpt lat="43.92327" lon="7.33833">
        <ele>920.59997558594</ele>
        <time>2012-09-09T09:37:10.000Z</time>
      </trkpt>
      <trkpt lat="43.92324" lon="7.33835">
        <ele>920.79998779297</ele>
        <time>2012-09-09T09:37:18.000Z</time>
      </trkpt>
      <trkpt lat="43.92319" lon="7.33837">
        <ele>920.20001220703</ele>
        <time>2012-09-09T09:37:30.000Z</time>
      </trkpt>
      <trkpt lat="43.92318" lon="7.33838">
        <ele>920.40002441406</ele>
        <time>2012-09-09T09:37:38.000Z</time>
      </trkpt>
      <trkpt lat="43.92318" lon="7.33835">
        <ele>919.40002441406</ele>
        <time>2012-09-09T09:37:51.000Z</time>
      </trkpt>
      <trkpt lat="43.92322" lon="7.33836">
        <ele>920.59997558594</ele>
        <time>2012-09-09T09:37:57.000Z</time>
      </trkpt>
      <trkpt lat="43.9232" lon="7.33836">
        <ele>920</ele>
        <time>2012-09-09T09:38:11.000Z</time>
      </trkpt>
      <trkpt lat="43.92326" lon="7.33818">
        <ele>917.20001220703</ele>
        <time>2012-09-09T09:38:43.000Z</time>
      </trkpt>
      <trkpt lat="43.9232" lon="7.33825">
        <ele>917.40002441406</ele>
        <time>2012-09-09T09:39:04.000Z</time>
      </trkpt>
      <trkpt lat="43.9232" lon="7.33827">
        <ele>917.59997558594</ele>
        <time>2012-09-09T09:39:13.000Z</time>
      </trkpt>
      <trkpt lat="43.92318" lon="7.33829">
        <ele>918</ele>
        <time>2012-09-09T09:39:27.000Z</time>
      </trkpt>
      <trkpt lat="43.92318" lon="7.33831">
        <ele>918.20001220703</ele>
        <time>2012-09-09T09:39:36.000Z</time>
      </trkpt>
      <trkpt lat="43.92318" lon="7.33832">
        <ele>918.40002441406</ele>
        <time>2012-09-09T09:39:46.000Z</time>
      </trkpt>
      <trkpt lat="43.92315" lon="7.33834">
        <ele>918.59997558594</ele>
        <time>2012-09-09T09:40:13.000Z</time>
      </trkpt>
      <trkpt lat="43.92315" lon="7.33834">
        <ele>918.40002441406</ele>
        <time>2012-09-09T09:40:24.000Z</time>
      </trkpt>
      <trkpt lat="43.92316" lon="7.33832">
        <ele>918.20001220703</ele>
        <time>2012-09-09T09:40:35.000Z</time>
      </trkpt>
      <trkpt lat="43.92316" lon="7.33833">
        <ele>918.40002441406</ele>
        <time>2012-09-09T09:40:52.000Z</time>
      </trkpt>
      <trkpt lat="43.92316" lon="7.33833">
        <ele>918.20001220703</ele>
        <time>2012-09-09T09:41:06.000Z</time>
      </trkpt>
      <trkpt lat="43.92315" lon="7.33833">
        <ele>918.20001220703</ele>
        <time>2012-09-09T09:41:17.000Z</time>
      </trkpt>
      <trkpt lat="43.92315" lon="7.33832">
        <ele>918</ele>
        <time>2012-09-09T09:41:31.000Z</time>
      </trkpt>
      <trkpt lat="43.92317" lon="7.3383">
        <ele>918</ele>
        <time>2012-09-09T09:41:45.000Z</time>
      </trkpt>
      <trkpt lat="43.92318" lon="7.33832">
        <ele>918.59997558594</ele>
        <time>2012-09-09T09:42:32.000Z</time>
      </trkpt>
      <trkpt lat="43.9232" lon="7.33832">
        <ele>919</ele>
        <time>2012-09-09T09:42:43.000Z</time>
      </trkpt>
      <trkpt lat="43.9232" lon="7.33832">
        <ele>919</ele>
        <time>2012-09-09T09:42:57.000Z</time>
      </trkpt>
      <trkpt lat="43.92319" lon="7.3383">
        <ele>918.40002441406</ele>
        <time>2012-09-09T09:43:44.000Z</time>
      </trkpt>
      <trkpt lat="43.9232" lon="7.33829">
        <ele>918.20001220703</ele>
        <time>2012-09-09T09:43:57.000Z</time>
      </trkpt>
      <trkpt lat="43.9232" lon="7.33827">
        <ele>917.79998779297</ele>
        <time>2012-09-09T09:44:12.000Z</time>
      </trkpt>
      <trkpt lat="43.92319" lon="7.33828">
        <ele>918</ele>
        <time>2012-09-09T09:44:27.000Z</time>
      </trkpt>
      <trkpt lat="43.9232" lon="7.33827">
        <ele>917.79998779297</ele>
        <time>2012-09-09T09:44:39.000Z</time>
      </trkpt>
      <trkpt lat="43.92321" lon="7.33821">
        <ele>916.79998779297</ele>
        <time>2012-09-09T09:45:02.000Z</time>
      </trkpt>
      <trkpt lat="43.92324" lon="7.33819">
        <ele>916.79998779297</ele>
        <time>2012-09-09T09:45:12.000Z</time>
      </trkpt>
      <trkpt lat="43.92323" lon="7.33821">
        <ele>917.20001220703</ele>
        <time>2012-09-09T09:45:27.000Z</time>
      </trkpt>
      <trkpt lat="43.92323" lon="7.33824">
        <ele>917.79998779297</ele>
        <time>2012-09-09T09:45:41.000Z</time>
      </trkpt>
      <trkpt lat="43.92323" lon="7.33825">
        <ele>918</ele>
        <time>2012-09-09T09:45:55.000Z</time>
      </trkpt>
      <trkpt lat="43.92322" lon="7.33827">
        <ele>918</ele>
        <time>2012-09-09T09:48:19.000Z</time>
      </trkpt>
      <trkpt lat="43.92322" lon="7.33828">
        <ele>918.40002441406</ele>
        <time>2012-09-09T09:48:30.000Z</time>
      </trkpt>
      <trkpt lat="43.92318" lon="7.33839">
        <ele>920.59997558594</ele>
        <time>2012-09-09T09:52:50.000Z</time>
      </trkpt>
      <trkpt lat="43.92322" lon="7.33831">
        <ele>919.20001220703</ele>
        <time>2012-09-09T09:52:58.000Z</time>
      </trkpt>
      <trkpt lat="43.92321" lon="7.33832">
        <ele>919.20001220703</ele>
        <time>2012-09-09T09:53:17.000Z</time>
      </trkpt>
      <trkpt lat="43.92322" lon="7.33833">
        <ele>919.79998779297</ele>
        <time>2012-09-09T09:53:27.000Z</time>
      </trkpt>
      <trkpt lat="43.92327" lon="7.33834">
        <ele>920.79998779297</ele>
        <time>2012-09-09T09:53:42.000Z</time>
      </trkpt>
      <trkpt lat="43.9232" lon="7.33835">
        <ele>919.79998779297</ele>
        <time>2012-09-09T09:53:48.000Z</time>
      </trkpt>
      <trkpt lat="43.92305" lon="7.33844">
        <ele>919</ele>
        <time>2012-09-09T09:53:54.000Z</time>
      </trkpt>
      <trkpt lat="43.92293" lon="7.33852">
        <ele>918.40002441406</ele>
        <time>2012-09-09T09:53:59.000Z</time>
      </trkpt>
      <trkpt lat="43.92283" lon="7.33868">
        <ele>919.59997558594</ele>
        <time>2012-09-09T09:54:05.000Z</time>
      </trkpt>
      <trkpt lat="43.92276" lon="7.33889">
        <ele>922.20001220703</ele>
        <time>2012-09-09T09:54:11.000Z</time>
      </trkpt>
      <trkpt lat="43.92268" lon="7.33909">
        <ele>924.20001220703</ele>
        <time>2012-09-09T09:54:17.000Z</time>
      </trkpt>
      <trkpt lat="43.9227" lon="7.33925">
        <ele>927.40002441406</ele>
        <time>2012-09-09T09:54:21.000Z</time>
      </trkpt>
      <trkpt lat="43.92264" lon="7.33933">
        <ele>926.40002441406</ele>
        <time>2012-09-09T09:54:25.000Z</time>
      </trkpt>
      <trkpt lat="43.92255" lon="7.33943">
        <ele>924.40002441406</ele>
        <time>2012-09-09T09:54:29.000Z</time>
      </trkpt>
      <trkpt lat="43.92253" lon="7.33946">
        <ele>923.79998779297</ele>
        <time>2012-09-09T09:54:30.000Z</time>
      </trkpt>
      <trkpt lat="43.92243" lon="7.33959">
        <ele>922.20001220703</ele>
        <time>2012-09-09T09:54:36.000Z</time>
      </trkpt>
      <trkpt lat="43.92238" lon="7.33968">
        <ele>922</ele>
        <time>2012-09-09T09:54:41.000Z</time>
      </trkpt>
      <trkpt lat="43.92239" lon="7.33973">
        <ele>922.79998779297</ele>
        <time>2012-09-09T09:54:48.000Z</time>
      </trkpt>
      <trkpt lat="43.92237" lon="7.33978">
        <ele>923</ele>
        <time>2012-09-09T09:54:52.000Z</time>
      </trkpt>
      <trkpt lat="43.92233" lon="7.33991">
        <ele>923.59997558594</ele>
        <time>2012-09-09T09:54:57.000Z</time>
      </trkpt>
      <trkpt lat="43.92229" lon="7.34007">
        <ele>925.40002441406</ele>
        <time>2012-09-09T09:55:02.000Z</time>
      </trkpt>
      <trkpt lat="43.92227" lon="7.34017">
        <ele>927.59997558594</ele>
        <time>2012-09-09T09:55:06.000Z</time>
      </trkpt>
      <trkpt lat="43.92225" lon="7.34024">
        <ele>928.40002441406</ele>
        <time>2012-09-09T09:55:10.000Z</time>
      </trkpt>
      <trkpt lat="43.92222" lon="7.34028">
        <ele>928.79998779297</ele>
        <time>2012-09-09T09:55:13.000Z</time>
      </trkpt>
      <trkpt lat="43.92221" lon="7.34029">
        <ele>928.79998779297</ele>
        <time>2012-09-09T09:55:15.000Z</time>
      </trkpt>
      <trkpt lat="43.92213" lon="7.34038">
        <ele>929</ele>
        <time>2012-09-09T09:55:22.000Z</time>
      </trkpt>
      <trkpt lat="43.92204" lon="7.34043">
        <ele>927.59997558594</ele>
        <time>2012-09-09T09:55:27.000Z</time>
      </trkpt>
      <trkpt lat="43.92187" lon="7.34046">
        <ele>924</ele>
        <time>2012-09-09T09:55:32.000Z</time>
      </trkpt>
      <trkpt lat="43.92169" lon="7.34041">
        <ele>918</ele>
        <time>2012-09-09T09:55:37.000Z</time>
      </trkpt>
      <trkpt lat="43.92155" lon="7.34032">
        <ele>913.20001220703</ele>
        <time>2012-09-09T09:55:41.000Z</time>
      </trkpt>
      <trkpt lat="43.9215" lon="7.34031">
        <ele>912.20001220703</ele>
        <time>2012-09-09T09:55:42.000Z</time>
      </trkpt>
      <trkpt lat="43.92133" lon="7.34048">
        <ele>912.40002441406</ele>
        <time>2012-09-09T09:55:46.000Z</time>
      </trkpt>
      <trkpt lat="43.92126" lon="7.34065">
        <ele>914.20001220703</ele>
        <time>2012-09-09T09:55:49.000Z</time>
      </trkpt>
      <trkpt lat="43.92114" lon="7.34092">
        <ele>917.20001220703</ele>
        <time>2012-09-09T09:55:54.000Z</time>
      </trkpt>
      <trkpt lat="43.92128" lon="7.34114">
        <ele>927.40002441406</ele>
        <time>2012-09-09T09:55:57.000Z</time>
      </trkpt>
      <trkpt lat="43.92122" lon="7.34133">
        <ele>931</ele>
        <time>2012-09-09T09:56:00.000Z</time>
      </trkpt>
      <trkpt lat="43.92112" lon="7.34134">
        <ele>928.40002441406</ele>
        <time>2012-09-09T09:56:04.000Z</time>
      </trkpt>
      <trkpt lat="43.92093" lon="7.34128">
        <ele>920.79998779297</ele>
        <time>2012-09-09T09:56:09.000Z</time>
      </trkpt>
      <trkpt lat="43.9207" lon="7.34125">
        <ele>917.20001220703</ele>
        <time>2012-09-09T09:56:14.000Z</time>
      </trkpt>
      <trkpt lat="43.92067" lon="7.34127">
        <ele>917.59997558594</ele>
        <time>2012-09-09T09:56:15.000Z</time>
      </trkpt>
      <trkpt lat="43.92054" lon="7.34144">
        <ele>920.79998779297</ele>
        <time>2012-09-09T09:56:19.000Z</time>
      </trkpt>
      <trkpt lat="43.92036" lon="7.3416">
        <ele>923.40002441406</ele>
        <time>2012-09-09T09:56:23.000Z</time>
      </trkpt>
      <trkpt lat="43.92031" lon="7.34168">
        <ele>925</ele>
        <time>2012-09-09T09:56:25.000Z</time>
      </trkpt>
      <trkpt lat="43.92025" lon="7.34177">
        <ele>926.59997558594</ele>
        <time>2012-09-09T09:56:27.000Z</time>
      </trkpt>
      <trkpt lat="43.92009" lon="7.34203">
        <ele>929.59997558594</ele>
        <time>2012-09-09T09:56:32.000Z</time>
      </trkpt>
      <trkpt lat="43.92001" lon="7.34213">
        <ele>929.79998779297</ele>
        <time>2012-09-09T09:56:34.000Z</time>
      </trkpt>
      <trkpt lat="43.91997" lon="7.34214">
        <ele>931.59997558594</ele>
        <time>2012-09-09T09:56:38.000Z</time>
      </trkpt>
      <trkpt lat="43.92" lon="7.34194">
        <ele>927</ele>
        <time>2012-09-09T09:57:26.000Z</time>
      </trkpt>
      <trkpt lat="43.92" lon="7.34195">
        <ele>927.40002441406</ele>
        <time>2012-09-09T09:57:32.000Z</time>
      </trkpt>
      <trkpt lat="43.91997" lon="7.34178">
        <ele>926.79998779297</ele>
        <time>2012-09-09T09:57:39.000Z</time>
      </trkpt>
      <trkpt lat="43.91996" lon="7.34166">
        <ele>926</ele>
        <time>2012-09-09T09:57:44.000Z</time>
      </trkpt>
      <trkpt lat="43.91997" lon="7.34163">
        <ele>924.79998779297</ele>
        <time>2012-09-09T09:57:45.000Z</time>
      </trkpt>
      <trkpt lat="43.9199" lon="7.34142">
        <ele>926.59997558594</ele>
        <time>2012-09-09T09:57:52.000Z</time>
      </trkpt>
      <trkpt lat="43.9199" lon="7.34132">
        <ele>925.20001220703</ele>
        <time>2012-09-09T09:57:55.000Z</time>
      </trkpt>
      <trkpt lat="43.91993" lon="7.34117">
        <ele>920</ele>
        <time>2012-09-09T09:58:00.000Z</time>
      </trkpt>
      <trkpt lat="43.91995" lon="7.34108">
        <ele>917</ele>
        <time>2012-09-09T09:58:03.000Z</time>
      </trkpt>
      <trkpt lat="43.91995" lon="7.34096">
        <ele>915</ele>
        <time>2012-09-09T09:58:07.000Z</time>
      </trkpt>
      <trkpt lat="43.91995" lon="7.34081">
        <ele>913</ele>
        <time>2012-09-09T09:58:12.000Z</time>
      </trkpt>
      <trkpt lat="43.91991" lon="7.3407">
        <ele>915</ele>
        <time>2012-09-09T09:58:17.000Z</time>
      </trkpt>
      <trkpt lat="43.91984" lon="7.34065">
        <ele>919.79998779297</ele>
        <time>2012-09-09T09:58:21.000Z</time>
      </trkpt>
      <trkpt lat="43.91973" lon="7.34058">
        <ele>927.79998779297</ele>
        <time>2012-09-09T09:58:27.000Z</time>
      </trkpt>
      <trkpt lat="43.91966" lon="7.34052">
        <ele>932.20001220703</ele>
        <time>2012-09-09T09:58:31.000Z</time>
      </trkpt>
      <trkpt lat="43.91965" lon="7.34041">
        <ele>931.59997558594</ele>
        <time>2012-09-09T09:58:35.000Z</time>
      </trkpt>
      <trkpt lat="43.91966" lon="7.34035">
        <ele>929.59997558594</ele>
        <time>2012-09-09T09:58:37.000Z</time>
      </trkpt>
      <trkpt lat="43.91966" lon="7.34029">
        <ele>928.79998779297</ele>
        <time>2012-09-09T09:58:39.000Z</time>
      </trkpt>
      <trkpt lat="43.91959" lon="7.3401">
        <ele>931.40002441406</ele>
        <time>2012-09-09T09:58:46.000Z</time>
      </trkpt>
      <trkpt lat="43.91954" lon="7.33998">
        <ele>932.20001220703</ele>
        <time>2012-09-09T09:58:51.000Z</time>
      </trkpt>
      <trkpt lat="43.91954" lon="7.33992">
        <ele>931</ele>
        <time>2012-09-09T09:58:53.000Z</time>
      </trkpt>
      <trkpt lat="43.91954" lon="7.33986">
        <ele>930</ele>
        <time>2012-09-09T09:58:56.000Z</time>
      </trkpt>
      <trkpt lat="43.9195" lon="7.33971">
        <ele>929</ele>
        <time>2012-09-09T09:59:02.000Z</time>
      </trkpt>
      <trkpt lat="43.91949" lon="7.33955">
        <ele>925.79998779297</ele>
        <time>2012-09-09T09:59:06.000Z</time>
      </trkpt>
      <trkpt lat="43.91946" lon="7.33936">
        <ele>923.40002441406</ele>
        <time>2012-09-09T09:59:12.000Z</time>
      </trkpt>
      <trkpt lat="43.91945" lon="7.3392">
        <ele>920.20001220703</ele>
        <time>2012-09-09T09:59:18.000Z</time>
      </trkpt>
      <trkpt lat="43.91936" lon="7.33908">
        <ele>924</ele>
        <time>2012-09-09T09:59:23.000Z</time>
      </trkpt>
      <trkpt lat="43.91927" lon="7.33898">
        <ele>927.59997558594</ele>
        <time>2012-09-09T09:59:28.000Z</time>
      </trkpt>
      <trkpt lat="43.91916" lon="7.33886">
        <ele>931.59997558594</ele>
        <time>2012-09-09T09:59:34.000Z</time>
      </trkpt>
      <trkpt lat="43.91914" lon="7.33882">
        <ele>931.40002441406</ele>
        <time>2012-09-09T09:59:36.000Z</time>
      </trkpt>
      <trkpt lat="43.91911" lon="7.33862">
        <ele>928</ele>
        <time>2012-09-09T09:59:42.000Z</time>
      </trkpt>
      <trkpt lat="43.91907" lon="7.33846">
        <ele>925.20001220703</ele>
        <time>2012-09-09T09:59:47.000Z</time>
      </trkpt>
      <trkpt lat="43.91902" lon="7.33826">
        <ele>921.59997558594</ele>
        <time>2012-09-09T09:59:54.000Z</time>
      </trkpt>
      <trkpt lat="43.91893" lon="7.33812">
        <ele>919.20001220703</ele>
        <time>2012-09-09T10:00:00.000Z</time>
      </trkpt>
      <trkpt lat="43.91878" lon="7.33817">
        <ele>920.59997558594</ele>
        <time>2012-09-09T10:00:06.000Z</time>
      </trkpt>
      <trkpt lat="43.91864" lon="7.33822">
        <ele>922.40002441406</ele>
        <time>2012-09-09T10:00:12.000Z</time>
      </trkpt>
      <trkpt lat="43.91853" lon="7.33832">
        <ele>925.59997558594</ele>
        <time>2012-09-09T10:00:16.000Z</time>
      </trkpt>
      <trkpt lat="43.9185" lon="7.33837">
        <ele>927.20001220703</ele>
        <time>2012-09-09T10:00:17.000Z</time>
      </trkpt>
      <trkpt lat="43.91831" lon="7.3384">
        <ele>929.59997558594</ele>
        <time>2012-09-09T10:00:21.000Z</time>
      </trkpt>
      <trkpt lat="43.91822" lon="7.3384">
        <ele>928.59997558594</ele>
        <time>2012-09-09T10:00:23.000Z</time>
      </trkpt>
      <trkpt lat="43.91806" lon="7.33838">
        <ele>926.40002441406</ele>
        <time>2012-09-09T10:00:28.000Z</time>
      </trkpt>
      <trkpt lat="43.91785" lon="7.33835">
        <ele>923</ele>
        <time>2012-09-09T10:00:34.000Z</time>
      </trkpt>
      <trkpt lat="43.91772" lon="7.33833">
        <ele>921.20001220703</ele>
        <time>2012-09-09T10:00:38.000Z</time>
      </trkpt>
      <trkpt lat="43.91759" lon="7.3384">
        <ele>922.40002441406</ele>
        <time>2012-09-09T10:00:43.000Z</time>
      </trkpt>
      <trkpt lat="43.91749" lon="7.33849">
        <ele>925.20001220703</ele>
        <time>2012-09-09T10:00:47.000Z</time>
      </trkpt>
      <trkpt lat="43.91736" lon="7.33854">
        <ele>925.40002441406</ele>
        <time>2012-09-09T10:00:51.000Z</time>
      </trkpt>
      <trkpt lat="43.91727" lon="7.33857">
        <ele>925.40002441406</ele>
        <time>2012-09-09T10:00:55.000Z</time>
      </trkpt>
      <trkpt lat="43.91722" lon="7.3386">
        <ele>926</ele>
        <time>2012-09-09T10:00:58.000Z</time>
      </trkpt>
      <trkpt lat="43.91713" lon="7.33867">
        <ele>927</ele>
        <time>2012-09-09T10:01:04.000Z</time>
      </trkpt>
      <trkpt lat="43.91701" lon="7.33879">
        <ele>928.59997558594</ele>
        <time>2012-09-09T10:01:11.000Z</time>
      </trkpt>
      <trkpt lat="43.91692" lon="7.33893">
        <ele>931</ele>
        <time>2012-09-09T10:01:17.000Z</time>
      </trkpt>
      <trkpt lat="43.91681" lon="7.33906">
        <ele>932.40002441406</ele>
        <time>2012-09-09T10:01:23.000Z</time>
      </trkpt>
      <trkpt lat="43.9167" lon="7.33924">
        <ele>936.20001220703</ele>
        <time>2012-09-09T10:01:30.000Z</time>
      </trkpt>
      <trkpt lat="43.91657" lon="7.33934">
        <ele>940.40002441406</ele>
        <time>2012-09-09T10:01:36.000Z</time>
      </trkpt>
      <trkpt lat="43.91655" lon="7.33936">
        <ele>941.20001220703</ele>
        <time>2012-09-09T10:01:37.000Z</time>
      </trkpt>
      <trkpt lat="43.91648" lon="7.33941">
        <ele>943.59997558594</ele>
        <time>2012-09-09T10:01:41.000Z</time>
      </trkpt>
      <trkpt lat="43.9164" lon="7.33946">
        <ele>945.20001220703</ele>
        <time>2012-09-09T10:01:45.000Z</time>
      </trkpt>
      <trkpt lat="43.91627" lon="7.33943">
        <ele>944.20001220703</ele>
        <time>2012-09-09T10:01:51.000Z</time>
      </trkpt>
      <trkpt lat="43.91614" lon="7.33939">
        <ele>942.20001220703</ele>
        <time>2012-09-09T10:01:57.000Z</time>
      </trkpt>
      <trkpt lat="43.91606" lon="7.33944">
        <ele>943.79998779297</ele>
        <time>2012-09-09T10:02:00.000Z</time>
      </trkpt>
      <trkpt lat="43.91598" lon="7.33952">
        <ele>946.40002441406</ele>
        <time>2012-09-09T10:02:05.000Z</time>
      </trkpt>
      <trkpt lat="43.91586" lon="7.33963">
        <ele>949</ele>
        <time>2012-09-09T10:02:11.000Z</time>
      </trkpt>
      <trkpt lat="43.91572" lon="7.33982">
        <ele>956.59997558594</ele>
        <time>2012-09-09T10:02:18.000Z</time>
      </trkpt>
      <trkpt lat="43.9156" lon="7.33987">
        <ele>960.59997558594</ele>
        <time>2012-09-09T10:02:23.000Z</time>
      </trkpt>
      <trkpt lat="43.91542" lon="7.33976">
        <ele>963.79998779297</ele>
        <time>2012-09-09T10:02:28.000Z</time>
      </trkpt>
      <trkpt lat="43.91537" lon="7.3396">
        <ele>964.40002441406</ele>
        <time>2012-09-09T10:02:32.000Z</time>
      </trkpt>
      <trkpt lat="43.91536" lon="7.33942">
        <ele>963.59997558594</ele>
        <time>2012-09-09T10:02:36.000Z</time>
      </trkpt>
      <trkpt lat="43.91539" lon="7.33924">
        <ele>961.20001220703</ele>
        <time>2012-09-09T10:02:40.000Z</time>
      </trkpt>
      <trkpt lat="43.91542" lon="7.33904">
        <ele>958.79998779297</ele>
        <time>2012-09-09T10:02:45.000Z</time>
      </trkpt>
      <trkpt lat="43.91544" lon="7.33881">
        <ele>957</ele>
        <time>2012-09-09T10:02:51.000Z</time>
      </trkpt>
      <trkpt lat="43.91547" lon="7.33859">
        <ele>955.20001220703</ele>
        <time>2012-09-09T10:02:57.000Z</time>
      </trkpt>
      <trkpt lat="43.91549" lon="7.33842">
        <ele>953.79998779297</ele>
        <time>2012-09-09T10:03:02.000Z</time>
      </trkpt>
      <trkpt lat="43.91554" lon="7.33821">
        <ele>948.59997558594</ele>
        <time>2012-09-09T10:03:08.000Z</time>
      </trkpt>
      <trkpt lat="43.91556" lon="7.33799">
        <ele>945.79998779297</ele>
        <time>2012-09-09T10:03:14.000Z</time>
      </trkpt>
      <trkpt lat="43.91552" lon="7.33774">
        <ele>946.59997558594</ele>
        <time>2012-09-09T10:03:21.000Z</time>
      </trkpt>
      <trkpt lat="43.91543" lon="7.33762">
        <ele>950.59997558594</ele>
        <time>2012-09-09T10:03:26.000Z</time>
      </trkpt>
      <trkpt lat="43.91532" lon="7.33745">
        <ele>954.59997558594</ele>
        <time>2012-09-09T10:03:32.000Z</time>
      </trkpt>
      <trkpt lat="43.91525" lon="7.33728">
        <ele>955.79998779297</ele>
        <time>2012-09-09T10:03:38.000Z</time>
      </trkpt>
      <trkpt lat="43.91515" lon="7.33711">
        <ele>957.79998779297</ele>
        <time>2012-09-09T10:03:45.000Z</time>
      </trkpt>
      <trkpt lat="43.91504" lon="7.33699">
        <ele>960.59997558594</ele>
        <time>2012-09-09T10:03:51.000Z</time>
      </trkpt>
      <trkpt lat="43.91495" lon="7.33685">
        <ele>962</ele>
        <time>2012-09-09T10:03:56.000Z</time>
      </trkpt>
      <trkpt lat="43.91487" lon="7.33675">
        <ele>963.59997558594</ele>
        <time>2012-09-09T10:04:01.000Z</time>
      </trkpt>
      <trkpt lat="43.91475" lon="7.33664">
        <ele>967.40002441406</ele>
        <time>2012-09-09T10:04:06.000Z</time>
      </trkpt>
      <trkpt lat="43.91464" lon="7.33649">
        <ele>970.59997558594</ele>
        <time>2012-09-09T10:04:12.000Z</time>
      </trkpt>
      <trkpt lat="43.91454" lon="7.33632">
        <ele>973</ele>
        <time>2012-09-09T10:04:19.000Z</time>
      </trkpt>
      <trkpt lat="43.91446" lon="7.33619">
        <ele>974.40002441406</ele>
        <time>2012-09-09T10:04:24.000Z</time>
      </trkpt>
      <trkpt lat="43.91438" lon="7.33603">
        <ele>975.20001220703</ele>
        <time>2012-09-09T10:04:30.000Z</time>
      </trkpt>
      <trkpt lat="43.91427" lon="7.33587">
        <ele>976.40002441406</ele>
        <time>2012-09-09T10:04:37.000Z</time>
      </trkpt>
      <trkpt lat="43.91423" lon="7.3357">
        <ele>975.79998779297</ele>
        <time>2012-09-09T10:04:43.000Z</time>
      </trkpt>
      <trkpt lat="43.91419" lon="7.33554">
        <ele>975.59997558594</ele>
        <time>2012-09-09T10:04:49.000Z</time>
      </trkpt>
      <trkpt lat="43.91409" lon="7.33538">
        <ele>977</ele>
        <time>2012-09-09T10:04:56.000Z</time>
      </trkpt>
      <trkpt lat="43.91399" lon="7.33525">
        <ele>978.59997558594</ele>
        <time>2012-09-09T10:05:02.000Z</time>
      </trkpt>
      <trkpt lat="43.91397" lon="7.33524">
        <ele>978.79998779297</ele>
        <time>2012-09-09T10:05:03.000Z</time>
      </trkpt>
      <trkpt lat="43.91389" lon="7.33504">
        <ele>977.79998779297</ele>
        <time>2012-09-09T10:05:11.000Z</time>
      </trkpt>
      <trkpt lat="43.91387" lon="7.33497">
        <ele>977.20001220703</ele>
        <time>2012-09-09T10:05:14.000Z</time>
      </trkpt>
      <trkpt lat="43.91384" lon="7.33486">
        <ele>976</ele>
        <time>2012-09-09T10:05:18.000Z</time>
      </trkpt>
      <trkpt lat="43.91375" lon="7.33479">
        <ele>976.40002441406</ele>
        <time>2012-09-09T10:05:22.000Z</time>
      </trkpt>
      <trkpt lat="43.91368" lon="7.33484">
        <ele>979</ele>
        <time>2012-09-09T10:05:26.000Z</time>
      </trkpt>
      <trkpt lat="43.91363" lon="7.33502">
        <ele>983.59997558594</ele>
        <time>2012-09-09T10:05:32.000Z</time>
      </trkpt>
      <trkpt lat="43.91363" lon="7.33505">
        <ele>984.20001220703</ele>
        <time>2012-09-09T10:05:33.000Z</time>
      </trkpt>
      <trkpt lat="43.91376" lon="7.33516">
        <ele>983.40002441406</ele>
        <time>2012-09-09T10:05:39.000Z</time>
      </trkpt>
      <trkpt lat="43.91381" lon="7.33518">
        <ele>982.59997558594</ele>
        <time>2012-09-09T10:05:41.000Z</time>
      </trkpt>
      <trkpt lat="43.91388" lon="7.33527">
        <ele>982</ele>
        <time>2012-09-09T10:05:45.000Z</time>
      </trkpt>
      <trkpt lat="43.91402" lon="7.33547">
        <ele>980.59997558594</ele>
        <time>2012-09-09T10:05:52.000Z</time>
      </trkpt>
      <trkpt lat="43.91414" lon="7.33563">
        <ele>978</ele>
        <time>2012-09-09T10:05:57.000Z</time>
      </trkpt>
      <trkpt lat="43.91419" lon="7.33577">
        <ele>977.59997558594</ele>
        <time>2012-09-09T10:06:01.000Z</time>
      </trkpt>
      <trkpt lat="43.91405" lon="7.33583">
        <ele>984.20001220703</ele>
        <time>2012-09-09T10:06:05.000Z</time>
      </trkpt>
      <trkpt lat="43.91394" lon="7.33571">
        <ele>987</ele>
        <time>2012-09-09T10:06:09.000Z</time>
      </trkpt>
      <trkpt lat="43.91387" lon="7.33557">
        <ele>987.40002441406</ele>
        <time>2012-09-09T10:06:13.000Z</time>
      </trkpt>
      <trkpt lat="43.9138" lon="7.33536">
        <ele>985.79998779297</ele>
        <time>2012-09-09T10:06:20.000Z</time>
      </trkpt>
      <trkpt lat="43.91365" lon="7.33524">
        <ele>988.20001220703</ele>
        <time>2012-09-09T10:06:26.000Z</time>
      </trkpt>
      <trkpt lat="43.9135" lon="7.33517">
        <ele>990.59997558594</ele>
        <time>2012-09-09T10:06:32.000Z</time>
      </trkpt>
      <trkpt lat="43.91345" lon="7.33513">
        <ele>991</ele>
        <time>2012-09-09T10:06:35.000Z</time>
      </trkpt>
      <trkpt lat="43.91332" lon="7.33499">
        <ele>990.40002441406</ele>
        <time>2012-09-09T10:06:41.000Z</time>
      </trkpt>
      <trkpt lat="43.91326" lon="7.33485">
        <ele>989.40002441406</ele>
        <time>2012-09-09T10:06:47.000Z</time>
      </trkpt>
      <trkpt lat="43.91317" lon="7.3348">
        <ele>991.40002441406</ele>
        <time>2012-09-09T10:06:53.000Z</time>
      </trkpt>
      <trkpt lat="43.91306" lon="7.33484">
        <ele>996.20001220703</ele>
        <time>2012-09-09T10:06:59.000Z</time>
      </trkpt>
      <trkpt lat="43.91293" lon="7.33488">
        <ele>1001.200012207</ele>
        <time>2012-09-09T10:07:04.000Z</time>
      </trkpt>
      <trkpt lat="43.91286" lon="7.33494">
        <ele>1005.200012207</ele>
        <time>2012-09-09T10:07:09.000Z</time>
      </trkpt>
      <trkpt lat="43.91277" lon="7.33494">
        <ele>1008.200012207</ele>
        <time>2012-09-09T10:07:12.000Z</time>
      </trkpt>
      <trkpt lat="43.91266" lon="7.33473">
        <ele>1007.4000244141</ele>
        <time>2012-09-09T10:07:19.000Z</time>
      </trkpt>
      <trkpt lat="43.91269" lon="7.33452">
        <ele>1001.200012207</ele>
        <time>2012-09-09T10:07:26.000Z</time>
      </trkpt>
      <trkpt lat="43.91271" lon="7.3344">
        <ele>997.79998779297</ele>
        <time>2012-09-09T10:07:30.000Z</time>
      </trkpt>
      <trkpt lat="43.91275" lon="7.33419">
        <ele>991.59997558594</ele>
        <time>2012-09-09T10:07:38.000Z</time>
      </trkpt>
      <trkpt lat="43.91276" lon="7.33416">
        <ele>990.79998779297</ele>
        <time>2012-09-09T10:07:39.000Z</time>
      </trkpt>
      <trkpt lat="43.91276" lon="7.33416">
        <ele>990.79998779297</ele>
        <time>2012-09-09T10:07:39.000Z</time>
      </trkpt>
      <trkpt lat="43.91272" lon="7.33402">
        <ele>989.79998779297</ele>
        <time>2012-09-09T10:07:45.000Z</time>
      </trkpt>
      <trkpt lat="43.91263" lon="7.33395">
        <ele>991</ele>
        <time>2012-09-09T10:07:51.000Z</time>
      </trkpt>
      <trkpt lat="43.91252" lon="7.33404">
        <ele>995.59997558594</ele>
        <time>2012-09-09T10:07:56.000Z</time>
      </trkpt>
      <trkpt lat="43.91244" lon="7.33419">
        <ele>1000.799987793</ele>
        <time>2012-09-09T10:08:03.000Z</time>
      </trkpt>
      <trkpt lat="43.91233" lon="7.33432">
        <ele>1006.4000244141</ele>
        <time>2012-09-09T10:08:10.000Z</time>
      </trkpt>
      <trkpt lat="43.91223" lon="7.33442">
        <ele>1011.200012207</ele>
        <time>2012-09-09T10:08:16.000Z</time>
      </trkpt>
      <trkpt lat="43.91207" lon="7.33451">
        <ele>1017.4000244141</ele>
        <time>2012-09-09T10:08:23.000Z</time>
      </trkpt>
      <trkpt lat="43.91193" lon="7.33453">
        <ele>1021.4000244141</ele>
        <time>2012-09-09T10:08:29.000Z</time>
      </trkpt>
      <trkpt lat="43.91192" lon="7.33452">
        <ele>1021.4000244141</ele>
        <time>2012-09-09T10:08:30.000Z</time>
      </trkpt>
      <trkpt lat="43.91184" lon="7.33449">
        <ele>1022.5999755859</ele>
        <time>2012-09-09T10:08:35.000Z</time>
      </trkpt>
      <trkpt lat="43.91172" lon="7.33448">
        <ele>1025</ele>
        <time>2012-09-09T10:08:40.000Z</time>
      </trkpt>
      <trkpt lat="43.91159" lon="7.33446">
        <ele>1027.1999511719</ele>
        <time>2012-09-09T10:08:46.000Z</time>
      </trkpt>
      <trkpt lat="43.9115" lon="7.33444">
        <ele>1028.5999755859</ele>
        <time>2012-09-09T10:08:51.000Z</time>
      </trkpt>
      <trkpt lat="43.91139" lon="7.33447">
        <ele>1031.8000488281</ele>
        <time>2012-09-09T10:08:56.000Z</time>
      </trkpt>
      <trkpt lat="43.91124" lon="7.33449">
        <ele>1035.5999755859</ele>
        <time>2012-09-09T10:09:02.000Z</time>
      </trkpt>
      <trkpt lat="43.91117" lon="7.3345">
        <ele>1037.1999511719</ele>
        <time>2012-09-09T10:09:07.000Z</time>
      </trkpt>
      <trkpt lat="43.91107" lon="7.33444">
        <ele>1038.1999511719</ele>
        <time>2012-09-09T10:09:12.000Z</time>
      </trkpt>
      <trkpt lat="43.91104" lon="7.33437">
        <ele>1037</ele>
        <time>2012-09-09T10:09:15.000Z</time>
      </trkpt>
      <trkpt lat="43.9111" lon="7.33417">
        <ele>1031.1999511719</ele>
        <time>2012-09-09T10:09:20.000Z</time>
      </trkpt>
      <trkpt lat="43.91115" lon="7.33396">
        <ele>1028.8000488281</ele>
        <time>2012-09-09T10:09:26.000Z</time>
      </trkpt>
      <trkpt lat="43.91119" lon="7.33377">
        <ele>1027</ele>
        <time>2012-09-09T10:09:32.000Z</time>
      </trkpt>
      <trkpt lat="43.91126" lon="7.33364">
        <ele>1024.1999511719</ele>
        <time>2012-09-09T10:09:38.000Z</time>
      </trkpt>
      <trkpt lat="43.91128" lon="7.33351">
        <ele>1022.799987793</ele>
        <time>2012-09-09T10:09:42.000Z</time>
      </trkpt>
      <trkpt lat="43.91126" lon="7.33335">
        <ele>1022.5999755859</ele>
        <time>2012-09-09T10:09:46.000Z</time>
      </trkpt>
      <trkpt lat="43.91119" lon="7.3332">
        <ele>1023</ele>
        <time>2012-09-09T10:09:52.000Z</time>
      </trkpt>
      <trkpt lat="43.91119" lon="7.33303">
        <ele>1020.4000244141</ele>
        <time>2012-09-09T10:09:59.000Z</time>
      </trkpt>
      <trkpt lat="43.9111" lon="7.3329">
        <ele>1020.799987793</ele>
        <time>2012-09-09T10:10:06.000Z</time>
      </trkpt>
      <trkpt lat="43.91109" lon="7.33289">
        <ele>1021</ele>
        <time>2012-09-09T10:10:07.000Z</time>
      </trkpt>
      <trkpt lat="43.91097" lon="7.33285">
        <ele>1023.5999755859</ele>
        <time>2012-09-09T10:10:14.000Z</time>
      </trkpt>
      <trkpt lat="43.91086" lon="7.33286">
        <ele>1027</ele>
        <time>2012-09-09T10:10:21.000Z</time>
      </trkpt>
      <trkpt lat="43.91076" lon="7.33283">
        <ele>1027.4000244141</ele>
        <time>2012-09-09T10:10:26.000Z</time>
      </trkpt>
      <trkpt lat="43.91064" lon="7.33286">
        <ele>1028</ele>
        <time>2012-09-09T10:10:31.000Z</time>
      </trkpt>
      <trkpt lat="43.91055" lon="7.33289">
        <ele>1028.5999755859</ele>
        <time>2012-09-09T10:10:36.000Z</time>
      </trkpt>
      <trkpt lat="43.91052" lon="7.3329">
        <ele>1028.8000488281</ele>
        <time>2012-09-09T10:10:39.000Z</time>
      </trkpt>
      <trkpt lat="43.91047" lon="7.33297">
        <ele>1030.1999511719</ele>
        <time>2012-09-09T10:10:43.000Z</time>
      </trkpt>
      <trkpt lat="43.91032" lon="7.33309">
        <ele>1032.4000244141</ele>
        <time>2012-09-09T10:10:51.000Z</time>
      </trkpt>
      <trkpt lat="43.9103" lon="7.33311">
        <ele>1032.8000488281</ele>
        <time>2012-09-09T10:10:52.000Z</time>
      </trkpt>
      <trkpt lat="43.91023" lon="7.33326">
        <ele>1035.1999511719</ele>
        <time>2012-09-09T10:10:58.000Z</time>
      </trkpt>
      <trkpt lat="43.91022" lon="7.33344">
        <ele>1038.8000488281</ele>
        <time>2012-09-09T10:11:05.000Z</time>
      </trkpt>
      <trkpt lat="43.91022" lon="7.33365">
        <ele>1043.8000488281</ele>
        <time>2012-09-09T10:11:12.000Z</time>
      </trkpt>
      <trkpt lat="43.91017" lon="7.33379">
        <ele>1047.5999755859</ele>
        <time>2012-09-09T10:11:17.000Z</time>
      </trkpt>
      <trkpt lat="43.91001" lon="7.33382">
        <ele>1051</ele>
        <time>2012-09-09T10:11:23.000Z</time>
      </trkpt>
      <trkpt lat="43.90992" lon="7.33383">
        <ele>1051.5999755859</ele>
        <time>2012-09-09T10:11:28.000Z</time>
      </trkpt>
      <trkpt lat="43.90978" lon="7.33383">
        <ele>1052</ele>
        <time>2012-09-09T10:11:33.000Z</time>
      </trkpt>
      <trkpt lat="43.90964" lon="7.33383">
        <ele>1052.1999511719</ele>
        <time>2012-09-09T10:11:38.000Z</time>
      </trkpt>
      <trkpt lat="43.90952" lon="7.33387">
        <ele>1053.4000244141</ele>
        <time>2012-09-09T10:11:43.000Z</time>
      </trkpt>
      <trkpt lat="43.90938" lon="7.33388">
        <ele>1053.8000488281</ele>
        <time>2012-09-09T10:11:49.000Z</time>
      </trkpt>
      <trkpt lat="43.90924" lon="7.33387">
        <ele>1053.8000488281</ele>
        <time>2012-09-09T10:11:54.000Z</time>
      </trkpt>
      <trkpt lat="43.90911" lon="7.33386">
        <ele>1054.1999511719</ele>
        <time>2012-09-09T10:12:00.000Z</time>
      </trkpt>
      <trkpt lat="43.90902" lon="7.33398">
        <ele>1058</ele>
        <time>2012-09-09T10:12:06.000Z</time>
      </trkpt>
      <trkpt lat="43.90892" lon="7.33406">
        <ele>1061.1999511719</ele>
        <time>2012-09-09T10:12:11.000Z</time>
      </trkpt>
      <trkpt lat="43.90881" lon="7.33409">
        <ele>1062.8000488281</ele>
        <time>2012-09-09T10:12:16.000Z</time>
      </trkpt>
      <trkpt lat="43.90869" lon="7.33396">
        <ele>1060.8000488281</ele>
        <time>2012-09-09T10:12:23.000Z</time>
      </trkpt>
      <trkpt lat="43.90856" lon="7.33396">
        <ele>1062</ele>
        <time>2012-09-09T10:12:28.000Z</time>
      </trkpt>
      <trkpt lat="43.90843" lon="7.33404">
        <ele>1064.8000488281</ele>
        <time>2012-09-09T10:12:33.000Z</time>
      </trkpt>
      <trkpt lat="43.90834" lon="7.33407">
        <ele>1066</ele>
        <time>2012-09-09T10:12:37.000Z</time>
      </trkpt>
      <trkpt lat="43.90827" lon="7.3339">
        <ele>1063</ele>
        <time>2012-09-09T10:12:42.000Z</time>
      </trkpt>
      <trkpt lat="43.90823" lon="7.33371">
        <ele>1059.5999755859</ele>
        <time>2012-09-09T10:12:47.000Z</time>
      </trkpt>
      <trkpt lat="43.90816" lon="7.33355">
        <ele>1057</ele>
        <time>2012-09-09T10:12:52.000Z</time>
      </trkpt>
      <trkpt lat="43.90803" lon="7.33349">
        <ele>1056.5999755859</ele>
        <time>2012-09-09T10:12:58.000Z</time>
      </trkpt>
      <trkpt lat="43.90791" lon="7.33342">
        <ele>1056.4000244141</ele>
        <time>2012-09-09T10:13:03.000Z</time>
      </trkpt>
      <trkpt lat="43.90779" lon="7.33339">
        <ele>1056.8000488281</ele>
        <time>2012-09-09T10:13:08.000Z</time>
      </trkpt>
      <trkpt lat="43.90768" lon="7.33348">
        <ele>1058.5999755859</ele>
        <time>2012-09-09T10:13:13.000Z</time>
      </trkpt>
      <trkpt lat="43.90758" lon="7.33355">
        <ele>1060</ele>
        <time>2012-09-09T10:13:18.000Z</time>
      </trkpt>
      <trkpt lat="43.90751" lon="7.33341">
        <ele>1058.8000488281</ele>
        <time>2012-09-09T10:13:25.000Z</time>
      </trkpt>
      <trkpt lat="43.90751" lon="7.33336">
        <ele>1058.1999511719</ele>
        <time>2012-09-09T10:13:27.000Z</time>
      </trkpt>
      <trkpt lat="43.90753" lon="7.33311">
        <ele>1061.1999511719</ele>
        <time>2012-09-09T10:13:36.000Z</time>
      </trkpt>
      <trkpt lat="43.9076" lon="7.33294">
        <ele>1063.4000244141</ele>
        <time>2012-09-09T10:13:43.000Z</time>
      </trkpt>
      <trkpt lat="43.90766" lon="7.3328">
        <ele>1065.1999511719</ele>
        <time>2012-09-09T10:13:48.000Z</time>
      </trkpt>
      <trkpt lat="43.90779" lon="7.33275">
        <ele>1065</ele>
        <time>2012-09-09T10:13:54.000Z</time>
      </trkpt>
      <trkpt lat="43.90801" lon="7.3326">
        <ele>1065.8000488281</ele>
        <time>2012-09-09T10:14:03.000Z</time>
      </trkpt>
      <trkpt lat="43.90816" lon="7.33249">
        <ele>1066.5999755859</ele>
        <time>2012-09-09T10:14:08.000Z</time>
      </trkpt>
      <trkpt lat="43.90837" lon="7.33237">
        <ele>1068.1999511719</ele>
        <time>2012-09-09T10:14:14.000Z</time>
      </trkpt>
      <trkpt lat="43.90845" lon="7.33233">
        <ele>1067.1999511719</ele>
        <time>2012-09-09T10:14:17.000Z</time>
      </trkpt>
      <trkpt lat="43.9085" lon="7.33228">
        <ele>1067.4000244141</ele>
        <time>2012-09-09T10:14:19.000Z</time>
      </trkpt>
      <trkpt lat="43.90871" lon="7.33214">
        <ele>1065.8000488281</ele>
        <time>2012-09-09T10:14:26.000Z</time>
      </trkpt>
      <trkpt lat="43.90885" lon="7.332">
        <ele>1065.8000488281</ele>
        <time>2012-09-09T10:14:31.000Z</time>
      </trkpt>
      <trkpt lat="43.90894" lon="7.33185">
        <ele>1067.4000244141</ele>
        <time>2012-09-09T10:14:36.000Z</time>
      </trkpt>
      <trkpt lat="43.90894" lon="7.33177">
        <ele>1069.5999755859</ele>
        <time>2012-09-09T10:14:38.000Z</time>
      </trkpt>
      <trkpt lat="43.90898" lon="7.3316">
        <ele>1073.5999755859</ele>
        <time>2012-09-09T10:14:42.000Z</time>
      </trkpt>
      <trkpt lat="43.9091" lon="7.33148">
        <ele>1073.5999755859</ele>
        <time>2012-09-09T10:14:49.000Z</time>
      </trkpt>
      <trkpt lat="43.90918" lon="7.33137">
        <ele>1074.8000488281</ele>
        <time>2012-09-09T10:14:54.000Z</time>
      </trkpt>
      <trkpt lat="43.9092" lon="7.33134">
        <ele>1075</ele>
        <time>2012-09-09T10:14:55.000Z</time>
      </trkpt>
      <trkpt lat="43.90931" lon="7.33117">
        <ele>1077.5999755859</ele>
        <time>2012-09-09T10:15:02.000Z</time>
      </trkpt>
      <trkpt lat="43.9094" lon="7.33106">
        <ele>1079.5999755859</ele>
        <time>2012-09-09T10:15:07.000Z</time>
      </trkpt>
      <trkpt lat="43.90943" lon="7.33087">
        <ele>1085.8000488281</ele>
        <time>2012-09-09T10:15:14.000Z</time>
      </trkpt>
      <trkpt lat="43.90946" lon="7.33073">
        <ele>1091.1999511719</ele>
        <time>2012-09-09T10:15:19.000Z</time>
      </trkpt>
      <trkpt lat="43.90958" lon="7.33067">
        <ele>1091</ele>
        <time>2012-09-09T10:15:25.000Z</time>
      </trkpt>
      <trkpt lat="43.90974" lon="7.33068">
        <ele>1087</ele>
        <time>2012-09-09T10:15:31.000Z</time>
      </trkpt>
      <trkpt lat="43.9099" lon="7.3307">
        <ele>1082.1999511719</ele>
        <time>2012-09-09T10:15:39.000Z</time>
      </trkpt>
      <trkpt lat="43.91003" lon="7.33065">
        <ele>1081.8000488281</ele>
        <time>2012-09-09T10:15:46.000Z</time>
      </trkpt>
      <trkpt lat="43.91012" lon="7.33054">
        <ele>1085.4000244141</ele>
        <time>2012-09-09T10:15:53.000Z</time>
      </trkpt>
      <trkpt lat="43.91028" lon="7.33044">
        <ele>1087.4000244141</ele>
        <time>2012-09-09T10:16:03.000Z</time>
      </trkpt>
      <trkpt lat="43.91043" lon="7.33037">
        <ele>1088.4000244141</ele>
        <time>2012-09-09T10:16:12.000Z</time>
      </trkpt>
      <trkpt lat="43.91051" lon="7.33033">
        <ele>1089</ele>
        <time>2012-09-09T10:16:18.000Z</time>
      </trkpt>
      <trkpt lat="43.9106" lon="7.3303">
        <ele>1089</ele>
        <time>2012-09-09T10:16:24.000Z</time>
      </trkpt>
      <trkpt lat="43.91071" lon="7.33026">
        <ele>1088.8000488281</ele>
        <time>2012-09-09T10:16:32.000Z</time>
      </trkpt>
      <trkpt lat="43.91084" lon="7.33022">
        <ele>1088</ele>
        <time>2012-09-09T10:16:40.000Z</time>
      </trkpt>
      <trkpt lat="43.91091" lon="7.3302">
        <ele>1087.5999755859</ele>
        <time>2012-09-09T10:16:44.000Z</time>
      </trkpt>
      <trkpt lat="43.911" lon="7.33016">
        <ele>1087.5999755859</ele>
        <time>2012-09-09T10:16:50.000Z</time>
      </trkpt>
      <trkpt lat="43.91102" lon="7.33015">
        <ele>1087.5999755859</ele>
        <time>2012-09-09T10:16:51.000Z</time>
      </trkpt>
      <trkpt lat="43.91111" lon="7.33009">
        <ele>1088.8000488281</ele>
        <time>2012-09-09T10:16:58.000Z</time>
      </trkpt>
      <trkpt lat="43.91121" lon="7.32996">
        <ele>1092.4000244141</ele>
        <time>2012-09-09T10:17:06.000Z</time>
      </trkpt>
      <trkpt lat="43.91126" lon="7.32985">
        <ele>1094.8000488281</ele>
        <time>2012-09-09T10:17:12.000Z</time>
      </trkpt>
      <trkpt lat="43.9113" lon="7.32969">
        <ele>1099</ele>
        <time>2012-09-09T10:17:19.000Z</time>
      </trkpt>
      <trkpt lat="43.91135" lon="7.32954">
        <ele>1102.8000488281</ele>
        <time>2012-09-09T10:17:25.000Z</time>
      </trkpt>
      <trkpt lat="43.91138" lon="7.3295">
        <ele>1103.4000244141</ele>
        <time>2012-09-09T10:17:27.000Z</time>
      </trkpt>
      <trkpt lat="43.91147" lon="7.32931">
        <ele>1106.5999755859</ele>
        <time>2012-09-09T10:17:35.000Z</time>
      </trkpt>
      <trkpt lat="43.91154" lon="7.3292">
        <ele>1107.8000488281</ele>
        <time>2012-09-09T10:17:40.000Z</time>
      </trkpt>
      <trkpt lat="43.91163" lon="7.32908">
        <ele>1108.5999755859</ele>
        <time>2012-09-09T10:17:46.000Z</time>
      </trkpt>
      <trkpt lat="43.91176" lon="7.32892">
        <ele>1109.4000244141</ele>
        <time>2012-09-09T10:17:53.000Z</time>
      </trkpt>
      <trkpt lat="43.91188" lon="7.32885">
        <ele>1108</ele>
        <time>2012-09-09T10:17:58.000Z</time>
      </trkpt>
      <trkpt lat="43.91203" lon="7.32879">
        <ele>1106</ele>
        <time>2012-09-09T10:18:04.000Z</time>
      </trkpt>
      <trkpt lat="43.91221" lon="7.32876">
        <ele>1102.4000244141</ele>
        <time>2012-09-09T10:18:09.000Z</time>
      </trkpt>
      <trkpt lat="43.91237" lon="7.32865">
        <ele>1102</ele>
        <time>2012-09-09T10:18:14.000Z</time>
      </trkpt>
      <trkpt lat="43.91248" lon="7.32848">
        <ele>1104.5999755859</ele>
        <time>2012-09-09T10:18:18.000Z</time>
      </trkpt>
      <trkpt lat="43.91265" lon="7.32823">
        <ele>1108</ele>
        <time>2012-09-09T10:18:23.000Z</time>
      </trkpt>
      <trkpt lat="43.9127" lon="7.32819">
        <ele>1108</ele>
        <time>2012-09-09T10:18:24.000Z</time>
      </trkpt>
      <trkpt lat="43.91298" lon="7.32803">
        <ele>1107</ele>
        <time>2012-09-09T10:18:30.000Z</time>
      </trkpt>
      <trkpt lat="43.91321" lon="7.32783">
        <ele>1108.8000488281</ele>
        <time>2012-09-09T10:18:36.000Z</time>
      </trkpt>
      <trkpt lat="43.91324" lon="7.3278">
        <ele>1109.1999511719</ele>
        <time>2012-09-09T10:18:37.000Z</time>
      </trkpt>
      <trkpt lat="43.91335" lon="7.32776">
        <ele>1108.5999755859</ele>
        <time>2012-09-09T10:18:40.000Z</time>
      </trkpt>
      <trkpt lat="43.91358" lon="7.32755">
        <ele>1110.5999755859</ele>
        <time>2012-09-09T10:18:48.000Z</time>
      </trkpt>
      <trkpt lat="43.91367" lon="7.32749">
        <ele>1110.8000488281</ele>
        <time>2012-09-09T10:18:52.000Z</time>
      </trkpt>
      <trkpt lat="43.91379" lon="7.3274">
        <ele>1111.4000244141</ele>
        <time>2012-09-09T10:18:58.000Z</time>
      </trkpt>
      <trkpt lat="43.91389" lon="7.32735">
        <ele>1111</ele>
        <time>2012-09-09T10:19:02.000Z</time>
      </trkpt>
      <trkpt lat="43.914" lon="7.32725">
        <ele>1112.4000244141</ele>
        <time>2012-09-09T10:19:08.000Z</time>
      </trkpt>
      <trkpt lat="43.91419" lon="7.32717">
        <ele>1111.4000244141</ele>
        <time>2012-09-09T10:19:16.000Z</time>
      </trkpt>
      <trkpt lat="43.91429" lon="7.32714">
        <ele>1109</ele>
        <time>2012-09-09T10:19:21.000Z</time>
      </trkpt>
      <trkpt lat="43.91445" lon="7.32706">
        <ele>1105.8000488281</ele>
        <time>2012-09-09T10:19:28.000Z</time>
      </trkpt>
      <trkpt lat="43.91455" lon="7.32698">
        <ele>1103.5999755859</ele>
        <time>2012-09-09T10:19:32.000Z</time>
      </trkpt>
      <trkpt lat="43.91467" lon="7.32686">
        <ele>1101.5999755859</ele>
        <time>2012-09-09T10:19:37.000Z</time>
      </trkpt>
      <trkpt lat="43.91468" lon="7.32663">
        <ele>1104.1999511719</ele>
        <time>2012-09-09T10:19:43.000Z</time>
      </trkpt>
      <trkpt lat="43.9147" lon="7.32639">
        <ele>1101.8000488281</ele>
        <time>2012-09-09T10:19:49.000Z</time>
      </trkpt>
      <trkpt lat="43.91472" lon="7.32616">
        <ele>1099.1999511719</ele>
        <time>2012-09-09T10:19:55.000Z</time>
      </trkpt>
      <trkpt lat="43.91467" lon="7.32593">
        <ele>1102</ele>
        <time>2012-09-09T10:20:00.000Z</time>
      </trkpt>
      <trkpt lat="43.91466" lon="7.32569">
        <ele>1101</ele>
        <time>2012-09-09T10:20:06.000Z</time>
      </trkpt>
      <trkpt lat="43.91468" lon="7.32547">
        <ele>1097</ele>
        <time>2012-09-09T10:20:13.000Z</time>
      </trkpt>
      <trkpt lat="43.91461" lon="7.3253">
        <ele>1101.1999511719</ele>
        <time>2012-09-09T10:20:18.000Z</time>
      </trkpt>
      <trkpt lat="43.91453" lon="7.3252">
        <ele>1109</ele>
        <time>2012-09-09T10:20:22.000Z</time>
      </trkpt>
      <trkpt lat="43.91452" lon="7.32518">
        <ele>1109.8000488281</ele>
        <time>2012-09-09T10:20:23.000Z</time>
      </trkpt>
      <trkpt lat="43.91452" lon="7.32518">
        <ele>1109.8000488281</ele>
        <time>2012-09-09T10:20:23.000Z</time>
      </trkpt>
      <trkpt lat="43.9145" lon="7.32515">
        <ele>1111.1999511719</ele>
        <time>2012-09-09T10:20:24.000Z</time>
      </trkpt>
      <trkpt lat="43.91445" lon="7.325">
        <ele>1115</ele>
        <time>2012-09-09T10:20:28.000Z</time>
      </trkpt>
      <trkpt lat="43.91449" lon="7.3248">
        <ele>1108</ele>
        <time>2012-09-09T10:20:32.000Z</time>
      </trkpt>
      <trkpt lat="43.91448" lon="7.3247">
        <ele>1107.5999755859</ele>
        <time>2012-09-09T10:20:34.000Z</time>
      </trkpt>
      <trkpt lat="43.91439" lon="7.32449">
        <ele>1112.4000244141</ele>
        <time>2012-09-09T10:20:40.000Z</time>
      </trkpt>
      <trkpt lat="43.9144" lon="7.32433">
        <ele>1108.5999755859</ele>
        <time>2012-09-09T10:20:44.000Z</time>
      </trkpt>
      <trkpt lat="43.91442" lon="7.32412">
        <ele>1103</ele>
        <time>2012-09-09T10:20:48.000Z</time>
      </trkpt>
      <trkpt lat="43.91442" lon="7.32384">
        <ele>1099.4000244141</ele>
        <time>2012-09-09T10:20:54.000Z</time>
      </trkpt>
      <trkpt lat="43.91444" lon="7.32363">
        <ele>1096.1999511719</ele>
        <time>2012-09-09T10:20:59.000Z</time>
      </trkpt>
      <trkpt lat="43.91445" lon="7.3234">
        <ele>1093</ele>
        <time>2012-09-09T10:21:05.000Z</time>
      </trkpt>
      <trkpt lat="43.91445" lon="7.32321">
        <ele>1092.1999511719</ele>
        <time>2012-09-09T10:21:12.000Z</time>
      </trkpt>
      <trkpt lat="43.91449" lon="7.32311">
        <ele>1091.5999755859</ele>
        <time>2012-09-09T10:21:17.000Z</time>
      </trkpt>
      <trkpt lat="43.91447" lon="7.3231">
        <ele>1091.8000488281</ele>
        <time>2012-09-09T10:21:23.000Z</time>
      </trkpt>
      <trkpt lat="43.91445" lon="7.32313">
        <ele>1092.1999511719</ele>
        <time>2012-09-09T10:21:49.000Z</time>
      </trkpt>
      <trkpt lat="43.91454" lon="7.32306">
        <ele>1090.8000488281</ele>
        <time>2012-09-09T10:21:54.000Z</time>
      </trkpt>
      <trkpt lat="43.91465" lon="7.32293">
        <ele>1090</ele>
        <time>2012-09-09T10:21:59.000Z</time>
      </trkpt>
      <trkpt lat="43.91473" lon="7.32282">
        <ele>1090.8000488281</ele>
        <time>2012-09-09T10:22:03.000Z</time>
      </trkpt>
      <trkpt lat="43.91487" lon="7.3227">
        <ele>1092.4000244141</ele>
        <time>2012-09-09T10:22:08.000Z</time>
      </trkpt>
      <trkpt lat="43.91492" lon="7.32262">
        <ele>1094.4000244141</ele>
        <time>2012-09-09T10:22:11.000Z</time>
      </trkpt>
      <trkpt lat="43.91493" lon="7.32261">
        <ele>1094.5999755859</ele>
        <time>2012-09-09T10:22:15.000Z</time>
      </trkpt>
      <trkpt lat="43.91496" lon="7.32255">
        <ele>1096.4000244141</ele>
        <time>2012-09-09T10:22:22.000Z</time>
      </trkpt>
      <trkpt lat="43.915" lon="7.32249">
        <ele>1098.1999511719</ele>
        <time>2012-09-09T10:22:26.000Z</time>
      </trkpt>
      <trkpt lat="43.91505" lon="7.32243">
        <ele>1096.8000488281</ele>
        <time>2012-09-09T10:22:32.000Z</time>
      </trkpt>
      <trkpt lat="43.91509" lon="7.32238">
        <ele>1096</ele>
        <time>2012-09-09T10:22:38.000Z</time>
      </trkpt>
      <trkpt lat="43.91513" lon="7.32231">
        <ele>1095.8000488281</ele>
        <time>2012-09-09T10:22:41.000Z</time>
      </trkpt>
      <trkpt lat="43.91522" lon="7.3222">
        <ele>1094.1999511719</ele>
        <time>2012-09-09T10:22:45.000Z</time>
      </trkpt>
      <trkpt lat="43.91533" lon="7.32199">
        <ele>1095</ele>
        <time>2012-09-09T10:22:51.000Z</time>
      </trkpt>
      <trkpt lat="43.91538" lon="7.32184">
        <ele>1096.8000488281</ele>
        <time>2012-09-09T10:22:55.000Z</time>
      </trkpt>
      <trkpt lat="43.91539" lon="7.32173">
        <ele>1099</ele>
        <time>2012-09-09T10:23:00.000Z</time>
      </trkpt>
      <trkpt lat="43.91543" lon="7.32166">
        <ele>1099.5999755859</ele>
        <time>2012-09-09T10:23:36.000Z</time>
      </trkpt>
      <trkpt lat="43.91551" lon="7.32155">
        <ele>1098.5999755859</ele>
        <time>2012-09-09T10:23:42.000Z</time>
      </trkpt>
      <trkpt lat="43.91553" lon="7.32153">
        <ele>1098.5999755859</ele>
        <time>2012-09-09T10:23:46.000Z</time>
      </trkpt>
      <trkpt lat="43.91558" lon="7.32148">
        <ele>1098</ele>
        <time>2012-09-09T10:23:54.000Z</time>
      </trkpt>
      <trkpt lat="43.91565" lon="7.32147">
        <ele>1096.4000244141</ele>
        <time>2012-09-09T10:24:00.000Z</time>
      </trkpt>
      <trkpt lat="43.91575" lon="7.32144">
        <ele>1094.8000488281</ele>
        <time>2012-09-09T10:24:06.000Z</time>
      </trkpt>
      <trkpt lat="43.91591" lon="7.32133">
        <ele>1092.4000244141</ele>
        <time>2012-09-09T10:24:12.000Z</time>
      </trkpt>
      <trkpt lat="43.91612" lon="7.32119">
        <ele>1088.1999511719</ele>
        <time>2012-09-09T10:24:16.000Z</time>
      </trkpt>
      <trkpt lat="43.91619" lon="7.32113">
        <ele>1087.5999755859</ele>
        <time>2012-09-09T10:24:18.000Z</time>
      </trkpt>
      <trkpt lat="43.91632" lon="7.32097">
        <ele>1087.4000244141</ele>
        <time>2012-09-09T10:24:22.000Z</time>
      </trkpt>
      <trkpt lat="43.91644" lon="7.32089">
        <ele>1085.1999511719</ele>
        <time>2012-09-09T10:24:26.000Z</time>
      </trkpt>
      <trkpt lat="43.91662" lon="7.32075">
        <ele>1083.4000244141</ele>
        <time>2012-09-09T10:24:31.000Z</time>
      </trkpt>
      <trkpt lat="43.91669" lon="7.3207">
        <ele>1083.1999511719</ele>
        <time>2012-09-09T10:24:34.000Z</time>
      </trkpt>
      <trkpt lat="43.91678" lon="7.32058">
        <ele>1084.4000244141</ele>
        <time>2012-09-09T10:24:39.000Z</time>
      </trkpt>
      <trkpt lat="43.91679" lon="7.32055">
        <ele>1085.5999755859</ele>
        <time>2012-09-09T10:24:40.000Z</time>
      </trkpt>
      <trkpt lat="43.91692" lon="7.32048">
        <ele>1084</ele>
        <time>2012-09-09T10:24:45.000Z</time>
      </trkpt>
      <trkpt lat="43.91706" lon="7.32043">
        <ele>1081.5999755859</ele>
        <time>2012-09-09T10:24:48.000Z</time>
      </trkpt>
      <trkpt lat="43.91711" lon="7.32039">
        <ele>1081.4000244141</ele>
        <time>2012-09-09T10:24:50.000Z</time>
      </trkpt>
      <trkpt lat="43.91724" lon="7.32032">
        <ele>1079.8000488281</ele>
        <time>2012-09-09T10:24:55.000Z</time>
      </trkpt>
      <trkpt lat="43.91735" lon="7.32035">
        <ele>1075.8000488281</ele>
        <time>2012-09-09T10:24:58.000Z</time>
      </trkpt>
      <trkpt lat="43.91739" lon="7.32037">
        <ele>1073.8000488281</ele>
        <time>2012-09-09T10:25:00.000Z</time>
      </trkpt>
      <trkpt lat="43.91759" lon="7.32037">
        <ele>1067.1999511719</ele>
        <time>2012-09-09T10:25:06.000Z</time>
      </trkpt>
      <trkpt lat="43.91774" lon="7.32027">
        <ele>1066.5999755859</ele>
        <time>2012-09-09T10:25:11.000Z</time>
      </trkpt>
      <trkpt lat="43.91794" lon="7.32026">
        <ele>1061.1999511719</ele>
        <time>2012-09-09T10:25:15.000Z</time>
      </trkpt>
      <trkpt lat="43.91806" lon="7.32019">
        <ele>1060</ele>
        <time>2012-09-09T10:25:18.000Z</time>
      </trkpt>
      <trkpt lat="43.91816" lon="7.32013">
        <ele>1059</ele>
        <time>2012-09-09T10:25:23.000Z</time>
      </trkpt>
      <trkpt lat="43.91817" lon="7.32012">
        <ele>1059</ele>
        <time>2012-09-09T10:25:27.000Z</time>
      </trkpt>
      <trkpt lat="43.91818" lon="7.32018">
        <ele>1056.5999755859</ele>
        <time>2012-09-09T10:25:34.000Z</time>
      </trkpt>
      <trkpt lat="43.91819" lon="7.3202">
        <ele>1055.5999755859</ele>
        <time>2012-09-09T10:25:39.000Z</time>
      </trkpt>
      <trkpt lat="43.9182" lon="7.32021">
        <ele>1055</ele>
        <time>2012-09-09T10:25:45.000Z</time>
      </trkpt>
      <trkpt lat="43.91833" lon="7.3202">
        <ele>1051.1999511719</ele>
        <time>2012-09-09T10:25:52.000Z</time>
      </trkpt>
      <trkpt lat="43.91837" lon="7.32015">
        <ele>1051.8000488281</ele>
        <time>2012-09-09T10:25:57.000Z</time>
      </trkpt>
      <trkpt lat="43.91835" lon="7.32013">
        <ele>1053.1999511719</ele>
        <time>2012-09-09T10:26:05.000Z</time>
      </trkpt>
      <trkpt lat="43.91848" lon="7.32015">
        <ele>1048.5999755859</ele>
        <time>2012-09-09T10:26:11.000Z</time>
      </trkpt>
      <trkpt lat="43.91862" lon="7.32021">
        <ele>1042.1999511719</ele>
        <time>2012-09-09T10:26:18.000Z</time>
      </trkpt>
      <trkpt lat="43.91871" lon="7.32024">
        <ele>1038.5999755859</ele>
        <time>2012-09-09T10:26:24.000Z</time>
      </trkpt>
      <trkpt lat="43.9188" lon="7.32019">
        <ele>1037.5999755859</ele>
        <time>2012-09-09T10:26:29.000Z</time>
      </trkpt>
      <trkpt lat="43.91891" lon="7.3201">
        <ele>1037</ele>
        <time>2012-09-09T10:26:33.000Z</time>
      </trkpt>
      <trkpt lat="43.91905" lon="7.32012">
        <ele>1032</ele>
        <time>2012-09-09T10:26:37.000Z</time>
      </trkpt>
      <trkpt lat="43.91909" lon="7.32013">
        <ele>1030.4000244141</ele>
        <time>2012-09-09T10:26:38.000Z</time>
      </trkpt>
      <trkpt lat="43.91921" lon="7.32011">
        <ele>1027.4000244141</ele>
        <time>2012-09-09T10:26:44.000Z</time>
      </trkpt>
      <trkpt lat="43.91932" lon="7.32">
        <ele>1027.5999755859</ele>
        <time>2012-09-09T10:26:48.000Z</time>
      </trkpt>
      <trkpt lat="43.91941" lon="7.31994">
        <ele>1026.8000488281</ele>
        <time>2012-09-09T10:26:52.000Z</time>
      </trkpt>
      <trkpt lat="43.91952" lon="7.31988">
        <ele>1024.8000488281</ele>
        <time>2012-09-09T10:26:58.000Z</time>
      </trkpt>
      <trkpt lat="43.91973" lon="7.31979">
        <ele>1020.5999755859</ele>
        <time>2012-09-09T10:27:02.000Z</time>
      </trkpt>
      <trkpt lat="43.91982" lon="7.31972">
        <ele>1019.5999755859</ele>
        <time>2012-09-09T10:27:06.000Z</time>
      </trkpt>
      <trkpt lat="43.91991" lon="7.3196">
        <ele>1019</ele>
        <time>2012-09-09T10:27:11.000Z</time>
      </trkpt>
      <trkpt lat="43.91991" lon="7.31959">
        <ele>1019.200012207</ele>
        <time>2012-09-09T10:27:16.000Z</time>
      </trkpt>
      <trkpt lat="43.91992" lon="7.31955">
        <ele>1019.5999755859</ele>
        <time>2012-09-09T10:27:22.000Z</time>
      </trkpt>
      <trkpt lat="43.91999" lon="7.3195">
        <ele>1018.4000244141</ele>
        <time>2012-09-09T10:27:26.000Z</time>
      </trkpt>
      <trkpt lat="43.9201" lon="7.31942">
        <ele>1015.799987793</ele>
        <time>2012-09-09T10:27:30.000Z</time>
      </trkpt>
      <trkpt lat="43.92019" lon="7.31925">
        <ele>1015</ele>
        <time>2012-09-09T10:27:35.000Z</time>
      </trkpt>
      <trkpt lat="43.92032" lon="7.31912">
        <ele>1011</ele>
        <time>2012-09-09T10:27:40.000Z</time>
      </trkpt>
      <trkpt lat="43.92043" lon="7.31904">
        <ele>1007</ele>
        <time>2012-09-09T10:27:43.000Z</time>
      </trkpt>
      <trkpt lat="43.92061" lon="7.31881">
        <ele>1000.4000244141</ele>
        <time>2012-09-09T10:27:49.000Z</time>
      </trkpt>
      <trkpt lat="43.9207" lon="7.31868">
        <ele>997</ele>
        <time>2012-09-09T10:27:53.000Z</time>
      </trkpt>
      <trkpt lat="43.92073" lon="7.31864">
        <ele>995.59997558594</ele>
        <time>2012-09-09T10:27:54.000Z</time>
      </trkpt>
      <trkpt lat="43.92076" lon="7.31849">
        <ele>994.79998779297</ele>
        <time>2012-09-09T10:27:57.000Z</time>
      </trkpt>
      <trkpt lat="43.9208" lon="7.31829">
        <ele>994</ele>
        <time>2012-09-09T10:28:02.000Z</time>
      </trkpt>
      <trkpt lat="43.9208" lon="7.31825">
        <ele>994.40002441406</ele>
        <time>2012-09-09T10:28:03.000Z</time>
      </trkpt>
      <trkpt lat="43.92075" lon="7.31811">
        <ele>998.20001220703</ele>
        <time>2012-09-09T10:28:07.000Z</time>
      </trkpt>
      <trkpt lat="43.92072" lon="7.31808">
        <ele>1000</ele>
        <time>2012-09-09T10:28:08.000Z</time>
      </trkpt>
      <trkpt lat="43.92061" lon="7.31798">
        <ele>1005.200012207</ele>
        <time>2012-09-09T10:28:12.000Z</time>
      </trkpt>
      <trkpt lat="43.9206" lon="7.31774">
        <ele>1007.5999755859</ele>
        <time>2012-09-09T10:28:18.000Z</time>
      </trkpt>
      <trkpt lat="43.9207" lon="7.31767">
        <ele>1004</ele>
        <time>2012-09-09T10:28:22.000Z</time>
      </trkpt>
      <trkpt lat="43.92079" lon="7.31762">
        <ele>1001.200012207</ele>
        <time>2012-09-09T10:28:26.000Z</time>
      </trkpt>
      <trkpt lat="43.92091" lon="7.31751">
        <ele>999</ele>
        <time>2012-09-09T10:28:32.000Z</time>
      </trkpt>
      <trkpt lat="43.92107" lon="7.31742">
        <ele>996.79998779297</ele>
        <time>2012-09-09T10:28:38.000Z</time>
      </trkpt>
      <trkpt lat="43.92117" lon="7.31734">
        <ele>996.20001220703</ele>
        <time>2012-09-09T10:28:43.000Z</time>
      </trkpt>
      <trkpt lat="43.92122" lon="7.31727">
        <ele>996.40002441406</ele>
        <time>2012-09-09T10:28:48.000Z</time>
      </trkpt>
      <trkpt lat="43.92137" lon="7.31719">
        <ele>994.20001220703</ele>
        <time>2012-09-09T10:28:54.000Z</time>
      </trkpt>
      <trkpt lat="43.92147" lon="7.31715">
        <ele>992.40002441406</ele>
        <time>2012-09-09T10:28:59.000Z</time>
      </trkpt>
      <trkpt lat="43.92148" lon="7.31714">
        <ele>992.20001220703</ele>
        <time>2012-09-09T10:29:00.000Z</time>
      </trkpt>
      <trkpt lat="43.92159" lon="7.31714">
        <ele>989.20001220703</ele>
        <time>2012-09-09T10:29:05.000Z</time>
      </trkpt>
      <trkpt lat="43.92163" lon="7.31712">
        <ele>988.79998779297</ele>
        <time>2012-09-09T10:29:14.000Z</time>
      </trkpt>
      <trkpt lat="43.92166" lon="7.31701">
        <ele>990</ele>
        <time>2012-09-09T10:29:24.000Z</time>
      </trkpt>
      <trkpt lat="43.92169" lon="7.31699">
        <ele>989.20001220703</ele>
        <time>2012-09-09T10:29:26.000Z</time>
      </trkpt>
      <trkpt lat="43.92177" lon="7.31686">
        <ele>987.40002441406</ele>
        <time>2012-09-09T10:29:31.000Z</time>
      </trkpt>
      <trkpt lat="43.92179" lon="7.3168">
        <ele>988.20001220703</ele>
        <time>2012-09-09T10:29:35.000Z</time>
      </trkpt>
      <trkpt lat="43.92183" lon="7.31676">
        <ele>986.79998779297</ele>
        <time>2012-09-09T10:29:40.000Z</time>
      </trkpt>
      <trkpt lat="43.92184" lon="7.31668">
        <ele>987.40002441406</ele>
        <time>2012-09-09T10:29:47.000Z</time>
      </trkpt>
      <trkpt lat="43.92177" lon="7.31645">
        <ele>994.20001220703</ele>
        <time>2012-09-09T10:29:53.000Z</time>
      </trkpt>
      <trkpt lat="43.92182" lon="7.31629">
        <ele>994</ele>
        <time>2012-09-09T10:29:59.000Z</time>
      </trkpt>
      <trkpt lat="43.92183" lon="7.3162">
        <ele>994.40002441406</ele>
        <time>2012-09-09T10:30:02.000Z</time>
      </trkpt>
      <trkpt lat="43.92179" lon="7.31602">
        <ele>998.79998779297</ele>
        <time>2012-09-09T10:30:08.000Z</time>
      </trkpt>
      <trkpt lat="43.92189" lon="7.31594">
        <ele>994.40002441406</ele>
        <time>2012-09-09T10:30:19.000Z</time>
      </trkpt>
      <trkpt lat="43.92196" lon="7.31578">
        <ele>992.59997558594</ele>
        <time>2012-09-09T10:30:26.000Z</time>
      </trkpt>
      <trkpt lat="43.92198" lon="7.31577">
        <ele>991.79998779297</ele>
        <time>2012-09-09T10:30:27.000Z</time>
      </trkpt>
      <trkpt lat="43.92195" lon="7.31561">
        <ele>995.40002441406</ele>
        <time>2012-09-09T10:30:31.000Z</time>
      </trkpt>
      <trkpt lat="43.92196" lon="7.31551">
        <ele>996.40002441406</ele>
        <time>2012-09-09T10:30:34.000Z</time>
      </trkpt>
      <trkpt lat="43.92199" lon="7.31538">
        <ele>996.40002441406</ele>
        <time>2012-09-09T10:30:39.000Z</time>
      </trkpt>
      <trkpt lat="43.92198" lon="7.31528">
        <ele>998.40002441406</ele>
        <time>2012-09-09T10:30:44.000Z</time>
      </trkpt>
      <trkpt lat="43.92204" lon="7.3152">
        <ele>996.79998779297</ele>
        <time>2012-09-09T10:30:48.000Z</time>
      </trkpt>
      <trkpt lat="43.92203" lon="7.3151">
        <ele>998.59997558594</ele>
        <time>2012-09-09T10:30:51.000Z</time>
      </trkpt>
      <trkpt lat="43.92215" lon="7.31502">
        <ele>993.59997558594</ele>
        <time>2012-09-09T10:30:55.000Z</time>
      </trkpt>
      <trkpt lat="43.92219" lon="7.31499">
        <ele>992.40002441406</ele>
        <time>2012-09-09T10:30:57.000Z</time>
      </trkpt>
      <trkpt lat="43.92216" lon="7.31484">
        <ele>996.20001220703</ele>
        <time>2012-09-09T10:31:02.000Z</time>
      </trkpt>
      <trkpt lat="43.92216" lon="7.31464">
        <ele>1000</ele>
        <time>2012-09-09T10:31:08.000Z</time>
      </trkpt>
      <trkpt lat="43.92219" lon="7.3145">
        <ele>1000.4000244141</ele>
        <time>2012-09-09T10:31:13.000Z</time>
      </trkpt>
      <trkpt lat="43.92221" lon="7.31437">
        <ele>1001.4000244141</ele>
        <time>2012-09-09T10:31:20.000Z</time>
      </trkpt>
      <trkpt lat="43.92225" lon="7.31427">
        <ele>1001.200012207</ele>
        <time>2012-09-09T10:31:25.000Z</time>
      </trkpt>
      <trkpt lat="43.92226" lon="7.3142">
        <ele>1001.4000244141</ele>
        <time>2012-09-09T10:31:28.000Z</time>
      </trkpt>
      <trkpt lat="43.92226" lon="7.31411">
        <ele>1002.4000244141</ele>
        <time>2012-09-09T10:31:34.000Z</time>
      </trkpt>
      <trkpt lat="43.9224" lon="7.31415">
        <ele>994.20001220703</ele>
        <time>2012-09-09T10:32:06.000Z</time>
      </trkpt>
      <trkpt lat="43.92246" lon="7.31417">
        <ele>991</ele>
        <time>2012-09-09T10:32:11.000Z</time>
      </trkpt>
      <trkpt lat="43.92248" lon="7.31412">
        <ele>990</ele>
        <time>2012-09-09T10:32:19.000Z</time>
      </trkpt>
      <trkpt lat="43.92242" lon="7.31399">
        <ele>994</ele>
        <time>2012-09-09T10:32:25.000Z</time>
      </trkpt>
      <trkpt lat="43.9223" lon="7.31384">
        <ele>1001</ele>
        <time>2012-09-09T10:32:34.000Z</time>
      </trkpt>
      <trkpt lat="43.92225" lon="7.31375">
        <ele>1004.200012207</ele>
        <time>2012-09-09T10:32:41.000Z</time>
      </trkpt>
      <trkpt lat="43.92229" lon="7.31365">
        <ele>1002.200012207</ele>
        <time>2012-09-09T10:32:46.000Z</time>
      </trkpt>
      <trkpt lat="43.92229" lon="7.3136">
        <ele>1002.5999755859</ele>
        <time>2012-09-09T10:32:48.000Z</time>
      </trkpt>
      <trkpt lat="43.92228" lon="7.31346">
        <ele>1003.5999755859</ele>
        <time>2012-09-09T10:32:53.000Z</time>
      </trkpt>
      <trkpt lat="43.92232" lon="7.31339">
        <ele>1001.4000244141</ele>
        <time>2012-09-09T10:32:56.000Z</time>
      </trkpt>
      <trkpt lat="43.92229" lon="7.31314">
        <ele>1004</ele>
        <time>2012-09-09T10:33:01.000Z</time>
      </trkpt>
      <trkpt lat="43.92228" lon="7.31306">
        <ele>1004.799987793</ele>
        <time>2012-09-09T10:33:05.000Z</time>
      </trkpt>
      <trkpt lat="43.92236" lon="7.31301">
        <ele>1000</ele>
        <time>2012-09-09T10:33:14.000Z</time>
      </trkpt>
      <trkpt lat="43.92243" lon="7.31285">
        <ele>995.79998779297</ele>
        <time>2012-09-09T10:33:19.000Z</time>
      </trkpt>
      <trkpt lat="43.92253" lon="7.31262">
        <ele>989.20001220703</ele>
        <time>2012-09-09T10:33:25.000Z</time>
      </trkpt>
      <trkpt lat="43.92255" lon="7.31246">
        <ele>988</ele>
        <time>2012-09-09T10:33:30.000Z</time>
      </trkpt>
      <trkpt lat="43.92253" lon="7.31244">
        <ele>989</ele>
        <time>2012-09-09T10:33:31.000Z</time>
      </trkpt>
      <trkpt lat="43.92237" lon="7.31219">
        <ele>998.59997558594</ele>
        <time>2012-09-09T10:33:36.000Z</time>
      </trkpt>
      <trkpt lat="43.92228" lon="7.31199">
        <ele>1004.4000244141</ele>
        <time>2012-09-09T10:33:39.000Z</time>
      </trkpt>
      <trkpt lat="43.92229" lon="7.31183">
        <ele>1002.799987793</ele>
        <time>2012-09-09T10:33:43.000Z</time>
      </trkpt>
      <trkpt lat="43.92232" lon="7.31156">
        <ele>1000</ele>
        <time>2012-09-09T10:33:47.000Z</time>
      </trkpt>
      <trkpt lat="43.92237" lon="7.31138">
        <ele>996.59997558594</ele>
        <time>2012-09-09T10:33:53.000Z</time>
      </trkpt>
      <trkpt lat="43.9224" lon="7.31135">
        <ele>994.59997558594</ele>
        <time>2012-09-09T10:33:55.000Z</time>
      </trkpt>
      <trkpt lat="43.92246" lon="7.31132">
        <ele>990</ele>
        <time>2012-09-09T10:33:57.000Z</time>
      </trkpt>
      <trkpt lat="43.92263" lon="7.31118">
        <ele>978.79998779297</ele>
        <time>2012-09-09T10:34:02.000Z</time>
      </trkpt>
      <trkpt lat="43.92269" lon="7.31104">
        <ele>974.79998779297</ele>
        <time>2012-09-09T10:34:07.000Z</time>
      </trkpt>
      <trkpt lat="43.92268" lon="7.31102">
        <ele>975.59997558594</ele>
        <time>2012-09-09T10:34:08.000Z</time>
      </trkpt>
      <trkpt lat="43.92268" lon="7.31085">
        <ele>975.59997558594</ele>
        <time>2012-09-09T10:34:13.000Z</time>
      </trkpt>
      <trkpt lat="43.9226" lon="7.3107">
        <ele>981</ele>
        <time>2012-09-09T10:34:18.000Z</time>
      </trkpt>
      <trkpt lat="43.92257" lon="7.31056">
        <ele>983.20001220703</ele>
        <time>2012-09-09T10:34:31.000Z</time>
      </trkpt>
      <trkpt lat="43.92261" lon="7.31049">
        <ele>981.40002441406</ele>
        <time>2012-09-09T10:34:42.000Z</time>
      </trkpt>
      <trkpt lat="43.92262" lon="7.31043">
        <ele>981</ele>
        <time>2012-09-09T10:34:46.000Z</time>
      </trkpt>
      <trkpt lat="43.92264" lon="7.31023">
        <ele>980.79998779297</ele>
        <time>2012-09-09T10:34:52.000Z</time>
      </trkpt>
      <trkpt lat="43.92266" lon="7.31017">
        <ele>980.20001220703</ele>
        <time>2012-09-09T10:34:54.000Z</time>
      </trkpt>
      <trkpt lat="43.92266" lon="7.31001">
        <ele>981.20001220703</ele>
        <time>2012-09-09T10:35:00.000Z</time>
      </trkpt>
      <trkpt lat="43.92264" lon="7.3099">
        <ele>983.79998779297</ele>
        <time>2012-09-09T10:35:03.000Z</time>
      </trkpt>
      <trkpt lat="43.9226" lon="7.30973">
        <ele>987.79998779297</ele>
        <time>2012-09-09T10:35:08.000Z</time>
      </trkpt>
      <trkpt lat="43.92255" lon="7.30959">
        <ele>990.79998779297</ele>
        <time>2012-09-09T10:35:13.000Z</time>
      </trkpt>
      <trkpt lat="43.92245" lon="7.30943">
        <ele>997.59997558594</ele>
        <time>2012-09-09T10:35:19.000Z</time>
      </trkpt>
      <trkpt lat="43.92256" lon="7.30938">
        <ele>994</ele>
        <time>2012-09-09T10:35:34.000Z</time>
      </trkpt>
      <trkpt lat="43.92263" lon="7.3094">
        <ele>993.59997558594</ele>
        <time>2012-09-09T10:35:37.000Z</time>
      </trkpt>
      <trkpt lat="43.92269" lon="7.30937">
        <ele>994</ele>
        <time>2012-09-09T10:35:43.000Z</time>
      </trkpt>
      <trkpt lat="43.92271" lon="7.30932">
        <ele>995.20001220703</ele>
        <time>2012-09-09T10:35:47.000Z</time>
      </trkpt>
      <trkpt lat="43.92272" lon="7.30931">
        <ele>995.40002441406</ele>
        <time>2012-09-09T10:35:51.000Z</time>
      </trkpt>
      <trkpt lat="43.92273" lon="7.30932">
        <ele>995</ele>
        <time>2012-09-09T10:35:52.000Z</time>
      </trkpt>
      <trkpt lat="43.92276" lon="7.30938">
        <ele>993.40002441406</ele>
        <time>2012-09-09T10:35:55.000Z</time>
      </trkpt>
      <trkpt lat="43.92285" lon="7.30948">
        <ele>990.40002441406</ele>
        <time>2012-09-09T10:35:59.000Z</time>
      </trkpt>
      <trkpt lat="43.92284" lon="7.30953">
        <ele>989</ele>
        <time>2012-09-09T10:36:02.000Z</time>
      </trkpt>
      <trkpt lat="43.92291" lon="7.3096">
        <ele>986.20001220703</ele>
        <time>2012-09-09T10:36:09.000Z</time>
      </trkpt>
      <trkpt lat="43.92295" lon="7.30962">
        <ele>985</ele>
        <time>2012-09-09T10:36:14.000Z</time>
      </trkpt>
      <trkpt lat="43.92299" lon="7.30966">
        <ele>983.20001220703</ele>
        <time>2012-09-09T10:36:19.000Z</time>
      </trkpt>
      <trkpt lat="43.92309" lon="7.30971">
        <ele>980</ele>
        <time>2012-09-09T10:36:31.000Z</time>
      </trkpt>
      <trkpt lat="43.92325" lon="7.30973">
        <ele>976.40002441406</ele>
        <time>2012-09-09T10:36:40.000Z</time>
      </trkpt>
      <trkpt lat="43.92337" lon="7.3097">
        <ele>976.20001220703</ele>
        <time>2012-09-09T10:36:47.000Z</time>
      </trkpt>
      <trkpt lat="43.92341" lon="7.3097">
        <ele>976.20001220703</ele>
        <time>2012-09-09T10:36:50.000Z</time>
      </trkpt>
      <trkpt lat="43.92357" lon="7.30976">
        <ele>973.40002441406</ele>
        <time>2012-09-09T10:36:56.000Z</time>
      </trkpt>
      <trkpt lat="43.92361" lon="7.30981">
        <ele>971.20001220703</ele>
        <time>2012-09-09T10:37:01.000Z</time>
      </trkpt>
      <trkpt lat="43.92363" lon="7.30983">
        <ele>970</ele>
        <time>2012-09-09T10:37:05.000Z</time>
      </trkpt>
      <trkpt lat="43.92365" lon="7.30985">
        <ele>969.20001220703</ele>
        <time>2012-09-09T10:37:07.000Z</time>
      </trkpt>
      <trkpt lat="43.92373" lon="7.3099">
        <ele>966.59997558594</ele>
        <time>2012-09-09T10:37:13.000Z</time>
      </trkpt>
      <trkpt lat="43.9238" lon="7.30993">
        <ele>965.20001220703</ele>
        <time>2012-09-09T10:37:19.000Z</time>
      </trkpt>
      <trkpt lat="43.92386" lon="7.31">
        <ele>961.59997558594</ele>
        <time>2012-09-09T10:37:24.000Z</time>
      </trkpt>
      <trkpt lat="43.92391" lon="7.31006">
        <ele>959.20001220703</ele>
        <time>2012-09-09T10:37:30.000Z</time>
      </trkpt>
      <trkpt lat="43.92395" lon="7.31015">
        <ele>955.20001220703</ele>
        <time>2012-09-09T10:37:42.000Z</time>
      </trkpt>
      <trkpt lat="43.92397" lon="7.31019">
        <ele>953.59997558594</ele>
        <time>2012-09-09T10:37:48.000Z</time>
      </trkpt>
      <trkpt lat="43.924" lon="7.31021">
        <ele>952.59997558594</ele>
        <time>2012-09-09T10:37:53.000Z</time>
      </trkpt>
      <trkpt lat="43.92404" lon="7.31023">
        <ele>951.59997558594</ele>
        <time>2012-09-09T10:37:57.000Z</time>
      </trkpt>
      <trkpt lat="43.92416" lon="7.31027">
        <ele>949.40002441406</ele>
        <time>2012-09-09T10:38:03.000Z</time>
      </trkpt>
      <trkpt lat="43.92426" lon="7.31026">
        <ele>948</ele>
        <time>2012-09-09T10:38:12.000Z</time>
      </trkpt>
      <trkpt lat="43.92439" lon="7.31028">
        <ele>945</ele>
        <time>2012-09-09T10:38:21.000Z</time>
      </trkpt>
      <trkpt lat="43.92448" lon="7.31031">
        <ele>941.79998779297</ele>
        <time>2012-09-09T10:38:27.000Z</time>
      </trkpt>
      <trkpt lat="43.92453" lon="7.31033">
        <ele>940</ele>
        <time>2012-09-09T10:38:30.000Z</time>
      </trkpt>
      <trkpt lat="43.92456" lon="7.31034">
        <ele>938.79998779297</ele>
        <time>2012-09-09T10:38:34.000Z</time>
      </trkpt>
      <trkpt lat="43.92469" lon="7.31034">
        <ele>936.79998779297</ele>
        <time>2012-09-09T10:38:39.000Z</time>
      </trkpt>
      <trkpt lat="43.92473" lon="7.31033">
        <ele>936</ele>
        <time>2012-09-09T10:38:41.000Z</time>
      </trkpt>
      <trkpt lat="43.92483" lon="7.31035">
        <ele>933.59997558594</ele>
        <time>2012-09-09T10:38:46.000Z</time>
      </trkpt>
      <trkpt lat="43.92498" lon="7.31036">
        <ele>930.40002441406</ele>
        <time>2012-09-09T10:38:50.000Z</time>
      </trkpt>
      <trkpt lat="43.92518" lon="7.3103">
        <ele>927.59997558594</ele>
        <time>2012-09-09T10:38:56.000Z</time>
      </trkpt>
      <trkpt lat="43.9253" lon="7.31029">
        <ele>924.20001220703</ele>
        <time>2012-09-09T10:38:59.000Z</time>
      </trkpt>
      <trkpt lat="43.92544" lon="7.31024">
        <ele>921.79998779297</ele>
        <time>2012-09-09T10:39:06.000Z</time>
      </trkpt>
      <trkpt lat="43.92562" lon="7.31023">
        <ele>917</ele>
        <time>2012-09-09T10:39:12.000Z</time>
      </trkpt>
      <trkpt lat="43.92568" lon="7.31025">
        <ele>914.59997558594</ele>
        <time>2012-09-09T10:39:17.000Z</time>
      </trkpt>
      <trkpt lat="43.92577" lon="7.31027">
        <ele>911.59997558594</ele>
        <time>2012-09-09T10:39:20.000Z</time>
      </trkpt>
      <trkpt lat="43.92596" lon="7.31021">
        <ele>908</ele>
        <time>2012-09-09T10:39:26.000Z</time>
      </trkpt>
      <trkpt lat="43.92617" lon="7.31005">
        <ele>908</ele>
        <time>2012-09-09T10:39:31.000Z</time>
      </trkpt>
      <trkpt lat="43.92622" lon="7.31002">
        <ele>907.59997558594</ele>
        <time>2012-09-09T10:39:32.000Z</time>
      </trkpt>
      <trkpt lat="43.92642" lon="7.3099">
        <ele>907.20001220703</ele>
        <time>2012-09-09T10:39:36.000Z</time>
      </trkpt>
      <trkpt lat="43.92648" lon="7.30999">
        <ele>902.20001220703</ele>
        <time>2012-09-09T10:39:40.000Z</time>
      </trkpt>
      <trkpt lat="43.92657" lon="7.31002">
        <ele>899</ele>
        <time>2012-09-09T10:39:43.000Z</time>
      </trkpt>
      <trkpt lat="43.92669" lon="7.31008">
        <ele>894</ele>
        <time>2012-09-09T10:39:50.000Z</time>
      </trkpt>
      <trkpt lat="43.92682" lon="7.31005">
        <ele>893</ele>
        <time>2012-09-09T10:39:57.000Z</time>
      </trkpt>
      <trkpt lat="43.9269" lon="7.31002">
        <ele>892.40002441406</ele>
        <time>2012-09-09T10:40:02.000Z</time>
      </trkpt>
      <trkpt lat="43.927" lon="7.31001">
        <ele>891</ele>
        <time>2012-09-09T10:40:19.000Z</time>
      </trkpt>
      <trkpt lat="43.92713" lon="7.31005">
        <ele>887.59997558594</ele>
        <time>2012-09-09T10:40:26.000Z</time>
      </trkpt>
      <trkpt lat="43.92723" lon="7.31004">
        <ele>885.79998779297</ele>
        <time>2012-09-09T10:40:31.000Z</time>
      </trkpt>
      <trkpt lat="43.92739" lon="7.31012">
        <ele>880.40002441406</ele>
        <time>2012-09-09T10:40:36.000Z</time>
      </trkpt>
      <trkpt lat="43.92741" lon="7.31014">
        <ele>879.20001220703</ele>
        <time>2012-09-09T10:40:37.000Z</time>
      </trkpt>
      <trkpt lat="43.92759" lon="7.31014">
        <ele>876.59997558594</ele>
        <time>2012-09-09T10:40:44.000Z</time>
      </trkpt>
      <trkpt lat="43.92773" lon="7.31017">
        <ele>873.79998779297</ele>
        <time>2012-09-09T10:40:48.000Z</time>
      </trkpt>
      <trkpt lat="43.92789" lon="7.31019">
        <ele>871.40002441406</ele>
        <time>2012-09-09T10:40:52.000Z</time>
      </trkpt>
      <trkpt lat="43.92798" lon="7.31018">
        <ele>870.79998779297</ele>
        <time>2012-09-09T10:40:56.000Z</time>
      </trkpt>
      <trkpt lat="43.9281" lon="7.31015">
        <ele>870.40002441406</ele>
        <time>2012-09-09T10:41:00.000Z</time>
      </trkpt>
      <trkpt lat="43.92825" lon="7.31016">
        <ele>868.40002441406</ele>
        <time>2012-09-09T10:41:04.000Z</time>
      </trkpt>
      <trkpt lat="43.92844" lon="7.31023">
        <ele>865.40002441406</ele>
        <time>2012-09-09T10:41:08.000Z</time>
      </trkpt>
      <trkpt lat="43.92851" lon="7.31026">
        <ele>864.20001220703</ele>
        <time>2012-09-09T10:41:13.000Z</time>
      </trkpt>
      <trkpt lat="43.92861" lon="7.31029">
        <ele>863.20001220703</ele>
        <time>2012-09-09T10:41:18.000Z</time>
      </trkpt>
      <trkpt lat="43.92863" lon="7.3103">
        <ele>862.79998779297</ele>
        <time>2012-09-09T10:41:19.000Z</time>
      </trkpt>
      <trkpt lat="43.92866" lon="7.31029">
        <ele>863</ele>
        <time>2012-09-09T10:41:21.000Z</time>
      </trkpt>
      <trkpt lat="43.92882" lon="7.3104">
        <ele>859.20001220703</ele>
        <time>2012-09-09T10:41:26.000Z</time>
      </trkpt>
      <trkpt lat="43.92901" lon="7.31046">
        <ele>857</ele>
        <time>2012-09-09T10:41:31.000Z</time>
      </trkpt>
      <trkpt lat="43.92925" lon="7.31057">
        <ele>852.79998779297</ele>
        <time>2012-09-09T10:41:37.000Z</time>
      </trkpt>
      <trkpt lat="43.92937" lon="7.31069">
        <ele>847.79998779297</ele>
        <time>2012-09-09T10:41:42.000Z</time>
      </trkpt>
      <trkpt lat="43.9295" lon="7.31083">
        <ele>842.79998779297</ele>
        <time>2012-09-09T10:41:47.000Z</time>
      </trkpt>
      <trkpt lat="43.92967" lon="7.31086">
        <ele>840.59997558594</ele>
        <time>2012-09-09T10:41:52.000Z</time>
      </trkpt>
      <trkpt lat="43.92977" lon="7.31093">
        <ele>838.20001220703</ele>
        <time>2012-09-09T10:41:57.000Z</time>
      </trkpt>
      <trkpt lat="43.92982" lon="7.31101">
        <ele>835.79998779297</ele>
        <time>2012-09-09T10:42:01.000Z</time>
      </trkpt>
      <trkpt lat="43.92984" lon="7.31104">
        <ele>835</ele>
        <time>2012-09-09T10:42:06.000Z</time>
      </trkpt>
      <trkpt lat="43.92996" lon="7.31105">
        <ele>834.40002441406</ele>
        <time>2012-09-09T10:42:11.000Z</time>
      </trkpt>
      <trkpt lat="43.93006" lon="7.31097">
        <ele>835.20001220703</ele>
        <time>2012-09-09T10:42:16.000Z</time>
      </trkpt>
      <trkpt lat="43.93015" lon="7.31085">
        <ele>836.59997558594</ele>
        <time>2012-09-09T10:42:22.000Z</time>
      </trkpt>
      <trkpt lat="43.93029" lon="7.3108">
        <ele>836</ele>
        <time>2012-09-09T10:42:29.000Z</time>
      </trkpt>
      <trkpt lat="43.93039" lon="7.31072">
        <ele>836.79998779297</ele>
        <time>2012-09-09T10:42:35.000Z</time>
      </trkpt>
      <trkpt lat="43.93053" lon="7.31065">
        <ele>837</ele>
        <time>2012-09-09T10:42:41.000Z</time>
      </trkpt>
      <trkpt lat="43.93056" lon="7.31064">
        <ele>836.79998779297</ele>
        <time>2012-09-09T10:42:43.000Z</time>
      </trkpt>
      <trkpt lat="43.93071" lon="7.3106">
        <ele>836.40002441406</ele>
        <time>2012-09-09T10:42:48.000Z</time>
      </trkpt>
      <trkpt lat="43.9308" lon="7.31053">
        <ele>837</ele>
        <time>2012-09-09T10:42:53.000Z</time>
      </trkpt>
      <trkpt lat="43.93087" lon="7.31045">
        <ele>838.40002441406</ele>
        <time>2012-09-09T10:42:58.000Z</time>
      </trkpt>
      <trkpt lat="43.93089" lon="7.3104">
        <ele>839.40002441406</ele>
        <time>2012-09-09T10:43:03.000Z</time>
      </trkpt>
      <trkpt lat="43.93096" lon="7.31037">
        <ele>838.79998779297</ele>
        <time>2012-09-09T10:43:15.000Z</time>
      </trkpt>
      <trkpt lat="43.931" lon="7.31037">
        <ele>838.20001220703</ele>
        <time>2012-09-09T10:43:19.000Z</time>
      </trkpt>
      <trkpt lat="43.93103" lon="7.31035">
        <ele>838.20001220703</ele>
        <time>2012-09-09T10:43:22.000Z</time>
      </trkpt>
      <trkpt lat="43.93108" lon="7.31031">
        <ele>838.40002441406</ele>
        <time>2012-09-09T10:43:28.000Z</time>
      </trkpt>
      <trkpt lat="43.9311" lon="7.31029">
        <ele>838.40002441406</ele>
        <time>2012-09-09T10:43:31.000Z</time>
      </trkpt>
      <trkpt lat="43.93122" lon="7.31018">
        <ele>838.79998779297</ele>
        <time>2012-09-09T10:43:38.000Z</time>
      </trkpt>
      <trkpt lat="43.93132" lon="7.31007">
        <ele>839.59997558594</ele>
        <time>2012-09-09T10:43:44.000Z</time>
      </trkpt>
      <trkpt lat="43.93139" lon="7.31002">
        <ele>839.40002441406</ele>
        <time>2012-09-09T10:43:48.000Z</time>
      </trkpt>
      <trkpt lat="43.93148" lon="7.30997">
        <ele>838.59997558594</ele>
        <time>2012-09-09T10:43:54.000Z</time>
      </trkpt>
      <trkpt lat="43.93164" lon="7.30993">
        <ele>836.59997558594</ele>
        <time>2012-09-09T10:44:02.000Z</time>
      </trkpt>
      <trkpt lat="43.9317" lon="7.30987">
        <ele>837</ele>
        <time>2012-09-09T10:44:07.000Z</time>
      </trkpt>
      <trkpt lat="43.93173" lon="7.30987">
        <ele>836.40002441406</ele>
        <time>2012-09-09T10:44:09.000Z</time>
      </trkpt>
      <trkpt lat="43.93177" lon="7.30984">
        <ele>836.40002441406</ele>
        <time>2012-09-09T10:44:15.000Z</time>
      </trkpt>
      <trkpt lat="43.93173" lon="7.30986">
        <ele>836.79998779297</ele>
        <time>2012-09-09T10:44:42.000Z</time>
      </trkpt>
      <trkpt lat="43.93171" lon="7.30991">
        <ele>835.59997558594</ele>
        <time>2012-09-09T10:44:45.000Z</time>
      </trkpt>
      <trkpt lat="43.9317" lon="7.31007">
        <ele>831.79998779297</ele>
        <time>2012-09-09T10:44:52.000Z</time>
      </trkpt>
      <trkpt lat="43.93171" lon="7.31024">
        <ele>828</ele>
        <time>2012-09-09T10:44:59.000Z</time>
      </trkpt>
      <trkpt lat="43.93169" lon="7.3102">
        <ele>829.20001220703</ele>
        <time>2012-09-09T10:45:09.000Z</time>
      </trkpt>
      <trkpt lat="43.93163" lon="7.31021">
        <ele>830.20001220703</ele>
        <time>2012-09-09T10:45:14.000Z</time>
      </trkpt>
      <trkpt lat="43.93158" lon="7.31028">
        <ele>829.59997558594</ele>
        <time>2012-09-09T10:45:20.000Z</time>
      </trkpt>
      <trkpt lat="43.93153" lon="7.31029">
        <ele>830.40002441406</ele>
        <time>2012-09-09T10:45:22.000Z</time>
      </trkpt>
      <trkpt lat="43.93148" lon="7.31032">
        <ele>830.59997558594</ele>
        <time>2012-09-09T10:45:26.000Z</time>
      </trkpt>
      <trkpt lat="43.9314" lon="7.31041">
        <ele>830</ele>
        <time>2012-09-09T10:45:31.000Z</time>
      </trkpt>
      <trkpt lat="43.93135" lon="7.31045">
        <ele>829.79998779297</ele>
        <time>2012-09-09T10:45:35.000Z</time>
      </trkpt>
      <trkpt lat="43.93129" lon="7.31053">
        <ele>828.79998779297</ele>
        <time>2012-09-09T10:45:40.000Z</time>
      </trkpt>
      <trkpt lat="43.93127" lon="7.31051">
        <ele>829.79998779297</ele>
        <time>2012-09-09T10:45:53.000Z</time>
      </trkpt>
      <trkpt lat="43.93118" lon="7.31059">
        <ele>829.20001220703</ele>
        <time>2012-09-09T10:46:00.000Z</time>
      </trkpt>
      <trkpt lat="43.93117" lon="7.3106">
        <ele>829.20001220703</ele>
        <time>2012-09-09T10:46:01.000Z</time>
      </trkpt>
      <trkpt lat="43.93111" lon="7.31068">
        <ele>828</ele>
        <time>2012-09-09T10:46:06.000Z</time>
      </trkpt>
      <trkpt lat="43.93108" lon="7.31075">
        <ele>826.79998779297</ele>
        <time>2012-09-09T10:46:13.000Z</time>
      </trkpt>
      <trkpt lat="43.93109" lon="7.31074">
        <ele>826.59997558594</ele>
        <time>2012-09-09T10:46:25.000Z</time>
      </trkpt>
      <trkpt lat="43.93107" lon="7.31078">
        <ele>826</ele>
        <time>2012-09-09T10:46:31.000Z</time>
      </trkpt>
      <trkpt lat="43.93109" lon="7.31083">
        <ele>824.59997558594</ele>
        <time>2012-09-09T10:46:39.000Z</time>
      </trkpt>
      <trkpt lat="43.93111" lon="7.31082">
        <ele>824.59997558594</ele>
        <time>2012-09-09T10:46:44.000Z</time>
      </trkpt>
      <trkpt lat="43.93112" lon="7.31082">
        <ele>824</ele>
        <time>2012-09-09T10:46:48.000Z</time>
      </trkpt>
      <trkpt lat="43.93115" lon="7.31087">
        <ele>822.79998779297</ele>
        <time>2012-09-09T10:46:51.000Z</time>
      </trkpt>
      <trkpt lat="43.93117" lon="7.31088">
        <ele>822</ele>
        <time>2012-09-09T10:46:58.000Z</time>
      </trkpt>
      <trkpt lat="43.93122" lon="7.31086">
        <ele>822</ele>
        <time>2012-09-09T10:47:02.000Z</time>
      </trkpt>
      <trkpt lat="43.93131" lon="7.31086">
        <ele>820.59997558594</ele>
        <time>2012-09-09T10:47:07.000Z</time>
      </trkpt>
      <trkpt lat="43.93152" lon="7.31089">
        <ele>816.79998779297</ele>
        <time>2012-09-09T10:47:13.000Z</time>
      </trkpt>
      <trkpt lat="43.93153" lon="7.31088">
        <ele>816.79998779297</ele>
        <time>2012-09-09T10:47:14.000Z</time>
      </trkpt>
      <trkpt lat="43.93153" lon="7.31088">
        <ele>816.79998779297</ele>
        <time>2012-09-09T10:47:14.000Z</time>
      </trkpt>
      <trkpt lat="43.93168" lon="7.31087">
        <ele>815</ele>
        <time>2012-09-09T10:47:18.000Z</time>
      </trkpt>
      <trkpt lat="43.93182" lon="7.31092">
        <ele>812</ele>
        <time>2012-09-09T10:47:22.000Z</time>
      </trkpt>
      <trkpt lat="43.93196" lon="7.31095">
        <ele>809.20001220703</ele>
        <time>2012-09-09T10:47:27.000Z</time>
      </trkpt>
      <trkpt lat="43.93203" lon="7.31098">
        <ele>807.59997558594</ele>
        <time>2012-09-09T10:47:30.000Z</time>
      </trkpt>
      <trkpt lat="43.93209" lon="7.31103">
        <ele>805.59997558594</ele>
        <time>2012-09-09T10:47:33.000Z</time>
      </trkpt>
      <trkpt lat="43.93215" lon="7.311">
        <ele>805.40002441406</ele>
        <time>2012-09-09T10:47:37.000Z</time>
      </trkpt>
      <trkpt lat="43.93218" lon="7.311">
        <ele>805</ele>
        <time>2012-09-09T10:47:40.000Z</time>
      </trkpt>
      <trkpt lat="43.93226" lon="7.31101">
        <ele>804</ele>
        <time>2012-09-09T10:47:46.000Z</time>
      </trkpt>
      <trkpt lat="43.93239" lon="7.31092">
        <ele>804</ele>
        <time>2012-09-09T10:47:52.000Z</time>
      </trkpt>
      <trkpt lat="43.93241" lon="7.3109">
        <ele>804</ele>
        <time>2012-09-09T10:47:53.000Z</time>
      </trkpt>
      <trkpt lat="43.93253" lon="7.31095">
        <ele>801.20001220703</ele>
        <time>2012-09-09T10:47:59.000Z</time>
      </trkpt>
      <trkpt lat="43.93256" lon="7.31095">
        <ele>800.59997558594</ele>
        <time>2012-09-09T10:48:00.000Z</time>
      </trkpt>
      <trkpt lat="43.93264" lon="7.31098">
        <ele>798.40002441406</ele>
        <time>2012-09-09T10:48:04.000Z</time>
      </trkpt>
      <trkpt lat="43.93267" lon="7.31098">
        <ele>798</ele>
        <time>2012-09-09T10:48:06.000Z</time>
      </trkpt>
      <trkpt lat="43.9327" lon="7.31096">
        <ele>797.59997558594</ele>
        <time>2012-09-09T10:48:08.000Z</time>
      </trkpt>
      <trkpt lat="43.93274" lon="7.31099">
        <ele>796.40002441406</ele>
        <time>2012-09-09T10:48:12.000Z</time>
      </trkpt>
      <trkpt lat="43.93283" lon="7.31104">
        <ele>794</ele>
        <time>2012-09-09T10:48:17.000Z</time>
      </trkpt>
      <trkpt lat="43.93285" lon="7.31102">
        <ele>793.79998779297</ele>
        <time>2012-09-09T10:48:19.000Z</time>
      </trkpt>
      <trkpt lat="43.93298" lon="7.31096">
        <ele>792.20001220703</ele>
        <time>2012-09-09T10:48:27.000Z</time>
      </trkpt>
      <trkpt lat="43.93313" lon="7.31089">
        <ele>790.40002441406</ele>
        <time>2012-09-09T10:48:33.000Z</time>
      </trkpt>
      <trkpt lat="43.93326" lon="7.31071">
        <ele>789.79998779297</ele>
        <time>2012-09-09T10:48:39.000Z</time>
      </trkpt>
      <trkpt lat="43.93335" lon="7.31052">
        <ele>790</ele>
        <time>2012-09-09T10:48:44.000Z</time>
      </trkpt>
      <trkpt lat="43.93353" lon="7.31043">
        <ele>787.40002441406</ele>
        <time>2012-09-09T10:48:49.000Z</time>
      </trkpt>
      <trkpt lat="43.9336" lon="7.31041">
        <ele>786</ele>
        <time>2012-09-09T10:48:51.000Z</time>
      </trkpt>
      <trkpt lat="43.93365" lon="7.31043">
        <ele>784.59997558594</ele>
        <time>2012-09-09T10:48:53.000Z</time>
      </trkpt>
      <trkpt lat="43.93375" lon="7.31038">
        <ele>783</ele>
        <time>2012-09-09T10:48:58.000Z</time>
      </trkpt>
      <trkpt lat="43.93381" lon="7.31026">
        <ele>783</ele>
        <time>2012-09-09T10:49:01.000Z</time>
      </trkpt>
      <trkpt lat="43.9339" lon="7.31018">
        <ele>782</ele>
        <time>2012-09-09T10:49:03.000Z</time>
      </trkpt>
      <trkpt lat="43.93406" lon="7.31">
        <ele>780.40002441406</ele>
        <time>2012-09-09T10:49:07.000Z</time>
      </trkpt>
      <trkpt lat="43.93422" lon="7.30993">
        <ele>777.79998779297</ele>
        <time>2012-09-09T10:49:11.000Z</time>
      </trkpt>
      <trkpt lat="43.93435" lon="7.30994">
        <ele>775.79998779297</ele>
        <time>2012-09-09T10:49:14.000Z</time>
      </trkpt>
      <trkpt lat="43.93458" lon="7.30988">
        <ele>773</ele>
        <time>2012-09-09T10:49:19.000Z</time>
      </trkpt>
      <trkpt lat="43.93465" lon="7.30984">
        <ele>772.20001220703</ele>
        <time>2012-09-09T10:49:21.000Z</time>
      </trkpt>
      <trkpt lat="43.93478" lon="7.30975">
        <ele>770.79998779297</ele>
        <time>2012-09-09T10:49:25.000Z</time>
      </trkpt>
      <trkpt lat="43.93493" lon="7.30969">
        <ele>769</ele>
        <time>2012-09-09T10:49:29.000Z</time>
      </trkpt>
      <trkpt lat="43.93508" lon="7.30959">
        <ele>767.59997558594</ele>
        <time>2012-09-09T10:49:35.000Z</time>
      </trkpt>
      <trkpt lat="43.93518" lon="7.30962">
        <ele>766.40002441406</ele>
        <time>2012-09-09T10:49:40.000Z</time>
      </trkpt>
      <trkpt lat="43.93538" lon="7.30967">
        <ele>764</ele>
        <time>2012-09-09T10:49:45.000Z</time>
      </trkpt>
      <trkpt lat="43.93547" lon="7.30966">
        <ele>763</ele>
        <time>2012-09-09T10:49:48.000Z</time>
      </trkpt>
      <trkpt lat="43.93559" lon="7.30968">
        <ele>761.59997558594</ele>
        <time>2012-09-09T10:49:53.000Z</time>
      </trkpt>
      <trkpt lat="43.93566" lon="7.3096">
        <ele>761.59997558594</ele>
        <time>2012-09-09T10:49:59.000Z</time>
      </trkpt>
      <trkpt lat="43.93574" lon="7.30952">
        <ele>761.59997558594</ele>
        <time>2012-09-09T10:50:02.000Z</time>
      </trkpt>
      <trkpt lat="43.93583" lon="7.30947">
        <ele>761.20001220703</ele>
        <time>2012-09-09T10:50:06.000Z</time>
      </trkpt>
      <trkpt lat="43.93595" lon="7.30943">
        <ele>760.79998779297</ele>
        <time>2012-09-09T10:50:14.000Z</time>
      </trkpt>
      <trkpt lat="43.93599" lon="7.30943">
        <ele>760.79998779297</ele>
        <time>2012-09-09T10:50:16.000Z</time>
      </trkpt>
      <trkpt lat="43.936" lon="7.30947">
        <ele>760.40002441406</ele>
        <time>2012-09-09T10:50:23.000Z</time>
      </trkpt>
      <trkpt lat="43.93594" lon="7.30955">
        <ele>760</ele>
        <time>2012-09-09T10:50:46.000Z</time>
      </trkpt>
      <trkpt lat="43.93593" lon="7.30954">
        <ele>760</ele>
        <time>2012-09-09T10:50:49.000Z</time>
      </trkpt>
      <trkpt lat="43.93584" lon="7.30954">
        <ele>760.40002441406</ele>
        <time>2012-09-09T10:50:57.000Z</time>
      </trkpt>
      <trkpt lat="43.93576" lon="7.30957">
        <ele>760.79998779297</ele>
        <time>2012-09-09T10:51:04.000Z</time>
      </trkpt>
      <trkpt lat="43.93569" lon="7.30962">
        <ele>761.20001220703</ele>
        <time>2012-09-09T10:51:11.000Z</time>
      </trkpt>
      <trkpt lat="43.93568" lon="7.30963">
        <ele>761.20001220703</ele>
        <time>2012-09-09T10:51:25.000Z</time>
      </trkpt>
      <trkpt lat="43.93564" lon="7.30971">
        <ele>761</ele>
        <time>2012-09-09T10:51:31.000Z</time>
      </trkpt>
      <trkpt lat="43.93559" lon="7.30974">
        <ele>761.20001220703</ele>
        <time>2012-09-09T10:51:37.000Z</time>
      </trkpt>
      <trkpt lat="43.93554" lon="7.30977">
        <ele>761.40002441406</ele>
        <time>2012-09-09T10:51:45.000Z</time>
      </trkpt>
      <trkpt lat="43.9355" lon="7.3097">
        <ele>762.40002441406</ele>
        <time>2012-09-09T10:51:51.000Z</time>
      </trkpt>
      <trkpt lat="43.93541" lon="7.30975">
        <ele>763</ele>
        <time>2012-09-09T10:51:59.000Z</time>
      </trkpt>
      <trkpt lat="43.93533" lon="7.30976">
        <ele>763.79998779297</ele>
        <time>2012-09-09T10:52:07.000Z</time>
      </trkpt>
      <trkpt lat="43.93526" lon="7.30978">
        <ele>764.59997558594</ele>
        <time>2012-09-09T10:52:15.000Z</time>
      </trkpt>
      <trkpt lat="43.93523" lon="7.30977">
        <ele>764.79998779297</ele>
        <time>2012-09-09T10:52:17.000Z</time>
      </trkpt>
      <trkpt lat="43.93514" lon="7.30975">
        <ele>766</ele>
        <time>2012-09-09T10:52:24.000Z</time>
      </trkpt>
      <trkpt lat="43.93513" lon="7.30974">
        <ele>766.20001220703</ele>
        <time>2012-09-09T10:52:25.000Z</time>
      </trkpt>
      <trkpt lat="43.93505" lon="7.30966">
        <ele>767.59997558594</ele>
        <time>2012-09-09T10:52:34.000Z</time>
      </trkpt>
      <trkpt lat="43.93502" lon="7.30967">
        <ele>767.79998779297</ele>
        <time>2012-09-09T10:52:37.000Z</time>
      </trkpt>
      <trkpt lat="43.93495" lon="7.30974">
        <ele>768.20001220703</ele>
        <time>2012-09-09T10:52:46.000Z</time>
      </trkpt>
      <trkpt lat="43.93487" lon="7.30977">
        <ele>769.20001220703</ele>
        <time>2012-09-09T10:52:53.000Z</time>
      </trkpt>
      <trkpt lat="43.9348" lon="7.30977">
        <ele>770.40002441406</ele>
        <time>2012-09-09T10:53:02.000Z</time>
      </trkpt>
      <trkpt lat="43.93474" lon="7.30982">
        <ele>771</ele>
        <time>2012-09-09T10:53:09.000Z</time>
      </trkpt>
      <trkpt lat="43.93467" lon="7.30986">
        <ele>771.59997558594</ele>
        <time>2012-09-09T10:53:16.000Z</time>
      </trkpt>
      <trkpt lat="43.93459" lon="7.30992">
        <ele>772.40002441406</ele>
        <time>2012-09-09T10:53:24.000Z</time>
      </trkpt>
      <trkpt lat="43.93451" lon="7.30997">
        <ele>773.40002441406</ele>
        <time>2012-09-09T10:53:31.000Z</time>
      </trkpt>
      <trkpt lat="43.93439" lon="7.30999">
        <ele>774.79998779297</ele>
        <time>2012-09-09T10:53:37.000Z</time>
      </trkpt>
      <trkpt lat="43.93426" lon="7.30999">
        <ele>776.59997558594</ele>
        <time>2012-09-09T10:53:44.000Z</time>
      </trkpt>
      <trkpt lat="43.93415" lon="7.31">
        <ele>778.40002441406</ele>
        <time>2012-09-09T10:53:51.000Z</time>
      </trkpt>
      <trkpt lat="43.93404" lon="7.31011">
        <ele>779.59997558594</ele>
        <time>2012-09-09T10:53:58.000Z</time>
      </trkpt>
      <trkpt lat="43.93399" lon="7.31017">
        <ele>780.20001220703</ele>
        <time>2012-09-09T10:54:04.000Z</time>
      </trkpt>
      <trkpt lat="43.93404" lon="7.31008">
        <ele>779.79998779297</ele>
        <time>2012-09-09T10:54:26.000Z</time>
      </trkpt>
      <trkpt lat="43.93406" lon="7.31003">
        <ele>780</ele>
        <time>2012-09-09T10:54:30.000Z</time>
      </trkpt>
      <trkpt lat="43.93413" lon="7.30995">
        <ele>779.40002441406</ele>
        <time>2012-09-09T10:54:38.000Z</time>
      </trkpt>
      <trkpt lat="43.93412" lon="7.30993">
        <ele>779.59997558594</ele>
        <time>2012-09-09T10:54:45.000Z</time>
      </trkpt>
      <trkpt lat="43.93416" lon="7.30992">
        <ele>778.79998779297</ele>
        <time>2012-09-09T10:55:03.000Z</time>
      </trkpt>
      <trkpt lat="43.9342" lon="7.30991">
        <ele>778.20001220703</ele>
        <time>2012-09-09T10:55:09.000Z</time>
      </trkpt>
      <trkpt lat="43.9343" lon="7.30992">
        <ele>776.59997558594</ele>
        <time>2012-09-09T10:55:15.000Z</time>
      </trkpt>
      <trkpt lat="43.93438" lon="7.30994">
        <ele>775.40002441406</ele>
        <time>2012-09-09T10:55:23.000Z</time>
      </trkpt>
      <trkpt lat="43.93448" lon="7.30993">
        <ele>774</ele>
        <time>2012-09-09T10:55:29.000Z</time>
      </trkpt>
      <trkpt lat="43.93458" lon="7.30989">
        <ele>772.79998779297</ele>
        <time>2012-09-09T10:55:37.000Z</time>
      </trkpt>
      <trkpt lat="43.93466" lon="7.30985">
        <ele>772</ele>
        <time>2012-09-09T10:55:44.000Z</time>
      </trkpt>
      <trkpt lat="43.93468" lon="7.30984">
        <ele>771.79998779297</ele>
        <time>2012-09-09T10:55:46.000Z</time>
      </trkpt>
      <trkpt lat="43.93478" lon="7.30977">
        <ele>770.79998779297</ele>
        <time>2012-09-09T10:55:54.000Z</time>
      </trkpt>
      <trkpt lat="43.93483" lon="7.30975">
        <ele>770</ele>
        <time>2012-09-09T10:56:00.000Z</time>
      </trkpt>
      <trkpt lat="43.93494" lon="7.30972">
        <ele>768.59997558594</ele>
        <time>2012-09-09T10:56:20.000Z</time>
      </trkpt>
      <trkpt lat="43.93497" lon="7.30964">
        <ele>768.59997558594</ele>
        <time>2012-09-09T10:56:27.000Z</time>
      </trkpt>
      <trkpt lat="43.93499" lon="7.30958">
        <ele>768.79998779297</ele>
        <time>2012-09-09T10:56:33.000Z</time>
      </trkpt>
      <trkpt lat="43.93498" lon="7.3095">
        <ele>769.20001220703</ele>
        <time>2012-09-09T10:56:37.000Z</time>
      </trkpt>
      <trkpt lat="43.93501" lon="7.3094">
        <ele>769.59997558594</ele>
        <time>2012-09-09T10:56:44.000Z</time>
      </trkpt>
      <trkpt lat="43.93507" lon="7.30933">
        <ele>769.40002441406</ele>
        <time>2012-09-09T10:56:49.000Z</time>
      </trkpt>
      <trkpt lat="43.93509" lon="7.30929">
        <ele>769.40002441406</ele>
        <time>2012-09-09T10:56:51.000Z</time>
      </trkpt>
      <trkpt lat="43.9352" lon="7.30918">
        <ele>769.20001220703</ele>
        <time>2012-09-09T10:56:56.000Z</time>
      </trkpt>
      <trkpt lat="43.93531" lon="7.30911">
        <ele>768.79998779297</ele>
        <time>2012-09-09T10:57:01.000Z</time>
      </trkpt>
      <trkpt lat="43.93544" lon="7.30911">
        <ele>767.79998779297</ele>
        <time>2012-09-09T10:57:06.000Z</time>
      </trkpt>
      <trkpt lat="43.93555" lon="7.30908">
        <ele>767</ele>
        <time>2012-09-09T10:57:12.000Z</time>
      </trkpt>
      <trkpt lat="43.93563" lon="7.3091">
        <ele>766.20001220703</ele>
        <time>2012-09-09T10:57:15.000Z</time>
      </trkpt>
      <trkpt lat="43.93567" lon="7.30911">
        <ele>766</ele>
        <time>2012-09-09T10:57:16.000Z</time>
      </trkpt>
      <trkpt lat="43.93567" lon="7.30911">
        <ele>766</ele>
        <time>2012-09-09T10:57:16.000Z</time>
      </trkpt>
      <trkpt lat="43.93573" lon="7.3091">
        <ele>765.40002441406</ele>
        <time>2012-09-09T10:57:18.000Z</time>
      </trkpt>
      <trkpt lat="43.93585" lon="7.30906">
        <ele>765</ele>
        <time>2012-09-09T10:57:23.000Z</time>
      </trkpt>
      <trkpt lat="43.93588" lon="7.30904">
        <ele>765</ele>
        <time>2012-09-09T10:57:24.000Z</time>
      </trkpt>
      <trkpt lat="43.93604" lon="7.30898">
        <ele>764.59997558594</ele>
        <time>2012-09-09T10:57:32.000Z</time>
      </trkpt>
      <trkpt lat="43.93604" lon="7.30889">
        <ele>765.40002441406</ele>
        <time>2012-09-09T10:57:36.000Z</time>
      </trkpt>
      <trkpt lat="43.93617" lon="7.30884">
        <ele>764.79998779297</ele>
        <time>2012-09-09T10:57:41.000Z</time>
      </trkpt>
      <trkpt lat="43.93633" lon="7.30877">
        <ele>764.40002441406</ele>
        <time>2012-09-09T10:57:47.000Z</time>
      </trkpt>
      <trkpt lat="43.93638" lon="7.30871">
        <ele>764.40002441406</ele>
        <time>2012-09-09T10:57:50.000Z</time>
      </trkpt>
      <trkpt lat="43.93644" lon="7.30861">
        <ele>764.59997558594</ele>
        <time>2012-09-09T10:57:55.000Z</time>
      </trkpt>
      <trkpt lat="43.93648" lon="7.30849">
        <ele>764.79998779297</ele>
        <time>2012-09-09T10:57:59.000Z</time>
      </trkpt>
      <trkpt lat="43.93661" lon="7.30839">
        <ele>764.20001220703</ele>
        <time>2012-09-09T10:58:05.000Z</time>
      </trkpt>
      <trkpt lat="43.93663" lon="7.30837">
        <ele>764.20001220703</ele>
        <time>2012-09-09T10:58:06.000Z</time>
      </trkpt>
      <trkpt lat="43.93666" lon="7.30835">
        <ele>764</ele>
        <time>2012-09-09T10:58:08.000Z</time>
      </trkpt>
      <trkpt lat="43.93671" lon="7.30819">
        <ele>764</ele>
        <time>2012-09-09T10:58:14.000Z</time>
      </trkpt>
      <trkpt lat="43.93674" lon="7.30809">
        <ele>764</ele>
        <time>2012-09-09T10:58:17.000Z</time>
      </trkpt>
      <trkpt lat="43.93684" lon="7.30788">
        <ele>762.79998779297</ele>
        <time>2012-09-09T10:58:23.000Z</time>
      </trkpt>
      <trkpt lat="43.93687" lon="7.30785">
        <ele>762.40002441406</ele>
        <time>2012-09-09T10:58:29.000Z</time>
      </trkpt>
      <trkpt lat="43.93688" lon="7.3078">
        <ele>762.20001220703</ele>
        <time>2012-09-09T10:58:33.000Z</time>
      </trkpt>
      <trkpt lat="43.93693" lon="7.30768">
        <ele>761.59997558594</ele>
        <time>2012-09-09T10:58:40.000Z</time>
      </trkpt>
      <trkpt lat="43.93692" lon="7.30758">
        <ele>761.79998779297</ele>
        <time>2012-09-09T10:58:48.000Z</time>
      </trkpt>
      <trkpt lat="43.93697" lon="7.30746">
        <ele>760.40002441406</ele>
        <time>2012-09-09T10:58:53.000Z</time>
      </trkpt>
      <trkpt lat="43.93694" lon="7.30738">
        <ele>760.20001220703</ele>
        <time>2012-09-09T10:58:57.000Z</time>
      </trkpt>
      <trkpt lat="43.9369" lon="7.30716">
        <ele>758.79998779297</ele>
        <time>2012-09-09T10:59:02.000Z</time>
      </trkpt>
      <trkpt lat="43.93692" lon="7.30708">
        <ele>757.79998779297</ele>
        <time>2012-09-09T10:59:07.000Z</time>
      </trkpt>
      <trkpt lat="43.93691" lon="7.30702">
        <ele>757.40002441406</ele>
        <time>2012-09-09T10:59:09.000Z</time>
      </trkpt>
      <trkpt lat="43.93692" lon="7.30689">
        <ele>756</ele>
        <time>2012-09-09T10:59:14.000Z</time>
      </trkpt>
      <trkpt lat="43.9369" lon="7.30678">
        <ele>755.20001220703</ele>
        <time>2012-09-09T10:59:18.000Z</time>
      </trkpt>
      <trkpt lat="43.9369" lon="7.30649">
        <ele>754.59997558594</ele>
        <time>2012-09-09T10:59:25.000Z</time>
      </trkpt>
      <trkpt lat="43.93692" lon="7.30643">
        <ele>754.20001220703</ele>
        <time>2012-09-09T10:59:27.000Z</time>
      </trkpt>
      <trkpt lat="43.93699" lon="7.30629">
        <ele>752.79998779297</ele>
        <time>2012-09-09T10:59:33.000Z</time>
      </trkpt>
      <trkpt lat="43.93703" lon="7.30619">
        <ele>752</ele>
        <time>2012-09-09T10:59:38.000Z</time>
      </trkpt>
      <trkpt lat="43.93706" lon="7.30608">
        <ele>751.20001220703</ele>
        <time>2012-09-09T10:59:42.000Z</time>
      </trkpt>
      <trkpt lat="43.9371" lon="7.30597">
        <ele>750.20001220703</ele>
        <time>2012-09-09T10:59:46.000Z</time>
      </trkpt>
      <trkpt lat="43.93718" lon="7.30589">
        <ele>747.59997558594</ele>
        <time>2012-09-09T10:59:53.000Z</time>
      </trkpt>
      <trkpt lat="43.93724" lon="7.3059">
        <ele>745.79998779297</ele>
        <time>2012-09-09T11:00:07.000Z</time>
      </trkpt>
      <trkpt lat="43.93723" lon="7.30588">
        <ele>746</ele>
        <time>2012-09-09T11:00:14.000Z</time>
      </trkpt>
      <trkpt lat="43.93728" lon="7.3058">
        <ele>744.40002441406</ele>
        <time>2012-09-09T11:00:24.000Z</time>
      </trkpt>
      <trkpt lat="43.93736" lon="7.30572">
        <ele>741</ele>
        <time>2012-09-09T11:00:30.000Z</time>
      </trkpt>
      <trkpt lat="43.93745" lon="7.30566">
        <ele>737.59997558594</ele>
        <time>2012-09-09T11:00:34.000Z</time>
      </trkpt>
      <trkpt lat="43.93753" lon="7.30561">
        <ele>734.20001220703</ele>
        <time>2012-09-09T11:00:38.000Z</time>
      </trkpt>
      <trkpt lat="43.93769" lon="7.3056">
        <ele>728.79998779297</ele>
        <time>2012-09-09T11:00:44.000Z</time>
      </trkpt>
      <trkpt lat="43.93771" lon="7.30558">
        <ele>727.79998779297</ele>
        <time>2012-09-09T11:00:46.000Z</time>
      </trkpt>
      <trkpt lat="43.93774" lon="7.30549">
        <ele>725</ele>
        <time>2012-09-09T11:00:53.000Z</time>
      </trkpt>
      <trkpt lat="43.93773" lon="7.3054">
        <ele>723.79998779297</ele>
        <time>2012-09-09T11:01:02.000Z</time>
      </trkpt>
      <trkpt lat="43.93774" lon="7.30538">
        <ele>723</ele>
        <time>2012-09-09T11:01:07.000Z</time>
      </trkpt>
      <trkpt lat="43.93778" lon="7.30532">
        <ele>720.40002441406</ele>
        <time>2012-09-09T11:01:14.000Z</time>
      </trkpt>
      <trkpt lat="43.93776" lon="7.30526">
        <ele>720.20001220703</ele>
        <time>2012-09-09T11:01:26.000Z</time>
      </trkpt>
      <trkpt lat="43.93776" lon="7.30509">
        <ele>716.79998779297</ele>
        <time>2012-09-09T11:01:32.000Z</time>
      </trkpt>
      <trkpt lat="43.93779" lon="7.30499">
        <ele>713.59997558594</ele>
        <time>2012-09-09T11:01:36.000Z</time>
      </trkpt>
      <trkpt lat="43.93793" lon="7.30482">
        <ele>702.40002441406</ele>
        <time>2012-09-09T11:01:41.000Z</time>
      </trkpt>
      <trkpt lat="43.93805" lon="7.30471">
        <ele>693.59997558594</ele>
        <time>2012-09-09T11:01:45.000Z</time>
      </trkpt>
      <trkpt lat="43.938" lon="7.30462">
        <ele>694</ele>
        <time>2012-09-09T11:01:50.000Z</time>
      </trkpt>
      <trkpt lat="43.93805" lon="7.30449">
        <ele>688.40002441406</ele>
        <time>2012-09-09T11:01:55.000Z</time>
      </trkpt>
      <trkpt lat="43.93809" lon="7.30438">
        <ele>683.40002441406</ele>
        <time>2012-09-09T11:01:59.000Z</time>
      </trkpt>
      <trkpt lat="43.93815" lon="7.30422">
        <ele>676.20001220703</ele>
        <time>2012-09-09T11:02:04.000Z</time>
      </trkpt>
      <trkpt lat="43.93815" lon="7.30419">
        <ele>675.20001220703</ele>
        <time>2012-09-09T11:02:05.000Z</time>
      </trkpt>
      <trkpt lat="43.93799" lon="7.30402">
        <ele>678.20001220703</ele>
        <time>2012-09-09T11:02:11.000Z</time>
      </trkpt>
      <trkpt lat="43.93778" lon="7.30387">
        <ele>684</ele>
        <time>2012-09-09T11:02:16.000Z</time>
      </trkpt>
      <trkpt lat="43.93771" lon="7.30382">
        <ele>685.59997558594</ele>
        <time>2012-09-09T11:02:17.000Z</time>
      </trkpt>
      <trkpt lat="43.93753" lon="7.30367">
        <ele>689.59997558594</ele>
        <time>2012-09-09T11:02:21.000Z</time>
      </trkpt>
      <trkpt lat="43.93759" lon="7.30359">
        <ele>683.79998779297</ele>
        <time>2012-09-09T11:02:25.000Z</time>
      </trkpt>
      <trkpt lat="43.93756" lon="7.30343">
        <ele>679.79998779297</ele>
        <time>2012-09-09T11:02:31.000Z</time>
      </trkpt>
      <trkpt lat="43.93758" lon="7.30337">
        <ele>676.40002441406</ele>
        <time>2012-09-09T11:02:35.000Z</time>
      </trkpt>
      <trkpt lat="43.93745" lon="7.3033">
        <ele>681.20001220703</ele>
        <time>2012-09-09T11:02:39.000Z</time>
      </trkpt>
      <trkpt lat="43.93712" lon="7.3032">
        <ele>699.20001220703</ele>
        <time>2012-09-09T11:02:46.000Z</time>
      </trkpt>
      <trkpt lat="43.93717" lon="7.30316">
        <ele>695.59997558594</ele>
        <time>2012-09-09T11:02:50.000Z</time>
      </trkpt>
      <trkpt lat="43.9372" lon="7.30315">
        <ele>693</ele>
        <time>2012-09-09T11:02:51.000Z</time>
      </trkpt>
      <trkpt lat="43.93735" lon="7.30303">
        <ele>682</ele>
        <time>2012-09-09T11:02:56.000Z</time>
      </trkpt>
      <trkpt lat="43.9375" lon="7.30293">
        <ele>671</ele>
        <time>2012-09-09T11:02:59.000Z</time>
      </trkpt>
      <trkpt lat="43.93766" lon="7.30276">
        <ele>658.20001220703</ele>
        <time>2012-09-09T11:03:04.000Z</time>
      </trkpt>
      <trkpt lat="43.93779" lon="7.30251">
        <ele>643.40002441406</ele>
        <time>2012-09-09T11:03:11.000Z</time>
      </trkpt>
      <trkpt lat="43.93785" lon="7.30233">
        <ele>635</ele>
        <time>2012-09-09T11:03:14.000Z</time>
      </trkpt>
      <trkpt lat="43.9379" lon="7.30221">
        <ele>629.20001220703</ele>
        <time>2012-09-09T11:03:17.000Z</time>
      </trkpt>
      <trkpt lat="43.93809" lon="7.30195">
        <ele>609.40002441406</ele>
        <time>2012-09-09T11:03:23.000Z</time>
      </trkpt>
      <trkpt lat="43.93808" lon="7.30161">
        <ele>602</ele>
        <time>2012-09-09T11:03:28.000Z</time>
      </trkpt>
      <trkpt lat="43.93775" lon="7.30131">
        <ele>620.20001220703</ele>
        <time>2012-09-09T11:03:33.000Z</time>
      </trkpt>
      <trkpt lat="43.93748" lon="7.30109">
        <ele>634</ele>
        <time>2012-09-09T11:03:37.000Z</time>
      </trkpt>
      <trkpt lat="43.93721" lon="7.30087">
        <ele>642.40002441406</ele>
        <time>2012-09-09T11:03:44.000Z</time>
      </trkpt>
      <trkpt lat="43.93721" lon="7.30083">
        <ele>641</ele>
        <time>2012-09-09T11:03:48.000Z</time>
      </trkpt>
      <trkpt lat="43.93701" lon="7.30073">
        <ele>651</ele>
        <time>2012-09-09T11:03:52.000Z</time>
      </trkpt>
      <trkpt lat="43.93685" lon="7.30054">
        <ele>658.20001220703</ele>
        <time>2012-09-09T11:03:56.000Z</time>
      </trkpt>
      <trkpt lat="43.93676" lon="7.30037">
        <ele>662</ele>
        <time>2012-09-09T11:04:01.000Z</time>
      </trkpt>
      <trkpt lat="43.93677" lon="7.30029">
        <ele>661.20001220703</ele>
        <time>2012-09-09T11:04:03.000Z</time>
      </trkpt>
      <trkpt lat="43.93683" lon="7.30017">
        <ele>656.59997558594</ele>
        <time>2012-09-09T11:04:05.000Z</time>
      </trkpt>
      <trkpt lat="43.93711" lon="7.30002">
        <ele>637.40002441406</ele>
        <time>2012-09-09T11:04:08.000Z</time>
      </trkpt>
      <trkpt lat="43.93721" lon="7.29996">
        <ele>631</ele>
        <time>2012-09-09T11:04:09.000Z</time>
      </trkpt>
      <trkpt lat="43.93721" lon="7.29996">
        <ele>631</ele>
        <time>2012-09-09T11:04:09.000Z</time>
      </trkpt>
      <trkpt lat="43.93734" lon="7.29981">
        <ele>623.20001220703</ele>
        <time>2012-09-09T11:04:12.000Z</time>
      </trkpt>
      <trkpt lat="43.93735" lon="7.29962">
        <ele>623</ele>
        <time>2012-09-09T11:04:16.000Z</time>
      </trkpt>
      <trkpt lat="43.93745" lon="7.29938">
        <ele>617.59997558594</ele>
        <time>2012-09-09T11:04:21.000Z</time>
      </trkpt>
      <trkpt lat="43.93744" lon="7.29934">
        <ele>618</ele>
        <time>2012-09-09T11:04:22.000Z</time>
      </trkpt>
      <trkpt lat="43.93751" lon="7.29914">
        <ele>614.59997558594</ele>
        <time>2012-09-09T11:04:27.000Z</time>
      </trkpt>
      <trkpt lat="43.93755" lon="7.29897">
        <ele>613.20001220703</ele>
        <time>2012-09-09T11:04:32.000Z</time>
      </trkpt>
      <trkpt lat="43.93755" lon="7.29878">
        <ele>614</ele>
        <time>2012-09-09T11:04:36.000Z</time>
      </trkpt>
      <trkpt lat="43.93752" lon="7.29865">
        <ele>616</ele>
        <time>2012-09-09T11:04:42.000Z</time>
      </trkpt>
      <trkpt lat="43.93748" lon="7.29851">
        <ele>619.40002441406</ele>
        <time>2012-09-09T11:04:46.000Z</time>
      </trkpt>
      <trkpt lat="43.9376" lon="7.29836">
        <ele>612.79998779297</ele>
        <time>2012-09-09T11:04:51.000Z</time>
      </trkpt>
      <trkpt lat="43.93765" lon="7.29825">
        <ele>611.20001220703</ele>
        <time>2012-09-09T11:04:55.000Z</time>
      </trkpt>
      <trkpt lat="43.9377" lon="7.29814">
        <ele>609</ele>
        <time>2012-09-09T11:05:00.000Z</time>
      </trkpt>
      <trkpt lat="43.93769" lon="7.29807">
        <ele>610.40002441406</ele>
        <time>2012-09-09T11:05:05.000Z</time>
      </trkpt>
      <trkpt lat="43.93769" lon="7.29799">
        <ele>611.40002441406</ele>
        <time>2012-09-09T11:05:24.000Z</time>
      </trkpt>
      <trkpt lat="43.93775" lon="7.29797">
        <ele>607.79998779297</ele>
        <time>2012-09-09T11:05:42.000Z</time>
      </trkpt>
      <trkpt lat="43.93784" lon="7.29789">
        <ele>603.79998779297</ele>
        <time>2012-09-09T11:05:47.000Z</time>
      </trkpt>
      <trkpt lat="43.93797" lon="7.29776">
        <ele>598.20001220703</ele>
        <time>2012-09-09T11:05:52.000Z</time>
      </trkpt>
      <trkpt lat="43.93807" lon="7.29764">
        <ele>594.79998779297</ele>
        <time>2012-09-09T11:05:56.000Z</time>
      </trkpt>
      <trkpt lat="43.93822" lon="7.29753">
        <ele>588.59997558594</ele>
        <time>2012-09-09T11:06:01.000Z</time>
      </trkpt>
      <trkpt lat="43.93831" lon="7.2974">
        <ele>585.20001220703</ele>
        <time>2012-09-09T11:06:05.000Z</time>
      </trkpt>
      <trkpt lat="43.9383" lon="7.29735">
        <ele>586.20001220703</ele>
        <time>2012-09-09T11:06:08.000Z</time>
      </trkpt>
      <trkpt lat="43.93828" lon="7.29727">
        <ele>588</ele>
        <time>2012-09-09T11:06:12.000Z</time>
      </trkpt>
      <trkpt lat="43.93828" lon="7.2972">
        <ele>589.20001220703</ele>
        <time>2012-09-09T11:06:18.000Z</time>
      </trkpt>
      <trkpt lat="43.93826" lon="7.29717">
        <ele>590.79998779297</ele>
        <time>2012-09-09T11:06:20.000Z</time>
      </trkpt>
      <trkpt lat="43.93822" lon="7.29705">
        <ele>594</ele>
        <time>2012-09-09T11:06:23.000Z</time>
      </trkpt>
      <trkpt lat="43.93841" lon="7.29687">
        <ele>586</ele>
        <time>2012-09-09T11:06:28.000Z</time>
      </trkpt>
      <trkpt lat="43.93852" lon="7.29672">
        <ele>582.59997558594</ele>
        <time>2012-09-09T11:06:31.000Z</time>
      </trkpt>
      <trkpt lat="43.9386" lon="7.29663">
        <ele>580.40002441406</ele>
        <time>2012-09-09T11:06:33.000Z</time>
      </trkpt>
      <trkpt lat="43.93866" lon="7.29659">
        <ele>578</ele>
        <time>2012-09-09T11:06:37.000Z</time>
      </trkpt>
      <trkpt lat="43.93867" lon="7.29659">
        <ele>577.59997558594</ele>
        <time>2012-09-09T11:06:38.000Z</time>
      </trkpt>
      <trkpt lat="43.93871" lon="7.29656">
        <ele>576</ele>
        <time>2012-09-09T11:06:42.000Z</time>
      </trkpt>
      <trkpt lat="43.93873" lon="7.2965">
        <ele>575.20001220703</ele>
        <time>2012-09-09T11:06:51.000Z</time>
      </trkpt>
      <trkpt lat="43.93887" lon="7.29639">
        <ele>570.20001220703</ele>
        <time>2012-09-09T11:06:57.000Z</time>
      </trkpt>
      <trkpt lat="43.93889" lon="7.29637">
        <ele>569.40002441406</ele>
        <time>2012-09-09T11:06:59.000Z</time>
      </trkpt>
      <trkpt lat="43.93898" lon="7.29635">
        <ele>565.59997558594</ele>
        <time>2012-09-09T11:07:13.000Z</time>
      </trkpt>
      <trkpt lat="43.93902" lon="7.29634">
        <ele>564</ele>
        <time>2012-09-09T11:07:16.000Z</time>
      </trkpt>
      <trkpt lat="43.93904" lon="7.29632">
        <ele>563</ele>
        <time>2012-09-09T11:07:18.000Z</time>
      </trkpt>
      <trkpt lat="43.93913" lon="7.29621">
        <ele>560.20001220703</ele>
        <time>2012-09-09T11:07:23.000Z</time>
      </trkpt>
      <trkpt lat="43.93918" lon="7.29619">
        <ele>557.59997558594</ele>
        <time>2012-09-09T11:07:25.000Z</time>
      </trkpt>
      <trkpt lat="43.93924" lon="7.29617">
        <ele>554.20001220703</ele>
        <time>2012-09-09T11:07:27.000Z</time>
      </trkpt>
      <trkpt lat="43.93931" lon="7.29607">
        <ele>550.79998779297</ele>
        <time>2012-09-09T11:07:32.000Z</time>
      </trkpt>
      <trkpt lat="43.93933" lon="7.29601">
        <ele>550.20001220703</ele>
        <time>2012-09-09T11:07:36.000Z</time>
      </trkpt>
      <trkpt lat="43.93936" lon="7.29592">
        <ele>548.59997558594</ele>
        <time>2012-09-09T11:07:41.000Z</time>
      </trkpt>
      <trkpt lat="43.93952" lon="7.29577">
        <ele>538.20001220703</ele>
        <time>2012-09-09T11:07:46.000Z</time>
      </trkpt>
      <trkpt lat="43.93957" lon="7.2957">
        <ele>534</ele>
        <time>2012-09-09T11:07:48.000Z</time>
      </trkpt>
      <trkpt lat="43.93956" lon="7.29565">
        <ele>533.59997558594</ele>
        <time>2012-09-09T11:07:54.000Z</time>
      </trkpt>
      <trkpt lat="43.93956" lon="7.29562">
        <ele>533.20001220703</ele>
        <time>2012-09-09T11:07:57.000Z</time>
      </trkpt>
      <trkpt lat="43.93958" lon="7.2955">
        <ele>530</ele>
        <time>2012-09-09T11:08:02.000Z</time>
      </trkpt>
      <trkpt lat="43.93954" lon="7.29541">
        <ele>531</ele>
        <time>2012-09-09T11:08:07.000Z</time>
      </trkpt>
      <trkpt lat="43.93947" lon="7.29537">
        <ele>534.20001220703</ele>
        <time>2012-09-09T11:08:11.000Z</time>
      </trkpt>
      <trkpt lat="43.93944" lon="7.29533">
        <ele>535</ele>
        <time>2012-09-09T11:08:18.000Z</time>
      </trkpt>
      <trkpt lat="43.93943" lon="7.29528">
        <ele>535</ele>
        <time>2012-09-09T11:08:24.000Z</time>
      </trkpt>
      <trkpt lat="43.93943" lon="7.29527">
        <ele>534.59997558594</ele>
        <time>2012-09-09T11:08:26.000Z</time>
      </trkpt>
      <trkpt lat="43.93942" lon="7.29519">
        <ele>533.59997558594</ele>
        <time>2012-09-09T11:08:32.000Z</time>
      </trkpt>
      <trkpt lat="43.93942" lon="7.29516">
        <ele>533.40002441406</ele>
        <time>2012-09-09T11:08:33.000Z</time>
      </trkpt>
      <trkpt lat="43.93943" lon="7.29492">
        <ele>528.79998779297</ele>
        <time>2012-09-09T11:08:38.000Z</time>
      </trkpt>
      <trkpt lat="43.93941" lon="7.29472">
        <ele>527.59997558594</ele>
        <time>2012-09-09T11:08:44.000Z</time>
      </trkpt>
      <trkpt lat="43.93951" lon="7.29453">
        <ele>518.79998779297</ele>
        <time>2012-09-09T11:08:49.000Z</time>
      </trkpt>
      <trkpt lat="43.93952" lon="7.29437">
        <ele>516.59997558594</ele>
        <time>2012-09-09T11:08:54.000Z</time>
      </trkpt>
      <trkpt lat="43.93934" lon="7.29424">
        <ele>525.59997558594</ele>
        <time>2012-09-09T11:09:00.000Z</time>
      </trkpt>
      <trkpt lat="43.93921" lon="7.29398">
        <ele>535.79998779297</ele>
        <time>2012-09-09T11:09:29.000Z</time>
      </trkpt>
      <trkpt lat="43.93921" lon="7.29387">
        <ele>537.79998779297</ele>
        <time>2012-09-09T11:09:36.000Z</time>
      </trkpt>
      <trkpt lat="43.93922" lon="7.29378">
        <ele>539</ele>
        <time>2012-09-09T11:09:40.000Z</time>
      </trkpt>
      <trkpt lat="43.93922" lon="7.29375">
        <ele>539.40002441406</ele>
        <time>2012-09-09T11:09:42.000Z</time>
      </trkpt>
      <trkpt lat="43.93923" lon="7.29362">
        <ele>541.40002441406</ele>
        <time>2012-09-09T11:09:48.000Z</time>
      </trkpt>
      <trkpt lat="43.93925" lon="7.29358">
        <ele>540.79998779297</ele>
        <time>2012-09-09T11:09:52.000Z</time>
      </trkpt>
      <trkpt lat="43.9393" lon="7.29344">
        <ele>539.20001220703</ele>
        <time>2012-09-09T11:10:03.000Z</time>
      </trkpt>
      <trkpt lat="43.93932" lon="7.29337">
        <ele>539.40002441406</ele>
        <time>2012-09-09T11:10:07.000Z</time>
      </trkpt>
      <trkpt lat="43.93936" lon="7.29326">
        <ele>540.59997558594</ele>
        <time>2012-09-09T11:10:12.000Z</time>
      </trkpt>
      <trkpt lat="43.93937" lon="7.29322">
        <ele>541.40002441406</ele>
        <time>2012-09-09T11:10:13.000Z</time>
      </trkpt>
      <trkpt lat="43.93942" lon="7.29297">
        <ele>549.20001220703</ele>
        <time>2012-09-09T11:10:19.000Z</time>
      </trkpt>
      <trkpt lat="43.93946" lon="7.29293">
        <ele>548.59997558594</ele>
        <time>2012-09-09T11:10:20.000Z</time>
      </trkpt>
      <trkpt lat="43.93956" lon="7.29281">
        <ele>547.40002441406</ele>
        <time>2012-09-09T11:10:25.000Z</time>
      </trkpt>
      <trkpt lat="43.93961" lon="7.29272">
        <ele>547</ele>
        <time>2012-09-09T11:10:31.000Z</time>
      </trkpt>
      <trkpt lat="43.93962" lon="7.29265">
        <ele>550</ele>
        <time>2012-09-09T11:10:41.000Z</time>
      </trkpt>
      <trkpt lat="43.93964" lon="7.29263">
        <ele>549.20001220703</ele>
        <time>2012-09-09T11:10:44.000Z</time>
      </trkpt>
      <trkpt lat="43.93965" lon="7.29262">
        <ele>549.40002441406</ele>
        <time>2012-09-09T11:10:46.000Z</time>
      </trkpt>
      <trkpt lat="43.93969" lon="7.29258">
        <ele>547.59997558594</ele>
        <time>2012-09-09T11:10:50.000Z</time>
      </trkpt>
      <trkpt lat="43.93983" lon="7.2924">
        <ele>547.20001220703</ele>
        <time>2012-09-09T11:10:56.000Z</time>
      </trkpt>
      <trkpt lat="43.9399" lon="7.29231">
        <ele>547.20001220703</ele>
        <time>2012-09-09T11:10:59.000Z</time>
      </trkpt>
      <trkpt lat="43.93992" lon="7.2922">
        <ele>552.40002441406</ele>
        <time>2012-09-09T11:11:04.000Z</time>
      </trkpt>
      <trkpt lat="43.94001" lon="7.29215">
        <ele>549.59997558594</ele>
        <time>2012-09-09T11:11:11.000Z</time>
      </trkpt>
      <trkpt lat="43.94011" lon="7.2921">
        <ele>546.20001220703</ele>
        <time>2012-09-09T11:11:17.000Z</time>
      </trkpt>
      <trkpt lat="43.94007" lon="7.29222">
        <ele>541.79998779297</ele>
        <time>2012-09-09T11:11:48.000Z</time>
      </trkpt>
      <trkpt lat="43.94009" lon="7.29225">
        <ele>538.20001220703</ele>
        <time>2012-09-09T11:11:52.000Z</time>
      </trkpt>
      <trkpt lat="43.94013" lon="7.29233">
        <ele>531.20001220703</ele>
        <time>2012-09-09T11:11:58.000Z</time>
      </trkpt>
      <trkpt lat="43.94017" lon="7.2923">
        <ele>531</ele>
        <time>2012-09-09T11:12:02.000Z</time>
      </trkpt>
      <trkpt lat="43.94019" lon="7.29224">
        <ele>533</ele>
        <time>2012-09-09T11:12:04.000Z</time>
      </trkpt>
      <trkpt lat="43.94027" lon="7.29216">
        <ele>533</ele>
        <time>2012-09-09T11:12:09.000Z</time>
      </trkpt>
      <trkpt lat="43.94037" lon="7.29216">
        <ele>526.79998779297</ele>
        <time>2012-09-09T11:12:15.000Z</time>
      </trkpt>
      <trkpt lat="43.9405" lon="7.29219">
        <ele>518.20001220703</ele>
        <time>2012-09-09T11:12:20.000Z</time>
      </trkpt>
      <trkpt lat="43.94052" lon="7.29218">
        <ele>516.79998779297</ele>
        <time>2012-09-09T11:12:22.000Z</time>
      </trkpt>
      <trkpt lat="43.94056" lon="7.29215">
        <ele>515.79998779297</ele>
        <time>2012-09-09T11:12:25.000Z</time>
      </trkpt>
      <trkpt lat="43.94069" lon="7.29207">
        <ele>511.60000610352</ele>
        <time>2012-09-09T11:12:30.000Z</time>
      </trkpt>
      <trkpt lat="43.94077" lon="7.29206">
        <ele>507</ele>
        <time>2012-09-09T11:12:33.000Z</time>
      </trkpt>
      <trkpt lat="43.94087" lon="7.29202">
        <ele>500.60000610352</ele>
        <time>2012-09-09T11:12:38.000Z</time>
      </trkpt>
      <trkpt lat="43.94094" lon="7.29206">
        <ele>492.79998779297</ele>
        <time>2012-09-09T11:12:44.000Z</time>
      </trkpt>
      <trkpt lat="43.94098" lon="7.29195">
        <ele>493.20001220703</ele>
        <time>2012-09-09T11:12:51.000Z</time>
      </trkpt>
      <trkpt lat="43.94104" lon="7.29188">
        <ele>490.20001220703</ele>
        <time>2012-09-09T11:13:03.000Z</time>
      </trkpt>
      <trkpt lat="43.94105" lon="7.29172">
        <ele>495.39999389648</ele>
        <time>2012-09-09T11:13:09.000Z</time>
      </trkpt>
      <trkpt lat="43.94104" lon="7.29161">
        <ele>500</ele>
        <time>2012-09-09T11:13:13.000Z</time>
      </trkpt>
      <trkpt lat="43.94105" lon="7.29153">
        <ele>502.79998779297</ele>
        <time>2012-09-09T11:13:24.000Z</time>
      </trkpt>
      <trkpt lat="43.94107" lon="7.29146">
        <ele>504.20001220703</ele>
        <time>2012-09-09T11:13:28.000Z</time>
      </trkpt>
      <trkpt lat="43.94105" lon="7.29126">
        <ele>515.59997558594</ele>
        <time>2012-09-09T11:13:34.000Z</time>
      </trkpt>
      <trkpt lat="43.94109" lon="7.29112">
        <ele>518</ele>
        <time>2012-09-09T11:13:38.000Z</time>
      </trkpt>
      <trkpt lat="43.9411" lon="7.29101">
        <ele>521.79998779297</ele>
        <time>2012-09-09T11:13:43.000Z</time>
      </trkpt>
      <trkpt lat="43.94116" lon="7.29085">
        <ele>524</ele>
        <time>2012-09-09T11:13:49.000Z</time>
      </trkpt>
      <trkpt lat="43.94117" lon="7.29068">
        <ele>526.79998779297</ele>
        <time>2012-09-09T11:13:55.000Z</time>
      </trkpt>
      <trkpt lat="43.94118" lon="7.29066">
        <ele>526.20001220703</ele>
        <time>2012-09-09T11:13:56.000Z</time>
      </trkpt>
      <trkpt lat="43.94121" lon="7.29054">
        <ele>526.40002441406</ele>
        <time>2012-09-09T11:14:01.000Z</time>
      </trkpt>
      <trkpt lat="43.94118" lon="7.29045">
        <ele>530.79998779297</ele>
        <time>2012-09-09T11:14:05.000Z</time>
      </trkpt>
      <trkpt lat="43.94118" lon="7.29042">
        <ele>532</ele>
        <time>2012-09-09T11:14:06.000Z</time>
      </trkpt>
      <trkpt lat="43.94118" lon="7.29027">
        <ele>535.59997558594</ele>
        <time>2012-09-09T11:14:11.000Z</time>
      </trkpt>
      <trkpt lat="43.94127" lon="7.29015">
        <ele>530.79998779297</ele>
        <time>2012-09-09T11:14:15.000Z</time>
      </trkpt>
      <trkpt lat="43.94128" lon="7.28999">
        <ele>533.20001220703</ele>
        <time>2012-09-09T11:14:22.000Z</time>
      </trkpt>
      <trkpt lat="43.94127" lon="7.28996">
        <ele>534.20001220703</ele>
        <time>2012-09-09T11:14:24.000Z</time>
      </trkpt>
      <trkpt lat="43.94124" lon="7.28992">
        <ele>535.79998779297</ele>
        <time>2012-09-09T11:14:26.000Z</time>
      </trkpt>
      <trkpt lat="43.94122" lon="7.28986">
        <ele>536.59997558594</ele>
        <time>2012-09-09T11:14:31.000Z</time>
      </trkpt>
      <trkpt lat="43.94121" lon="7.28979">
        <ele>536.59997558594</ele>
        <time>2012-09-09T11:14:37.000Z</time>
      </trkpt>
      <trkpt lat="43.94125" lon="7.28967">
        <ele>533</ele>
        <time>2012-09-09T11:14:47.000Z</time>
      </trkpt>
      <trkpt lat="43.94131" lon="7.28966">
        <ele>528.59997558594</ele>
        <time>2012-09-09T11:14:52.000Z</time>
      </trkpt>
      <trkpt lat="43.9414" lon="7.28968">
        <ele>523</ele>
        <time>2012-09-09T11:14:57.000Z</time>
      </trkpt>
      <trkpt lat="43.94144" lon="7.28967">
        <ele>520.59997558594</ele>
        <time>2012-09-09T11:15:04.000Z</time>
      </trkpt>
      <trkpt lat="43.94139" lon="7.28962">
        <ele>523.40002441406</ele>
        <time>2012-09-09T11:15:10.000Z</time>
      </trkpt>
      <trkpt lat="43.94149" lon="7.28954">
        <ele>517.79998779297</ele>
        <time>2012-09-09T11:15:19.000Z</time>
      </trkpt>
      <trkpt lat="43.94149" lon="7.2895">
        <ele>517.40002441406</ele>
        <time>2012-09-09T11:15:23.000Z</time>
      </trkpt>
      <trkpt lat="43.94149" lon="7.28947">
        <ele>517.79998779297</ele>
        <time>2012-09-09T11:15:28.000Z</time>
      </trkpt>
      <trkpt lat="43.94153" lon="7.28946">
        <ele>515.79998779297</ele>
        <time>2012-09-09T11:15:34.000Z</time>
      </trkpt>
      <trkpt lat="43.94154" lon="7.28943">
        <ele>515</ele>
        <time>2012-09-09T11:15:36.000Z</time>
      </trkpt>
      <trkpt lat="43.94156" lon="7.28939">
        <ele>514.40002441406</ele>
        <time>2012-09-09T11:15:38.000Z</time>
      </trkpt>
      <trkpt lat="43.94169" lon="7.28934">
        <ele>508</ele>
        <time>2012-09-09T11:15:42.000Z</time>
      </trkpt>
      <trkpt lat="43.94179" lon="7.2893">
        <ele>500.60000610352</ele>
        <time>2012-09-09T11:15:48.000Z</time>
      </trkpt>
      <trkpt lat="43.94185" lon="7.28929">
        <ele>496.39999389648</ele>
        <time>2012-09-09T11:15:51.000Z</time>
      </trkpt>
      <trkpt lat="43.94187" lon="7.28927">
        <ele>495.39999389648</ele>
        <time>2012-09-09T11:15:53.000Z</time>
      </trkpt>
      <trkpt lat="43.94197" lon="7.28926">
        <ele>488.60000610352</ele>
        <time>2012-09-09T11:15:59.000Z</time>
      </trkpt>
      <trkpt lat="43.94204" lon="7.28926">
        <ele>483</ele>
        <time>2012-09-09T11:16:03.000Z</time>
      </trkpt>
      <trkpt lat="43.942" lon="7.28917">
        <ele>487.20001220703</ele>
        <time>2012-09-09T11:16:10.000Z</time>
      </trkpt>
      <trkpt lat="43.94195" lon="7.28913">
        <ele>489.39999389648</ele>
        <time>2012-09-09T11:16:16.000Z</time>
      </trkpt>
      <trkpt lat="43.94192" lon="7.28908">
        <ele>489.79998779297</ele>
        <time>2012-09-09T11:16:28.000Z</time>
      </trkpt>
      <trkpt lat="43.94188" lon="7.289">
        <ele>490</ele>
        <time>2012-09-09T11:16:35.000Z</time>
      </trkpt>
      <trkpt lat="43.94186" lon="7.28897">
        <ele>490.39999389648</ele>
        <time>2012-09-09T11:16:43.000Z</time>
      </trkpt>
      <trkpt lat="43.94183" lon="7.28894">
        <ele>491.39999389648</ele>
        <time>2012-09-09T11:16:47.000Z</time>
      </trkpt>
      <trkpt lat="43.94184" lon="7.28892">
        <ele>490</ele>
        <time>2012-09-09T11:16:51.000Z</time>
      </trkpt>
      <trkpt lat="43.94188" lon="7.28892">
        <ele>487.39999389648</ele>
        <time>2012-09-09T11:16:56.000Z</time>
      </trkpt>
      <trkpt lat="43.94185" lon="7.28889">
        <ele>488.20001220703</ele>
        <time>2012-09-09T11:17:12.000Z</time>
      </trkpt>
      <trkpt lat="43.94182" lon="7.28886">
        <ele>489.20001220703</ele>
        <time>2012-09-09T11:17:18.000Z</time>
      </trkpt>
      <trkpt lat="43.94179" lon="7.28887">
        <ele>491.20001220703</ele>
        <time>2012-09-09T11:17:32.000Z</time>
      </trkpt>
      <trkpt lat="43.94176" lon="7.28879">
        <ele>490</ele>
        <time>2012-09-09T11:17:39.000Z</time>
      </trkpt>
      <trkpt lat="43.94176" lon="7.28878">
        <ele>490.20001220703</ele>
        <time>2012-09-09T11:17:41.000Z</time>
      </trkpt>
      <trkpt lat="43.94163" lon="7.28871">
        <ele>493.39999389648</ele>
        <time>2012-09-09T11:17:47.000Z</time>
      </trkpt>
      <trkpt lat="43.94166" lon="7.28868">
        <ele>491.60000610352</ele>
        <time>2012-09-09T11:17:54.000Z</time>
      </trkpt>
      <trkpt lat="43.94172" lon="7.28868">
        <ele>488.20001220703</ele>
        <time>2012-09-09T11:18:01.000Z</time>
      </trkpt>
      <trkpt lat="43.94169" lon="7.28867">
        <ele>489.60000610352</ele>
        <time>2012-09-09T11:18:07.000Z</time>
      </trkpt>
      <trkpt lat="43.94161" lon="7.28858">
        <ele>489</ele>
        <time>2012-09-09T11:18:13.000Z</time>
      </trkpt>
      <trkpt lat="43.94155" lon="7.28851">
        <ele>487.39999389648</ele>
        <time>2012-09-09T11:18:18.000Z</time>
      </trkpt>
      <trkpt lat="43.94151" lon="7.28842">
        <ele>485</ele>
        <time>2012-09-09T11:18:33.000Z</time>
      </trkpt>
      <trkpt lat="43.94147" lon="7.28841">
        <ele>485.39999389648</ele>
        <time>2012-09-09T11:18:47.000Z</time>
      </trkpt>
      <trkpt lat="43.94141" lon="7.28837">
        <ele>485.20001220703</ele>
        <time>2012-09-09T11:18:52.000Z</time>
      </trkpt>
      <trkpt lat="43.94132" lon="7.28833">
        <ele>485.79998779297</ele>
        <time>2012-09-09T11:18:57.000Z</time>
      </trkpt>
      <trkpt lat="43.94117" lon="7.28818">
        <ele>481.60000610352</ele>
        <time>2012-09-09T11:19:03.000Z</time>
      </trkpt>
      <trkpt lat="43.9411" lon="7.28801">
        <ele>473.79998779297</ele>
        <time>2012-09-09T11:19:08.000Z</time>
      </trkpt>
      <trkpt lat="43.94104" lon="7.28795">
        <ele>472.39999389648</ele>
        <time>2012-09-09T11:19:14.000Z</time>
      </trkpt>
      <trkpt lat="43.941" lon="7.28788">
        <ele>469.39999389648</ele>
        <time>2012-09-09T11:19:19.000Z</time>
      </trkpt>
      <trkpt lat="43.94092" lon="7.28779">
        <ele>466.60000610352</ele>
        <time>2012-09-09T11:19:24.000Z</time>
      </trkpt>
      <trkpt lat="43.94095" lon="7.28777">
        <ele>465</ele>
        <time>2012-09-09T11:19:28.000Z</time>
      </trkpt>
      <trkpt lat="43.94096" lon="7.28777">
        <ele>464.60000610352</ele>
        <time>2012-09-09T11:19:29.000Z</time>
      </trkpt>
      <trkpt lat="43.941" lon="7.28776">
        <ele>462.79998779297</ele>
        <time>2012-09-09T11:19:32.000Z</time>
      </trkpt>
      <trkpt lat="43.94105" lon="7.28774">
        <ele>460.79998779297</ele>
        <time>2012-09-09T11:19:38.000Z</time>
      </trkpt>
      <trkpt lat="43.94109" lon="7.28773">
        <ele>459.39999389648</ele>
        <time>2012-09-09T11:19:44.000Z</time>
      </trkpt>
      <trkpt lat="43.94112" lon="7.28773">
        <ele>458.60000610352</ele>
        <time>2012-09-09T11:19:46.000Z</time>
      </trkpt>
      <trkpt lat="43.94122" lon="7.28778">
        <ele>459.20001220703</ele>
        <time>2012-09-09T11:19:51.000Z</time>
      </trkpt>
      <trkpt lat="43.9413" lon="7.28783">
        <ele>460</ele>
        <time>2012-09-09T11:19:53.000Z</time>
      </trkpt>
      <trkpt lat="43.94145" lon="7.28782">
        <ele>455.60000610352</ele>
        <time>2012-09-09T11:19:58.000Z</time>
      </trkpt>
      <trkpt lat="43.94149" lon="7.28778">
        <ele>452.39999389648</ele>
        <time>2012-09-09T11:20:02.000Z</time>
      </trkpt>
      <trkpt lat="43.94158" lon="7.28769">
        <ele>446.20001220703</ele>
        <time>2012-09-09T11:20:07.000Z</time>
      </trkpt>
      <trkpt lat="43.94155" lon="7.28767">
        <ele>445.20001220703</ele>
        <time>2012-09-09T11:20:10.000Z</time>
      </trkpt>
      <trkpt lat="43.94144" lon="7.28763">
        <ele>445.79998779297</ele>
        <time>2012-09-09T11:20:15.000Z</time>
      </trkpt>
      <trkpt lat="43.94132" lon="7.28755">
        <ele>444.20001220703</ele>
        <time>2012-09-09T11:20:21.000Z</time>
      </trkpt>
      <trkpt lat="43.94125" lon="7.28749">
        <ele>443.20001220703</ele>
        <time>2012-09-09T11:20:26.000Z</time>
      </trkpt>
      <trkpt lat="43.94117" lon="7.28742">
        <ele>441.20001220703</ele>
        <time>2012-09-09T11:20:31.000Z</time>
      </trkpt>
      <trkpt lat="43.94113" lon="7.28735">
        <ele>439</ele>
        <time>2012-09-09T11:20:36.000Z</time>
      </trkpt>
      <trkpt lat="43.94106" lon="7.28729">
        <ele>437.39999389648</ele>
        <time>2012-09-09T11:20:40.000Z</time>
      </trkpt>
      <trkpt lat="43.94107" lon="7.28725">
        <ele>435.20001220703</ele>
        <time>2012-09-09T11:20:47.000Z</time>
      </trkpt>
      <trkpt lat="43.94109" lon="7.2872">
        <ele>432</ele>
        <time>2012-09-09T11:20:59.000Z</time>
      </trkpt>
      <trkpt lat="43.94112" lon="7.2872">
        <ele>431.39999389648</ele>
        <time>2012-09-09T11:21:04.000Z</time>
      </trkpt>
      <trkpt lat="43.94107" lon="7.28714">
        <ele>429.79998779297</ele>
        <time>2012-09-09T11:21:15.000Z</time>
      </trkpt>
      <trkpt lat="43.941" lon="7.28706">
        <ele>427</ele>
        <time>2012-09-09T11:21:21.000Z</time>
      </trkpt>
      <trkpt lat="43.94093" lon="7.28704">
        <ele>427.39999389648</ele>
        <time>2012-09-09T11:21:25.000Z</time>
      </trkpt>
      <trkpt lat="43.94089" lon="7.28698">
        <ele>425</ele>
        <time>2012-09-09T11:21:30.000Z</time>
      </trkpt>
      <trkpt lat="43.94089" lon="7.28697">
        <ele>424.39999389648</ele>
        <time>2012-09-09T11:21:31.000Z</time>
      </trkpt>
      <trkpt lat="43.94094" lon="7.2869">
        <ele>419.79998779297</ele>
        <time>2012-09-09T11:21:38.000Z</time>
      </trkpt>
      <trkpt lat="43.941" lon="7.28683">
        <ele>415.20001220703</ele>
        <time>2012-09-09T11:21:44.000Z</time>
      </trkpt>
      <trkpt lat="43.94099" lon="7.28681">
        <ele>414.60000610352</ele>
        <time>2012-09-09T11:21:48.000Z</time>
      </trkpt>
      <trkpt lat="43.94089" lon="7.28673">
        <ele>412.20001220703</ele>
        <time>2012-09-09T11:21:53.000Z</time>
      </trkpt>
      <trkpt lat="43.94092" lon="7.28666">
        <ele>408.20001220703</ele>
        <time>2012-09-09T11:21:59.000Z</time>
      </trkpt>
      <trkpt lat="43.94091" lon="7.2866">
        <ele>406.79998779297</ele>
        <time>2012-09-09T11:22:04.000Z</time>
      </trkpt>
      <trkpt lat="43.94084" lon="7.28652">
        <ele>406</ele>
        <time>2012-09-09T11:22:09.000Z</time>
      </trkpt>
      <trkpt lat="43.94086" lon="7.28635">
        <ele>401.60000610352</ele>
        <time>2012-09-09T11:22:34.000Z</time>
      </trkpt>
      <trkpt lat="43.94088" lon="7.28619">
        <ele>397.20001220703</ele>
        <time>2012-09-09T11:22:40.000Z</time>
      </trkpt>
      <trkpt lat="43.94088" lon="7.28606">
        <ele>394.20001220703</ele>
        <time>2012-09-09T11:22:43.000Z</time>
      </trkpt>
      <trkpt lat="43.94091" lon="7.28601">
        <ele>392.39999389648</ele>
        <time>2012-09-09T11:22:48.000Z</time>
      </trkpt>
      <trkpt lat="43.94092" lon="7.28602">
        <ele>392.39999389648</ele>
        <time>2012-09-09T11:22:51.000Z</time>
      </trkpt>
      <trkpt lat="43.94094" lon="7.28584">
        <ele>387.60000610352</ele>
        <time>2012-09-09T11:22:57.000Z</time>
      </trkpt>
      <trkpt lat="43.94092" lon="7.28571">
        <ele>385.39999389648</ele>
        <time>2012-09-09T11:23:02.000Z</time>
      </trkpt>
      <trkpt lat="43.94091" lon="7.28553">
        <ele>382</ele>
        <time>2012-09-09T11:23:05.000Z</time>
      </trkpt>
      <trkpt lat="43.94088" lon="7.28527">
        <ele>377.20001220703</ele>
        <time>2012-09-09T11:23:10.000Z</time>
      </trkpt>
      <trkpt lat="43.94088" lon="7.28505">
        <ele>373</ele>
        <time>2012-09-09T11:23:15.000Z</time>
      </trkpt>
      <trkpt lat="43.94085" lon="7.28481">
        <ele>368</ele>
        <time>2012-09-09T11:23:19.000Z</time>
      </trkpt>
      <trkpt lat="43.94089" lon="7.28459">
        <ele>363.60000610352</ele>
        <time>2012-09-09T11:23:23.000Z</time>
      </trkpt>
      <trkpt lat="43.94089" lon="7.28445">
        <ele>360.79998779297</ele>
        <time>2012-09-09T11:23:25.000Z</time>
      </trkpt>
      <trkpt lat="43.94089" lon="7.2843">
        <ele>357.79998779297</ele>
        <time>2012-09-09T11:23:29.000Z</time>
      </trkpt>
      <trkpt lat="43.94086" lon="7.28418">
        <ele>355.39999389648</ele>
        <time>2012-09-09T11:23:34.000Z</time>
      </trkpt>
      <trkpt lat="43.94084" lon="7.28408">
        <ele>353.39999389648</ele>
        <time>2012-09-09T11:23:38.000Z</time>
      </trkpt>
      <trkpt lat="43.94076" lon="7.28405">
        <ele>353.20001220703</ele>
        <time>2012-09-09T11:23:42.000Z</time>
      </trkpt>
      <trkpt lat="43.94073" lon="7.28394">
        <ele>351.39999389648</ele>
        <time>2012-09-09T11:23:46.000Z</time>
      </trkpt>
      <trkpt lat="43.94081" lon="7.28381">
        <ele>348.39999389648</ele>
        <time>2012-09-09T11:23:50.000Z</time>
      </trkpt>
      <trkpt lat="43.94101" lon="7.28372">
        <ele>346.79998779297</ele>
        <time>2012-09-09T11:23:55.000Z</time>
      </trkpt>
      <trkpt lat="43.94104" lon="7.2837">
        <ele>346.39999389648</ele>
        <time>2012-09-09T11:23:56.000Z</time>
      </trkpt>
      <trkpt lat="43.94118" lon="7.28359">
        <ele>344.20001220703</ele>
        <time>2012-09-09T11:24:00.000Z</time>
      </trkpt>
      <trkpt lat="43.94123" lon="7.2835">
        <ele>342.39999389648</ele>
        <time>2012-09-09T11:24:05.000Z</time>
      </trkpt>
      <trkpt lat="43.94129" lon="7.28348">
        <ele>342</ele>
        <time>2012-09-09T11:24:08.000Z</time>
      </trkpt>
      <trkpt lat="43.94141" lon="7.2834">
        <ele>340.60000610352</ele>
        <time>2012-09-09T11:24:13.000Z</time>
      </trkpt>
      <trkpt lat="43.94158" lon="7.28336">
        <ele>339.60000610352</ele>
        <time>2012-09-09T11:24:18.000Z</time>
      </trkpt>
      <trkpt lat="43.9417" lon="7.28325">
        <ele>339</ele>
        <time>2012-09-09T11:24:23.000Z</time>
      </trkpt>
      <trkpt lat="43.94185" lon="7.28315">
        <ele>339.79998779297</ele>
        <time>2012-09-09T11:24:28.000Z</time>
      </trkpt>
      <trkpt lat="43.94201" lon="7.28305">
        <ele>340.60000610352</ele>
        <time>2012-09-09T11:24:33.000Z</time>
      </trkpt>
      <trkpt lat="43.94217" lon="7.2829">
        <ele>341.39999389648</ele>
        <time>2012-09-09T11:24:39.000Z</time>
      </trkpt>
      <trkpt lat="43.94237" lon="7.28273">
        <ele>342.39999389648</ele>
        <time>2012-09-09T11:24:45.000Z</time>
      </trkpt>
      <trkpt lat="43.94255" lon="7.28275">
        <ele>343.39999389648</ele>
        <time>2012-09-09T11:24:49.000Z</time>
      </trkpt>
      <trkpt lat="43.94273" lon="7.28279">
        <ele>343.60000610352</ele>
        <time>2012-09-09T11:24:53.000Z</time>
      </trkpt>
      <trkpt lat="43.9428" lon="7.2828">
        <ele>343.79998779297</ele>
        <time>2012-09-09T11:24:58.000Z</time>
      </trkpt>
      <trkpt lat="43.9428" lon="7.28282">
        <ele>343.79998779297</ele>
        <time>2012-09-09T11:25:14.000Z</time>
      </trkpt>
    </trkseg>
  </trk>
</gpx>